<?xml version="1.0" encoding="UTF-8" standalone="no" ?>
<gpx xmlns="http://www.topografix.com/GPX/1/1" xmlns:xsi="http://www.w3.org/2001/XMLSchema-instance" xsi:schemaLocation="http://www.topografix.com/GPX/1/1 http://www.topografix.com/GPX/1/1/gpx.xsd" version="1.1" creator="VisuGPX - https://www.visugpx.com">
  <metadata>
    <name>Conliège-La reculée de Revigny-Vernantois Montaigu-Vatagna</name>
  </metadata>
  <trk>
    <name><![CDATA[Conliège-La reculée de Revigny-Vernantois Montaigu-Vatagna_1]]></name>
    <extensions>
      <line xmlns="http://www.topografix.com/GPX/gpx_style/0/2">
        <color>0000FF</color>
        <width>4</width>
      </line>
    </extensions>
    <trkseg>
      <trkpt lat="46.6526" lon="5.59986">
        <ele>339.7</ele>
        <time>2022-05-03T06:54:36Z</time>
      </trkpt>
      <trkpt lat="46.65261" lon="5.59993">
        <ele>332.9</ele>
        <time>2022-05-03T06:54:42Z</time>
      </trkpt>
      <trkpt lat="46.65263" lon="5.59999">
        <ele>326</ele>
        <time>2022-05-03T06:54:50Z</time>
      </trkpt>
      <trkpt lat="46.6526" lon="5.59994">
        <ele>326.1</ele>
        <time>2022-05-03T06:55:03Z</time>
      </trkpt>
      <trkpt lat="46.65255" lon="5.59991">
        <ele>324.6</ele>
        <time>2022-05-03T06:55:11Z</time>
      </trkpt>
      <trkpt lat="46.65253" lon="5.59997">
        <ele>322.4</ele>
        <time>2022-05-03T06:55:19Z</time>
      </trkpt>
      <trkpt lat="46.65258" lon="5.60003">
        <ele>318</ele>
        <time>2022-05-03T06:55:46Z</time>
      </trkpt>
      <trkpt lat="46.65257" lon="5.6001">
        <ele>317.6</ele>
        <time>2022-05-03T06:55:50Z</time>
      </trkpt>
      <trkpt lat="46.65254" lon="5.60016">
        <ele>317.5</ele>
        <time>2022-05-03T06:55:55Z</time>
      </trkpt>
      <trkpt lat="46.65252" lon="5.60022">
        <ele>318</ele>
        <time>2022-05-03T06:56:01Z</time>
      </trkpt>
      <trkpt lat="46.65249" lon="5.60027">
        <ele>318.2</ele>
        <time>2022-05-03T06:56:15Z</time>
      </trkpt>
      <trkpt lat="46.65247" lon="5.60034">
        <ele>316.4</ele>
        <time>2022-05-03T06:56:22Z</time>
      </trkpt>
      <trkpt lat="46.65243" lon="5.60039">
        <ele>315.3</ele>
        <time>2022-05-03T06:56:49Z</time>
      </trkpt>
      <trkpt lat="46.65239" lon="5.60045">
        <ele>315.2</ele>
        <time>2022-05-03T06:56:53Z</time>
      </trkpt>
      <trkpt lat="46.65234" lon="5.60047">
        <ele>315.4</ele>
        <time>2022-05-03T06:56:57Z</time>
      </trkpt>
      <trkpt lat="46.65229" lon="5.60047">
        <ele>316.4</ele>
        <time>2022-05-03T06:57:02Z</time>
      </trkpt>
      <trkpt lat="46.65225" lon="5.60046">
        <ele>318.5</ele>
        <time>2022-05-03T06:57:09Z</time>
      </trkpt>
      <trkpt lat="46.6522" lon="5.60048">
        <ele>318.8</ele>
        <time>2022-05-03T06:57:15Z</time>
      </trkpt>
      <trkpt lat="46.65216" lon="5.60053">
        <ele>318.7</ele>
        <time>2022-05-03T06:57:21Z</time>
      </trkpt>
      <trkpt lat="46.65212" lon="5.60052">
        <ele>318.1</ele>
        <time>2022-05-03T06:57:26Z</time>
      </trkpt>
      <trkpt lat="46.65208" lon="5.60057">
        <ele>317.5</ele>
        <time>2022-05-03T06:57:30Z</time>
      </trkpt>
      <trkpt lat="46.65207" lon="5.60065">
        <ele>316.5</ele>
        <time>2022-05-03T06:57:35Z</time>
      </trkpt>
      <trkpt lat="46.65205" lon="5.60072">
        <ele>315.6</ele>
        <time>2022-05-03T06:57:38Z</time>
      </trkpt>
      <trkpt lat="46.65202" lon="5.60078">
        <ele>314.5</ele>
        <time>2022-05-03T06:57:42Z</time>
      </trkpt>
      <trkpt lat="46.65196" lon="5.60081">
        <ele>313.5</ele>
        <time>2022-05-03T06:57:47Z</time>
      </trkpt>
      <trkpt lat="46.65191" lon="5.60083">
        <ele>313</ele>
        <time>2022-05-03T06:57:51Z</time>
      </trkpt>
      <trkpt lat="46.65186" lon="5.60084">
        <ele>313</ele>
        <time>2022-05-03T06:57:55Z</time>
      </trkpt>
      <trkpt lat="46.65181" lon="5.60086">
        <ele>313.1</ele>
        <time>2022-05-03T06:58:00Z</time>
      </trkpt>
      <trkpt lat="46.65177" lon="5.6009">
        <ele>313.1</ele>
        <time>2022-05-03T06:58:05Z</time>
      </trkpt>
      <trkpt lat="46.65173" lon="5.60092">
        <ele>313.6</ele>
        <time>2022-05-03T06:58:09Z</time>
      </trkpt>
      <trkpt lat="46.65167" lon="5.60094">
        <ele>314.8</ele>
        <time>2022-05-03T06:58:14Z</time>
      </trkpt>
      <trkpt lat="46.65163" lon="5.60097">
        <ele>316.1</ele>
        <time>2022-05-03T06:58:18Z</time>
      </trkpt>
      <trkpt lat="46.65158" lon="5.60098">
        <ele>316.9</ele>
        <time>2022-05-03T06:58:22Z</time>
      </trkpt>
      <trkpt lat="46.65153" lon="5.60102">
        <ele>317.7</ele>
        <time>2022-05-03T06:58:26Z</time>
      </trkpt>
      <trkpt lat="46.65149" lon="5.60106">
        <ele>318.2</ele>
        <time>2022-05-03T06:58:31Z</time>
      </trkpt>
      <trkpt lat="46.65144" lon="5.60109">
        <ele>318.6</ele>
        <time>2022-05-03T06:58:36Z</time>
      </trkpt>
      <trkpt lat="46.65139" lon="5.6011">
        <ele>319.2</ele>
        <time>2022-05-03T06:58:40Z</time>
      </trkpt>
      <trkpt lat="46.65135" lon="5.60111">
        <ele>319.8</ele>
        <time>2022-05-03T06:58:43Z</time>
      </trkpt>
      <trkpt lat="46.6513" lon="5.60112">
        <ele>320.5</ele>
        <time>2022-05-03T06:58:46Z</time>
      </trkpt>
      <trkpt lat="46.65125" lon="5.60115">
        <ele>321.1</ele>
        <time>2022-05-03T06:58:50Z</time>
      </trkpt>
      <trkpt lat="46.6512" lon="5.60117">
        <ele>322.3</ele>
        <time>2022-05-03T06:58:55Z</time>
      </trkpt>
      <trkpt lat="46.65116" lon="5.60121">
        <ele>324</ele>
        <time>2022-05-03T06:59:00Z</time>
      </trkpt>
      <trkpt lat="46.65112" lon="5.60125">
        <ele>324.9</ele>
        <time>2022-05-03T06:59:05Z</time>
      </trkpt>
      <trkpt lat="46.65108" lon="5.60129">
        <ele>325.1</ele>
        <time>2022-05-03T06:59:09Z</time>
      </trkpt>
      <trkpt lat="46.65103" lon="5.60132">
        <ele>325</ele>
        <time>2022-05-03T06:59:13Z</time>
      </trkpt>
      <trkpt lat="46.65099" lon="5.60136">
        <ele>324.3</ele>
        <time>2022-05-03T06:59:18Z</time>
      </trkpt>
      <trkpt lat="46.65095" lon="5.6014">
        <ele>323.4</ele>
        <time>2022-05-03T06:59:23Z</time>
      </trkpt>
      <trkpt lat="46.65091" lon="5.60143">
        <ele>322.4</ele>
        <time>2022-05-03T06:59:28Z</time>
      </trkpt>
      <trkpt lat="46.65087" lon="5.60147">
        <ele>321.5</ele>
        <time>2022-05-03T06:59:33Z</time>
      </trkpt>
      <trkpt lat="46.65083" lon="5.60152">
        <ele>320.9</ele>
        <time>2022-05-03T06:59:37Z</time>
      </trkpt>
      <trkpt lat="46.65079" lon="5.60157">
        <ele>320.1</ele>
        <time>2022-05-03T06:59:41Z</time>
      </trkpt>
      <trkpt lat="46.65075" lon="5.60161">
        <ele>319.5</ele>
        <time>2022-05-03T06:59:45Z</time>
      </trkpt>
      <trkpt lat="46.65072" lon="5.60167">
        <ele>318.9</ele>
        <time>2022-05-03T06:59:50Z</time>
      </trkpt>
      <trkpt lat="46.65068" lon="5.60173">
        <ele>318</ele>
        <time>2022-05-03T06:59:55Z</time>
      </trkpt>
      <trkpt lat="46.65064" lon="5.60177">
        <ele>317.2</ele>
        <time>2022-05-03T06:59:59Z</time>
      </trkpt>
      <trkpt lat="46.6506" lon="5.60181">
        <ele>316.9</ele>
        <time>2022-05-03T07:00:03Z</time>
      </trkpt>
      <trkpt lat="46.65055" lon="5.60184">
        <ele>317</ele>
        <time>2022-05-03T07:00:07Z</time>
      </trkpt>
      <trkpt lat="46.6505" lon="5.60187">
        <ele>317.8</ele>
        <time>2022-05-03T07:00:11Z</time>
      </trkpt>
      <trkpt lat="46.65044" lon="5.6019">
        <ele>319.1</ele>
        <time>2022-05-03T07:00:15Z</time>
      </trkpt>
      <trkpt lat="46.6504" lon="5.60193">
        <ele>320.8</ele>
        <time>2022-05-03T07:00:19Z</time>
      </trkpt>
      <trkpt lat="46.65035" lon="5.60196">
        <ele>322.5</ele>
        <time>2022-05-03T07:00:23Z</time>
      </trkpt>
      <trkpt lat="46.6503" lon="5.60198">
        <ele>323.6</ele>
        <time>2022-05-03T07:00:27Z</time>
      </trkpt>
      <trkpt lat="46.65026" lon="5.60201">
        <ele>324.4</ele>
        <time>2022-05-03T07:00:31Z</time>
      </trkpt>
      <trkpt lat="46.65021" lon="5.60203">
        <ele>325.1</ele>
        <time>2022-05-03T07:00:36Z</time>
      </trkpt>
      <trkpt lat="46.65016" lon="5.60205">
        <ele>325.7</ele>
        <time>2022-05-03T07:00:42Z</time>
      </trkpt>
      <trkpt lat="46.65011" lon="5.60209">
        <ele>325.9</ele>
        <time>2022-05-03T07:00:46Z</time>
      </trkpt>
      <trkpt lat="46.65006" lon="5.60212">
        <ele>326.1</ele>
        <time>2022-05-03T07:00:50Z</time>
      </trkpt>
      <trkpt lat="46.65001" lon="5.60214">
        <ele>326.3</ele>
        <time>2022-05-03T07:00:54Z</time>
      </trkpt>
      <trkpt lat="46.64996" lon="5.60216">
        <ele>327</ele>
        <time>2022-05-03T07:00:58Z</time>
      </trkpt>
      <trkpt lat="46.64991" lon="5.60217">
        <ele>327.7</ele>
        <time>2022-05-03T07:01:03Z</time>
      </trkpt>
      <trkpt lat="46.64986" lon="5.60218">
        <ele>328.9</ele>
        <time>2022-05-03T07:01:08Z</time>
      </trkpt>
      <trkpt lat="46.64981" lon="5.6022">
        <ele>330.6</ele>
        <time>2022-05-03T07:01:13Z</time>
      </trkpt>
      <trkpt lat="46.64976" lon="5.60224">
        <ele>331.1</ele>
        <time>2022-05-03T07:01:17Z</time>
      </trkpt>
      <trkpt lat="46.64971" lon="5.60226">
        <ele>331.5</ele>
        <time>2022-05-03T07:01:21Z</time>
      </trkpt>
      <trkpt lat="46.64967" lon="5.60228">
        <ele>331.4</ele>
        <time>2022-05-03T07:01:25Z</time>
      </trkpt>
      <trkpt lat="46.64961" lon="5.60232">
        <ele>331.5</ele>
        <time>2022-05-03T07:01:29Z</time>
      </trkpt>
      <trkpt lat="46.64957" lon="5.60236">
        <ele>331.6</ele>
        <time>2022-05-03T07:01:33Z</time>
      </trkpt>
      <trkpt lat="46.64953" lon="5.6024">
        <ele>331.9</ele>
        <time>2022-05-03T07:01:37Z</time>
      </trkpt>
      <trkpt lat="46.64948" lon="5.60242">
        <ele>332.7</ele>
        <time>2022-05-03T07:01:43Z</time>
      </trkpt>
      <trkpt lat="46.64943" lon="5.60244">
        <ele>333.1</ele>
        <time>2022-05-03T07:01:49Z</time>
      </trkpt>
      <trkpt lat="46.64938" lon="5.60248">
        <ele>333</ele>
        <time>2022-05-03T07:01:53Z</time>
      </trkpt>
      <trkpt lat="46.64933" lon="5.60251">
        <ele>332.5</ele>
        <time>2022-05-03T07:01:57Z</time>
      </trkpt>
      <trkpt lat="46.64928" lon="5.60253">
        <ele>331.9</ele>
        <time>2022-05-03T07:02:01Z</time>
      </trkpt>
      <trkpt lat="46.64924" lon="5.60254">
        <ele>330.7</ele>
        <time>2022-05-03T07:02:07Z</time>
      </trkpt>
      <trkpt lat="46.64919" lon="5.60256">
        <ele>330.3</ele>
        <time>2022-05-03T07:02:12Z</time>
      </trkpt>
      <trkpt lat="46.64914" lon="5.60258">
        <ele>330.2</ele>
        <time>2022-05-03T07:02:17Z</time>
      </trkpt>
      <trkpt lat="46.64909" lon="5.60259">
        <ele>329.5</ele>
        <time>2022-05-03T07:02:21Z</time>
      </trkpt>
      <trkpt lat="46.64904" lon="5.60259">
        <ele>328.9</ele>
        <time>2022-05-03T07:02:25Z</time>
      </trkpt>
      <trkpt lat="46.64899" lon="5.6026">
        <ele>328.6</ele>
        <time>2022-05-03T07:02:30Z</time>
      </trkpt>
      <trkpt lat="46.64894" lon="5.60261">
        <ele>328.9</ele>
        <time>2022-05-03T07:02:34Z</time>
      </trkpt>
      <trkpt lat="46.6489" lon="5.60262">
        <ele>329.4</ele>
        <time>2022-05-03T07:02:38Z</time>
      </trkpt>
      <trkpt lat="46.64884" lon="5.60264">
        <ele>330.3</ele>
        <time>2022-05-03T07:02:43Z</time>
      </trkpt>
      <trkpt lat="46.6488" lon="5.60265">
        <ele>331</ele>
        <time>2022-05-03T07:02:47Z</time>
      </trkpt>
      <trkpt lat="46.64875" lon="5.60266">
        <ele>331.5</ele>
        <time>2022-05-03T07:02:51Z</time>
      </trkpt>
      <trkpt lat="46.6487" lon="5.60268">
        <ele>331.9</ele>
        <time>2022-05-03T07:02:55Z</time>
      </trkpt>
      <trkpt lat="46.64865" lon="5.6027">
        <ele>332</ele>
        <time>2022-05-03T07:02:59Z</time>
      </trkpt>
      <trkpt lat="46.6486" lon="5.60271">
        <ele>332.7</ele>
        <time>2022-05-03T07:03:04Z</time>
      </trkpt>
      <trkpt lat="46.64855" lon="5.60273">
        <ele>333.1</ele>
        <time>2022-05-03T07:03:09Z</time>
      </trkpt>
      <trkpt lat="46.6485" lon="5.60273">
        <ele>333.2</ele>
        <time>2022-05-03T07:03:14Z</time>
      </trkpt>
      <trkpt lat="46.64845" lon="5.60274">
        <ele>332.7</ele>
        <time>2022-05-03T07:03:18Z</time>
      </trkpt>
      <trkpt lat="46.64841" lon="5.60275">
        <ele>332.3</ele>
        <time>2022-05-03T07:03:22Z</time>
      </trkpt>
      <trkpt lat="46.64836" lon="5.60277">
        <ele>332</ele>
        <time>2022-05-03T07:03:26Z</time>
      </trkpt>
      <trkpt lat="46.64831" lon="5.60279">
        <ele>332.2</ele>
        <time>2022-05-03T07:03:32Z</time>
      </trkpt>
      <trkpt lat="46.64827" lon="5.60279">
        <ele>332.2</ele>
        <time>2022-05-03T07:03:36Z</time>
      </trkpt>
      <trkpt lat="46.64823" lon="5.60283">
        <ele>331.9</ele>
        <time>2022-05-03T07:03:41Z</time>
      </trkpt>
      <trkpt lat="46.64818" lon="5.60285">
        <ele>331.1</ele>
        <time>2022-05-03T07:03:46Z</time>
      </trkpt>
      <trkpt lat="46.64812" lon="5.60284">
        <ele>330.8</ele>
        <time>2022-05-03T07:03:51Z</time>
      </trkpt>
      <trkpt lat="46.64807" lon="5.60286">
        <ele>330.7</ele>
        <time>2022-05-03T07:03:55Z</time>
      </trkpt>
      <trkpt lat="46.64803" lon="5.6029">
        <ele>331</ele>
        <time>2022-05-03T07:03:59Z</time>
      </trkpt>
      <trkpt lat="46.648" lon="5.60294">
        <ele>331.6</ele>
        <time>2022-05-03T07:04:03Z</time>
      </trkpt>
      <trkpt lat="46.64795" lon="5.60299">
        <ele>332</ele>
        <time>2022-05-03T07:04:07Z</time>
      </trkpt>
      <trkpt lat="46.64791" lon="5.60303">
        <ele>332.3</ele>
        <time>2022-05-03T07:04:10Z</time>
      </trkpt>
      <trkpt lat="46.64786" lon="5.60307">
        <ele>332.8</ele>
        <time>2022-05-03T07:04:14Z</time>
      </trkpt>
      <trkpt lat="46.64781" lon="5.60309">
        <ele>333.4</ele>
        <time>2022-05-03T07:04:18Z</time>
      </trkpt>
      <trkpt lat="46.64777" lon="5.60311">
        <ele>333.5</ele>
        <time>2022-05-03T07:04:22Z</time>
      </trkpt>
      <trkpt lat="46.64772" lon="5.60313">
        <ele>333.4</ele>
        <time>2022-05-03T07:04:26Z</time>
      </trkpt>
      <trkpt lat="46.64768" lon="5.60316">
        <ele>333.4</ele>
        <time>2022-05-03T07:04:31Z</time>
      </trkpt>
      <trkpt lat="46.64764" lon="5.60319">
        <ele>333.7</ele>
        <time>2022-05-03T07:04:36Z</time>
      </trkpt>
      <trkpt lat="46.6476" lon="5.60321">
        <ele>334.4</ele>
        <time>2022-05-03T07:04:40Z</time>
      </trkpt>
      <trkpt lat="46.64755" lon="5.60324">
        <ele>335.2</ele>
        <time>2022-05-03T07:04:45Z</time>
      </trkpt>
      <trkpt lat="46.6475" lon="5.60328">
        <ele>335.9</ele>
        <time>2022-05-03T07:04:50Z</time>
      </trkpt>
      <trkpt lat="46.64745" lon="5.60331">
        <ele>336.6</ele>
        <time>2022-05-03T07:04:54Z</time>
      </trkpt>
      <trkpt lat="46.64741" lon="5.60333">
        <ele>337</ele>
        <time>2022-05-03T07:04:57Z</time>
      </trkpt>
      <trkpt lat="46.64736" lon="5.60336">
        <ele>337.3</ele>
        <time>2022-05-03T07:05:00Z</time>
      </trkpt>
      <trkpt lat="46.6473" lon="5.60339">
        <ele>337.5</ele>
        <time>2022-05-03T07:05:04Z</time>
      </trkpt>
      <trkpt lat="46.64726" lon="5.60342">
        <ele>337.6</ele>
        <time>2022-05-03T07:05:07Z</time>
      </trkpt>
      <trkpt lat="46.64721" lon="5.60344">
        <ele>338</ele>
        <time>2022-05-03T07:05:10Z</time>
      </trkpt>
      <trkpt lat="46.64717" lon="5.60346">
        <ele>338.6</ele>
        <time>2022-05-03T07:05:14Z</time>
      </trkpt>
      <trkpt lat="46.64712" lon="5.60348">
        <ele>339.7</ele>
        <time>2022-05-03T07:05:20Z</time>
      </trkpt>
      <trkpt lat="46.64708" lon="5.60349">
        <ele>340.6</ele>
        <time>2022-05-03T07:05:29Z</time>
      </trkpt>
      <trkpt lat="46.64703" lon="5.6035">
        <ele>341</ele>
        <time>2022-05-03T07:05:34Z</time>
      </trkpt>
      <trkpt lat="46.64698" lon="5.6035">
        <ele>341.4</ele>
        <time>2022-05-03T07:05:38Z</time>
      </trkpt>
      <trkpt lat="46.64694" lon="5.60349">
        <ele>341.5</ele>
        <time>2022-05-03T07:05:42Z</time>
      </trkpt>
      <trkpt lat="46.64688" lon="5.60348">
        <ele>341.5</ele>
        <time>2022-05-03T07:05:47Z</time>
      </trkpt>
      <trkpt lat="46.64683" lon="5.60349">
        <ele>341.3</ele>
        <time>2022-05-03T07:05:51Z</time>
      </trkpt>
      <trkpt lat="46.64678" lon="5.60347">
        <ele>341.3</ele>
        <time>2022-05-03T07:05:55Z</time>
      </trkpt>
      <trkpt lat="46.64673" lon="5.60346">
        <ele>341.1</ele>
        <time>2022-05-03T07:06:01Z</time>
      </trkpt>
      <trkpt lat="46.64668" lon="5.60347">
        <ele>341.3</ele>
        <time>2022-05-03T07:06:05Z</time>
      </trkpt>
      <trkpt lat="46.64663" lon="5.60348">
        <ele>341.3</ele>
        <time>2022-05-03T07:06:10Z</time>
      </trkpt>
      <trkpt lat="46.64658" lon="5.60345">
        <ele>341</ele>
        <time>2022-05-03T07:06:15Z</time>
      </trkpt>
      <trkpt lat="46.64653" lon="5.60344">
        <ele>340.9</ele>
        <time>2022-05-03T07:06:20Z</time>
      </trkpt>
      <trkpt lat="46.64647" lon="5.60343">
        <ele>340.9</ele>
        <time>2022-05-03T07:06:25Z</time>
      </trkpt>
      <trkpt lat="46.64642" lon="5.60346">
        <ele>340.7</ele>
        <time>2022-05-03T07:06:30Z</time>
      </trkpt>
      <trkpt lat="46.64638" lon="5.60347">
        <ele>340.9</ele>
        <time>2022-05-03T07:06:33Z</time>
      </trkpt>
      <trkpt lat="46.64633" lon="5.60348">
        <ele>341</ele>
        <time>2022-05-03T07:06:37Z</time>
      </trkpt>
      <trkpt lat="46.64629" lon="5.6035">
        <ele>341.5</ele>
        <time>2022-05-03T07:06:42Z</time>
      </trkpt>
      <trkpt lat="46.64624" lon="5.6035">
        <ele>342.1</ele>
        <time>2022-05-03T07:06:46Z</time>
      </trkpt>
      <trkpt lat="46.64619" lon="5.60349">
        <ele>342.7</ele>
        <time>2022-05-03T07:06:50Z</time>
      </trkpt>
      <trkpt lat="46.64614" lon="5.60348">
        <ele>343.3</ele>
        <time>2022-05-03T07:06:54Z</time>
      </trkpt>
      <trkpt lat="46.64609" lon="5.60346">
        <ele>343.8</ele>
        <time>2022-05-03T07:06:59Z</time>
      </trkpt>
      <trkpt lat="46.64604" lon="5.60345">
        <ele>344.3</ele>
        <time>2022-05-03T07:07:04Z</time>
      </trkpt>
      <trkpt lat="46.64599" lon="5.60345">
        <ele>344.1</ele>
        <time>2022-05-03T07:07:09Z</time>
      </trkpt>
      <trkpt lat="46.64594" lon="5.60345">
        <ele>343.7</ele>
        <time>2022-05-03T07:07:15Z</time>
      </trkpt>
      <trkpt lat="46.64589" lon="5.60345">
        <ele>343.7</ele>
        <time>2022-05-03T07:07:19Z</time>
      </trkpt>
      <trkpt lat="46.64583" lon="5.60344">
        <ele>343.8</ele>
        <time>2022-05-03T07:07:24Z</time>
      </trkpt>
      <trkpt lat="46.64579" lon="5.60343">
        <ele>343.6</ele>
        <time>2022-05-03T07:07:28Z</time>
      </trkpt>
      <trkpt lat="46.64574" lon="5.60342">
        <ele>343.8</ele>
        <time>2022-05-03T07:07:34Z</time>
      </trkpt>
      <trkpt lat="46.64569" lon="5.60344">
        <ele>342.3</ele>
        <time>2022-05-03T07:07:41Z</time>
      </trkpt>
      <trkpt lat="46.64565" lon="5.60346">
        <ele>341.3</ele>
        <time>2022-05-03T07:07:45Z</time>
      </trkpt>
      <trkpt lat="46.6456" lon="5.60347">
        <ele>340.6</ele>
        <time>2022-05-03T07:07:50Z</time>
      </trkpt>
      <trkpt lat="46.64555" lon="5.60345">
        <ele>340.1</ele>
        <time>2022-05-03T07:07:55Z</time>
      </trkpt>
      <trkpt lat="46.64551" lon="5.60342">
        <ele>339.8</ele>
        <time>2022-05-03T07:07:59Z</time>
      </trkpt>
      <trkpt lat="46.64545" lon="5.6034">
        <ele>340.1</ele>
        <time>2022-05-03T07:08:03Z</time>
      </trkpt>
      <trkpt lat="46.6454" lon="5.6034">
        <ele>340.6</ele>
        <time>2022-05-03T07:08:07Z</time>
      </trkpt>
      <trkpt lat="46.64535" lon="5.6034">
        <ele>341.2</ele>
        <time>2022-05-03T07:08:10Z</time>
      </trkpt>
      <trkpt lat="46.6453" lon="5.6034">
        <ele>342.4</ele>
        <time>2022-05-03T07:08:14Z</time>
      </trkpt>
      <trkpt lat="46.64526" lon="5.60339">
        <ele>344.2</ele>
        <time>2022-05-03T07:08:20Z</time>
      </trkpt>
      <trkpt lat="46.64523" lon="5.60345">
        <ele>345.6</ele>
        <time>2022-05-03T07:08:28Z</time>
      </trkpt>
      <trkpt lat="46.64527" lon="5.60349">
        <ele>346.7</ele>
        <time>2022-05-03T07:08:38Z</time>
      </trkpt>
      <trkpt lat="46.64524" lon="5.60343">
        <ele>347.7</ele>
        <time>2022-05-03T07:09:04Z</time>
      </trkpt>
      <trkpt lat="46.6452" lon="5.60338">
        <ele>347.3</ele>
        <time>2022-05-03T07:09:07Z</time>
      </trkpt>
      <trkpt lat="46.64515" lon="5.60337">
        <ele>346.4</ele>
        <time>2022-05-03T07:09:11Z</time>
      </trkpt>
      <trkpt lat="46.6451" lon="5.60336">
        <ele>345.1</ele>
        <time>2022-05-03T07:09:15Z</time>
      </trkpt>
      <trkpt lat="46.64505" lon="5.60334">
        <ele>344</ele>
        <time>2022-05-03T07:09:20Z</time>
      </trkpt>
      <trkpt lat="46.64499" lon="5.60334">
        <ele>344</ele>
        <time>2022-05-03T07:09:24Z</time>
      </trkpt>
      <trkpt lat="46.64493" lon="5.60333">
        <ele>344.7</ele>
        <time>2022-05-03T07:09:28Z</time>
      </trkpt>
      <trkpt lat="46.64488" lon="5.60334">
        <ele>345.8</ele>
        <time>2022-05-03T07:09:32Z</time>
      </trkpt>
      <trkpt lat="46.64482" lon="5.60334">
        <ele>346.7</ele>
        <time>2022-05-03T07:09:36Z</time>
      </trkpt>
      <trkpt lat="46.64477" lon="5.60333">
        <ele>348</ele>
        <time>2022-05-03T07:09:40Z</time>
      </trkpt>
      <trkpt lat="46.64472" lon="5.60334">
        <ele>349.3</ele>
        <time>2022-05-03T07:09:44Z</time>
      </trkpt>
      <trkpt lat="46.64468" lon="5.60332">
        <ele>350.6</ele>
        <time>2022-05-03T07:09:48Z</time>
      </trkpt>
      <trkpt lat="46.64463" lon="5.60329">
        <ele>352</ele>
        <time>2022-05-03T07:09:53Z</time>
      </trkpt>
      <trkpt lat="46.64459" lon="5.60327">
        <ele>353</ele>
        <time>2022-05-03T07:09:57Z</time>
      </trkpt>
      <trkpt lat="46.64454" lon="5.60325">
        <ele>353.8</ele>
        <time>2022-05-03T07:10:04Z</time>
      </trkpt>
      <trkpt lat="46.64449" lon="5.60325">
        <ele>353.9</ele>
        <time>2022-05-03T07:10:10Z</time>
      </trkpt>
      <trkpt lat="46.64444" lon="5.60325">
        <ele>353.6</ele>
        <time>2022-05-03T07:10:18Z</time>
      </trkpt>
      <trkpt lat="46.6444" lon="5.60324">
        <ele>353.1</ele>
        <time>2022-05-03T07:10:23Z</time>
      </trkpt>
      <trkpt lat="46.64434" lon="5.60324">
        <ele>352.7</ele>
        <time>2022-05-03T07:10:28Z</time>
      </trkpt>
      <trkpt lat="46.64429" lon="5.60324">
        <ele>352.4</ele>
        <time>2022-05-03T07:10:34Z</time>
      </trkpt>
      <trkpt lat="46.64424" lon="5.60322">
        <ele>352.3</ele>
        <time>2022-05-03T07:10:39Z</time>
      </trkpt>
      <trkpt lat="46.6442" lon="5.60325">
        <ele>351.6</ele>
        <time>2022-05-03T07:10:45Z</time>
      </trkpt>
      <trkpt lat="46.64415" lon="5.60326">
        <ele>349.8</ele>
        <time>2022-05-03T07:10:53Z</time>
      </trkpt>
      <trkpt lat="46.6441" lon="5.60325">
        <ele>348.6</ele>
        <time>2022-05-03T07:10:59Z</time>
      </trkpt>
      <trkpt lat="46.64406" lon="5.60324">
        <ele>347.7</ele>
        <time>2022-05-03T07:11:03Z</time>
      </trkpt>
      <trkpt lat="46.64401" lon="5.60324">
        <ele>346.9</ele>
        <time>2022-05-03T07:11:07Z</time>
      </trkpt>
      <trkpt lat="46.64395" lon="5.60326">
        <ele>345.8</ele>
        <time>2022-05-03T07:11:12Z</time>
      </trkpt>
      <trkpt lat="46.6439" lon="5.60326">
        <ele>345.1</ele>
        <time>2022-05-03T07:11:16Z</time>
      </trkpt>
      <trkpt lat="46.64385" lon="5.60325">
        <ele>344.6</ele>
        <time>2022-05-03T07:11:20Z</time>
      </trkpt>
      <trkpt lat="46.64379" lon="5.60324">
        <ele>344.6</ele>
        <time>2022-05-03T07:11:24Z</time>
      </trkpt>
      <trkpt lat="46.64374" lon="5.60325">
        <ele>345.1</ele>
        <time>2022-05-03T07:11:27Z</time>
      </trkpt>
      <trkpt lat="46.6437" lon="5.60325">
        <ele>345.8</ele>
        <time>2022-05-03T07:11:30Z</time>
      </trkpt>
      <trkpt lat="46.64364" lon="5.60325">
        <ele>346.8</ele>
        <time>2022-05-03T07:11:34Z</time>
      </trkpt>
      <trkpt lat="46.6436" lon="5.60325">
        <ele>347.3</ele>
        <time>2022-05-03T07:11:38Z</time>
      </trkpt>
      <trkpt lat="46.64355" lon="5.60324">
        <ele>347.4</ele>
        <time>2022-05-03T07:11:42Z</time>
      </trkpt>
      <trkpt lat="46.6435" lon="5.60323">
        <ele>347.1</ele>
        <time>2022-05-03T07:11:46Z</time>
      </trkpt>
      <trkpt lat="46.64345" lon="5.60322">
        <ele>346.7</ele>
        <time>2022-05-03T07:11:51Z</time>
      </trkpt>
      <trkpt lat="46.6434" lon="5.60322">
        <ele>346.1</ele>
        <time>2022-05-03T07:11:57Z</time>
      </trkpt>
      <trkpt lat="46.64335" lon="5.60323">
        <ele>345.4</ele>
        <time>2022-05-03T07:12:03Z</time>
      </trkpt>
      <trkpt lat="46.6433" lon="5.60322">
        <ele>344.8</ele>
        <time>2022-05-03T07:12:08Z</time>
      </trkpt>
      <trkpt lat="46.64326" lon="5.60322">
        <ele>343.6</ele>
        <time>2022-05-03T07:12:14Z</time>
      </trkpt>
      <trkpt lat="46.6432" lon="5.60325">
        <ele>342.6</ele>
        <time>2022-05-03T07:12:18Z</time>
      </trkpt>
      <trkpt lat="46.64315" lon="5.60327">
        <ele>341.8</ele>
        <time>2022-05-03T07:12:22Z</time>
      </trkpt>
      <trkpt lat="46.6431" lon="5.60328">
        <ele>341.3</ele>
        <time>2022-05-03T07:12:26Z</time>
      </trkpt>
      <trkpt lat="46.64304" lon="5.60329">
        <ele>341.4</ele>
        <time>2022-05-03T07:12:30Z</time>
      </trkpt>
      <trkpt lat="46.64299" lon="5.60331">
        <ele>341.6</ele>
        <time>2022-05-03T07:12:34Z</time>
      </trkpt>
      <trkpt lat="46.64295" lon="5.60332">
        <ele>341.8</ele>
        <time>2022-05-03T07:12:37Z</time>
      </trkpt>
      <trkpt lat="46.64289" lon="5.60333">
        <ele>342.3</ele>
        <time>2022-05-03T07:12:41Z</time>
      </trkpt>
      <trkpt lat="46.64283" lon="5.60332">
        <ele>343.1</ele>
        <time>2022-05-03T07:12:45Z</time>
      </trkpt>
      <trkpt lat="46.64278" lon="5.60332">
        <ele>343.8</ele>
        <time>2022-05-03T07:12:49Z</time>
      </trkpt>
      <trkpt lat="46.64273" lon="5.60332">
        <ele>344.1</ele>
        <time>2022-05-03T07:12:54Z</time>
      </trkpt>
      <trkpt lat="46.64268" lon="5.60332">
        <ele>344.1</ele>
        <time>2022-05-03T07:12:58Z</time>
      </trkpt>
      <trkpt lat="46.64263" lon="5.60333">
        <ele>344.4</ele>
        <time>2022-05-03T07:13:02Z</time>
      </trkpt>
      <trkpt lat="46.64257" lon="5.60334">
        <ele>344.8</ele>
        <time>2022-05-03T07:13:06Z</time>
      </trkpt>
      <trkpt lat="46.64252" lon="5.60336">
        <ele>345.1</ele>
        <time>2022-05-03T07:13:12Z</time>
      </trkpt>
      <trkpt lat="46.64247" lon="5.60338">
        <ele>345.1</ele>
        <time>2022-05-03T07:13:18Z</time>
      </trkpt>
      <trkpt lat="46.64241" lon="5.6034">
        <ele>344.8</ele>
        <time>2022-05-03T07:13:22Z</time>
      </trkpt>
      <trkpt lat="46.64235" lon="5.60339">
        <ele>344.8</ele>
        <time>2022-05-03T07:13:26Z</time>
      </trkpt>
      <trkpt lat="46.6423" lon="5.60338">
        <ele>345.1</ele>
        <time>2022-05-03T07:13:30Z</time>
      </trkpt>
      <trkpt lat="46.64224" lon="5.60338">
        <ele>345</ele>
        <time>2022-05-03T07:13:34Z</time>
      </trkpt>
      <trkpt lat="46.64219" lon="5.60338">
        <ele>344.5</ele>
        <time>2022-05-03T07:13:38Z</time>
      </trkpt>
      <trkpt lat="46.64214" lon="5.60338">
        <ele>344</ele>
        <time>2022-05-03T07:13:42Z</time>
      </trkpt>
      <trkpt lat="46.6421" lon="5.60338">
        <ele>343.2</ele>
        <time>2022-05-03T07:13:48Z</time>
      </trkpt>
      <trkpt lat="46.64205" lon="5.60338">
        <ele>342.7</ele>
        <time>2022-05-03T07:13:54Z</time>
      </trkpt>
      <trkpt lat="46.64199" lon="5.60337">
        <ele>342.7</ele>
        <time>2022-05-03T07:13:58Z</time>
      </trkpt>
      <trkpt lat="46.64194" lon="5.60337">
        <ele>343.1</ele>
        <time>2022-05-03T07:14:01Z</time>
      </trkpt>
      <trkpt lat="46.64188" lon="5.60336">
        <ele>343.6</ele>
        <time>2022-05-03T07:14:04Z</time>
      </trkpt>
      <trkpt lat="46.64183" lon="5.60336">
        <ele>344.5</ele>
        <time>2022-05-03T07:14:07Z</time>
      </trkpt>
      <trkpt lat="46.64178" lon="5.60334">
        <ele>346</ele>
        <time>2022-05-03T07:14:11Z</time>
      </trkpt>
      <trkpt lat="46.64172" lon="5.60332">
        <ele>348</ele>
        <time>2022-05-03T07:14:15Z</time>
      </trkpt>
      <trkpt lat="46.64168" lon="5.6033">
        <ele>349.6</ele>
        <time>2022-05-03T07:14:18Z</time>
      </trkpt>
      <trkpt lat="46.64163" lon="5.60329">
        <ele>351.2</ele>
        <time>2022-05-03T07:14:22Z</time>
      </trkpt>
      <trkpt lat="46.64158" lon="5.60328">
        <ele>352.8</ele>
        <time>2022-05-03T07:14:26Z</time>
      </trkpt>
      <trkpt lat="46.64153" lon="5.60326">
        <ele>354</ele>
        <time>2022-05-03T07:14:31Z</time>
      </trkpt>
      <trkpt lat="46.64149" lon="5.60325">
        <ele>354.7</ele>
        <time>2022-05-03T07:14:35Z</time>
      </trkpt>
      <trkpt lat="46.64144" lon="5.60324">
        <ele>355.5</ele>
        <time>2022-05-03T07:14:40Z</time>
      </trkpt>
      <trkpt lat="46.6414" lon="5.60325">
        <ele>355.7</ele>
        <time>2022-05-03T07:14:44Z</time>
      </trkpt>
      <trkpt lat="46.64135" lon="5.60327">
        <ele>355.7</ele>
        <time>2022-05-03T07:14:48Z</time>
      </trkpt>
      <trkpt lat="46.64131" lon="5.60328">
        <ele>355.8</ele>
        <time>2022-05-03T07:14:52Z</time>
      </trkpt>
      <trkpt lat="46.64126" lon="5.60329">
        <ele>356.3</ele>
        <time>2022-05-03T07:14:56Z</time>
      </trkpt>
      <trkpt lat="46.64121" lon="5.60329">
        <ele>356.9</ele>
        <time>2022-05-03T07:15:02Z</time>
      </trkpt>
      <trkpt lat="46.64116" lon="5.6033">
        <ele>357</ele>
        <time>2022-05-03T07:15:06Z</time>
      </trkpt>
      <trkpt lat="46.64111" lon="5.60332">
        <ele>357</ele>
        <time>2022-05-03T07:15:10Z</time>
      </trkpt>
      <trkpt lat="46.64106" lon="5.60332">
        <ele>357</ele>
        <time>2022-05-03T07:15:15Z</time>
      </trkpt>
      <trkpt lat="46.64101" lon="5.60331">
        <ele>356.9</ele>
        <time>2022-05-03T07:15:19Z</time>
      </trkpt>
      <trkpt lat="46.64096" lon="5.6033">
        <ele>356.9</ele>
        <time>2022-05-03T07:15:25Z</time>
      </trkpt>
      <trkpt lat="46.64091" lon="5.60332">
        <ele>356.5</ele>
        <time>2022-05-03T07:15:30Z</time>
      </trkpt>
      <trkpt lat="46.64086" lon="5.60335">
        <ele>356.3</ele>
        <time>2022-05-03T07:15:34Z</time>
      </trkpt>
      <trkpt lat="46.64081" lon="5.60337">
        <ele>356.3</ele>
        <time>2022-05-03T07:15:37Z</time>
      </trkpt>
      <trkpt lat="46.64075" lon="5.6034">
        <ele>356.6</ele>
        <time>2022-05-03T07:15:41Z</time>
      </trkpt>
      <trkpt lat="46.64071" lon="5.60344">
        <ele>357.2</ele>
        <time>2022-05-03T07:15:46Z</time>
      </trkpt>
      <trkpt lat="46.64066" lon="5.60345">
        <ele>358.1</ele>
        <time>2022-05-03T07:15:51Z</time>
      </trkpt>
      <trkpt lat="46.64061" lon="5.60347">
        <ele>358.3</ele>
        <time>2022-05-03T07:15:55Z</time>
      </trkpt>
      <trkpt lat="46.64057" lon="5.60351">
        <ele>358.1</ele>
        <time>2022-05-03T07:16:00Z</time>
      </trkpt>
      <trkpt lat="46.64054" lon="5.60355">
        <ele>357.9</ele>
        <time>2022-05-03T07:16:04Z</time>
      </trkpt>
      <trkpt lat="46.6405" lon="5.60359">
        <ele>357.2</ele>
        <time>2022-05-03T07:16:09Z</time>
      </trkpt>
      <trkpt lat="46.64047" lon="5.60365">
        <ele>356.2</ele>
        <time>2022-05-03T07:16:14Z</time>
      </trkpt>
      <trkpt lat="46.64043" lon="5.60369">
        <ele>355.7</ele>
        <time>2022-05-03T07:16:18Z</time>
      </trkpt>
      <trkpt lat="46.6404" lon="5.60375">
        <ele>355</ele>
        <time>2022-05-03T07:16:23Z</time>
      </trkpt>
      <trkpt lat="46.64036" lon="5.60378">
        <ele>354.4</ele>
        <time>2022-05-03T07:16:28Z</time>
      </trkpt>
      <trkpt lat="46.64032" lon="5.6038">
        <ele>354.4</ele>
        <time>2022-05-03T07:16:31Z</time>
      </trkpt>
      <trkpt lat="46.64026" lon="5.60381">
        <ele>354.9</ele>
        <time>2022-05-03T07:16:34Z</time>
      </trkpt>
      <trkpt lat="46.64022" lon="5.60381">
        <ele>355.6</ele>
        <time>2022-05-03T07:16:37Z</time>
      </trkpt>
      <trkpt lat="46.64016" lon="5.60382">
        <ele>356.4</ele>
        <time>2022-05-03T07:16:41Z</time>
      </trkpt>
      <trkpt lat="46.64012" lon="5.60386">
        <ele>356.9</ele>
        <time>2022-05-03T07:16:46Z</time>
      </trkpt>
      <trkpt lat="46.64011" lon="5.60393">
        <ele>356.7</ele>
        <time>2022-05-03T07:16:51Z</time>
      </trkpt>
      <trkpt lat="46.64006" lon="5.60398">
        <ele>356.8</ele>
        <time>2022-05-03T07:16:56Z</time>
      </trkpt>
      <trkpt lat="46.64001" lon="5.60402">
        <ele>357</ele>
        <time>2022-05-03T07:17:00Z</time>
      </trkpt>
      <trkpt lat="46.63996" lon="5.60403">
        <ele>357</ele>
        <time>2022-05-03T07:17:05Z</time>
      </trkpt>
      <trkpt lat="46.63991" lon="5.60405">
        <ele>356.6</ele>
        <time>2022-05-03T07:17:10Z</time>
      </trkpt>
      <trkpt lat="46.63987" lon="5.60409">
        <ele>356.1</ele>
        <time>2022-05-03T07:17:15Z</time>
      </trkpt>
      <trkpt lat="46.63982" lon="5.60412">
        <ele>356.1</ele>
        <time>2022-05-03T07:17:20Z</time>
      </trkpt>
      <trkpt lat="46.63978" lon="5.60416">
        <ele>356.5</ele>
        <time>2022-05-03T07:17:24Z</time>
      </trkpt>
      <trkpt lat="46.63974" lon="5.60417">
        <ele>356.8</ele>
        <time>2022-05-03T07:17:29Z</time>
      </trkpt>
      <trkpt lat="46.63968" lon="5.60418">
        <ele>358</ele>
        <time>2022-05-03T07:17:34Z</time>
      </trkpt>
      <trkpt lat="46.63962" lon="5.60418">
        <ele>359.1</ele>
        <time>2022-05-03T07:17:38Z</time>
      </trkpt>
      <trkpt lat="46.63957" lon="5.60417">
        <ele>360</ele>
        <time>2022-05-03T07:17:41Z</time>
      </trkpt>
      <trkpt lat="46.63952" lon="5.60418">
        <ele>360.8</ele>
        <time>2022-05-03T07:17:44Z</time>
      </trkpt>
      <trkpt lat="46.63947" lon="5.60421">
        <ele>362</ele>
        <time>2022-05-03T07:17:49Z</time>
      </trkpt>
      <trkpt lat="46.63943" lon="5.60425">
        <ele>363.4</ele>
        <time>2022-05-03T07:17:55Z</time>
      </trkpt>
      <trkpt lat="46.63938" lon="5.60429">
        <ele>364.3</ele>
        <time>2022-05-03T07:18:00Z</time>
      </trkpt>
      <trkpt lat="46.63934" lon="5.60432">
        <ele>365.4</ele>
        <time>2022-05-03T07:18:05Z</time>
      </trkpt>
      <trkpt lat="46.63929" lon="5.60435">
        <ele>366.7</ele>
        <time>2022-05-03T07:18:10Z</time>
      </trkpt>
      <trkpt lat="46.63925" lon="5.60439">
        <ele>367.7</ele>
        <time>2022-05-03T07:18:16Z</time>
      </trkpt>
      <trkpt lat="46.6392" lon="5.60441">
        <ele>368.3</ele>
        <time>2022-05-03T07:18:20Z</time>
      </trkpt>
      <trkpt lat="46.63915" lon="5.60443">
        <ele>369.1</ele>
        <time>2022-05-03T07:18:24Z</time>
      </trkpt>
      <trkpt lat="46.63909" lon="5.60443">
        <ele>370</ele>
        <time>2022-05-03T07:18:29Z</time>
      </trkpt>
      <trkpt lat="46.63904" lon="5.60445">
        <ele>369.8</ele>
        <time>2022-05-03T07:18:34Z</time>
      </trkpt>
      <trkpt lat="46.639" lon="5.6045">
        <ele>370</ele>
        <time>2022-05-03T07:18:39Z</time>
      </trkpt>
      <trkpt lat="46.63895" lon="5.60453">
        <ele>370.6</ele>
        <time>2022-05-03T07:18:43Z</time>
      </trkpt>
      <trkpt lat="46.63891" lon="5.60456">
        <ele>371.6</ele>
        <time>2022-05-03T07:18:47Z</time>
      </trkpt>
      <trkpt lat="46.63886" lon="5.60456">
        <ele>372.7</ele>
        <time>2022-05-03T07:18:52Z</time>
      </trkpt>
      <trkpt lat="46.63881" lon="5.60457">
        <ele>373.4</ele>
        <time>2022-05-03T07:18:57Z</time>
      </trkpt>
      <trkpt lat="46.63876" lon="5.6046">
        <ele>373.9</ele>
        <time>2022-05-03T07:19:01Z</time>
      </trkpt>
      <trkpt lat="46.63872" lon="5.60465">
        <ele>374</ele>
        <time>2022-05-03T07:19:05Z</time>
      </trkpt>
      <trkpt lat="46.63867" lon="5.60466">
        <ele>374.2</ele>
        <time>2022-05-03T07:19:09Z</time>
      </trkpt>
      <trkpt lat="46.63862" lon="5.60469">
        <ele>374.8</ele>
        <time>2022-05-03T07:19:13Z</time>
      </trkpt>
      <trkpt lat="46.63857" lon="5.60471">
        <ele>375.1</ele>
        <time>2022-05-03T07:19:18Z</time>
      </trkpt>
      <trkpt lat="46.63853" lon="5.60474">
        <ele>375.3</ele>
        <time>2022-05-03T07:19:25Z</time>
      </trkpt>
      <trkpt lat="46.63849" lon="5.60476">
        <ele>375.3</ele>
        <time>2022-05-03T07:19:29Z</time>
      </trkpt>
      <trkpt lat="46.63845" lon="5.60479">
        <ele>374.7</ele>
        <time>2022-05-03T07:19:35Z</time>
      </trkpt>
      <trkpt lat="46.6384" lon="5.6048">
        <ele>374.1</ele>
        <time>2022-05-03T07:19:38Z</time>
      </trkpt>
      <trkpt lat="46.63835" lon="5.6048">
        <ele>373.7</ele>
        <time>2022-05-03T07:19:41Z</time>
      </trkpt>
      <trkpt lat="46.6383" lon="5.6048">
        <ele>373.1</ele>
        <time>2022-05-03T07:19:45Z</time>
      </trkpt>
      <trkpt lat="46.63825" lon="5.60482">
        <ele>372.4</ele>
        <time>2022-05-03T07:19:49Z</time>
      </trkpt>
      <trkpt lat="46.63821" lon="5.60484">
        <ele>371.6</ele>
        <time>2022-05-03T07:19:53Z</time>
      </trkpt>
      <trkpt lat="46.63817" lon="5.60486">
        <ele>371.1</ele>
        <time>2022-05-03T07:19:57Z</time>
      </trkpt>
      <trkpt lat="46.63811" lon="5.60485">
        <ele>370.8</ele>
        <time>2022-05-03T07:20:02Z</time>
      </trkpt>
      <trkpt lat="46.63806" lon="5.60487">
        <ele>371.1</ele>
        <time>2022-05-03T07:20:06Z</time>
      </trkpt>
      <trkpt lat="46.638" lon="5.60489">
        <ele>371.7</ele>
        <time>2022-05-03T07:20:10Z</time>
      </trkpt>
      <trkpt lat="46.63795" lon="5.60489">
        <ele>372.6</ele>
        <time>2022-05-03T07:20:14Z</time>
      </trkpt>
      <trkpt lat="46.63791" lon="5.60493">
        <ele>373</ele>
        <time>2022-05-03T07:20:19Z</time>
      </trkpt>
      <trkpt lat="46.63787" lon="5.60497">
        <ele>373.2</ele>
        <time>2022-05-03T07:20:24Z</time>
      </trkpt>
      <trkpt lat="46.63782" lon="5.60499">
        <ele>373.6</ele>
        <time>2022-05-03T07:20:28Z</time>
      </trkpt>
      <trkpt lat="46.63777" lon="5.60502">
        <ele>373.7</ele>
        <time>2022-05-03T07:20:33Z</time>
      </trkpt>
      <trkpt lat="46.63772" lon="5.60502">
        <ele>373.7</ele>
        <time>2022-05-03T07:20:37Z</time>
      </trkpt>
      <trkpt lat="46.63768" lon="5.60505">
        <ele>373.7</ele>
        <time>2022-05-03T07:20:42Z</time>
      </trkpt>
      <trkpt lat="46.63765" lon="5.6051">
        <ele>373.5</ele>
        <time>2022-05-03T07:20:47Z</time>
      </trkpt>
      <trkpt lat="46.63761" lon="5.60514">
        <ele>373</ele>
        <time>2022-05-03T07:20:52Z</time>
      </trkpt>
      <trkpt lat="46.63756" lon="5.60516">
        <ele>372.1</ele>
        <time>2022-05-03T07:20:58Z</time>
      </trkpt>
      <trkpt lat="46.63752" lon="5.6052">
        <ele>370.9</ele>
        <time>2022-05-03T07:21:04Z</time>
      </trkpt>
      <trkpt lat="46.6375" lon="5.60527">
        <ele>370</ele>
        <time>2022-05-03T07:21:08Z</time>
      </trkpt>
      <trkpt lat="46.63747" lon="5.60533">
        <ele>369.4</ele>
        <time>2022-05-03T07:21:11Z</time>
      </trkpt>
      <trkpt lat="46.63743" lon="5.60539">
        <ele>368.8</ele>
        <time>2022-05-03T07:21:15Z</time>
      </trkpt>
      <trkpt lat="46.63738" lon="5.60543">
        <ele>368.7</ele>
        <time>2022-05-03T07:21:18Z</time>
      </trkpt>
      <trkpt lat="46.63733" lon="5.60547">
        <ele>368.4</ele>
        <time>2022-05-03T07:21:22Z</time>
      </trkpt>
      <trkpt lat="46.63729" lon="5.60551">
        <ele>367.9</ele>
        <time>2022-05-03T07:21:26Z</time>
      </trkpt>
      <trkpt lat="46.63724" lon="5.60554">
        <ele>367.8</ele>
        <time>2022-05-03T07:21:30Z</time>
      </trkpt>
      <trkpt lat="46.63721" lon="5.60559">
        <ele>368.2</ele>
        <time>2022-05-03T07:21:35Z</time>
      </trkpt>
      <trkpt lat="46.63719" lon="5.60565">
        <ele>368.5</ele>
        <time>2022-05-03T07:21:40Z</time>
      </trkpt>
      <trkpt lat="46.63717" lon="5.60571">
        <ele>368.3</ele>
        <time>2022-05-03T07:21:44Z</time>
      </trkpt>
      <trkpt lat="46.63712" lon="5.60575">
        <ele>368.5</ele>
        <time>2022-05-03T07:21:48Z</time>
      </trkpt>
      <trkpt lat="46.63707" lon="5.60577">
        <ele>368.8</ele>
        <time>2022-05-03T07:21:52Z</time>
      </trkpt>
      <trkpt lat="46.63702" lon="5.6058">
        <ele>369.4</ele>
        <time>2022-05-03T07:21:56Z</time>
      </trkpt>
      <trkpt lat="46.63697" lon="5.60582">
        <ele>370.9</ele>
        <time>2022-05-03T07:22:01Z</time>
      </trkpt>
      <trkpt lat="46.63692" lon="5.60581">
        <ele>372.1</ele>
        <time>2022-05-03T07:22:05Z</time>
      </trkpt>
      <trkpt lat="46.63687" lon="5.60581">
        <ele>373.2</ele>
        <time>2022-05-03T07:22:10Z</time>
      </trkpt>
      <trkpt lat="46.63683" lon="5.60584">
        <ele>373.6</ele>
        <time>2022-05-03T07:22:16Z</time>
      </trkpt>
      <trkpt lat="46.63677" lon="5.60585">
        <ele>373.6</ele>
        <time>2022-05-03T07:22:20Z</time>
      </trkpt>
      <trkpt lat="46.63673" lon="5.60588">
        <ele>373.5</ele>
        <time>2022-05-03T07:22:23Z</time>
      </trkpt>
      <trkpt lat="46.63669" lon="5.60591">
        <ele>373.4</ele>
        <time>2022-05-03T07:22:26Z</time>
      </trkpt>
      <trkpt lat="46.63665" lon="5.60596">
        <ele>373.2</ele>
        <time>2022-05-03T07:22:30Z</time>
      </trkpt>
      <trkpt lat="46.63661" lon="5.606">
        <ele>373.4</ele>
        <time>2022-05-03T07:22:34Z</time>
      </trkpt>
      <trkpt lat="46.63657" lon="5.60604">
        <ele>373.4</ele>
        <time>2022-05-03T07:22:38Z</time>
      </trkpt>
      <trkpt lat="46.63652" lon="5.60606">
        <ele>373.5</ele>
        <time>2022-05-03T07:22:42Z</time>
      </trkpt>
      <trkpt lat="46.63647" lon="5.60609">
        <ele>373.7</ele>
        <time>2022-05-03T07:22:46Z</time>
      </trkpt>
      <trkpt lat="46.63644" lon="5.60615">
        <ele>373.8</ele>
        <time>2022-05-03T07:22:50Z</time>
      </trkpt>
      <trkpt lat="46.63639" lon="5.60619">
        <ele>373.6</ele>
        <time>2022-05-03T07:22:54Z</time>
      </trkpt>
      <trkpt lat="46.63636" lon="5.60625">
        <ele>373.3</ele>
        <time>2022-05-03T07:22:58Z</time>
      </trkpt>
      <trkpt lat="46.63632" lon="5.6063">
        <ele>372.9</ele>
        <time>2022-05-03T07:23:03Z</time>
      </trkpt>
      <trkpt lat="46.63628" lon="5.60635">
        <ele>372.4</ele>
        <time>2022-05-03T07:23:09Z</time>
      </trkpt>
      <trkpt lat="46.63625" lon="5.60639">
        <ele>371.8</ele>
        <time>2022-05-03T07:23:14Z</time>
      </trkpt>
      <trkpt lat="46.63621" lon="5.60643">
        <ele>371.6</ele>
        <time>2022-05-03T07:23:19Z</time>
      </trkpt>
      <trkpt lat="46.63617" lon="5.60647">
        <ele>371.7</ele>
        <time>2022-05-03T07:23:24Z</time>
      </trkpt>
      <trkpt lat="46.63612" lon="5.60651">
        <ele>372.3</ele>
        <time>2022-05-03T07:23:29Z</time>
      </trkpt>
      <trkpt lat="46.63607" lon="5.60655">
        <ele>372.5</ele>
        <time>2022-05-03T07:23:33Z</time>
      </trkpt>
      <trkpt lat="46.63602" lon="5.60658">
        <ele>372.6</ele>
        <time>2022-05-03T07:23:36Z</time>
      </trkpt>
      <trkpt lat="46.63598" lon="5.60659">
        <ele>372.6</ele>
        <time>2022-05-03T07:23:39Z</time>
      </trkpt>
      <trkpt lat="46.63593" lon="5.60659">
        <ele>372.9</ele>
        <time>2022-05-03T07:23:43Z</time>
      </trkpt>
      <trkpt lat="46.63588" lon="5.60657">
        <ele>373.5</ele>
        <time>2022-05-03T07:23:48Z</time>
      </trkpt>
      <trkpt lat="46.63584" lon="5.60662">
        <ele>374.9</ele>
        <time>2022-05-03T07:23:56Z</time>
      </trkpt>
      <trkpt lat="46.6358" lon="5.60664">
        <ele>375.8</ele>
        <time>2022-05-03T07:24:01Z</time>
      </trkpt>
      <trkpt lat="46.63574" lon="5.60666">
        <ele>376.3</ele>
        <time>2022-05-03T07:24:05Z</time>
      </trkpt>
      <trkpt lat="46.6357" lon="5.60669">
        <ele>376.5</ele>
        <time>2022-05-03T07:24:10Z</time>
      </trkpt>
      <trkpt lat="46.63565" lon="5.60671">
        <ele>376.2</ele>
        <time>2022-05-03T07:24:15Z</time>
      </trkpt>
      <trkpt lat="46.63561" lon="5.60676">
        <ele>375.9</ele>
        <time>2022-05-03T07:24:20Z</time>
      </trkpt>
      <trkpt lat="46.63556" lon="5.60679">
        <ele>375.9</ele>
        <time>2022-05-03T07:24:26Z</time>
      </trkpt>
      <trkpt lat="46.63551" lon="5.60681">
        <ele>375.9</ele>
        <time>2022-05-03T07:24:30Z</time>
      </trkpt>
      <trkpt lat="46.63548" lon="5.60686">
        <ele>376.3</ele>
        <time>2022-05-03T07:24:34Z</time>
      </trkpt>
      <trkpt lat="46.63544" lon="5.6069">
        <ele>376.9</ele>
        <time>2022-05-03T07:24:38Z</time>
      </trkpt>
      <trkpt lat="46.6354" lon="5.60693">
        <ele>377.5</ele>
        <time>2022-05-03T07:24:43Z</time>
      </trkpt>
      <trkpt lat="46.63536" lon="5.60698">
        <ele>378.1</ele>
        <time>2022-05-03T07:24:48Z</time>
      </trkpt>
      <trkpt lat="46.63532" lon="5.60701">
        <ele>378.5</ele>
        <time>2022-05-03T07:24:52Z</time>
      </trkpt>
      <trkpt lat="46.63528" lon="5.60706">
        <ele>379.4</ele>
        <time>2022-05-03T07:24:56Z</time>
      </trkpt>
      <trkpt lat="46.63524" lon="5.6071">
        <ele>381.3</ele>
        <time>2022-05-03T07:25:01Z</time>
      </trkpt>
      <trkpt lat="46.63519" lon="5.60713">
        <ele>382.7</ele>
        <time>2022-05-03T07:25:05Z</time>
      </trkpt>
      <trkpt lat="46.63515" lon="5.60715">
        <ele>384.2</ele>
        <time>2022-05-03T07:25:08Z</time>
      </trkpt>
      <trkpt lat="46.6351" lon="5.60715">
        <ele>385.9</ele>
        <time>2022-05-03T07:25:11Z</time>
      </trkpt>
      <trkpt lat="46.63506" lon="5.6072">
        <ele>388</ele>
        <time>2022-05-03T07:25:16Z</time>
      </trkpt>
      <trkpt lat="46.63504" lon="5.60726">
        <ele>389.4</ele>
        <time>2022-05-03T07:25:20Z</time>
      </trkpt>
      <trkpt lat="46.635" lon="5.60731">
        <ele>390.4</ele>
        <time>2022-05-03T07:25:24Z</time>
      </trkpt>
      <trkpt lat="46.63496" lon="5.60736">
        <ele>391.2</ele>
        <time>2022-05-03T07:25:28Z</time>
      </trkpt>
      <trkpt lat="46.63494" lon="5.60741">
        <ele>391.1</ele>
        <time>2022-05-03T07:25:33Z</time>
      </trkpt>
      <trkpt lat="46.63491" lon="5.60746">
        <ele>390</ele>
        <time>2022-05-03T07:25:38Z</time>
      </trkpt>
      <trkpt lat="46.63489" lon="5.60754">
        <ele>388.5</ele>
        <time>2022-05-03T07:25:43Z</time>
      </trkpt>
      <trkpt lat="46.63487" lon="5.60761">
        <ele>386.8</ele>
        <time>2022-05-03T07:25:48Z</time>
      </trkpt>
      <trkpt lat="46.63484" lon="5.60767">
        <ele>385.2</ele>
        <time>2022-05-03T07:25:53Z</time>
      </trkpt>
      <trkpt lat="46.63481" lon="5.60774">
        <ele>383.2</ele>
        <time>2022-05-03T07:25:58Z</time>
      </trkpt>
      <trkpt lat="46.63479" lon="5.60781">
        <ele>381.6</ele>
        <time>2022-05-03T07:26:02Z</time>
      </trkpt>
      <trkpt lat="46.63476" lon="5.60787">
        <ele>380.5</ele>
        <time>2022-05-03T07:26:06Z</time>
      </trkpt>
      <trkpt lat="46.63474" lon="5.60794">
        <ele>379.9</ele>
        <time>2022-05-03T07:26:11Z</time>
      </trkpt>
      <trkpt lat="46.63473" lon="5.608">
        <ele>379.2</ele>
        <time>2022-05-03T07:26:17Z</time>
      </trkpt>
      <trkpt lat="46.6347" lon="5.60807">
        <ele>379.1</ele>
        <time>2022-05-03T07:26:22Z</time>
      </trkpt>
      <trkpt lat="46.63469" lon="5.60814">
        <ele>378.8</ele>
        <time>2022-05-03T07:26:26Z</time>
      </trkpt>
      <trkpt lat="46.63467" lon="5.6082">
        <ele>378.5</ele>
        <time>2022-05-03T07:26:30Z</time>
      </trkpt>
      <trkpt lat="46.63464" lon="5.60826">
        <ele>378.7</ele>
        <time>2022-05-03T07:26:35Z</time>
      </trkpt>
      <trkpt lat="46.63462" lon="5.60833">
        <ele>378.9</ele>
        <time>2022-05-03T07:26:39Z</time>
      </trkpt>
      <trkpt lat="46.63461" lon="5.6084">
        <ele>379</ele>
        <time>2022-05-03T07:26:44Z</time>
      </trkpt>
      <trkpt lat="46.63462" lon="5.60847">
        <ele>378.7</ele>
        <time>2022-05-03T07:26:49Z</time>
      </trkpt>
      <trkpt lat="46.63463" lon="5.60853">
        <ele>378.7</ele>
        <time>2022-05-03T07:26:57Z</time>
      </trkpt>
      <trkpt lat="46.63461" lon="5.60861">
        <ele>378.1</ele>
        <time>2022-05-03T07:27:04Z</time>
      </trkpt>
      <trkpt lat="46.63459" lon="5.60868">
        <ele>377.8</ele>
        <time>2022-05-03T07:27:08Z</time>
      </trkpt>
      <trkpt lat="46.63458" lon="5.60876">
        <ele>377.4</ele>
        <time>2022-05-03T07:27:12Z</time>
      </trkpt>
      <trkpt lat="46.63457" lon="5.60884">
        <ele>377.5</ele>
        <time>2022-05-03T07:27:16Z</time>
      </trkpt>
      <trkpt lat="46.63457" lon="5.60892">
        <ele>378.1</ele>
        <time>2022-05-03T07:27:19Z</time>
      </trkpt>
      <trkpt lat="46.63455" lon="5.60899">
        <ele>378.6</ele>
        <time>2022-05-03T07:27:23Z</time>
      </trkpt>
      <trkpt lat="46.63454" lon="5.60906">
        <ele>379.8</ele>
        <time>2022-05-03T07:27:27Z</time>
      </trkpt>
      <trkpt lat="46.63454" lon="5.60914">
        <ele>381</ele>
        <time>2022-05-03T07:27:31Z</time>
      </trkpt>
      <trkpt lat="46.63453" lon="5.60921">
        <ele>382</ele>
        <time>2022-05-03T07:27:35Z</time>
      </trkpt>
      <trkpt lat="46.63453" lon="5.60929">
        <ele>383</ele>
        <time>2022-05-03T07:27:40Z</time>
      </trkpt>
      <trkpt lat="46.63453" lon="5.60936">
        <ele>383.7</ele>
        <time>2022-05-03T07:27:45Z</time>
      </trkpt>
      <trkpt lat="46.63452" lon="5.60943">
        <ele>385.1</ele>
        <time>2022-05-03T07:27:51Z</time>
      </trkpt>
      <trkpt lat="46.63451" lon="5.6095">
        <ele>385.4</ele>
        <time>2022-05-03T07:27:56Z</time>
      </trkpt>
      <trkpt lat="46.63451" lon="5.60958">
        <ele>385.7</ele>
        <time>2022-05-03T07:28:02Z</time>
      </trkpt>
      <trkpt lat="46.63452" lon="5.60966">
        <ele>385.5</ele>
        <time>2022-05-03T07:28:08Z</time>
      </trkpt>
      <trkpt lat="46.63453" lon="5.60974">
        <ele>385.6</ele>
        <time>2022-05-03T07:28:12Z</time>
      </trkpt>
      <trkpt lat="46.63454" lon="5.60981">
        <ele>385.7</ele>
        <time>2022-05-03T07:28:16Z</time>
      </trkpt>
      <trkpt lat="46.63454" lon="5.60988">
        <ele>385.6</ele>
        <time>2022-05-03T07:28:20Z</time>
      </trkpt>
      <trkpt lat="46.63454" lon="5.60996">
        <ele>385.8</ele>
        <time>2022-05-03T07:28:25Z</time>
      </trkpt>
      <trkpt lat="46.63455" lon="5.61002">
        <ele>386.3</ele>
        <time>2022-05-03T07:28:29Z</time>
      </trkpt>
      <trkpt lat="46.63456" lon="5.61009">
        <ele>386.5</ele>
        <time>2022-05-03T07:28:33Z</time>
      </trkpt>
      <trkpt lat="46.63457" lon="5.61017">
        <ele>387.1</ele>
        <time>2022-05-03T07:28:38Z</time>
      </trkpt>
      <trkpt lat="46.63459" lon="5.61022">
        <ele>387.7</ele>
        <time>2022-05-03T07:28:42Z</time>
      </trkpt>
      <trkpt lat="46.6346" lon="5.6103">
        <ele>388.7</ele>
        <time>2022-05-03T07:28:47Z</time>
      </trkpt>
      <trkpt lat="46.63461" lon="5.61037">
        <ele>389.3</ele>
        <time>2022-05-03T07:28:51Z</time>
      </trkpt>
      <trkpt lat="46.63462" lon="5.61044">
        <ele>389.7</ele>
        <time>2022-05-03T07:28:56Z</time>
      </trkpt>
      <trkpt lat="46.63464" lon="5.61051">
        <ele>389.8</ele>
        <time>2022-05-03T07:29:01Z</time>
      </trkpt>
      <trkpt lat="46.63465" lon="5.61058">
        <ele>390.1</ele>
        <time>2022-05-03T07:29:06Z</time>
      </trkpt>
      <trkpt lat="46.63466" lon="5.61066">
        <ele>390.3</ele>
        <time>2022-05-03T07:29:11Z</time>
      </trkpt>
      <trkpt lat="46.63467" lon="5.61073">
        <ele>390.6</ele>
        <time>2022-05-03T07:29:15Z</time>
      </trkpt>
      <trkpt lat="46.63467" lon="5.61081">
        <ele>391</ele>
        <time>2022-05-03T07:29:19Z</time>
      </trkpt>
      <trkpt lat="46.63466" lon="5.61089">
        <ele>391.4</ele>
        <time>2022-05-03T07:29:23Z</time>
      </trkpt>
      <trkpt lat="46.63466" lon="5.61096">
        <ele>391.6</ele>
        <time>2022-05-03T07:29:28Z</time>
      </trkpt>
      <trkpt lat="46.63467" lon="5.61103">
        <ele>391.9</ele>
        <time>2022-05-03T07:29:33Z</time>
      </trkpt>
      <trkpt lat="46.63468" lon="5.6111">
        <ele>392.4</ele>
        <time>2022-05-03T07:29:38Z</time>
      </trkpt>
      <trkpt lat="46.63468" lon="5.61117">
        <ele>392.8</ele>
        <time>2022-05-03T07:29:43Z</time>
      </trkpt>
      <trkpt lat="46.63467" lon="5.61124">
        <ele>393</ele>
        <time>2022-05-03T07:29:48Z</time>
      </trkpt>
      <trkpt lat="46.63467" lon="5.61131">
        <ele>393.4</ele>
        <time>2022-05-03T07:29:53Z</time>
      </trkpt>
      <trkpt lat="46.63468" lon="5.61137">
        <ele>393.7</ele>
        <time>2022-05-03T07:29:58Z</time>
      </trkpt>
      <trkpt lat="46.63469" lon="5.61144">
        <ele>394.3</ele>
        <time>2022-05-03T07:30:03Z</time>
      </trkpt>
      <trkpt lat="46.6347" lon="5.61151">
        <ele>394.7</ele>
        <time>2022-05-03T07:30:08Z</time>
      </trkpt>
      <trkpt lat="46.6347" lon="5.61158">
        <ele>395.2</ele>
        <time>2022-05-03T07:30:14Z</time>
      </trkpt>
      <trkpt lat="46.63471" lon="5.61165">
        <ele>395.3</ele>
        <time>2022-05-03T07:30:19Z</time>
      </trkpt>
      <trkpt lat="46.63473" lon="5.61172">
        <ele>395.7</ele>
        <time>2022-05-03T07:30:23Z</time>
      </trkpt>
      <trkpt lat="46.63475" lon="5.61178">
        <ele>396.1</ele>
        <time>2022-05-03T07:30:27Z</time>
      </trkpt>
      <trkpt lat="46.63476" lon="5.61185">
        <ele>396.5</ele>
        <time>2022-05-03T07:30:32Z</time>
      </trkpt>
      <trkpt lat="46.63479" lon="5.6119">
        <ele>396.8</ele>
        <time>2022-05-03T07:30:36Z</time>
      </trkpt>
      <trkpt lat="46.63482" lon="5.61196">
        <ele>397</ele>
        <time>2022-05-03T07:30:40Z</time>
      </trkpt>
      <trkpt lat="46.63486" lon="5.61202">
        <ele>397.5</ele>
        <time>2022-05-03T07:30:45Z</time>
      </trkpt>
      <trkpt lat="46.63489" lon="5.61209">
        <ele>397.6</ele>
        <time>2022-05-03T07:30:50Z</time>
      </trkpt>
      <trkpt lat="46.63493" lon="5.61213">
        <ele>397.7</ele>
        <time>2022-05-03T07:30:55Z</time>
      </trkpt>
      <trkpt lat="46.63496" lon="5.6122">
        <ele>397.8</ele>
        <time>2022-05-03T07:31:00Z</time>
      </trkpt>
      <trkpt lat="46.635" lon="5.61225">
        <ele>398.3</ele>
        <time>2022-05-03T07:31:04Z</time>
      </trkpt>
      <trkpt lat="46.63504" lon="5.6123">
        <ele>399</ele>
        <time>2022-05-03T07:31:09Z</time>
      </trkpt>
      <trkpt lat="46.63508" lon="5.61233">
        <ele>399.5</ele>
        <time>2022-05-03T07:31:13Z</time>
      </trkpt>
      <trkpt lat="46.63512" lon="5.61238">
        <ele>399.9</ele>
        <time>2022-05-03T07:31:18Z</time>
      </trkpt>
      <trkpt lat="46.63517" lon="5.6124">
        <ele>399.4</ele>
        <time>2022-05-03T07:31:23Z</time>
      </trkpt>
      <trkpt lat="46.63521" lon="5.61244">
        <ele>398.6</ele>
        <time>2022-05-03T07:31:29Z</time>
      </trkpt>
      <trkpt lat="46.63525" lon="5.61247">
        <ele>397.8</ele>
        <time>2022-05-03T07:31:34Z</time>
      </trkpt>
      <trkpt lat="46.63529" lon="5.61253">
        <ele>396.7</ele>
        <time>2022-05-03T07:31:40Z</time>
      </trkpt>
      <trkpt lat="46.63532" lon="5.61258">
        <ele>395.9</ele>
        <time>2022-05-03T07:31:44Z</time>
      </trkpt>
      <trkpt lat="46.63534" lon="5.61264">
        <ele>394.9</ele>
        <time>2022-05-03T07:31:49Z</time>
      </trkpt>
      <trkpt lat="46.63535" lon="5.61272">
        <ele>394.8</ele>
        <time>2022-05-03T07:31:52Z</time>
      </trkpt>
      <trkpt lat="46.63537" lon="5.6128">
        <ele>394.8</ele>
        <time>2022-05-03T07:31:55Z</time>
      </trkpt>
      <trkpt lat="46.63539" lon="5.61289">
        <ele>395.3</ele>
        <time>2022-05-03T07:31:58Z</time>
      </trkpt>
      <trkpt lat="46.63541" lon="5.61296">
        <ele>395.8</ele>
        <time>2022-05-03T07:32:01Z</time>
      </trkpt>
      <trkpt lat="46.63542" lon="5.61302">
        <ele>396.4</ele>
        <time>2022-05-03T07:32:05Z</time>
      </trkpt>
      <trkpt lat="46.63542" lon="5.6131">
        <ele>396.9</ele>
        <time>2022-05-03T07:32:10Z</time>
      </trkpt>
      <trkpt lat="46.63544" lon="5.61316">
        <ele>397.3</ele>
        <time>2022-05-03T07:32:14Z</time>
      </trkpt>
      <trkpt lat="46.63546" lon="5.61322">
        <ele>398</ele>
        <time>2022-05-03T07:32:19Z</time>
      </trkpt>
      <trkpt lat="46.63549" lon="5.61328">
        <ele>398.8</ele>
        <time>2022-05-03T07:32:24Z</time>
      </trkpt>
      <trkpt lat="46.6355" lon="5.61334">
        <ele>399.7</ele>
        <time>2022-05-03T07:32:29Z</time>
      </trkpt>
      <trkpt lat="46.63552" lon="5.61341">
        <ele>400</ele>
        <time>2022-05-03T07:32:34Z</time>
      </trkpt>
      <trkpt lat="46.63555" lon="5.61346">
        <ele>400</ele>
        <time>2022-05-03T07:32:39Z</time>
      </trkpt>
      <trkpt lat="46.63558" lon="5.61353">
        <ele>399.6</ele>
        <time>2022-05-03T07:32:45Z</time>
      </trkpt>
      <trkpt lat="46.63561" lon="5.6136">
        <ele>399.7</ele>
        <time>2022-05-03T07:32:49Z</time>
      </trkpt>
      <trkpt lat="46.63564" lon="5.61367">
        <ele>400.1</ele>
        <time>2022-05-03T07:32:53Z</time>
      </trkpt>
      <trkpt lat="46.63568" lon="5.61372">
        <ele>400.4</ele>
        <time>2022-05-03T07:32:58Z</time>
      </trkpt>
      <trkpt lat="46.63572" lon="5.61376">
        <ele>400.4</ele>
        <time>2022-05-03T07:33:02Z</time>
      </trkpt>
      <trkpt lat="46.63575" lon="5.61382">
        <ele>400</ele>
        <time>2022-05-03T07:33:07Z</time>
      </trkpt>
      <trkpt lat="46.63578" lon="5.61386">
        <ele>399.7</ele>
        <time>2022-05-03T07:33:13Z</time>
      </trkpt>
      <trkpt lat="46.63581" lon="5.61392">
        <ele>400</ele>
        <time>2022-05-03T07:33:17Z</time>
      </trkpt>
      <trkpt lat="46.63585" lon="5.61397">
        <ele>400.6</ele>
        <time>2022-05-03T07:33:22Z</time>
      </trkpt>
      <trkpt lat="46.63588" lon="5.61401">
        <ele>401.8</ele>
        <time>2022-05-03T07:33:27Z</time>
      </trkpt>
      <trkpt lat="46.63592" lon="5.61408">
        <ele>402.5</ele>
        <time>2022-05-03T07:33:32Z</time>
      </trkpt>
      <trkpt lat="46.63594" lon="5.61415">
        <ele>403</ele>
        <time>2022-05-03T07:33:35Z</time>
      </trkpt>
      <trkpt lat="46.63596" lon="5.61421">
        <ele>404</ele>
        <time>2022-05-03T07:33:38Z</time>
      </trkpt>
      <trkpt lat="46.63599" lon="5.61428">
        <ele>405.5</ele>
        <time>2022-05-03T07:33:43Z</time>
      </trkpt>
      <trkpt lat="46.63602" lon="5.61432">
        <ele>406.6</ele>
        <time>2022-05-03T07:33:50Z</time>
      </trkpt>
      <trkpt lat="46.63604" lon="5.61438">
        <ele>406.6</ele>
        <time>2022-05-03T07:33:57Z</time>
      </trkpt>
      <trkpt lat="46.63609" lon="5.61442">
        <ele>406</ele>
        <time>2022-05-03T07:34:03Z</time>
      </trkpt>
      <trkpt lat="46.63612" lon="5.61447">
        <ele>405.4</ele>
        <time>2022-05-03T07:34:08Z</time>
      </trkpt>
      <trkpt lat="46.63613" lon="5.61453">
        <ele>404.7</ele>
        <time>2022-05-03T07:34:12Z</time>
      </trkpt>
      <trkpt lat="46.63615" lon="5.61459">
        <ele>403.5</ele>
        <time>2022-05-03T07:34:17Z</time>
      </trkpt>
      <trkpt lat="46.63618" lon="5.61465">
        <ele>402.2</ele>
        <time>2022-05-03T07:34:22Z</time>
      </trkpt>
      <trkpt lat="46.63622" lon="5.61471">
        <ele>401.2</ele>
        <time>2022-05-03T07:34:27Z</time>
      </trkpt>
      <trkpt lat="46.63624" lon="5.61478">
        <ele>401.1</ele>
        <time>2022-05-03T07:34:30Z</time>
      </trkpt>
      <trkpt lat="46.63626" lon="5.61488">
        <ele>401.4</ele>
        <time>2022-05-03T07:34:33Z</time>
      </trkpt>
      <trkpt lat="46.63627" lon="5.61496">
        <ele>402.1</ele>
        <time>2022-05-03T07:34:36Z</time>
      </trkpt>
      <trkpt lat="46.63629" lon="5.61503">
        <ele>403.1</ele>
        <time>2022-05-03T07:34:40Z</time>
      </trkpt>
      <trkpt lat="46.63631" lon="5.61508">
        <ele>404.2</ele>
        <time>2022-05-03T07:34:44Z</time>
      </trkpt>
      <trkpt lat="46.63634" lon="5.61515">
        <ele>405.3</ele>
        <time>2022-05-03T07:34:48Z</time>
      </trkpt>
      <trkpt lat="46.63637" lon="5.61522">
        <ele>406.4</ele>
        <time>2022-05-03T07:34:52Z</time>
      </trkpt>
      <trkpt lat="46.6364" lon="5.61527">
        <ele>407.5</ele>
        <time>2022-05-03T07:34:57Z</time>
      </trkpt>
      <trkpt lat="46.63644" lon="5.6153">
        <ele>408.5</ele>
        <time>2022-05-03T07:35:03Z</time>
      </trkpt>
      <trkpt lat="46.63649" lon="5.61533">
        <ele>408.9</ele>
        <time>2022-05-03T07:35:09Z</time>
      </trkpt>
      <trkpt lat="46.63652" lon="5.61539">
        <ele>409.1</ele>
        <time>2022-05-03T07:35:14Z</time>
      </trkpt>
      <trkpt lat="46.63655" lon="5.61543">
        <ele>408.6</ele>
        <time>2022-05-03T07:35:20Z</time>
      </trkpt>
      <trkpt lat="46.63659" lon="5.61548">
        <ele>407.7</ele>
        <time>2022-05-03T07:35:26Z</time>
      </trkpt>
      <trkpt lat="46.63664" lon="5.6155">
        <ele>406.8</ele>
        <time>2022-05-03T07:35:31Z</time>
      </trkpt>
      <trkpt lat="46.63669" lon="5.61553">
        <ele>406</ele>
        <time>2022-05-03T07:35:36Z</time>
      </trkpt>
      <trkpt lat="46.63674" lon="5.61554">
        <ele>405.6</ele>
        <time>2022-05-03T07:35:40Z</time>
      </trkpt>
      <trkpt lat="46.63679" lon="5.61556">
        <ele>405.1</ele>
        <time>2022-05-03T07:35:44Z</time>
      </trkpt>
      <trkpt lat="46.63683" lon="5.6156">
        <ele>405.1</ele>
        <time>2022-05-03T07:35:47Z</time>
      </trkpt>
      <trkpt lat="46.63688" lon="5.61563">
        <ele>405.2</ele>
        <time>2022-05-03T07:35:51Z</time>
      </trkpt>
      <trkpt lat="46.63693" lon="5.61566">
        <ele>405.5</ele>
        <time>2022-05-03T07:35:55Z</time>
      </trkpt>
      <trkpt lat="46.63698" lon="5.61569">
        <ele>405.5</ele>
        <time>2022-05-03T07:35:59Z</time>
      </trkpt>
      <trkpt lat="46.63703" lon="5.61572">
        <ele>405.5</ele>
        <time>2022-05-03T07:36:04Z</time>
      </trkpt>
      <trkpt lat="46.63708" lon="5.61571">
        <ele>405.9</ele>
        <time>2022-05-03T07:36:09Z</time>
      </trkpt>
      <trkpt lat="46.63713" lon="5.6157">
        <ele>405.9</ele>
        <time>2022-05-03T07:36:16Z</time>
      </trkpt>
      <trkpt lat="46.63718" lon="5.61568">
        <ele>405.7</ele>
        <time>2022-05-03T07:36:23Z</time>
      </trkpt>
      <trkpt lat="46.63723" lon="5.61566">
        <ele>405.4</ele>
        <time>2022-05-03T07:36:28Z</time>
      </trkpt>
      <trkpt lat="46.63728" lon="5.61562">
        <ele>405.2</ele>
        <time>2022-05-03T07:36:32Z</time>
      </trkpt>
      <trkpt lat="46.63733" lon="5.61567">
        <ele>405.5</ele>
        <time>2022-05-03T07:36:36Z</time>
      </trkpt>
      <trkpt lat="46.63736" lon="5.61571">
        <ele>405.9</ele>
        <time>2022-05-03T07:36:39Z</time>
      </trkpt>
      <trkpt lat="46.6374" lon="5.61574">
        <ele>406.1</ele>
        <time>2022-05-03T07:36:42Z</time>
      </trkpt>
      <trkpt lat="46.63744" lon="5.61578">
        <ele>406.3</ele>
        <time>2022-05-03T07:36:45Z</time>
      </trkpt>
      <trkpt lat="46.63749" lon="5.61579">
        <ele>406.8</ele>
        <time>2022-05-03T07:36:49Z</time>
      </trkpt>
      <trkpt lat="46.63755" lon="5.61583">
        <ele>408</ele>
        <time>2022-05-03T07:36:53Z</time>
      </trkpt>
      <trkpt lat="46.6376" lon="5.61585">
        <ele>409.1</ele>
        <time>2022-05-03T07:36:57Z</time>
      </trkpt>
      <trkpt lat="46.63764" lon="5.61585">
        <ele>410.2</ele>
        <time>2022-05-03T07:37:01Z</time>
      </trkpt>
      <trkpt lat="46.6377" lon="5.61587">
        <ele>411.6</ele>
        <time>2022-05-03T07:37:06Z</time>
      </trkpt>
      <trkpt lat="46.63774" lon="5.61592">
        <ele>412.6</ele>
        <time>2022-05-03T07:37:11Z</time>
      </trkpt>
      <trkpt lat="46.63777" lon="5.61598">
        <ele>413.1</ele>
        <time>2022-05-03T07:37:15Z</time>
      </trkpt>
      <trkpt lat="46.63781" lon="5.61602">
        <ele>413.6</ele>
        <time>2022-05-03T07:37:20Z</time>
      </trkpt>
      <trkpt lat="46.63785" lon="5.61606">
        <ele>413.8</ele>
        <time>2022-05-03T07:37:24Z</time>
      </trkpt>
      <trkpt lat="46.6379" lon="5.61609">
        <ele>414.5</ele>
        <time>2022-05-03T07:37:28Z</time>
      </trkpt>
      <trkpt lat="46.63795" lon="5.61609">
        <ele>415.3</ele>
        <time>2022-05-03T07:37:32Z</time>
      </trkpt>
      <trkpt lat="46.63799" lon="5.61613">
        <ele>416.7</ele>
        <time>2022-05-03T07:37:38Z</time>
      </trkpt>
      <trkpt lat="46.63804" lon="5.61616">
        <ele>417.7</ele>
        <time>2022-05-03T07:37:43Z</time>
      </trkpt>
      <trkpt lat="46.63808" lon="5.61619">
        <ele>418.2</ele>
        <time>2022-05-03T07:37:48Z</time>
      </trkpt>
      <trkpt lat="46.63812" lon="5.61622">
        <ele>418.6</ele>
        <time>2022-05-03T07:37:53Z</time>
      </trkpt>
      <trkpt lat="46.63814" lon="5.61628">
        <ele>418.9</ele>
        <time>2022-05-03T07:37:58Z</time>
      </trkpt>
      <trkpt lat="46.63819" lon="5.61632">
        <ele>419.1</ele>
        <time>2022-05-03T07:38:02Z</time>
      </trkpt>
      <trkpt lat="46.63823" lon="5.61634">
        <ele>419.6</ele>
        <time>2022-05-03T07:38:05Z</time>
      </trkpt>
      <trkpt lat="46.63828" lon="5.61637">
        <ele>420.5</ele>
        <time>2022-05-03T07:38:09Z</time>
      </trkpt>
      <trkpt lat="46.63834" lon="5.61638">
        <ele>421.2</ele>
        <time>2022-05-03T07:38:14Z</time>
      </trkpt>
      <trkpt lat="46.63839" lon="5.61639">
        <ele>422.1</ele>
        <time>2022-05-03T07:38:19Z</time>
      </trkpt>
      <trkpt lat="46.63844" lon="5.61641">
        <ele>422.4</ele>
        <time>2022-05-03T07:38:24Z</time>
      </trkpt>
      <trkpt lat="46.63847" lon="5.61646">
        <ele>422.8</ele>
        <time>2022-05-03T07:38:30Z</time>
      </trkpt>
      <trkpt lat="46.6385" lon="5.61653">
        <ele>423</ele>
        <time>2022-05-03T07:38:35Z</time>
      </trkpt>
      <trkpt lat="46.63854" lon="5.61658">
        <ele>423</ele>
        <time>2022-05-03T07:38:41Z</time>
      </trkpt>
      <trkpt lat="46.63857" lon="5.61665">
        <ele>422.5</ele>
        <time>2022-05-03T07:38:45Z</time>
      </trkpt>
      <trkpt lat="46.6386" lon="5.61671">
        <ele>421.8</ele>
        <time>2022-05-03T07:38:49Z</time>
      </trkpt>
      <trkpt lat="46.63864" lon="5.61673">
        <ele>420.7</ele>
        <time>2022-05-03T07:38:54Z</time>
      </trkpt>
      <trkpt lat="46.63866" lon="5.6168">
        <ele>419.8</ele>
        <time>2022-05-03T07:39:00Z</time>
      </trkpt>
      <trkpt lat="46.63869" lon="5.61685">
        <ele>419.5</ele>
        <time>2022-05-03T07:39:05Z</time>
      </trkpt>
      <trkpt lat="46.63874" lon="5.61687">
        <ele>419.2</ele>
        <time>2022-05-03T07:39:11Z</time>
      </trkpt>
      <trkpt lat="46.63879" lon="5.61688">
        <ele>419</ele>
        <time>2022-05-03T07:39:15Z</time>
      </trkpt>
      <trkpt lat="46.63883" lon="5.61691">
        <ele>419</ele>
        <time>2022-05-03T07:39:18Z</time>
      </trkpt>
      <trkpt lat="46.6389" lon="5.6169">
        <ele>419</ele>
        <time>2022-05-03T07:39:22Z</time>
      </trkpt>
      <trkpt lat="46.63895" lon="5.6169">
        <ele>419</ele>
        <time>2022-05-03T07:39:25Z</time>
      </trkpt>
      <trkpt lat="46.639" lon="5.61691">
        <ele>419.3</ele>
        <time>2022-05-03T07:39:28Z</time>
      </trkpt>
      <trkpt lat="46.63905" lon="5.61692">
        <ele>419.9</ele>
        <time>2022-05-03T07:39:31Z</time>
      </trkpt>
      <trkpt lat="46.63909" lon="5.61694">
        <ele>420.6</ele>
        <time>2022-05-03T07:39:34Z</time>
      </trkpt>
      <trkpt lat="46.63913" lon="5.61699">
        <ele>421.7</ele>
        <time>2022-05-03T07:39:37Z</time>
      </trkpt>
      <trkpt lat="46.63917" lon="5.61703">
        <ele>422.8</ele>
        <time>2022-05-03T07:39:42Z</time>
      </trkpt>
      <trkpt lat="46.6392" lon="5.6171">
        <ele>424</ele>
        <time>2022-05-03T07:39:47Z</time>
      </trkpt>
      <trkpt lat="46.63923" lon="5.61715">
        <ele>425</ele>
        <time>2022-05-03T07:39:51Z</time>
      </trkpt>
      <trkpt lat="46.63928" lon="5.61716">
        <ele>426</ele>
        <time>2022-05-03T07:39:56Z</time>
      </trkpt>
      <trkpt lat="46.63933" lon="5.61716">
        <ele>426.7</ele>
        <time>2022-05-03T07:40:00Z</time>
      </trkpt>
      <trkpt lat="46.63938" lon="5.61718">
        <ele>427.3</ele>
        <time>2022-05-03T07:40:06Z</time>
      </trkpt>
      <trkpt lat="46.63941" lon="5.61724">
        <ele>427.9</ele>
        <time>2022-05-03T07:40:11Z</time>
      </trkpt>
      <trkpt lat="46.63944" lon="5.61729">
        <ele>428.6</ele>
        <time>2022-05-03T07:40:15Z</time>
      </trkpt>
      <trkpt lat="46.63948" lon="5.61733">
        <ele>429.2</ele>
        <time>2022-05-03T07:40:19Z</time>
      </trkpt>
      <trkpt lat="46.63953" lon="5.61737">
        <ele>430</ele>
        <time>2022-05-03T07:40:24Z</time>
      </trkpt>
      <trkpt lat="46.63957" lon="5.61739">
        <ele>430.6</ele>
        <time>2022-05-03T07:40:29Z</time>
      </trkpt>
      <trkpt lat="46.63958" lon="5.61746">
        <ele>431.5</ele>
        <time>2022-05-03T07:40:32Z</time>
      </trkpt>
      <trkpt lat="46.6396" lon="5.61752">
        <ele>432.5</ele>
        <time>2022-05-03T07:40:50Z</time>
      </trkpt>
      <trkpt lat="46.63958" lon="5.61759">
        <ele>432.7</ele>
        <time>2022-05-03T07:40:57Z</time>
      </trkpt>
      <trkpt lat="46.63962" lon="5.61754">
        <ele>433.1</ele>
        <time>2022-05-03T07:41:08Z</time>
      </trkpt>
      <trkpt lat="46.63965" lon="5.61748">
        <ele>432.7</ele>
        <time>2022-05-03T07:41:12Z</time>
      </trkpt>
      <trkpt lat="46.63961" lon="5.61741">
        <ele>430</ele>
        <time>2022-05-03T07:41:33Z</time>
      </trkpt>
      <trkpt lat="46.63957" lon="5.61743">
        <ele>430.7</ele>
        <time>2022-05-03T07:42:07Z</time>
      </trkpt>
      <trkpt lat="46.63952" lon="5.61742">
        <ele>431.2</ele>
        <time>2022-05-03T07:42:10Z</time>
      </trkpt>
      <trkpt lat="46.63958" lon="5.61744">
        <ele>433.8</ele>
        <time>2022-05-03T07:43:01Z</time>
      </trkpt>
      <trkpt lat="46.63962" lon="5.61745">
        <ele>432.2</ele>
        <time>2022-05-03T07:43:06Z</time>
      </trkpt>
      <trkpt lat="46.63959" lon="5.61739">
        <ele>430.5</ele>
        <time>2022-05-03T07:43:19Z</time>
      </trkpt>
      <trkpt lat="46.63964" lon="5.61739">
        <ele>429.5</ele>
        <time>2022-05-03T07:43:56Z</time>
      </trkpt>
      <trkpt lat="46.63967" lon="5.61743">
        <ele>428.2</ele>
        <time>2022-05-03T07:44:05Z</time>
      </trkpt>
      <trkpt lat="46.6397" lon="5.61749">
        <ele>428</ele>
        <time>2022-05-03T07:44:09Z</time>
      </trkpt>
      <trkpt lat="46.63969" lon="5.61756">
        <ele>428.2</ele>
        <time>2022-05-03T07:44:14Z</time>
      </trkpt>
      <trkpt lat="46.63963" lon="5.61756">
        <ele>430.1</ele>
        <time>2022-05-03T07:44:23Z</time>
      </trkpt>
      <trkpt lat="46.63959" lon="5.61752">
        <ele>433.7</ele>
        <time>2022-05-03T07:46:07Z</time>
      </trkpt>
      <trkpt lat="46.63955" lon="5.6175">
        <ele>434.6</ele>
        <time>2022-05-03T07:46:21Z</time>
      </trkpt>
      <trkpt lat="46.63959" lon="5.61747">
        <ele>434.5</ele>
        <time>2022-05-03T07:46:53Z</time>
      </trkpt>
      <trkpt lat="46.6396" lon="5.6174">
        <ele>434</ele>
        <time>2022-05-03T07:47:04Z</time>
      </trkpt>
      <trkpt lat="46.63965" lon="5.61743">
        <ele>434.3</ele>
        <time>2022-05-03T07:47:13Z</time>
      </trkpt>
      <trkpt lat="46.63961" lon="5.61745">
        <ele>434.3</ele>
        <time>2022-05-03T07:47:18Z</time>
      </trkpt>
      <trkpt lat="46.63959" lon="5.61752">
        <ele>434.3</ele>
        <time>2022-05-03T07:47:32Z</time>
      </trkpt>
      <trkpt lat="46.63964" lon="5.61753">
        <ele>435.8</ele>
        <time>2022-05-03T07:47:42Z</time>
      </trkpt>
      <trkpt lat="46.63967" lon="5.61759">
        <ele>436.7</ele>
        <time>2022-05-03T07:47:49Z</time>
      </trkpt>
      <trkpt lat="46.63971" lon="5.61763">
        <ele>436.9</ele>
        <time>2022-05-03T07:47:53Z</time>
      </trkpt>
      <trkpt lat="46.63973" lon="5.61769">
        <ele>437.8</ele>
        <time>2022-05-03T07:47:58Z</time>
      </trkpt>
      <trkpt lat="46.63972" lon="5.61776">
        <ele>439.1</ele>
        <time>2022-05-03T07:48:06Z</time>
      </trkpt>
      <trkpt lat="46.63975" lon="5.61784">
        <ele>440.5</ele>
        <time>2022-05-03T07:48:14Z</time>
      </trkpt>
      <trkpt lat="46.63977" lon="5.6179">
        <ele>440.9</ele>
        <time>2022-05-03T07:48:18Z</time>
      </trkpt>
      <trkpt lat="46.63729" lon="5.61731">
        <ele>441.3</ele>
        <time>2022-05-03T07:54:50Z</time>
      </trkpt>
      <trkpt lat="46.63725" lon="5.61728">
        <ele>443.3</ele>
        <time>2022-05-03T07:54:53Z</time>
      </trkpt>
      <trkpt lat="46.63723" lon="5.61734">
        <ele>440.2</ele>
        <time>2022-05-03T07:55:04Z</time>
      </trkpt>
      <trkpt lat="46.63717" lon="5.61736">
        <ele>440.6</ele>
        <time>2022-05-03T07:55:14Z</time>
      </trkpt>
      <trkpt lat="46.63713" lon="5.61736">
        <ele>441.1</ele>
        <time>2022-05-03T07:55:18Z</time>
      </trkpt>
      <trkpt lat="46.63708" lon="5.61738">
        <ele>441.7</ele>
        <time>2022-05-03T07:55:22Z</time>
      </trkpt>
      <trkpt lat="46.63702" lon="5.61739">
        <ele>442.2</ele>
        <time>2022-05-03T07:55:27Z</time>
      </trkpt>
      <trkpt lat="46.63697" lon="5.61737">
        <ele>442.7</ele>
        <time>2022-05-03T07:55:30Z</time>
      </trkpt>
      <trkpt lat="46.63693" lon="5.61734">
        <ele>443.6</ele>
        <time>2022-05-03T07:55:33Z</time>
      </trkpt>
      <trkpt lat="46.63688" lon="5.61731">
        <ele>444.9</ele>
        <time>2022-05-03T07:55:36Z</time>
      </trkpt>
      <trkpt lat="46.63684" lon="5.61731">
        <ele>445.9</ele>
        <time>2022-05-03T07:55:39Z</time>
      </trkpt>
      <trkpt lat="46.63678" lon="5.61732">
        <ele>446.6</ele>
        <time>2022-05-03T07:55:44Z</time>
      </trkpt>
      <trkpt lat="46.63673" lon="5.6173">
        <ele>444.9</ele>
        <time>2022-05-03T07:55:53Z</time>
      </trkpt>
      <trkpt lat="46.63668" lon="5.61728">
        <ele>443</ele>
        <time>2022-05-03T07:56:00Z</time>
      </trkpt>
      <trkpt lat="46.63662" lon="5.61726">
        <ele>442.1</ele>
        <time>2022-05-03T07:56:05Z</time>
      </trkpt>
      <trkpt lat="46.63657" lon="5.61724">
        <ele>441.3</ele>
        <time>2022-05-03T07:56:09Z</time>
      </trkpt>
      <trkpt lat="46.63652" lon="5.61724">
        <ele>438.8</ele>
        <time>2022-05-03T07:56:18Z</time>
      </trkpt>
      <trkpt lat="46.63647" lon="5.61724">
        <ele>437.6</ele>
        <time>2022-05-03T07:56:22Z</time>
      </trkpt>
      <trkpt lat="46.63641" lon="5.61724">
        <ele>436.5</ele>
        <time>2022-05-03T07:56:27Z</time>
      </trkpt>
      <trkpt lat="46.63636" lon="5.6172">
        <ele>435.9</ele>
        <time>2022-05-03T07:56:32Z</time>
      </trkpt>
      <trkpt lat="46.63631" lon="5.61718">
        <ele>435.9</ele>
        <time>2022-05-03T07:56:36Z</time>
      </trkpt>
      <trkpt lat="46.63626" lon="5.61717">
        <ele>435.6</ele>
        <time>2022-05-03T07:56:43Z</time>
      </trkpt>
      <trkpt lat="46.63621" lon="5.61714">
        <ele>435.3</ele>
        <time>2022-05-03T07:56:47Z</time>
      </trkpt>
      <trkpt lat="46.63617" lon="5.61713">
        <ele>434.7</ele>
        <time>2022-05-03T07:56:52Z</time>
      </trkpt>
      <trkpt lat="46.63612" lon="5.61714">
        <ele>434.5</ele>
        <time>2022-05-03T07:57:01Z</time>
      </trkpt>
      <trkpt lat="46.63607" lon="5.61716">
        <ele>434.1</ele>
        <time>2022-05-03T07:57:07Z</time>
      </trkpt>
      <trkpt lat="46.63602" lon="5.61715">
        <ele>432.9</ele>
        <time>2022-05-03T07:57:12Z</time>
      </trkpt>
      <trkpt lat="46.63597" lon="5.61714">
        <ele>431.6</ele>
        <time>2022-05-03T07:57:16Z</time>
      </trkpt>
      <trkpt lat="46.63592" lon="5.61713">
        <ele>430.9</ele>
        <time>2022-05-03T07:57:19Z</time>
      </trkpt>
      <trkpt lat="46.63588" lon="5.6171">
        <ele>430.3</ele>
        <time>2022-05-03T07:57:23Z</time>
      </trkpt>
      <trkpt lat="46.63585" lon="5.61704">
        <ele>429.6</ele>
        <time>2022-05-03T07:57:28Z</time>
      </trkpt>
      <trkpt lat="46.63582" lon="5.61699">
        <ele>428.2</ele>
        <time>2022-05-03T07:57:33Z</time>
      </trkpt>
      <trkpt lat="46.63578" lon="5.61694">
        <ele>427.6</ele>
        <time>2022-05-03T07:57:40Z</time>
      </trkpt>
      <trkpt lat="46.63573" lon="5.61692">
        <ele>427.5</ele>
        <time>2022-05-03T07:57:44Z</time>
      </trkpt>
      <trkpt lat="46.63568" lon="5.6169">
        <ele>428.3</ele>
        <time>2022-05-03T07:57:50Z</time>
      </trkpt>
      <trkpt lat="46.63563" lon="5.6169">
        <ele>428.8</ele>
        <time>2022-05-03T07:57:54Z</time>
      </trkpt>
      <trkpt lat="46.63559" lon="5.61689">
        <ele>429.6</ele>
        <time>2022-05-03T07:57:57Z</time>
      </trkpt>
      <trkpt lat="46.63553" lon="5.61688">
        <ele>430.6</ele>
        <time>2022-05-03T07:58:01Z</time>
      </trkpt>
      <trkpt lat="46.63549" lon="5.61683">
        <ele>431.6</ele>
        <time>2022-05-03T07:58:07Z</time>
      </trkpt>
      <trkpt lat="46.63545" lon="5.61679">
        <ele>432.2</ele>
        <time>2022-05-03T07:58:12Z</time>
      </trkpt>
      <trkpt lat="46.6354" lon="5.61677">
        <ele>432.5</ele>
        <time>2022-05-03T07:58:16Z</time>
      </trkpt>
      <trkpt lat="46.63535" lon="5.61677">
        <ele>432.6</ele>
        <time>2022-05-03T07:58:22Z</time>
      </trkpt>
      <trkpt lat="46.6353" lon="5.61674">
        <ele>432.9</ele>
        <time>2022-05-03T07:58:25Z</time>
      </trkpt>
      <trkpt lat="46.63524" lon="5.61671">
        <ele>433.7</ele>
        <time>2022-05-03T07:58:29Z</time>
      </trkpt>
      <trkpt lat="46.6352" lon="5.61667">
        <ele>434.6</ele>
        <time>2022-05-03T07:58:33Z</time>
      </trkpt>
      <trkpt lat="46.63516" lon="5.61664">
        <ele>435.3</ele>
        <time>2022-05-03T07:58:38Z</time>
      </trkpt>
      <trkpt lat="46.63511" lon="5.61662">
        <ele>435.6</ele>
        <time>2022-05-03T07:58:43Z</time>
      </trkpt>
      <trkpt lat="46.6351" lon="5.61669">
        <ele>435.7</ele>
        <time>2022-05-03T07:58:53Z</time>
      </trkpt>
      <trkpt lat="46.63504" lon="5.6167">
        <ele>435.8</ele>
        <time>2022-05-03T07:59:01Z</time>
      </trkpt>
      <trkpt lat="46.63496" lon="5.61668">
        <ele>435.9</ele>
        <time>2022-05-03T07:59:04Z</time>
      </trkpt>
      <trkpt lat="46.63491" lon="5.61667">
        <ele>436.1</ele>
        <time>2022-05-03T07:59:07Z</time>
      </trkpt>
      <trkpt lat="46.63486" lon="5.61665">
        <ele>436.3</ele>
        <time>2022-05-03T07:59:10Z</time>
      </trkpt>
      <trkpt lat="46.63481" lon="5.61661">
        <ele>436.4</ele>
        <time>2022-05-03T07:59:14Z</time>
      </trkpt>
      <trkpt lat="46.63477" lon="5.61658">
        <ele>436.3</ele>
        <time>2022-05-03T07:59:18Z</time>
      </trkpt>
      <trkpt lat="46.63472" lon="5.6166">
        <ele>436.3</ele>
        <time>2022-05-03T07:59:30Z</time>
      </trkpt>
      <trkpt lat="46.63467" lon="5.61664">
        <ele>436.4</ele>
        <time>2022-05-03T07:59:37Z</time>
      </trkpt>
      <trkpt lat="46.63462" lon="5.61667">
        <ele>436.5</ele>
        <time>2022-05-03T07:59:42Z</time>
      </trkpt>
      <trkpt lat="46.63458" lon="5.61669">
        <ele>436.5</ele>
        <time>2022-05-03T07:59:46Z</time>
      </trkpt>
      <trkpt lat="46.63453" lon="5.61673">
        <ele>436.8</ele>
        <time>2022-05-03T07:59:49Z</time>
      </trkpt>
      <trkpt lat="46.63449" lon="5.61676">
        <ele>436.9</ele>
        <time>2022-05-03T07:59:52Z</time>
      </trkpt>
      <trkpt lat="46.63444" lon="5.61678">
        <ele>436.3</ele>
        <time>2022-05-03T07:59:58Z</time>
      </trkpt>
      <trkpt lat="46.63439" lon="5.61681">
        <ele>435.1</ele>
        <time>2022-05-03T08:00:04Z</time>
      </trkpt>
      <trkpt lat="46.63435" lon="5.61684">
        <ele>434.6</ele>
        <time>2022-05-03T08:00:10Z</time>
      </trkpt>
      <trkpt lat="46.63431" lon="5.61688">
        <ele>434.4</ele>
        <time>2022-05-03T08:00:15Z</time>
      </trkpt>
      <trkpt lat="46.63427" lon="5.61691">
        <ele>434.3</ele>
        <time>2022-05-03T08:00:20Z</time>
      </trkpt>
      <trkpt lat="46.63422" lon="5.61691">
        <ele>434.6</ele>
        <time>2022-05-03T08:00:24Z</time>
      </trkpt>
      <trkpt lat="46.63417" lon="5.61691">
        <ele>435.1</ele>
        <time>2022-05-03T08:00:28Z</time>
      </trkpt>
      <trkpt lat="46.63412" lon="5.6169">
        <ele>435.4</ele>
        <time>2022-05-03T08:00:33Z</time>
      </trkpt>
      <trkpt lat="46.63406" lon="5.6169">
        <ele>435.6</ele>
        <time>2022-05-03T08:00:38Z</time>
      </trkpt>
      <trkpt lat="46.63402" lon="5.61687">
        <ele>435.9</ele>
        <time>2022-05-03T08:00:41Z</time>
      </trkpt>
      <trkpt lat="46.63397" lon="5.61684">
        <ele>436.2</ele>
        <time>2022-05-03T08:00:45Z</time>
      </trkpt>
      <trkpt lat="46.63392" lon="5.61683">
        <ele>436.7</ele>
        <time>2022-05-03T08:00:49Z</time>
      </trkpt>
      <trkpt lat="46.63387" lon="5.61682">
        <ele>437.2</ele>
        <time>2022-05-03T08:00:55Z</time>
      </trkpt>
      <trkpt lat="46.63382" lon="5.6168">
        <ele>437.5</ele>
        <time>2022-05-03T08:01:02Z</time>
      </trkpt>
      <trkpt lat="46.63376" lon="5.61678">
        <ele>438.3</ele>
        <time>2022-05-03T08:01:07Z</time>
      </trkpt>
      <trkpt lat="46.63372" lon="5.61677">
        <ele>438.5</ele>
        <time>2022-05-03T08:01:11Z</time>
      </trkpt>
      <trkpt lat="46.63367" lon="5.61676">
        <ele>437.9</ele>
        <time>2022-05-03T08:01:17Z</time>
      </trkpt>
      <trkpt lat="46.63361" lon="5.61674">
        <ele>438</ele>
        <time>2022-05-03T08:01:20Z</time>
      </trkpt>
      <trkpt lat="46.63356" lon="5.61672">
        <ele>437.9</ele>
        <time>2022-05-03T08:01:24Z</time>
      </trkpt>
      <trkpt lat="46.6335" lon="5.61671">
        <ele>437.2</ele>
        <time>2022-05-03T08:01:27Z</time>
      </trkpt>
      <trkpt lat="46.63345" lon="5.61668">
        <ele>436.2</ele>
        <time>2022-05-03T08:01:31Z</time>
      </trkpt>
      <trkpt lat="46.63341" lon="5.61664">
        <ele>435.5</ele>
        <time>2022-05-03T08:01:36Z</time>
      </trkpt>
      <trkpt lat="46.63337" lon="5.61658">
        <ele>435.2</ele>
        <time>2022-05-03T08:01:41Z</time>
      </trkpt>
      <trkpt lat="46.63333" lon="5.61653">
        <ele>434.8</ele>
        <time>2022-05-03T08:01:46Z</time>
      </trkpt>
      <trkpt lat="46.63329" lon="5.61647">
        <ele>434.4</ele>
        <time>2022-05-03T08:01:52Z</time>
      </trkpt>
      <trkpt lat="46.63326" lon="5.61642">
        <ele>434.4</ele>
        <time>2022-05-03T08:01:55Z</time>
      </trkpt>
      <trkpt lat="46.63321" lon="5.61638">
        <ele>434.6</ele>
        <time>2022-05-03T08:01:58Z</time>
      </trkpt>
      <trkpt lat="46.63316" lon="5.61635">
        <ele>434.5</ele>
        <time>2022-05-03T08:02:01Z</time>
      </trkpt>
      <trkpt lat="46.63314" lon="5.6163">
        <ele>433.3</ele>
        <time>2022-05-03T08:02:10Z</time>
      </trkpt>
      <trkpt lat="46.63316" lon="5.61623">
        <ele>432.8</ele>
        <time>2022-05-03T08:02:16Z</time>
      </trkpt>
      <trkpt lat="46.63316" lon="5.61616">
        <ele>432.6</ele>
        <time>2022-05-03T08:02:22Z</time>
      </trkpt>
      <trkpt lat="46.63315" lon="5.61609">
        <ele>432.8</ele>
        <time>2022-05-03T08:02:27Z</time>
      </trkpt>
      <trkpt lat="46.63312" lon="5.61602">
        <ele>432.8</ele>
        <time>2022-05-03T08:02:32Z</time>
      </trkpt>
      <trkpt lat="46.6331" lon="5.61595">
        <ele>433</ele>
        <time>2022-05-03T08:02:37Z</time>
      </trkpt>
      <trkpt lat="46.63309" lon="5.61588">
        <ele>433.5</ele>
        <time>2022-05-03T08:02:45Z</time>
      </trkpt>
      <trkpt lat="46.6331" lon="5.61579">
        <ele>433.7</ele>
        <time>2022-05-03T08:02:50Z</time>
      </trkpt>
      <trkpt lat="46.63307" lon="5.61572">
        <ele>433.8</ele>
        <time>2022-05-03T08:02:54Z</time>
      </trkpt>
      <trkpt lat="46.63306" lon="5.61565">
        <ele>433.8</ele>
        <time>2022-05-03T08:02:58Z</time>
      </trkpt>
      <trkpt lat="46.63304" lon="5.61559">
        <ele>433.7</ele>
        <time>2022-05-03T08:03:02Z</time>
      </trkpt>
      <trkpt lat="46.63303" lon="5.61552">
        <ele>433.7</ele>
        <time>2022-05-03T08:03:06Z</time>
      </trkpt>
      <trkpt lat="46.63305" lon="5.61547">
        <ele>433.8</ele>
        <time>2022-05-03T08:03:09Z</time>
      </trkpt>
      <trkpt lat="46.63306" lon="5.61539">
        <ele>434.2</ele>
        <time>2022-05-03T08:03:13Z</time>
      </trkpt>
      <trkpt lat="46.63305" lon="5.61532">
        <ele>434.9</ele>
        <time>2022-05-03T08:03:18Z</time>
      </trkpt>
      <trkpt lat="46.63303" lon="5.61526">
        <ele>435.5</ele>
        <time>2022-05-03T08:03:23Z</time>
      </trkpt>
      <trkpt lat="46.63301" lon="5.61519">
        <ele>435.8</ele>
        <time>2022-05-03T08:03:28Z</time>
      </trkpt>
      <trkpt lat="46.63302" lon="5.61512">
        <ele>436.3</ele>
        <time>2022-05-03T08:03:33Z</time>
      </trkpt>
      <trkpt lat="46.63304" lon="5.61506">
        <ele>437</ele>
        <time>2022-05-03T08:03:37Z</time>
      </trkpt>
      <trkpt lat="46.63304" lon="5.61498">
        <ele>437.7</ele>
        <time>2022-05-03T08:03:42Z</time>
      </trkpt>
      <trkpt lat="46.63303" lon="5.61491">
        <ele>438.3</ele>
        <time>2022-05-03T08:03:46Z</time>
      </trkpt>
      <trkpt lat="46.63303" lon="5.61485">
        <ele>439.2</ele>
        <time>2022-05-03T08:03:51Z</time>
      </trkpt>
      <trkpt lat="46.633" lon="5.61479">
        <ele>439.9</ele>
        <time>2022-05-03T08:03:56Z</time>
      </trkpt>
      <trkpt lat="46.63298" lon="5.61473">
        <ele>440.5</ele>
        <time>2022-05-03T08:04:00Z</time>
      </trkpt>
      <trkpt lat="46.63296" lon="5.61465">
        <ele>440.8</ele>
        <time>2022-05-03T08:04:05Z</time>
      </trkpt>
      <trkpt lat="46.63293" lon="5.61459">
        <ele>441</ele>
        <time>2022-05-03T08:04:09Z</time>
      </trkpt>
      <trkpt lat="46.63289" lon="5.61452">
        <ele>441.4</ele>
        <time>2022-05-03T08:04:13Z</time>
      </trkpt>
      <trkpt lat="46.63286" lon="5.61448">
        <ele>441.8</ele>
        <time>2022-05-03T08:04:17Z</time>
      </trkpt>
      <trkpt lat="46.63283" lon="5.61436">
        <ele>442.2</ele>
        <time>2022-05-03T08:04:35Z</time>
      </trkpt>
      <trkpt lat="46.6328" lon="5.61429">
        <ele>441.5</ele>
        <time>2022-05-03T08:04:44Z</time>
      </trkpt>
      <trkpt lat="46.63276" lon="5.61426">
        <ele>441.1</ele>
        <time>2022-05-03T08:04:48Z</time>
      </trkpt>
      <trkpt lat="46.63274" lon="5.61419">
        <ele>440.9</ele>
        <time>2022-05-03T08:04:56Z</time>
      </trkpt>
      <trkpt lat="46.6327" lon="5.61416">
        <ele>440.6</ele>
        <time>2022-05-03T08:05:00Z</time>
      </trkpt>
      <trkpt lat="46.63265" lon="5.61412">
        <ele>440.4</ele>
        <time>2022-05-03T08:05:03Z</time>
      </trkpt>
      <trkpt lat="46.63261" lon="5.61405">
        <ele>440.3</ele>
        <time>2022-05-03T08:05:07Z</time>
      </trkpt>
      <trkpt lat="46.63257" lon="5.61401">
        <ele>440.3</ele>
        <time>2022-05-03T08:05:10Z</time>
      </trkpt>
      <trkpt lat="46.63254" lon="5.61396">
        <ele>440.3</ele>
        <time>2022-05-03T08:05:19Z</time>
      </trkpt>
      <trkpt lat="46.63251" lon="5.61392">
        <ele>439.4</ele>
        <time>2022-05-03T08:05:25Z</time>
      </trkpt>
      <trkpt lat="46.63247" lon="5.61388">
        <ele>439.2</ele>
        <time>2022-05-03T08:05:28Z</time>
      </trkpt>
      <trkpt lat="46.63244" lon="5.61382">
        <ele>438.7</ele>
        <time>2022-05-03T08:05:33Z</time>
      </trkpt>
      <trkpt lat="46.63243" lon="5.61375">
        <ele>438</ele>
        <time>2022-05-03T08:05:38Z</time>
      </trkpt>
      <trkpt lat="46.63239" lon="5.61369">
        <ele>437.4</ele>
        <time>2022-05-03T08:05:44Z</time>
      </trkpt>
      <trkpt lat="46.63235" lon="5.61364">
        <ele>437.6</ele>
        <time>2022-05-03T08:05:47Z</time>
      </trkpt>
      <trkpt lat="46.6323" lon="5.61359">
        <ele>437.8</ele>
        <time>2022-05-03T08:05:50Z</time>
      </trkpt>
      <trkpt lat="46.63226" lon="5.61353">
        <ele>438.1</ele>
        <time>2022-05-03T08:05:53Z</time>
      </trkpt>
      <trkpt lat="46.63222" lon="5.61349">
        <ele>438.1</ele>
        <time>2022-05-03T08:05:56Z</time>
      </trkpt>
      <trkpt lat="46.63217" lon="5.61346">
        <ele>438.1</ele>
        <time>2022-05-03T08:05:59Z</time>
      </trkpt>
      <trkpt lat="46.63213" lon="5.61344">
        <ele>438.2</ele>
        <time>2022-05-03T08:06:02Z</time>
      </trkpt>
      <trkpt lat="46.63209" lon="5.61341">
        <ele>438.5</ele>
        <time>2022-05-03T08:06:06Z</time>
      </trkpt>
      <trkpt lat="46.63204" lon="5.61338">
        <ele>438.7</ele>
        <time>2022-05-03T08:06:12Z</time>
      </trkpt>
      <trkpt lat="46.632" lon="5.61335">
        <ele>438.6</ele>
        <time>2022-05-03T08:06:17Z</time>
      </trkpt>
      <trkpt lat="46.63196" lon="5.6133">
        <ele>438.5</ele>
        <time>2022-05-03T08:06:24Z</time>
      </trkpt>
      <trkpt lat="46.63192" lon="5.61326">
        <ele>438.3</ele>
        <time>2022-05-03T08:06:28Z</time>
      </trkpt>
      <trkpt lat="46.63188" lon="5.61325">
        <ele>438.2</ele>
        <time>2022-05-03T08:06:32Z</time>
      </trkpt>
      <trkpt lat="46.63182" lon="5.61322">
        <ele>438.5</ele>
        <time>2022-05-03T08:06:35Z</time>
      </trkpt>
      <trkpt lat="46.63177" lon="5.61319">
        <ele>439.1</ele>
        <time>2022-05-03T08:06:38Z</time>
      </trkpt>
      <trkpt lat="46.63172" lon="5.61318">
        <ele>440.5</ele>
        <time>2022-05-03T08:06:42Z</time>
      </trkpt>
      <trkpt lat="46.63168" lon="5.61314">
        <ele>442.6</ele>
        <time>2022-05-03T08:06:47Z</time>
      </trkpt>
      <trkpt lat="46.63164" lon="5.6131">
        <ele>443.6</ele>
        <time>2022-05-03T08:06:52Z</time>
      </trkpt>
      <trkpt lat="46.6316" lon="5.61305">
        <ele>444</ele>
        <time>2022-05-03T08:06:57Z</time>
      </trkpt>
      <trkpt lat="46.63156" lon="5.61302">
        <ele>444.3</ele>
        <time>2022-05-03T08:07:00Z</time>
      </trkpt>
      <trkpt lat="46.63152" lon="5.61298">
        <ele>444.5</ele>
        <time>2022-05-03T08:07:03Z</time>
      </trkpt>
      <trkpt lat="46.63148" lon="5.61294">
        <ele>444.7</ele>
        <time>2022-05-03T08:07:06Z</time>
      </trkpt>
      <trkpt lat="46.63143" lon="5.6129">
        <ele>444.9</ele>
        <time>2022-05-03T08:07:09Z</time>
      </trkpt>
      <trkpt lat="46.63139" lon="5.61286">
        <ele>445.4</ele>
        <time>2022-05-03T08:07:14Z</time>
      </trkpt>
      <trkpt lat="46.63134" lon="5.61283">
        <ele>445.8</ele>
        <time>2022-05-03T08:07:18Z</time>
      </trkpt>
      <trkpt lat="46.6313" lon="5.6128">
        <ele>446.1</ele>
        <time>2022-05-03T08:07:22Z</time>
      </trkpt>
      <trkpt lat="46.63125" lon="5.61278">
        <ele>446.3</ele>
        <time>2022-05-03T08:07:26Z</time>
      </trkpt>
      <trkpt lat="46.6312" lon="5.61277">
        <ele>446.7</ele>
        <time>2022-05-03T08:07:32Z</time>
      </trkpt>
      <trkpt lat="46.63115" lon="5.61275">
        <ele>446.9</ele>
        <time>2022-05-03T08:07:38Z</time>
      </trkpt>
      <trkpt lat="46.63111" lon="5.61275">
        <ele>446.9</ele>
        <time>2022-05-03T08:07:42Z</time>
      </trkpt>
      <trkpt lat="46.63106" lon="5.61278">
        <ele>446.8</ele>
        <time>2022-05-03T08:07:47Z</time>
      </trkpt>
      <trkpt lat="46.63101" lon="5.61282">
        <ele>446.8</ele>
        <time>2022-05-03T08:07:52Z</time>
      </trkpt>
      <trkpt lat="46.63097" lon="5.61286">
        <ele>446.6</ele>
        <time>2022-05-03T08:07:56Z</time>
      </trkpt>
      <trkpt lat="46.63093" lon="5.6129">
        <ele>446.3</ele>
        <time>2022-05-03T08:08:01Z</time>
      </trkpt>
      <trkpt lat="46.63088" lon="5.61291">
        <ele>446</ele>
        <time>2022-05-03T08:08:07Z</time>
      </trkpt>
      <trkpt lat="46.63084" lon="5.61296">
        <ele>445.9</ele>
        <time>2022-05-03T08:08:11Z</time>
      </trkpt>
      <trkpt lat="46.63079" lon="5.61298">
        <ele>445.9</ele>
        <time>2022-05-03T08:08:15Z</time>
      </trkpt>
      <trkpt lat="46.63074" lon="5.61299">
        <ele>445.9</ele>
        <time>2022-05-03T08:08:19Z</time>
      </trkpt>
      <trkpt lat="46.63069" lon="5.61299">
        <ele>445.9</ele>
        <time>2022-05-03T08:08:23Z</time>
      </trkpt>
      <trkpt lat="46.63064" lon="5.61301">
        <ele>445.8</ele>
        <time>2022-05-03T08:08:30Z</time>
      </trkpt>
      <trkpt lat="46.63059" lon="5.61303">
        <ele>445.7</ele>
        <time>2022-05-03T08:08:36Z</time>
      </trkpt>
      <trkpt lat="46.63054" lon="5.61305">
        <ele>445.5</ele>
        <time>2022-05-03T08:08:42Z</time>
      </trkpt>
      <trkpt lat="46.6305" lon="5.6131">
        <ele>445.4</ele>
        <time>2022-05-03T08:08:47Z</time>
      </trkpt>
      <trkpt lat="46.63045" lon="5.61311">
        <ele>445.3</ele>
        <time>2022-05-03T08:08:53Z</time>
      </trkpt>
      <trkpt lat="46.63041" lon="5.61314">
        <ele>445.4</ele>
        <time>2022-05-03T08:08:58Z</time>
      </trkpt>
      <trkpt lat="46.63036" lon="5.61317">
        <ele>445.4</ele>
        <time>2022-05-03T08:09:03Z</time>
      </trkpt>
      <trkpt lat="46.63032" lon="5.61318">
        <ele>445.2</ele>
        <time>2022-05-03T08:09:07Z</time>
      </trkpt>
      <trkpt lat="46.63026" lon="5.61316">
        <ele>444.9</ele>
        <time>2022-05-03T08:09:13Z</time>
      </trkpt>
      <trkpt lat="46.63021" lon="5.61319">
        <ele>444.6</ele>
        <time>2022-05-03T08:09:19Z</time>
      </trkpt>
      <trkpt lat="46.63021" lon="5.61329">
        <ele>444.3</ele>
        <time>2022-05-03T08:09:22Z</time>
      </trkpt>
      <trkpt lat="46.63021" lon="5.61338">
        <ele>444.1</ele>
        <time>2022-05-03T08:09:25Z</time>
      </trkpt>
      <trkpt lat="46.63018" lon="5.61344">
        <ele>443.6</ele>
        <time>2022-05-03T08:09:29Z</time>
      </trkpt>
      <trkpt lat="46.63013" lon="5.61346">
        <ele>443</ele>
        <time>2022-05-03T08:09:33Z</time>
      </trkpt>
      <trkpt lat="46.63007" lon="5.61345">
        <ele>442.5</ele>
        <time>2022-05-03T08:09:37Z</time>
      </trkpt>
      <trkpt lat="46.63002" lon="5.61344">
        <ele>442.1</ele>
        <time>2022-05-03T08:09:41Z</time>
      </trkpt>
      <trkpt lat="46.62997" lon="5.61342">
        <ele>441.8</ele>
        <time>2022-05-03T08:09:45Z</time>
      </trkpt>
      <trkpt lat="46.62992" lon="5.61337">
        <ele>441.5</ele>
        <time>2022-05-03T08:09:48Z</time>
      </trkpt>
      <trkpt lat="46.62988" lon="5.61332">
        <ele>441.1</ele>
        <time>2022-05-03T08:09:52Z</time>
      </trkpt>
      <trkpt lat="46.62983" lon="5.6133">
        <ele>440.6</ele>
        <time>2022-05-03T08:09:57Z</time>
      </trkpt>
      <trkpt lat="46.62979" lon="5.61328">
        <ele>440.3</ele>
        <time>2022-05-03T08:10:00Z</time>
      </trkpt>
      <trkpt lat="46.62974" lon="5.61328">
        <ele>439.8</ele>
        <time>2022-05-03T08:10:04Z</time>
      </trkpt>
      <trkpt lat="46.62969" lon="5.6133">
        <ele>439.5</ele>
        <time>2022-05-03T08:10:11Z</time>
      </trkpt>
      <trkpt lat="46.62964" lon="5.6133">
        <ele>439.5</ele>
        <time>2022-05-03T08:10:16Z</time>
      </trkpt>
      <trkpt lat="46.62959" lon="5.61333">
        <ele>439.4</ele>
        <time>2022-05-03T08:10:21Z</time>
      </trkpt>
      <trkpt lat="46.62956" lon="5.61337">
        <ele>439.4</ele>
        <time>2022-05-03T08:10:26Z</time>
      </trkpt>
      <trkpt lat="46.62952" lon="5.61342">
        <ele>439.3</ele>
        <time>2022-05-03T08:10:30Z</time>
      </trkpt>
      <trkpt lat="46.62948" lon="5.61345">
        <ele>439.3</ele>
        <time>2022-05-03T08:10:34Z</time>
      </trkpt>
      <trkpt lat="46.62942" lon="5.61343">
        <ele>439.2</ele>
        <time>2022-05-03T08:10:38Z</time>
      </trkpt>
      <trkpt lat="46.62937" lon="5.61343">
        <ele>438.7</ele>
        <time>2022-05-03T08:10:43Z</time>
      </trkpt>
      <trkpt lat="46.62933" lon="5.61347">
        <ele>438.2</ele>
        <time>2022-05-03T08:10:47Z</time>
      </trkpt>
      <trkpt lat="46.62928" lon="5.6135">
        <ele>437.8</ele>
        <time>2022-05-03T08:10:51Z</time>
      </trkpt>
      <trkpt lat="46.62922" lon="5.61349">
        <ele>437.7</ele>
        <time>2022-05-03T08:10:55Z</time>
      </trkpt>
      <trkpt lat="46.62917" lon="5.61351">
        <ele>437.6</ele>
        <time>2022-05-03T08:11:00Z</time>
      </trkpt>
      <trkpt lat="46.62913" lon="5.61355">
        <ele>437.7</ele>
        <time>2022-05-03T08:11:04Z</time>
      </trkpt>
      <trkpt lat="46.62909" lon="5.61357">
        <ele>437.5</ele>
        <time>2022-05-03T08:11:09Z</time>
      </trkpt>
      <trkpt lat="46.62903" lon="5.61362">
        <ele>437.1</ele>
        <time>2022-05-03T08:11:15Z</time>
      </trkpt>
      <trkpt lat="46.62898" lon="5.61362">
        <ele>436.8</ele>
        <time>2022-05-03T08:11:19Z</time>
      </trkpt>
      <trkpt lat="46.62892" lon="5.61361">
        <ele>436.7</ele>
        <time>2022-05-03T08:11:23Z</time>
      </trkpt>
      <trkpt lat="46.62887" lon="5.61359">
        <ele>436.5</ele>
        <time>2022-05-03T08:11:27Z</time>
      </trkpt>
      <trkpt lat="46.62882" lon="5.6136">
        <ele>436.3</ele>
        <time>2022-05-03T08:11:32Z</time>
      </trkpt>
      <trkpt lat="46.62877" lon="5.61361">
        <ele>436.2</ele>
        <time>2022-05-03T08:11:36Z</time>
      </trkpt>
      <trkpt lat="46.62872" lon="5.61365">
        <ele>436.2</ele>
        <time>2022-05-03T08:11:40Z</time>
      </trkpt>
      <trkpt lat="46.62867" lon="5.61367">
        <ele>436.4</ele>
        <time>2022-05-03T08:11:44Z</time>
      </trkpt>
      <trkpt lat="46.62864" lon="5.61371">
        <ele>436</ele>
        <time>2022-05-03T08:11:49Z</time>
      </trkpt>
      <trkpt lat="46.62859" lon="5.61375">
        <ele>435.2</ele>
        <time>2022-05-03T08:11:54Z</time>
      </trkpt>
      <trkpt lat="46.62855" lon="5.61377">
        <ele>434.8</ele>
        <time>2022-05-03T08:11:58Z</time>
      </trkpt>
      <trkpt lat="46.6285" lon="5.61377">
        <ele>434.5</ele>
        <time>2022-05-03T08:12:02Z</time>
      </trkpt>
      <trkpt lat="46.62845" lon="5.61377">
        <ele>434.7</ele>
        <time>2022-05-03T08:12:06Z</time>
      </trkpt>
      <trkpt lat="46.62841" lon="5.61381">
        <ele>434.6</ele>
        <time>2022-05-03T08:12:12Z</time>
      </trkpt>
      <trkpt lat="46.62838" lon="5.61388">
        <ele>433.7</ele>
        <time>2022-05-03T08:12:17Z</time>
      </trkpt>
      <trkpt lat="46.62834" lon="5.61388">
        <ele>433</ele>
        <time>2022-05-03T08:12:21Z</time>
      </trkpt>
      <trkpt lat="46.62829" lon="5.61389">
        <ele>432.8</ele>
        <time>2022-05-03T08:12:25Z</time>
      </trkpt>
      <trkpt lat="46.62824" lon="5.61391">
        <ele>432.2</ele>
        <time>2022-05-03T08:12:29Z</time>
      </trkpt>
      <trkpt lat="46.62819" lon="5.61392">
        <ele>431.7</ele>
        <time>2022-05-03T08:12:33Z</time>
      </trkpt>
      <trkpt lat="46.62814" lon="5.61391">
        <ele>431</ele>
        <time>2022-05-03T08:12:37Z</time>
      </trkpt>
      <trkpt lat="46.62809" lon="5.61392">
        <ele>431.6</ele>
        <time>2022-05-03T08:12:42Z</time>
      </trkpt>
      <trkpt lat="46.62803" lon="5.61389">
        <ele>432.8</ele>
        <time>2022-05-03T08:12:46Z</time>
      </trkpt>
      <trkpt lat="46.62798" lon="5.61388">
        <ele>434</ele>
        <time>2022-05-03T08:12:50Z</time>
      </trkpt>
      <trkpt lat="46.62794" lon="5.61389">
        <ele>435.8</ele>
        <time>2022-05-03T08:12:56Z</time>
      </trkpt>
      <trkpt lat="46.62789" lon="5.61387">
        <ele>437.5</ele>
        <time>2022-05-03T08:13:01Z</time>
      </trkpt>
      <trkpt lat="46.62785" lon="5.6139">
        <ele>439.2</ele>
        <time>2022-05-03T08:13:06Z</time>
      </trkpt>
      <trkpt lat="46.62781" lon="5.61395">
        <ele>440.2</ele>
        <time>2022-05-03T08:13:10Z</time>
      </trkpt>
      <trkpt lat="46.62777" lon="5.61398">
        <ele>441.1</ele>
        <time>2022-05-03T08:13:14Z</time>
      </trkpt>
      <trkpt lat="46.62772" lon="5.614">
        <ele>442.2</ele>
        <time>2022-05-03T08:13:18Z</time>
      </trkpt>
      <trkpt lat="46.62767" lon="5.61402">
        <ele>443.4</ele>
        <time>2022-05-03T08:13:22Z</time>
      </trkpt>
      <trkpt lat="46.62762" lon="5.61401">
        <ele>444.6</ele>
        <time>2022-05-03T08:13:27Z</time>
      </trkpt>
      <trkpt lat="46.62757" lon="5.61405">
        <ele>447.3</ele>
        <time>2022-05-03T08:13:34Z</time>
      </trkpt>
      <trkpt lat="46.62753" lon="5.6141">
        <ele>450.1</ele>
        <time>2022-05-03T08:13:38Z</time>
      </trkpt>
      <trkpt lat="46.62749" lon="5.61407">
        <ele>453.5</ele>
        <time>2022-05-03T08:13:45Z</time>
      </trkpt>
      <trkpt lat="46.62747" lon="5.61399">
        <ele>455.7</ele>
        <time>2022-05-03T08:13:48Z</time>
      </trkpt>
      <trkpt lat="46.62745" lon="5.61393">
        <ele>458.5</ele>
        <time>2022-05-03T08:13:53Z</time>
      </trkpt>
      <trkpt lat="46.62743" lon="5.61387">
        <ele>461.8</ele>
        <time>2022-05-03T08:13:59Z</time>
      </trkpt>
      <trkpt lat="46.62739" lon="5.61381">
        <ele>464</ele>
        <time>2022-05-03T08:14:03Z</time>
      </trkpt>
      <trkpt lat="46.62736" lon="5.61376">
        <ele>466.1</ele>
        <time>2022-05-03T08:14:07Z</time>
      </trkpt>
      <trkpt lat="46.62731" lon="5.61374">
        <ele>467.9</ele>
        <time>2022-05-03T08:14:12Z</time>
      </trkpt>
      <trkpt lat="46.6273" lon="5.61366">
        <ele>472.1</ele>
        <time>2022-05-03T08:14:23Z</time>
      </trkpt>
      <trkpt lat="46.62726" lon="5.61364">
        <ele>473.2</ele>
        <time>2022-05-03T08:14:26Z</time>
      </trkpt>
      <trkpt lat="46.62721" lon="5.6136">
        <ele>474.2</ele>
        <time>2022-05-03T08:14:29Z</time>
      </trkpt>
      <trkpt lat="46.62716" lon="5.61356">
        <ele>475.2</ele>
        <time>2022-05-03T08:14:32Z</time>
      </trkpt>
      <trkpt lat="46.62709" lon="5.61352">
        <ele>476.2</ele>
        <time>2022-05-03T08:14:35Z</time>
      </trkpt>
      <trkpt lat="46.62702" lon="5.61347">
        <ele>477.2</ele>
        <time>2022-05-03T08:14:38Z</time>
      </trkpt>
      <trkpt lat="46.62695" lon="5.61342">
        <ele>478.6</ele>
        <time>2022-05-03T08:14:41Z</time>
      </trkpt>
      <trkpt lat="46.62692" lon="5.61337">
        <ele>480.1</ele>
        <time>2022-05-03T08:14:45Z</time>
      </trkpt>
      <trkpt lat="46.62691" lon="5.6133">
        <ele>482.5</ele>
        <time>2022-05-03T08:14:50Z</time>
      </trkpt>
      <trkpt lat="46.62688" lon="5.61323">
        <ele>484</ele>
        <time>2022-05-03T08:14:55Z</time>
      </trkpt>
      <trkpt lat="46.62685" lon="5.61316">
        <ele>485.1</ele>
        <time>2022-05-03T08:14:59Z</time>
      </trkpt>
      <trkpt lat="46.62681" lon="5.61311">
        <ele>485.8</ele>
        <time>2022-05-03T08:15:02Z</time>
      </trkpt>
      <trkpt lat="46.62675" lon="5.61305">
        <ele>486</ele>
        <time>2022-05-03T08:15:05Z</time>
      </trkpt>
      <trkpt lat="46.6267" lon="5.61302">
        <ele>485.8</ele>
        <time>2022-05-03T08:15:09Z</time>
      </trkpt>
      <trkpt lat="46.62665" lon="5.61299">
        <ele>485.5</ele>
        <time>2022-05-03T08:15:13Z</time>
      </trkpt>
      <trkpt lat="46.6266" lon="5.61296">
        <ele>485.2</ele>
        <time>2022-05-03T08:15:17Z</time>
      </trkpt>
      <trkpt lat="46.62659" lon="5.61288">
        <ele>484.8</ele>
        <time>2022-05-03T08:15:23Z</time>
      </trkpt>
      <trkpt lat="46.62657" lon="5.61282">
        <ele>484.7</ele>
        <time>2022-05-03T08:15:27Z</time>
      </trkpt>
      <trkpt lat="46.62653" lon="5.61277">
        <ele>484.4</ele>
        <time>2022-05-03T08:15:31Z</time>
      </trkpt>
      <trkpt lat="46.62649" lon="5.61272">
        <ele>483.6</ele>
        <time>2022-05-03T08:15:39Z</time>
      </trkpt>
      <trkpt lat="46.62644" lon="5.61271">
        <ele>482.9</ele>
        <time>2022-05-03T08:15:45Z</time>
      </trkpt>
      <trkpt lat="46.6264" lon="5.61271">
        <ele>482.8</ele>
        <time>2022-05-03T08:15:48Z</time>
      </trkpt>
      <trkpt lat="46.62635" lon="5.61275">
        <ele>482.7</ele>
        <time>2022-05-03T08:15:54Z</time>
      </trkpt>
      <trkpt lat="46.62631" lon="5.61279">
        <ele>482</ele>
        <time>2022-05-03T08:16:01Z</time>
      </trkpt>
      <trkpt lat="46.62627" lon="5.61281">
        <ele>481.1</ele>
        <time>2022-05-03T08:16:07Z</time>
      </trkpt>
      <trkpt lat="46.62623" lon="5.61279">
        <ele>480.7</ele>
        <time>2022-05-03T08:16:10Z</time>
      </trkpt>
      <trkpt lat="46.62618" lon="5.61275">
        <ele>480.4</ele>
        <time>2022-05-03T08:16:13Z</time>
      </trkpt>
      <trkpt lat="46.62614" lon="5.6127">
        <ele>480.7</ele>
        <time>2022-05-03T08:16:16Z</time>
      </trkpt>
      <trkpt lat="46.6261" lon="5.61265">
        <ele>481</ele>
        <time>2022-05-03T08:16:19Z</time>
      </trkpt>
      <trkpt lat="46.62606" lon="5.61264">
        <ele>481.3</ele>
        <time>2022-05-03T08:16:23Z</time>
      </trkpt>
      <trkpt lat="46.62601" lon="5.61268">
        <ele>481.5</ele>
        <time>2022-05-03T08:16:27Z</time>
      </trkpt>
      <trkpt lat="46.62596" lon="5.61265">
        <ele>481.6</ele>
        <time>2022-05-03T08:16:31Z</time>
      </trkpt>
      <trkpt lat="46.62592" lon="5.61265">
        <ele>481.5</ele>
        <time>2022-05-03T08:16:35Z</time>
      </trkpt>
      <trkpt lat="46.62588" lon="5.61261">
        <ele>481.5</ele>
        <time>2022-05-03T08:16:39Z</time>
      </trkpt>
      <trkpt lat="46.62583" lon="5.61257">
        <ele>481.5</ele>
        <time>2022-05-03T08:16:43Z</time>
      </trkpt>
      <trkpt lat="46.62577" lon="5.61251">
        <ele>481.8</ele>
        <time>2022-05-03T08:16:46Z</time>
      </trkpt>
      <trkpt lat="46.62574" lon="5.61247">
        <ele>481.9</ele>
        <time>2022-05-03T08:16:49Z</time>
      </trkpt>
      <trkpt lat="46.62569" lon="5.61245">
        <ele>482.1</ele>
        <time>2022-05-03T08:16:55Z</time>
      </trkpt>
      <trkpt lat="46.62566" lon="5.6124">
        <ele>482.2</ele>
        <time>2022-05-03T08:16:59Z</time>
      </trkpt>
      <trkpt lat="46.62561" lon="5.61235">
        <ele>482</ele>
        <time>2022-05-03T08:17:03Z</time>
      </trkpt>
      <trkpt lat="46.62556" lon="5.61232">
        <ele>481.8</ele>
        <time>2022-05-03T08:17:06Z</time>
      </trkpt>
      <trkpt lat="46.62553" lon="5.61227">
        <ele>481.7</ele>
        <time>2022-05-03T08:17:09Z</time>
      </trkpt>
      <trkpt lat="46.6255" lon="5.61221">
        <ele>481.6</ele>
        <time>2022-05-03T08:17:12Z</time>
      </trkpt>
      <trkpt lat="46.62547" lon="5.61214">
        <ele>481.3</ele>
        <time>2022-05-03T08:17:17Z</time>
      </trkpt>
      <trkpt lat="46.62545" lon="5.61208">
        <ele>481.2</ele>
        <time>2022-05-03T08:17:21Z</time>
      </trkpt>
      <trkpt lat="46.62543" lon="5.61202">
        <ele>481.3</ele>
        <time>2022-05-03T08:17:24Z</time>
      </trkpt>
      <trkpt lat="46.62538" lon="5.612">
        <ele>481.2</ele>
        <time>2022-05-03T08:17:29Z</time>
      </trkpt>
      <trkpt lat="46.62532" lon="5.61197">
        <ele>481</ele>
        <time>2022-05-03T08:17:33Z</time>
      </trkpt>
      <trkpt lat="46.62528" lon="5.61193">
        <ele>480.8</ele>
        <time>2022-05-03T08:17:36Z</time>
      </trkpt>
      <trkpt lat="46.62522" lon="5.61192">
        <ele>480.6</ele>
        <time>2022-05-03T08:17:39Z</time>
      </trkpt>
      <trkpt lat="46.62516" lon="5.6119">
        <ele>480.4</ele>
        <time>2022-05-03T08:17:42Z</time>
      </trkpt>
      <trkpt lat="46.62512" lon="5.61189">
        <ele>480.4</ele>
        <time>2022-05-03T08:17:45Z</time>
      </trkpt>
      <trkpt lat="46.62506" lon="5.61187">
        <ele>480.5</ele>
        <time>2022-05-03T08:17:49Z</time>
      </trkpt>
      <trkpt lat="46.62501" lon="5.61186">
        <ele>480.6</ele>
        <time>2022-05-03T08:17:54Z</time>
      </trkpt>
      <trkpt lat="46.62495" lon="5.61179">
        <ele>480.6</ele>
        <time>2022-05-03T08:18:05Z</time>
      </trkpt>
      <trkpt lat="46.62492" lon="5.61169">
        <ele>480.8</ele>
        <time>2022-05-03T08:18:08Z</time>
      </trkpt>
      <trkpt lat="46.6249" lon="5.6116">
        <ele>481.1</ele>
        <time>2022-05-03T08:18:11Z</time>
      </trkpt>
      <trkpt lat="46.62488" lon="5.61152">
        <ele>481.4</ele>
        <time>2022-05-03T08:18:14Z</time>
      </trkpt>
      <trkpt lat="46.62479" lon="5.61133">
        <ele>483.4</ele>
        <time>2022-05-03T08:18:26Z</time>
      </trkpt>
      <trkpt lat="46.62479" lon="5.61125">
        <ele>484.6</ele>
        <time>2022-05-03T08:18:29Z</time>
      </trkpt>
      <trkpt lat="46.62475" lon="5.61127">
        <ele>489.1</ele>
        <time>2022-05-03T08:18:42Z</time>
      </trkpt>
      <trkpt lat="46.62469" lon="5.61127">
        <ele>489.7</ele>
        <time>2022-05-03T08:18:47Z</time>
      </trkpt>
      <trkpt lat="46.62464" lon="5.61126">
        <ele>489.9</ele>
        <time>2022-05-03T08:18:51Z</time>
      </trkpt>
      <trkpt lat="46.62456" lon="5.61123">
        <ele>490.1</ele>
        <time>2022-05-03T08:18:54Z</time>
      </trkpt>
      <trkpt lat="46.62449" lon="5.61121">
        <ele>489.8</ele>
        <time>2022-05-03T08:18:57Z</time>
      </trkpt>
      <trkpt lat="46.62444" lon="5.61119">
        <ele>489.5</ele>
        <time>2022-05-03T08:19:01Z</time>
      </trkpt>
      <trkpt lat="46.62439" lon="5.61117">
        <ele>488.7</ele>
        <time>2022-05-03T08:19:06Z</time>
      </trkpt>
      <trkpt lat="46.62435" lon="5.61112">
        <ele>488.1</ele>
        <time>2022-05-03T08:19:10Z</time>
      </trkpt>
      <trkpt lat="46.62432" lon="5.61107">
        <ele>487.5</ele>
        <time>2022-05-03T08:19:14Z</time>
      </trkpt>
      <trkpt lat="46.62428" lon="5.61103">
        <ele>487.1</ele>
        <time>2022-05-03T08:19:19Z</time>
      </trkpt>
      <trkpt lat="46.62423" lon="5.61099">
        <ele>486.7</ele>
        <time>2022-05-03T08:19:23Z</time>
      </trkpt>
      <trkpt lat="46.6242" lon="5.61093">
        <ele>486.4</ele>
        <time>2022-05-03T08:19:35Z</time>
      </trkpt>
      <trkpt lat="46.62417" lon="5.61089">
        <ele>488.4</ele>
        <time>2022-05-03T08:20:04Z</time>
      </trkpt>
      <trkpt lat="46.62412" lon="5.61084">
        <ele>490.4</ele>
        <time>2022-05-03T08:20:08Z</time>
      </trkpt>
      <trkpt lat="46.62414" lon="5.61078">
        <ele>494.1</ele>
        <time>2022-05-03T08:20:31Z</time>
      </trkpt>
      <trkpt lat="46.62417" lon="5.61073">
        <ele>495.2</ele>
        <time>2022-05-03T08:20:36Z</time>
      </trkpt>
      <trkpt lat="46.62413" lon="5.61074">
        <ele>495.6</ele>
        <time>2022-05-03T08:20:50Z</time>
      </trkpt>
      <trkpt lat="46.6241" lon="5.61079">
        <ele>495.7</ele>
        <time>2022-05-03T08:21:01Z</time>
      </trkpt>
      <trkpt lat="46.62411" lon="5.61072">
        <ele>497.4</ele>
        <time>2022-05-03T08:21:23Z</time>
      </trkpt>
      <trkpt lat="46.62411" lon="5.61079">
        <ele>498.1</ele>
        <time>2022-05-03T08:21:55Z</time>
      </trkpt>
      <trkpt lat="46.62408" lon="5.61085">
        <ele>498.3</ele>
        <time>2022-05-03T08:22:00Z</time>
      </trkpt>
      <trkpt lat="46.62413" lon="5.61085">
        <ele>498.6</ele>
        <time>2022-05-03T08:22:12Z</time>
      </trkpt>
      <trkpt lat="46.62411" lon="5.61091">
        <ele>498</ele>
        <time>2022-05-03T08:22:43Z</time>
      </trkpt>
      <trkpt lat="46.62407" lon="5.61095">
        <ele>497.8</ele>
        <time>2022-05-03T08:22:51Z</time>
      </trkpt>
      <trkpt lat="46.62404" lon="5.611">
        <ele>497.2</ele>
        <time>2022-05-03T08:22:57Z</time>
      </trkpt>
      <trkpt lat="46.62399" lon="5.611">
        <ele>496.7</ele>
        <time>2022-05-03T08:23:02Z</time>
      </trkpt>
      <trkpt lat="46.62395" lon="5.61097">
        <ele>496.3</ele>
        <time>2022-05-03T08:23:07Z</time>
      </trkpt>
      <trkpt lat="46.6239" lon="5.61093">
        <ele>495.8</ele>
        <time>2022-05-03T08:23:12Z</time>
      </trkpt>
      <trkpt lat="46.62386" lon="5.61093">
        <ele>495.1</ele>
        <time>2022-05-03T08:23:16Z</time>
      </trkpt>
      <trkpt lat="46.6238" lon="5.61091">
        <ele>494.3</ele>
        <time>2022-05-03T08:23:21Z</time>
      </trkpt>
      <trkpt lat="46.62375" lon="5.61091">
        <ele>493.4</ele>
        <time>2022-05-03T08:23:26Z</time>
      </trkpt>
      <trkpt lat="46.6237" lon="5.61091">
        <ele>492.6</ele>
        <time>2022-05-03T08:23:32Z</time>
      </trkpt>
      <trkpt lat="46.62365" lon="5.61088">
        <ele>492.2</ele>
        <time>2022-05-03T08:23:38Z</time>
      </trkpt>
      <trkpt lat="46.62361" lon="5.61085">
        <ele>491.7</ele>
        <time>2022-05-03T08:23:43Z</time>
      </trkpt>
      <trkpt lat="46.62356" lon="5.61083">
        <ele>491.3</ele>
        <time>2022-05-03T08:23:49Z</time>
      </trkpt>
      <trkpt lat="46.62353" lon="5.61079">
        <ele>491.1</ele>
        <time>2022-05-03T08:23:54Z</time>
      </trkpt>
      <trkpt lat="46.62348" lon="5.61075">
        <ele>490.9</ele>
        <time>2022-05-03T08:24:00Z</time>
      </trkpt>
      <trkpt lat="46.62344" lon="5.61073">
        <ele>490.7</ele>
        <time>2022-05-03T08:24:05Z</time>
      </trkpt>
      <trkpt lat="46.62338" lon="5.61076">
        <ele>490.6</ele>
        <time>2022-05-03T08:24:09Z</time>
      </trkpt>
      <trkpt lat="46.62333" lon="5.61078">
        <ele>490.4</ele>
        <time>2022-05-03T08:24:14Z</time>
      </trkpt>
      <trkpt lat="46.62328" lon="5.61079">
        <ele>490.1</ele>
        <time>2022-05-03T08:24:20Z</time>
      </trkpt>
      <trkpt lat="46.62323" lon="5.61079">
        <ele>489.8</ele>
        <time>2022-05-03T08:24:24Z</time>
      </trkpt>
      <trkpt lat="46.62318" lon="5.6108">
        <ele>489.6</ele>
        <time>2022-05-03T08:24:29Z</time>
      </trkpt>
      <trkpt lat="46.62313" lon="5.61083">
        <ele>489.4</ele>
        <time>2022-05-03T08:24:33Z</time>
      </trkpt>
      <trkpt lat="46.62308" lon="5.61086">
        <ele>489</ele>
        <time>2022-05-03T08:24:36Z</time>
      </trkpt>
      <trkpt lat="46.62302" lon="5.61085">
        <ele>488.4</ele>
        <time>2022-05-03T08:24:40Z</time>
      </trkpt>
      <trkpt lat="46.62297" lon="5.61083">
        <ele>487.9</ele>
        <time>2022-05-03T08:24:44Z</time>
      </trkpt>
      <trkpt lat="46.62291" lon="5.61081">
        <ele>487.4</ele>
        <time>2022-05-03T08:24:48Z</time>
      </trkpt>
      <trkpt lat="46.62287" lon="5.61081">
        <ele>486.9</ele>
        <time>2022-05-03T08:24:52Z</time>
      </trkpt>
      <trkpt lat="46.62282" lon="5.61085">
        <ele>486.3</ele>
        <time>2022-05-03T08:24:58Z</time>
      </trkpt>
      <trkpt lat="46.62278" lon="5.61089">
        <ele>486.3</ele>
        <time>2022-05-03T08:25:02Z</time>
      </trkpt>
      <trkpt lat="46.62274" lon="5.61092">
        <ele>486</ele>
        <time>2022-05-03T08:25:05Z</time>
      </trkpt>
      <trkpt lat="46.62269" lon="5.61092">
        <ele>485.7</ele>
        <time>2022-05-03T08:25:11Z</time>
      </trkpt>
      <trkpt lat="46.62264" lon="5.61095">
        <ele>485.4</ele>
        <time>2022-05-03T08:25:18Z</time>
      </trkpt>
      <trkpt lat="46.62259" lon="5.61097">
        <ele>485.3</ele>
        <time>2022-05-03T08:25:23Z</time>
      </trkpt>
      <trkpt lat="46.62253" lon="5.61096">
        <ele>485.2</ele>
        <time>2022-05-03T08:25:26Z</time>
      </trkpt>
      <trkpt lat="46.62248" lon="5.61095">
        <ele>485</ele>
        <time>2022-05-03T08:25:29Z</time>
      </trkpt>
      <trkpt lat="46.62242" lon="5.61094">
        <ele>484.8</ele>
        <time>2022-05-03T08:25:32Z</time>
      </trkpt>
      <trkpt lat="46.62237" lon="5.61096">
        <ele>484.4</ele>
        <time>2022-05-03T08:25:35Z</time>
      </trkpt>
      <trkpt lat="46.62233" lon="5.61096">
        <ele>483.9</ele>
        <time>2022-05-03T08:25:39Z</time>
      </trkpt>
      <trkpt lat="46.62228" lon="5.61098">
        <ele>483.5</ele>
        <time>2022-05-03T08:25:43Z</time>
      </trkpt>
      <trkpt lat="46.62223" lon="5.61099">
        <ele>483.1</ele>
        <time>2022-05-03T08:25:47Z</time>
      </trkpt>
      <trkpt lat="46.62218" lon="5.61099">
        <ele>483.3</ele>
        <time>2022-05-03T08:25:51Z</time>
      </trkpt>
      <trkpt lat="46.62213" lon="5.61097">
        <ele>484.8</ele>
        <time>2022-05-03T08:25:58Z</time>
      </trkpt>
      <trkpt lat="46.62209" lon="5.61095">
        <ele>485.8</ele>
        <time>2022-05-03T08:26:05Z</time>
      </trkpt>
      <trkpt lat="46.62203" lon="5.61093">
        <ele>486.1</ele>
        <time>2022-05-03T08:26:09Z</time>
      </trkpt>
      <trkpt lat="46.62198" lon="5.61094">
        <ele>486.3</ele>
        <time>2022-05-03T08:26:15Z</time>
      </trkpt>
      <trkpt lat="46.62193" lon="5.61095">
        <ele>486.7</ele>
        <time>2022-05-03T08:26:21Z</time>
      </trkpt>
      <trkpt lat="46.62188" lon="5.61094">
        <ele>487.3</ele>
        <time>2022-05-03T08:26:28Z</time>
      </trkpt>
      <trkpt lat="46.62184" lon="5.6109">
        <ele>487.9</ele>
        <time>2022-05-03T08:26:34Z</time>
      </trkpt>
      <trkpt lat="46.6218" lon="5.61086">
        <ele>488.3</ele>
        <time>2022-05-03T08:26:40Z</time>
      </trkpt>
      <trkpt lat="46.62176" lon="5.61083">
        <ele>486.6</ele>
        <time>2022-05-03T08:26:51Z</time>
      </trkpt>
      <trkpt lat="46.62171" lon="5.61079">
        <ele>486.1</ele>
        <time>2022-05-03T08:26:57Z</time>
      </trkpt>
      <trkpt lat="46.62167" lon="5.61075">
        <ele>486</ele>
        <time>2022-05-03T08:27:02Z</time>
      </trkpt>
      <trkpt lat="46.62162" lon="5.61074">
        <ele>485.8</ele>
        <time>2022-05-03T08:27:10Z</time>
      </trkpt>
      <trkpt lat="46.62156" lon="5.61074">
        <ele>485.6</ele>
        <time>2022-05-03T08:27:17Z</time>
      </trkpt>
      <trkpt lat="46.62151" lon="5.61072">
        <ele>485.9</ele>
        <time>2022-05-03T08:27:20Z</time>
      </trkpt>
      <trkpt lat="46.62147" lon="5.61072">
        <ele>485.9</ele>
        <time>2022-05-03T08:27:27Z</time>
      </trkpt>
      <trkpt lat="46.62142" lon="5.61072">
        <ele>485.8</ele>
        <time>2022-05-03T08:27:32Z</time>
      </trkpt>
      <trkpt lat="46.62137" lon="5.61073">
        <ele>485.5</ele>
        <time>2022-05-03T08:27:38Z</time>
      </trkpt>
      <trkpt lat="46.62133" lon="5.61071">
        <ele>485</ele>
        <time>2022-05-03T08:27:45Z</time>
      </trkpt>
      <trkpt lat="46.62128" lon="5.61072">
        <ele>484.6</ele>
        <time>2022-05-03T08:27:49Z</time>
      </trkpt>
      <trkpt lat="46.62124" lon="5.61075">
        <ele>483.9</ele>
        <time>2022-05-03T08:27:53Z</time>
      </trkpt>
      <trkpt lat="46.62118" lon="5.61078">
        <ele>483.1</ele>
        <time>2022-05-03T08:27:57Z</time>
      </trkpt>
      <trkpt lat="46.62113" lon="5.61079">
        <ele>482.5</ele>
        <time>2022-05-03T08:28:01Z</time>
      </trkpt>
      <trkpt lat="46.62108" lon="5.61077">
        <ele>481.8</ele>
        <time>2022-05-03T08:28:04Z</time>
      </trkpt>
      <trkpt lat="46.62103" lon="5.61075">
        <ele>481.2</ele>
        <time>2022-05-03T08:28:08Z</time>
      </trkpt>
      <trkpt lat="46.62098" lon="5.61072">
        <ele>480.6</ele>
        <time>2022-05-03T08:28:13Z</time>
      </trkpt>
      <trkpt lat="46.62092" lon="5.61072">
        <ele>480.3</ele>
        <time>2022-05-03T08:28:18Z</time>
      </trkpt>
      <trkpt lat="46.62088" lon="5.6107">
        <ele>479.9</ele>
        <time>2022-05-03T08:28:22Z</time>
      </trkpt>
      <trkpt lat="46.62082" lon="5.61068">
        <ele>479.1</ele>
        <time>2022-05-03T08:28:27Z</time>
      </trkpt>
      <trkpt lat="46.62079" lon="5.61064">
        <ele>478.4</ele>
        <time>2022-05-03T08:28:33Z</time>
      </trkpt>
      <trkpt lat="46.62073" lon="5.61064">
        <ele>478</ele>
        <time>2022-05-03T08:28:38Z</time>
      </trkpt>
      <trkpt lat="46.62067" lon="5.61066">
        <ele>477.8</ele>
        <time>2022-05-03T08:28:42Z</time>
      </trkpt>
      <trkpt lat="46.62061" lon="5.61068">
        <ele>477.8</ele>
        <time>2022-05-03T08:28:45Z</time>
      </trkpt>
      <trkpt lat="46.62057" lon="5.6107">
        <ele>477.9</ele>
        <time>2022-05-03T08:28:48Z</time>
      </trkpt>
      <trkpt lat="46.62051" lon="5.61068">
        <ele>478.5</ele>
        <time>2022-05-03T08:28:52Z</time>
      </trkpt>
      <trkpt lat="46.62043" lon="5.61067">
        <ele>479.8</ele>
        <time>2022-05-03T08:29:01Z</time>
      </trkpt>
      <trkpt lat="46.62038" lon="5.61065">
        <ele>480.2</ele>
        <time>2022-05-03T08:29:04Z</time>
      </trkpt>
      <trkpt lat="46.62033" lon="5.61064">
        <ele>480.5</ele>
        <time>2022-05-03T08:29:08Z</time>
      </trkpt>
      <trkpt lat="46.62028" lon="5.61063">
        <ele>481.3</ele>
        <time>2022-05-03T08:29:14Z</time>
      </trkpt>
      <trkpt lat="46.62025" lon="5.61059">
        <ele>481.9</ele>
        <time>2022-05-03T08:29:19Z</time>
      </trkpt>
      <trkpt lat="46.62021" lon="5.61053">
        <ele>482.3</ele>
        <time>2022-05-03T08:29:26Z</time>
      </trkpt>
      <trkpt lat="46.62018" lon="5.61049">
        <ele>481.9</ele>
        <time>2022-05-03T08:29:31Z</time>
      </trkpt>
      <trkpt lat="46.62012" lon="5.61046">
        <ele>481.7</ele>
        <time>2022-05-03T08:29:34Z</time>
      </trkpt>
      <trkpt lat="46.62007" lon="5.61042">
        <ele>481.6</ele>
        <time>2022-05-03T08:29:37Z</time>
      </trkpt>
      <trkpt lat="46.62002" lon="5.6104">
        <ele>481.4</ele>
        <time>2022-05-03T08:29:42Z</time>
      </trkpt>
      <trkpt lat="46.62006" lon="5.61035">
        <ele>481.2</ele>
        <time>2022-05-03T08:29:45Z</time>
      </trkpt>
      <trkpt lat="46.6201" lon="5.61032">
        <ele>481</ele>
        <time>2022-05-03T08:29:51Z</time>
      </trkpt>
      <trkpt lat="46.62013" lon="5.61025">
        <ele>482</ele>
        <time>2022-05-03T08:30:00Z</time>
      </trkpt>
      <trkpt lat="46.62015" lon="5.61018">
        <ele>482.5</ele>
        <time>2022-05-03T08:30:05Z</time>
      </trkpt>
      <trkpt lat="46.62017" lon="5.61011">
        <ele>483.7</ele>
        <time>2022-05-03T08:30:10Z</time>
      </trkpt>
      <trkpt lat="46.62021" lon="5.61005">
        <ele>485.5</ele>
        <time>2022-05-03T08:30:14Z</time>
      </trkpt>
      <trkpt lat="46.62024" lon="5.61">
        <ele>486.6</ele>
        <time>2022-05-03T08:30:17Z</time>
      </trkpt>
      <trkpt lat="46.62027" lon="5.60994">
        <ele>488.6</ele>
        <time>2022-05-03T08:30:23Z</time>
      </trkpt>
      <trkpt lat="46.62032" lon="5.6099">
        <ele>490.2</ele>
        <time>2022-05-03T08:30:30Z</time>
      </trkpt>
      <trkpt lat="46.62027" lon="5.60988">
        <ele>491</ele>
        <time>2022-05-03T08:30:39Z</time>
      </trkpt>
      <trkpt lat="46.62022" lon="5.6099">
        <ele>492.4</ele>
        <time>2022-05-03T08:30:44Z</time>
      </trkpt>
      <trkpt lat="46.62017" lon="5.6099">
        <ele>494.5</ele>
        <time>2022-05-03T08:30:50Z</time>
      </trkpt>
      <trkpt lat="46.62012" lon="5.60989">
        <ele>496.7</ele>
        <time>2022-05-03T08:30:57Z</time>
      </trkpt>
      <trkpt lat="46.62008" lon="5.60992">
        <ele>497.8</ele>
        <time>2022-05-03T08:31:00Z</time>
      </trkpt>
      <trkpt lat="46.62004" lon="5.60995">
        <ele>499.4</ele>
        <time>2022-05-03T08:31:04Z</time>
      </trkpt>
      <trkpt lat="46.62001" lon="5.61001">
        <ele>501</ele>
        <time>2022-05-03T08:31:08Z</time>
      </trkpt>
      <trkpt lat="46.61999" lon="5.61006">
        <ele>502.8</ele>
        <time>2022-05-03T08:31:13Z</time>
      </trkpt>
      <trkpt lat="46.61995" lon="5.61011">
        <ele>505</ele>
        <time>2022-05-03T08:31:21Z</time>
      </trkpt>
      <trkpt lat="46.61991" lon="5.61013">
        <ele>505.9</ele>
        <time>2022-05-03T08:31:25Z</time>
      </trkpt>
      <trkpt lat="46.61986" lon="5.61013">
        <ele>507.1</ele>
        <time>2022-05-03T08:31:31Z</time>
      </trkpt>
      <trkpt lat="46.61981" lon="5.61015">
        <ele>508.1</ele>
        <time>2022-05-03T08:31:37Z</time>
      </trkpt>
      <trkpt lat="46.61978" lon="5.61021">
        <ele>509.6</ele>
        <time>2022-05-03T08:31:44Z</time>
      </trkpt>
      <trkpt lat="46.61973" lon="5.61022">
        <ele>510.4</ele>
        <time>2022-05-03T08:31:49Z</time>
      </trkpt>
      <trkpt lat="46.6197" lon="5.61029">
        <ele>510.5</ele>
        <time>2022-05-03T08:31:55Z</time>
      </trkpt>
      <trkpt lat="46.6197" lon="5.61035">
        <ele>510.5</ele>
        <time>2022-05-03T08:32:00Z</time>
      </trkpt>
      <trkpt lat="46.61968" lon="5.61043">
        <ele>510.4</ele>
        <time>2022-05-03T08:32:06Z</time>
      </trkpt>
      <trkpt lat="46.61965" lon="5.61047">
        <ele>511.4</ele>
        <time>2022-05-03T08:32:13Z</time>
      </trkpt>
      <trkpt lat="46.6196" lon="5.61048">
        <ele>512.9</ele>
        <time>2022-05-03T08:32:21Z</time>
      </trkpt>
      <trkpt lat="46.61956" lon="5.61054">
        <ele>514.5</ele>
        <time>2022-05-03T08:32:28Z</time>
      </trkpt>
      <trkpt lat="46.61952" lon="5.61059">
        <ele>515.1</ele>
        <time>2022-05-03T08:32:32Z</time>
      </trkpt>
      <trkpt lat="46.6195" lon="5.61066">
        <ele>515.4</ele>
        <time>2022-05-03T08:32:41Z</time>
      </trkpt>
      <trkpt lat="46.61949" lon="5.61072">
        <ele>515.8</ele>
        <time>2022-05-03T08:32:45Z</time>
      </trkpt>
      <trkpt lat="46.61951" lon="5.61079">
        <ele>516.4</ele>
        <time>2022-05-03T08:32:49Z</time>
      </trkpt>
      <trkpt lat="46.61952" lon="5.61086">
        <ele>516.8</ele>
        <time>2022-05-03T08:32:54Z</time>
      </trkpt>
      <trkpt lat="46.61949" lon="5.61091">
        <ele>517.1</ele>
        <time>2022-05-03T08:32:59Z</time>
      </trkpt>
      <trkpt lat="46.61945" lon="5.61096">
        <ele>517.4</ele>
        <time>2022-05-03T08:33:05Z</time>
      </trkpt>
      <trkpt lat="46.61939" lon="5.61099">
        <ele>517.7</ele>
        <time>2022-05-03T08:33:09Z</time>
      </trkpt>
      <trkpt lat="46.61935" lon="5.611">
        <ele>518.2</ele>
        <time>2022-05-03T08:33:13Z</time>
      </trkpt>
      <trkpt lat="46.6193" lon="5.61102">
        <ele>518.4</ele>
        <time>2022-05-03T08:33:18Z</time>
      </trkpt>
      <trkpt lat="46.61925" lon="5.61104">
        <ele>518.7</ele>
        <time>2022-05-03T08:33:24Z</time>
      </trkpt>
      <trkpt lat="46.6192" lon="5.61105">
        <ele>519.6</ele>
        <time>2022-05-03T08:33:30Z</time>
      </trkpt>
      <trkpt lat="46.61914" lon="5.61107">
        <ele>520.6</ele>
        <time>2022-05-03T08:33:35Z</time>
      </trkpt>
      <trkpt lat="46.6191" lon="5.61109">
        <ele>521.2</ele>
        <time>2022-05-03T08:33:38Z</time>
      </trkpt>
      <trkpt lat="46.61905" lon="5.61112">
        <ele>522.2</ele>
        <time>2022-05-03T08:33:42Z</time>
      </trkpt>
      <trkpt lat="46.619" lon="5.61114">
        <ele>525.6</ele>
        <time>2022-05-03T08:33:52Z</time>
      </trkpt>
      <trkpt lat="46.61896" lon="5.61119">
        <ele>526.8</ele>
        <time>2022-05-03T08:33:57Z</time>
      </trkpt>
      <trkpt lat="46.61892" lon="5.61122">
        <ele>528.4</ele>
        <time>2022-05-03T08:34:02Z</time>
      </trkpt>
      <trkpt lat="46.61888" lon="5.61126">
        <ele>530.1</ele>
        <time>2022-05-03T08:34:09Z</time>
      </trkpt>
      <trkpt lat="46.61883" lon="5.61129">
        <ele>530.3</ele>
        <time>2022-05-03T08:34:14Z</time>
      </trkpt>
      <trkpt lat="46.61879" lon="5.61132">
        <ele>530.2</ele>
        <time>2022-05-03T08:34:18Z</time>
      </trkpt>
      <trkpt lat="46.61875" lon="5.61135">
        <ele>529.9</ele>
        <time>2022-05-03T08:34:24Z</time>
      </trkpt>
      <trkpt lat="46.6187" lon="5.61136">
        <ele>529.6</ele>
        <time>2022-05-03T08:34:29Z</time>
      </trkpt>
      <trkpt lat="46.61865" lon="5.61136">
        <ele>528.9</ele>
        <time>2022-05-03T08:34:35Z</time>
      </trkpt>
      <trkpt lat="46.6186" lon="5.61132">
        <ele>526.6</ele>
        <time>2022-05-03T08:36:41Z</time>
      </trkpt>
      <trkpt lat="46.61856" lon="5.61136">
        <ele>527.9</ele>
        <time>2022-05-03T08:36:50Z</time>
      </trkpt>
      <trkpt lat="46.61851" lon="5.61141">
        <ele>528.4</ele>
        <time>2022-05-03T08:36:54Z</time>
      </trkpt>
      <trkpt lat="46.61847" lon="5.61146">
        <ele>528.8</ele>
        <time>2022-05-03T08:36:58Z</time>
      </trkpt>
      <trkpt lat="46.61843" lon="5.61151">
        <ele>529.3</ele>
        <time>2022-05-03T08:37:02Z</time>
      </trkpt>
      <trkpt lat="46.61838" lon="5.61154">
        <ele>530.3</ele>
        <time>2022-05-03T08:37:06Z</time>
      </trkpt>
      <trkpt lat="46.61833" lon="5.61158">
        <ele>531.7</ele>
        <time>2022-05-03T08:37:10Z</time>
      </trkpt>
      <trkpt lat="46.61828" lon="5.61162">
        <ele>532.7</ele>
        <time>2022-05-03T08:37:15Z</time>
      </trkpt>
      <trkpt lat="46.61824" lon="5.61165">
        <ele>533.3</ele>
        <time>2022-05-03T08:37:19Z</time>
      </trkpt>
      <trkpt lat="46.6182" lon="5.61168">
        <ele>533.8</ele>
        <time>2022-05-03T08:37:23Z</time>
      </trkpt>
      <trkpt lat="46.61815" lon="5.61171">
        <ele>534.1</ele>
        <time>2022-05-03T08:37:28Z</time>
      </trkpt>
      <trkpt lat="46.61809" lon="5.61171">
        <ele>534.4</ele>
        <time>2022-05-03T08:37:33Z</time>
      </trkpt>
      <trkpt lat="46.61805" lon="5.61176">
        <ele>535.1</ele>
        <time>2022-05-03T08:37:38Z</time>
      </trkpt>
      <trkpt lat="46.61801" lon="5.61179">
        <ele>535.7</ele>
        <time>2022-05-03T08:37:42Z</time>
      </trkpt>
      <trkpt lat="46.61796" lon="5.61181">
        <ele>536.4</ele>
        <time>2022-05-03T08:37:46Z</time>
      </trkpt>
      <trkpt lat="46.61793" lon="5.61175">
        <ele>536.7</ele>
        <time>2022-05-03T08:37:53Z</time>
      </trkpt>
      <trkpt lat="46.6179" lon="5.61168">
        <ele>536.6</ele>
        <time>2022-05-03T08:37:57Z</time>
      </trkpt>
      <trkpt lat="46.61789" lon="5.61162">
        <ele>535.7</ele>
        <time>2022-05-03T08:38:01Z</time>
      </trkpt>
      <trkpt lat="46.61788" lon="5.61155">
        <ele>533.7</ele>
        <time>2022-05-03T08:38:05Z</time>
      </trkpt>
      <trkpt lat="46.61787" lon="5.61148">
        <ele>531.3</ele>
        <time>2022-05-03T08:38:09Z</time>
      </trkpt>
      <trkpt lat="46.61785" lon="5.61141">
        <ele>529.1</ele>
        <time>2022-05-03T08:38:13Z</time>
      </trkpt>
      <trkpt lat="46.61783" lon="5.61133">
        <ele>527.7</ele>
        <time>2022-05-03T08:38:18Z</time>
      </trkpt>
      <trkpt lat="46.61781" lon="5.61127">
        <ele>526.9</ele>
        <time>2022-05-03T08:38:24Z</time>
      </trkpt>
      <trkpt lat="46.61778" lon="5.61123">
        <ele>526.2</ele>
        <time>2022-05-03T08:38:29Z</time>
      </trkpt>
      <trkpt lat="46.61774" lon="5.61119">
        <ele>525</ele>
        <time>2022-05-03T08:38:34Z</time>
      </trkpt>
      <trkpt lat="46.61769" lon="5.61115">
        <ele>524</ele>
        <time>2022-05-03T08:38:38Z</time>
      </trkpt>
      <trkpt lat="46.61764" lon="5.61111">
        <ele>523.3</ele>
        <time>2022-05-03T08:38:43Z</time>
      </trkpt>
      <trkpt lat="46.61759" lon="5.61107">
        <ele>523.1</ele>
        <time>2022-05-03T08:38:48Z</time>
      </trkpt>
      <trkpt lat="46.61754" lon="5.61104">
        <ele>523.5</ele>
        <time>2022-05-03T08:38:52Z</time>
      </trkpt>
      <trkpt lat="46.6175" lon="5.61101">
        <ele>524.2</ele>
        <time>2022-05-03T08:38:55Z</time>
      </trkpt>
      <trkpt lat="46.61745" lon="5.61097">
        <ele>525.4</ele>
        <time>2022-05-03T08:38:59Z</time>
      </trkpt>
      <trkpt lat="46.6174" lon="5.61094">
        <ele>526.5</ele>
        <time>2022-05-03T08:39:03Z</time>
      </trkpt>
      <trkpt lat="46.61736" lon="5.6109">
        <ele>527.9</ele>
        <time>2022-05-03T08:39:08Z</time>
      </trkpt>
      <trkpt lat="46.61732" lon="5.61085">
        <ele>529.4</ele>
        <time>2022-05-03T08:39:13Z</time>
      </trkpt>
      <trkpt lat="46.61728" lon="5.61081">
        <ele>530.1</ele>
        <time>2022-05-03T08:39:18Z</time>
      </trkpt>
      <trkpt lat="46.61724" lon="5.61077">
        <ele>530.1</ele>
        <time>2022-05-03T08:39:24Z</time>
      </trkpt>
      <trkpt lat="46.6172" lon="5.61073">
        <ele>530</ele>
        <time>2022-05-03T08:39:28Z</time>
      </trkpt>
      <trkpt lat="46.61715" lon="5.61069">
        <ele>529.8</ele>
        <time>2022-05-03T08:39:32Z</time>
      </trkpt>
      <trkpt lat="46.61712" lon="5.61063">
        <ele>529.7</ele>
        <time>2022-05-03T08:39:36Z</time>
      </trkpt>
      <trkpt lat="46.61709" lon="5.61058">
        <ele>529.3</ele>
        <time>2022-05-03T08:39:40Z</time>
      </trkpt>
      <trkpt lat="46.61704" lon="5.61052">
        <ele>528.8</ele>
        <time>2022-05-03T08:39:44Z</time>
      </trkpt>
      <trkpt lat="46.61701" lon="5.61047">
        <ele>528.2</ele>
        <time>2022-05-03T08:39:48Z</time>
      </trkpt>
      <trkpt lat="46.61698" lon="5.61041">
        <ele>527.9</ele>
        <time>2022-05-03T08:39:53Z</time>
      </trkpt>
      <trkpt lat="46.61694" lon="5.61035">
        <ele>527.9</ele>
        <time>2022-05-03T08:39:58Z</time>
      </trkpt>
      <trkpt lat="46.61691" lon="5.6103">
        <ele>528.2</ele>
        <time>2022-05-03T08:40:02Z</time>
      </trkpt>
      <trkpt lat="46.61688" lon="5.61024">
        <ele>528.2</ele>
        <time>2022-05-03T08:40:06Z</time>
      </trkpt>
      <trkpt lat="46.61684" lon="5.61018">
        <ele>528.1</ele>
        <time>2022-05-03T08:40:10Z</time>
      </trkpt>
      <trkpt lat="46.6168" lon="5.61013">
        <ele>527.9</ele>
        <time>2022-05-03T08:40:14Z</time>
      </trkpt>
      <trkpt lat="46.61676" lon="5.61008">
        <ele>527.6</ele>
        <time>2022-05-03T08:40:18Z</time>
      </trkpt>
      <trkpt lat="46.61672" lon="5.61004">
        <ele>527.6</ele>
        <time>2022-05-03T08:40:21Z</time>
      </trkpt>
      <trkpt lat="46.61669" lon="5.60999">
        <ele>527.9</ele>
        <time>2022-05-03T08:40:27Z</time>
      </trkpt>
      <trkpt lat="46.61665" lon="5.60994">
        <ele>528.6</ele>
        <time>2022-05-03T08:40:31Z</time>
      </trkpt>
      <trkpt lat="46.61662" lon="5.60988">
        <ele>529.6</ele>
        <time>2022-05-03T08:40:37Z</time>
      </trkpt>
      <trkpt lat="46.61658" lon="5.60983">
        <ele>529.2</ele>
        <time>2022-05-03T08:40:42Z</time>
      </trkpt>
      <trkpt lat="46.61655" lon="5.60978">
        <ele>528.8</ele>
        <time>2022-05-03T08:40:46Z</time>
      </trkpt>
      <trkpt lat="46.61651" lon="5.60973">
        <ele>528.5</ele>
        <time>2022-05-03T08:40:50Z</time>
      </trkpt>
      <trkpt lat="46.61648" lon="5.60968">
        <ele>528.6</ele>
        <time>2022-05-03T08:40:55Z</time>
      </trkpt>
      <trkpt lat="46.61644" lon="5.60962">
        <ele>528.3</ele>
        <time>2022-05-03T08:40:59Z</time>
      </trkpt>
      <trkpt lat="46.61641" lon="5.60957">
        <ele>527.9</ele>
        <time>2022-05-03T08:41:04Z</time>
      </trkpt>
      <trkpt lat="46.61641" lon="5.6095">
        <ele>525.7</ele>
        <time>2022-05-03T08:41:16Z</time>
      </trkpt>
      <trkpt lat="46.61637" lon="5.60945">
        <ele>525.7</ele>
        <time>2022-05-03T08:41:20Z</time>
      </trkpt>
      <trkpt lat="46.61634" lon="5.60939">
        <ele>526.1</ele>
        <time>2022-05-03T08:41:25Z</time>
      </trkpt>
      <trkpt lat="46.6163" lon="5.60933">
        <ele>526.2</ele>
        <time>2022-05-03T08:41:29Z</time>
      </trkpt>
      <trkpt lat="46.61625" lon="5.60929">
        <ele>525.9</ele>
        <time>2022-05-03T08:41:33Z</time>
      </trkpt>
      <trkpt lat="46.61621" lon="5.60926">
        <ele>525.5</ele>
        <time>2022-05-03T08:41:37Z</time>
      </trkpt>
      <trkpt lat="46.61616" lon="5.60922">
        <ele>525</ele>
        <time>2022-05-03T08:41:42Z</time>
      </trkpt>
      <trkpt lat="46.61612" lon="5.60917">
        <ele>524.4</ele>
        <time>2022-05-03T08:41:46Z</time>
      </trkpt>
      <trkpt lat="46.61609" lon="5.60913">
        <ele>524</ele>
        <time>2022-05-03T08:41:50Z</time>
      </trkpt>
      <trkpt lat="46.61604" lon="5.60909">
        <ele>523.9</ele>
        <time>2022-05-03T08:41:55Z</time>
      </trkpt>
      <trkpt lat="46.616" lon="5.60905">
        <ele>524.1</ele>
        <time>2022-05-03T08:42:01Z</time>
      </trkpt>
      <trkpt lat="46.61597" lon="5.60899">
        <ele>524.1</ele>
        <time>2022-05-03T08:42:06Z</time>
      </trkpt>
      <trkpt lat="46.61593" lon="5.60895">
        <ele>524</ele>
        <time>2022-05-03T08:42:10Z</time>
      </trkpt>
      <trkpt lat="46.61589" lon="5.6089">
        <ele>523.9</ele>
        <time>2022-05-03T08:42:13Z</time>
      </trkpt>
      <trkpt lat="46.61586" lon="5.60886">
        <ele>524.1</ele>
        <time>2022-05-03T08:42:18Z</time>
      </trkpt>
      <trkpt lat="46.61582" lon="5.60881">
        <ele>524.8</ele>
        <time>2022-05-03T08:42:25Z</time>
      </trkpt>
      <trkpt lat="46.61578" lon="5.60875">
        <ele>525.2</ele>
        <time>2022-05-03T08:42:30Z</time>
      </trkpt>
      <trkpt lat="46.61574" lon="5.60871">
        <ele>525.3</ele>
        <time>2022-05-03T08:42:34Z</time>
      </trkpt>
      <trkpt lat="46.61571" lon="5.60866">
        <ele>525.3</ele>
        <time>2022-05-03T08:42:38Z</time>
      </trkpt>
      <trkpt lat="46.61568" lon="5.60859">
        <ele>525.3</ele>
        <time>2022-05-03T08:42:42Z</time>
      </trkpt>
      <trkpt lat="46.61565" lon="5.60854">
        <ele>525.4</ele>
        <time>2022-05-03T08:42:45Z</time>
      </trkpt>
      <trkpt lat="46.61561" lon="5.60848">
        <ele>526</ele>
        <time>2022-05-03T08:42:49Z</time>
      </trkpt>
      <trkpt lat="46.61558" lon="5.60844">
        <ele>526.8</ele>
        <time>2022-05-03T08:42:53Z</time>
      </trkpt>
      <trkpt lat="46.61554" lon="5.60838">
        <ele>528</ele>
        <time>2022-05-03T08:42:58Z</time>
      </trkpt>
      <trkpt lat="46.61551" lon="5.60834">
        <ele>528.4</ele>
        <time>2022-05-03T08:43:02Z</time>
      </trkpt>
      <trkpt lat="46.61547" lon="5.60829">
        <ele>528.4</ele>
        <time>2022-05-03T08:43:07Z</time>
      </trkpt>
      <trkpt lat="46.61543" lon="5.60824">
        <ele>529</ele>
        <time>2022-05-03T08:43:11Z</time>
      </trkpt>
      <trkpt lat="46.6154" lon="5.60819">
        <ele>529.6</ele>
        <time>2022-05-03T08:43:15Z</time>
      </trkpt>
      <trkpt lat="46.61536" lon="5.60814">
        <ele>529.6</ele>
        <time>2022-05-03T08:43:20Z</time>
      </trkpt>
      <trkpt lat="46.61532" lon="5.6081">
        <ele>529.4</ele>
        <time>2022-05-03T08:43:24Z</time>
      </trkpt>
      <trkpt lat="46.61528" lon="5.60804">
        <ele>529.1</ele>
        <time>2022-05-03T08:43:29Z</time>
      </trkpt>
      <trkpt lat="46.61525" lon="5.608">
        <ele>529</ele>
        <time>2022-05-03T08:43:32Z</time>
      </trkpt>
      <trkpt lat="46.61521" lon="5.60794">
        <ele>528.6</ele>
        <time>2022-05-03T08:43:36Z</time>
      </trkpt>
      <trkpt lat="46.61518" lon="5.60789">
        <ele>528.3</ele>
        <time>2022-05-03T08:43:40Z</time>
      </trkpt>
      <trkpt lat="46.61514" lon="5.60783">
        <ele>528.4</ele>
        <time>2022-05-03T08:43:44Z</time>
      </trkpt>
      <trkpt lat="46.6151" lon="5.60778">
        <ele>529.1</ele>
        <time>2022-05-03T08:43:48Z</time>
      </trkpt>
      <trkpt lat="46.61506" lon="5.60773">
        <ele>529.7</ele>
        <time>2022-05-03T08:43:53Z</time>
      </trkpt>
      <trkpt lat="46.61503" lon="5.60768">
        <ele>530.3</ele>
        <time>2022-05-03T08:43:57Z</time>
      </trkpt>
      <trkpt lat="46.61499" lon="5.60764">
        <ele>530.6</ele>
        <time>2022-05-03T08:44:01Z</time>
      </trkpt>
      <trkpt lat="46.61495" lon="5.6076">
        <ele>530.7</ele>
        <time>2022-05-03T08:44:05Z</time>
      </trkpt>
      <trkpt lat="46.61492" lon="5.60755">
        <ele>530.8</ele>
        <time>2022-05-03T08:44:09Z</time>
      </trkpt>
      <trkpt lat="46.61488" lon="5.60749">
        <ele>531.1</ele>
        <time>2022-05-03T08:44:13Z</time>
      </trkpt>
      <trkpt lat="46.61484" lon="5.60744">
        <ele>531.1</ele>
        <time>2022-05-03T08:44:18Z</time>
      </trkpt>
      <trkpt lat="46.61481" lon="5.60739">
        <ele>531.2</ele>
        <time>2022-05-03T08:44:22Z</time>
      </trkpt>
      <trkpt lat="46.61478" lon="5.60734">
        <ele>531.4</ele>
        <time>2022-05-03T08:44:26Z</time>
      </trkpt>
      <trkpt lat="46.61474" lon="5.6073">
        <ele>532</ele>
        <time>2022-05-03T08:44:29Z</time>
      </trkpt>
      <trkpt lat="46.61471" lon="5.60725">
        <ele>532.8</ele>
        <time>2022-05-03T08:44:32Z</time>
      </trkpt>
      <trkpt lat="46.61467" lon="5.60721">
        <ele>533.2</ele>
        <time>2022-05-03T08:44:36Z</time>
      </trkpt>
      <trkpt lat="46.61463" lon="5.60716">
        <ele>532.9</ele>
        <time>2022-05-03T08:44:40Z</time>
      </trkpt>
      <trkpt lat="46.6146" lon="5.60711">
        <ele>532.5</ele>
        <time>2022-05-03T08:44:45Z</time>
      </trkpt>
      <trkpt lat="46.61456" lon="5.60706">
        <ele>532.4</ele>
        <time>2022-05-03T08:44:50Z</time>
      </trkpt>
      <trkpt lat="46.61452" lon="5.60701">
        <ele>532.6</ele>
        <time>2022-05-03T08:44:54Z</time>
      </trkpt>
      <trkpt lat="46.61449" lon="5.60695">
        <ele>532.1</ele>
        <time>2022-05-03T08:44:59Z</time>
      </trkpt>
      <trkpt lat="46.61446" lon="5.6069">
        <ele>531.1</ele>
        <time>2022-05-03T08:45:03Z</time>
      </trkpt>
      <trkpt lat="46.61443" lon="5.60684">
        <ele>530.2</ele>
        <time>2022-05-03T08:45:07Z</time>
      </trkpt>
      <trkpt lat="46.61438" lon="5.60679">
        <ele>529.8</ele>
        <time>2022-05-03T08:45:11Z</time>
      </trkpt>
      <trkpt lat="46.61435" lon="5.60675">
        <ele>530</ele>
        <time>2022-05-03T08:45:15Z</time>
      </trkpt>
      <trkpt lat="46.61432" lon="5.60668">
        <ele>530.2</ele>
        <time>2022-05-03T08:45:20Z</time>
      </trkpt>
      <trkpt lat="46.61428" lon="5.60662">
        <ele>530.3</ele>
        <time>2022-05-03T08:45:25Z</time>
      </trkpt>
      <trkpt lat="46.61425" lon="5.60657">
        <ele>530.3</ele>
        <time>2022-05-03T08:45:31Z</time>
      </trkpt>
      <trkpt lat="46.61426" lon="5.6065">
        <ele>530.5</ele>
        <time>2022-05-03T08:45:36Z</time>
      </trkpt>
      <trkpt lat="46.61426" lon="5.60642">
        <ele>530.5</ele>
        <time>2022-05-03T08:45:40Z</time>
      </trkpt>
      <trkpt lat="46.61426" lon="5.60635">
        <ele>530.4</ele>
        <time>2022-05-03T08:45:43Z</time>
      </trkpt>
      <trkpt lat="46.61426" lon="5.60627">
        <ele>530.1</ele>
        <time>2022-05-03T08:45:48Z</time>
      </trkpt>
      <trkpt lat="46.61427" lon="5.60621">
        <ele>529.5</ele>
        <time>2022-05-03T08:45:53Z</time>
      </trkpt>
      <trkpt lat="46.61428" lon="5.60614">
        <ele>529.2</ele>
        <time>2022-05-03T08:46:01Z</time>
      </trkpt>
      <trkpt lat="46.61431" lon="5.60607">
        <ele>530.4</ele>
        <time>2022-05-03T08:46:12Z</time>
      </trkpt>
      <trkpt lat="46.61434" lon="5.606">
        <ele>531.1</ele>
        <time>2022-05-03T08:46:16Z</time>
      </trkpt>
      <trkpt lat="46.61437" lon="5.60593">
        <ele>531.8</ele>
        <time>2022-05-03T08:46:20Z</time>
      </trkpt>
      <trkpt lat="46.6144" lon="5.60587">
        <ele>532.2</ele>
        <time>2022-05-03T08:46:24Z</time>
      </trkpt>
      <trkpt lat="46.61442" lon="5.60581">
        <ele>532.6</ele>
        <time>2022-05-03T08:46:28Z</time>
      </trkpt>
      <trkpt lat="46.61444" lon="5.60575">
        <ele>533.1</ele>
        <time>2022-05-03T08:46:33Z</time>
      </trkpt>
      <trkpt lat="46.61446" lon="5.60567">
        <ele>533.8</ele>
        <time>2022-05-03T08:46:38Z</time>
      </trkpt>
      <trkpt lat="46.61448" lon="5.60561">
        <ele>534.2</ele>
        <time>2022-05-03T08:46:43Z</time>
      </trkpt>
      <trkpt lat="46.61451" lon="5.60555">
        <ele>534.7</ele>
        <time>2022-05-03T08:46:48Z</time>
      </trkpt>
      <trkpt lat="46.61453" lon="5.60549">
        <ele>534.9</ele>
        <time>2022-05-03T08:46:53Z</time>
      </trkpt>
      <trkpt lat="46.61455" lon="5.60543">
        <ele>535</ele>
        <time>2022-05-03T08:46:57Z</time>
      </trkpt>
      <trkpt lat="46.61458" lon="5.60536">
        <ele>535</ele>
        <time>2022-05-03T08:47:02Z</time>
      </trkpt>
      <trkpt lat="46.6146" lon="5.60529">
        <ele>535.2</ele>
        <time>2022-05-03T08:47:06Z</time>
      </trkpt>
      <trkpt lat="46.61462" lon="5.60522">
        <ele>535.5</ele>
        <time>2022-05-03T08:47:10Z</time>
      </trkpt>
      <trkpt lat="46.61465" lon="5.60517">
        <ele>535.8</ele>
        <time>2022-05-03T08:47:14Z</time>
      </trkpt>
      <trkpt lat="46.61465" lon="5.6051">
        <ele>536.4</ele>
        <time>2022-05-03T08:47:18Z</time>
      </trkpt>
      <trkpt lat="46.61468" lon="5.60503">
        <ele>537.3</ele>
        <time>2022-05-03T08:47:22Z</time>
      </trkpt>
      <trkpt lat="46.61471" lon="5.60498">
        <ele>538.2</ele>
        <time>2022-05-03T08:47:26Z</time>
      </trkpt>
      <trkpt lat="46.61475" lon="5.60491">
        <ele>539</ele>
        <time>2022-05-03T08:47:30Z</time>
      </trkpt>
      <trkpt lat="46.61477" lon="5.60486">
        <ele>539.7</ele>
        <time>2022-05-03T08:47:33Z</time>
      </trkpt>
      <trkpt lat="46.61479" lon="5.60479">
        <ele>540.4</ele>
        <time>2022-05-03T08:47:38Z</time>
      </trkpt>
      <trkpt lat="46.61481" lon="5.60473">
        <ele>540.8</ele>
        <time>2022-05-03T08:47:43Z</time>
      </trkpt>
      <trkpt lat="46.61483" lon="5.60465">
        <ele>541.2</ele>
        <time>2022-05-03T08:47:48Z</time>
      </trkpt>
      <trkpt lat="46.61485" lon="5.60459">
        <ele>541.5</ele>
        <time>2022-05-03T08:47:52Z</time>
      </trkpt>
      <trkpt lat="46.61487" lon="5.60453">
        <ele>541.4</ele>
        <time>2022-05-03T08:47:56Z</time>
      </trkpt>
      <trkpt lat="46.61489" lon="5.60446">
        <ele>540.8</ele>
        <time>2022-05-03T08:48:01Z</time>
      </trkpt>
      <trkpt lat="46.6149" lon="5.60439">
        <ele>539.5</ele>
        <time>2022-05-03T08:48:07Z</time>
      </trkpt>
      <trkpt lat="46.61493" lon="5.60434">
        <ele>538.7</ele>
        <time>2022-05-03T08:48:12Z</time>
      </trkpt>
      <trkpt lat="46.61495" lon="5.60428">
        <ele>538.3</ele>
        <time>2022-05-03T08:48:16Z</time>
      </trkpt>
      <trkpt lat="46.61498" lon="5.60421">
        <ele>537.9</ele>
        <time>2022-05-03T08:48:20Z</time>
      </trkpt>
      <trkpt lat="46.615" lon="5.60414">
        <ele>537.5</ele>
        <time>2022-05-03T08:48:24Z</time>
      </trkpt>
      <trkpt lat="46.61501" lon="5.60407">
        <ele>537.3</ele>
        <time>2022-05-03T08:48:29Z</time>
      </trkpt>
      <trkpt lat="46.61503" lon="5.60399">
        <ele>537.4</ele>
        <time>2022-05-03T08:48:34Z</time>
      </trkpt>
      <trkpt lat="46.61505" lon="5.60393">
        <ele>537.2</ele>
        <time>2022-05-03T08:48:38Z</time>
      </trkpt>
      <trkpt lat="46.61508" lon="5.60386">
        <ele>536.8</ele>
        <time>2022-05-03T08:48:43Z</time>
      </trkpt>
      <trkpt lat="46.61509" lon="5.60379">
        <ele>536.7</ele>
        <time>2022-05-03T08:48:49Z</time>
      </trkpt>
      <trkpt lat="46.61512" lon="5.60372">
        <ele>536.5</ele>
        <time>2022-05-03T08:48:54Z</time>
      </trkpt>
      <trkpt lat="46.61512" lon="5.60365">
        <ele>536.3</ele>
        <time>2022-05-03T08:48:58Z</time>
      </trkpt>
      <trkpt lat="46.61511" lon="5.60357">
        <ele>535.7</ele>
        <time>2022-05-03T08:49:03Z</time>
      </trkpt>
      <trkpt lat="46.61511" lon="5.6035">
        <ele>535.3</ele>
        <time>2022-05-03T08:49:07Z</time>
      </trkpt>
      <trkpt lat="46.61511" lon="5.60343">
        <ele>535</ele>
        <time>2022-05-03T08:49:12Z</time>
      </trkpt>
      <trkpt lat="46.61514" lon="5.60338">
        <ele>534.6</ele>
        <time>2022-05-03T08:49:16Z</time>
      </trkpt>
      <trkpt lat="46.61515" lon="5.60331">
        <ele>534.1</ele>
        <time>2022-05-03T08:49:19Z</time>
      </trkpt>
      <trkpt lat="46.61515" lon="5.60324">
        <ele>533.9</ele>
        <time>2022-05-03T08:49:22Z</time>
      </trkpt>
      <trkpt lat="46.61516" lon="5.60316">
        <ele>533.3</ele>
        <time>2022-05-03T08:49:26Z</time>
      </trkpt>
      <trkpt lat="46.61516" lon="5.60309">
        <ele>533</ele>
        <time>2022-05-03T08:49:30Z</time>
      </trkpt>
      <trkpt lat="46.61516" lon="5.60301">
        <ele>533.1</ele>
        <time>2022-05-03T08:49:34Z</time>
      </trkpt>
      <trkpt lat="46.61518" lon="5.60294">
        <ele>532.9</ele>
        <time>2022-05-03T08:49:39Z</time>
      </trkpt>
      <trkpt lat="46.61519" lon="5.60287">
        <ele>532.8</ele>
        <time>2022-05-03T08:49:44Z</time>
      </trkpt>
      <trkpt lat="46.61519" lon="5.60279">
        <ele>533.2</ele>
        <time>2022-05-03T08:49:49Z</time>
      </trkpt>
      <trkpt lat="46.61518" lon="5.60271">
        <ele>533.2</ele>
        <time>2022-05-03T08:49:54Z</time>
      </trkpt>
      <trkpt lat="46.61518" lon="5.60263">
        <ele>533.3</ele>
        <time>2022-05-03T08:49:59Z</time>
      </trkpt>
      <trkpt lat="46.6152" lon="5.60255">
        <ele>533.9</ele>
        <time>2022-05-03T08:50:03Z</time>
      </trkpt>
      <trkpt lat="46.61523" lon="5.6025">
        <ele>534.8</ele>
        <time>2022-05-03T08:50:06Z</time>
      </trkpt>
      <trkpt lat="46.61526" lon="5.60243">
        <ele>536.4</ele>
        <time>2022-05-03T08:50:10Z</time>
      </trkpt>
      <trkpt lat="46.61528" lon="5.60236">
        <ele>538.5</ele>
        <time>2022-05-03T08:50:15Z</time>
      </trkpt>
      <trkpt lat="46.61529" lon="5.60229">
        <ele>539.6</ele>
        <time>2022-05-03T08:50:20Z</time>
      </trkpt>
      <trkpt lat="46.61529" lon="5.60223">
        <ele>540.3</ele>
        <time>2022-05-03T08:50:25Z</time>
      </trkpt>
      <trkpt lat="46.6153" lon="5.60216">
        <ele>540.4</ele>
        <time>2022-05-03T08:50:30Z</time>
      </trkpt>
      <trkpt lat="46.61531" lon="5.60208">
        <ele>540.3</ele>
        <time>2022-05-03T08:50:35Z</time>
      </trkpt>
      <trkpt lat="46.61532" lon="5.60202">
        <ele>540.1</ele>
        <time>2022-05-03T08:50:39Z</time>
      </trkpt>
      <trkpt lat="46.61534" lon="5.60195">
        <ele>540.2</ele>
        <time>2022-05-03T08:50:43Z</time>
      </trkpt>
      <trkpt lat="46.61536" lon="5.60189">
        <ele>540.4</ele>
        <time>2022-05-03T08:50:47Z</time>
      </trkpt>
      <trkpt lat="46.61539" lon="5.60182">
        <ele>540.8</ele>
        <time>2022-05-03T08:50:52Z</time>
      </trkpt>
      <trkpt lat="46.61541" lon="5.60176">
        <ele>541.4</ele>
        <time>2022-05-03T08:50:56Z</time>
      </trkpt>
      <trkpt lat="46.61542" lon="5.60169">
        <ele>542.2</ele>
        <time>2022-05-03T08:51:01Z</time>
      </trkpt>
      <trkpt lat="46.61544" lon="5.60161">
        <ele>543.4</ele>
        <time>2022-05-03T08:51:07Z</time>
      </trkpt>
      <trkpt lat="46.61545" lon="5.60155">
        <ele>544.1</ele>
        <time>2022-05-03T08:51:11Z</time>
      </trkpt>
      <trkpt lat="46.61548" lon="5.60149">
        <ele>544.2</ele>
        <time>2022-05-03T08:51:15Z</time>
      </trkpt>
      <trkpt lat="46.61549" lon="5.60141">
        <ele>544.6</ele>
        <time>2022-05-03T08:51:19Z</time>
      </trkpt>
      <trkpt lat="46.61551" lon="5.60133">
        <ele>544.9</ele>
        <time>2022-05-03T08:51:23Z</time>
      </trkpt>
      <trkpt lat="46.61553" lon="5.60125">
        <ele>544.8</ele>
        <time>2022-05-03T08:51:27Z</time>
      </trkpt>
      <trkpt lat="46.61554" lon="5.60119">
        <ele>544.8</ele>
        <time>2022-05-03T08:51:31Z</time>
      </trkpt>
      <trkpt lat="46.61556" lon="5.60112">
        <ele>545.1</ele>
        <time>2022-05-03T08:51:35Z</time>
      </trkpt>
      <trkpt lat="46.61557" lon="5.60105">
        <ele>545.5</ele>
        <time>2022-05-03T08:51:39Z</time>
      </trkpt>
      <trkpt lat="46.61557" lon="5.60098">
        <ele>546.3</ele>
        <time>2022-05-03T08:51:45Z</time>
      </trkpt>
      <trkpt lat="46.61558" lon="5.60092">
        <ele>546.9</ele>
        <time>2022-05-03T08:51:50Z</time>
      </trkpt>
      <trkpt lat="46.61559" lon="5.60084">
        <ele>547.1</ele>
        <time>2022-05-03T08:51:55Z</time>
      </trkpt>
      <trkpt lat="46.61559" lon="5.60077">
        <ele>547</ele>
        <time>2022-05-03T08:52:00Z</time>
      </trkpt>
      <trkpt lat="46.61559" lon="5.60069">
        <ele>546.8</ele>
        <time>2022-05-03T08:52:04Z</time>
      </trkpt>
      <trkpt lat="46.61559" lon="5.60062">
        <ele>546.5</ele>
        <time>2022-05-03T08:52:09Z</time>
      </trkpt>
      <trkpt lat="46.6156" lon="5.60054">
        <ele>546</ele>
        <time>2022-05-03T08:52:14Z</time>
      </trkpt>
      <trkpt lat="46.61561" lon="5.60046">
        <ele>545.6</ele>
        <time>2022-05-03T08:52:19Z</time>
      </trkpt>
      <trkpt lat="46.61562" lon="5.60039">
        <ele>545.9</ele>
        <time>2022-05-03T08:52:23Z</time>
      </trkpt>
      <trkpt lat="46.61562" lon="5.60032">
        <ele>546.7</ele>
        <time>2022-05-03T08:52:27Z</time>
      </trkpt>
      <trkpt lat="46.61561" lon="5.60025">
        <ele>548</ele>
        <time>2022-05-03T08:52:32Z</time>
      </trkpt>
      <trkpt lat="46.6156" lon="5.60018">
        <ele>548.6</ele>
        <time>2022-05-03T08:52:37Z</time>
      </trkpt>
      <trkpt lat="46.61558" lon="5.60011">
        <ele>549.2</ele>
        <time>2022-05-03T08:52:42Z</time>
      </trkpt>
      <trkpt lat="46.61556" lon="5.60004">
        <ele>549.8</ele>
        <time>2022-05-03T08:52:46Z</time>
      </trkpt>
      <trkpt lat="46.61555" lon="5.59996">
        <ele>550.1</ele>
        <time>2022-05-03T08:52:51Z</time>
      </trkpt>
      <trkpt lat="46.61554" lon="5.59989">
        <ele>550</ele>
        <time>2022-05-03T08:52:56Z</time>
      </trkpt>
      <trkpt lat="46.61553" lon="5.59983">
        <ele>549</ele>
        <time>2022-05-03T08:53:01Z</time>
      </trkpt>
      <trkpt lat="46.61553" lon="5.59976">
        <ele>548.5</ele>
        <time>2022-05-03T08:53:05Z</time>
      </trkpt>
      <trkpt lat="46.61552" lon="5.59969">
        <ele>548.6</ele>
        <time>2022-05-03T08:53:09Z</time>
      </trkpt>
      <trkpt lat="46.61551" lon="5.59961">
        <ele>549.3</ele>
        <time>2022-05-03T08:53:13Z</time>
      </trkpt>
      <trkpt lat="46.61551" lon="5.59955">
        <ele>549.9</ele>
        <time>2022-05-03T08:53:17Z</time>
      </trkpt>
      <trkpt lat="46.61551" lon="5.59947">
        <ele>550.8</ele>
        <time>2022-05-03T08:53:22Z</time>
      </trkpt>
      <trkpt lat="46.61551" lon="5.59939">
        <ele>551.7</ele>
        <time>2022-05-03T08:53:26Z</time>
      </trkpt>
      <trkpt lat="46.6155" lon="5.59931">
        <ele>552.5</ele>
        <time>2022-05-03T08:53:31Z</time>
      </trkpt>
      <trkpt lat="46.61549" lon="5.59923">
        <ele>553.1</ele>
        <time>2022-05-03T08:53:35Z</time>
      </trkpt>
      <trkpt lat="46.61548" lon="5.59917">
        <ele>553.1</ele>
        <time>2022-05-03T08:53:40Z</time>
      </trkpt>
      <trkpt lat="46.61547" lon="5.59909">
        <ele>552.5</ele>
        <time>2022-05-03T08:53:46Z</time>
      </trkpt>
      <trkpt lat="46.61548" lon="5.59902">
        <ele>552</ele>
        <time>2022-05-03T08:53:51Z</time>
      </trkpt>
      <trkpt lat="46.61549" lon="5.59894">
        <ele>551.6</ele>
        <time>2022-05-03T08:53:56Z</time>
      </trkpt>
      <trkpt lat="46.61548" lon="5.59887">
        <ele>551.6</ele>
        <time>2022-05-03T08:54:00Z</time>
      </trkpt>
      <trkpt lat="46.61546" lon="5.5988">
        <ele>552</ele>
        <time>2022-05-03T08:54:04Z</time>
      </trkpt>
      <trkpt lat="46.61546" lon="5.59872">
        <ele>552.2</ele>
        <time>2022-05-03T08:54:08Z</time>
      </trkpt>
      <trkpt lat="46.61547" lon="5.59866">
        <ele>552.3</ele>
        <time>2022-05-03T08:54:13Z</time>
      </trkpt>
      <trkpt lat="46.61549" lon="5.5986">
        <ele>552</ele>
        <time>2022-05-03T08:54:18Z</time>
      </trkpt>
      <trkpt lat="46.61551" lon="5.59853">
        <ele>551.5</ele>
        <time>2022-05-03T08:54:22Z</time>
      </trkpt>
      <trkpt lat="46.61553" lon="5.59847">
        <ele>550.5</ele>
        <time>2022-05-03T08:54:26Z</time>
      </trkpt>
      <trkpt lat="46.61554" lon="5.59841">
        <ele>549.4</ele>
        <time>2022-05-03T08:54:31Z</time>
      </trkpt>
      <trkpt lat="46.61553" lon="5.59834">
        <ele>547.2</ele>
        <time>2022-05-03T08:54:39Z</time>
      </trkpt>
      <trkpt lat="46.61554" lon="5.59826">
        <ele>546.6</ele>
        <time>2022-05-03T08:54:45Z</time>
      </trkpt>
      <trkpt lat="46.61555" lon="5.59819">
        <ele>546.3</ele>
        <time>2022-05-03T08:54:50Z</time>
      </trkpt>
      <trkpt lat="46.61555" lon="5.59811">
        <ele>545.8</ele>
        <time>2022-05-03T08:54:55Z</time>
      </trkpt>
      <trkpt lat="46.61556" lon="5.59804">
        <ele>544.7</ele>
        <time>2022-05-03T08:55:03Z</time>
      </trkpt>
      <trkpt lat="46.61559" lon="5.59798">
        <ele>544.3</ele>
        <time>2022-05-03T08:55:11Z</time>
      </trkpt>
      <trkpt lat="46.61561" lon="5.59791">
        <ele>544</ele>
        <time>2022-05-03T08:55:18Z</time>
      </trkpt>
      <trkpt lat="46.61561" lon="5.59784">
        <ele>543.8</ele>
        <time>2022-05-03T08:55:24Z</time>
      </trkpt>
      <trkpt lat="46.6156" lon="5.59777">
        <ele>543.8</ele>
        <time>2022-05-03T08:55:29Z</time>
      </trkpt>
      <trkpt lat="46.61561" lon="5.5977">
        <ele>542.6</ele>
        <time>2022-05-03T08:55:37Z</time>
      </trkpt>
      <trkpt lat="46.61564" lon="5.59764">
        <ele>542.4</ele>
        <time>2022-05-03T08:55:44Z</time>
      </trkpt>
      <trkpt lat="46.61566" lon="5.59758">
        <ele>543</ele>
        <time>2022-05-03T08:55:49Z</time>
      </trkpt>
      <trkpt lat="46.61565" lon="5.5975">
        <ele>542.9</ele>
        <time>2022-05-03T08:55:56Z</time>
      </trkpt>
      <trkpt lat="46.61566" lon="5.59743">
        <ele>543.1</ele>
        <time>2022-05-03T08:56:01Z</time>
      </trkpt>
      <trkpt lat="46.61566" lon="5.59736">
        <ele>543.1</ele>
        <time>2022-05-03T08:56:06Z</time>
      </trkpt>
      <trkpt lat="46.61566" lon="5.59729">
        <ele>543.2</ele>
        <time>2022-05-03T08:56:09Z</time>
      </trkpt>
      <trkpt lat="46.61566" lon="5.59723">
        <ele>543.4</ele>
        <time>2022-05-03T08:56:12Z</time>
      </trkpt>
      <trkpt lat="46.61568" lon="5.59716">
        <ele>543.9</ele>
        <time>2022-05-03T08:56:17Z</time>
      </trkpt>
      <trkpt lat="46.61568" lon="5.59708">
        <ele>544.3</ele>
        <time>2022-05-03T08:56:22Z</time>
      </trkpt>
      <trkpt lat="46.61569" lon="5.59701">
        <ele>544.6</ele>
        <time>2022-05-03T08:56:26Z</time>
      </trkpt>
      <trkpt lat="46.61568" lon="5.59694">
        <ele>544.8</ele>
        <time>2022-05-03T08:56:30Z</time>
      </trkpt>
      <trkpt lat="46.61568" lon="5.59687">
        <ele>544.8</ele>
        <time>2022-05-03T08:56:34Z</time>
      </trkpt>
      <trkpt lat="46.61567" lon="5.5968">
        <ele>543.7</ele>
        <time>2022-05-03T08:56:40Z</time>
      </trkpt>
      <trkpt lat="46.61567" lon="5.59673">
        <ele>542.7</ele>
        <time>2022-05-03T08:56:45Z</time>
      </trkpt>
      <trkpt lat="46.61568" lon="5.59667">
        <ele>541.7</ele>
        <time>2022-05-03T08:56:52Z</time>
      </trkpt>
      <trkpt lat="46.61569" lon="5.5966">
        <ele>541.1</ele>
        <time>2022-05-03T08:56:58Z</time>
      </trkpt>
      <trkpt lat="46.61571" lon="5.59652">
        <ele>540.9</ele>
        <time>2022-05-03T08:57:03Z</time>
      </trkpt>
      <trkpt lat="46.61574" lon="5.59646">
        <ele>541.2</ele>
        <time>2022-05-03T08:57:08Z</time>
      </trkpt>
      <trkpt lat="46.61576" lon="5.59639">
        <ele>541.7</ele>
        <time>2022-05-03T08:57:13Z</time>
      </trkpt>
      <trkpt lat="46.61578" lon="5.59633">
        <ele>542.4</ele>
        <time>2022-05-03T08:57:17Z</time>
      </trkpt>
      <trkpt lat="46.61579" lon="5.59625">
        <ele>543</ele>
        <time>2022-05-03T08:57:21Z</time>
      </trkpt>
      <trkpt lat="46.61579" lon="5.59618">
        <ele>544.3</ele>
        <time>2022-05-03T08:57:26Z</time>
      </trkpt>
      <trkpt lat="46.6158" lon="5.59612">
        <ele>546.4</ele>
        <time>2022-05-03T08:57:32Z</time>
      </trkpt>
      <trkpt lat="46.6158" lon="5.59604">
        <ele>548.3</ele>
        <time>2022-05-03T08:57:38Z</time>
      </trkpt>
      <trkpt lat="46.61579" lon="5.59596">
        <ele>549.1</ele>
        <time>2022-05-03T08:57:42Z</time>
      </trkpt>
      <trkpt lat="46.61578" lon="5.59589">
        <ele>549.8</ele>
        <time>2022-05-03T08:57:47Z</time>
      </trkpt>
      <trkpt lat="46.61578" lon="5.59582">
        <ele>550.5</ele>
        <time>2022-05-03T08:57:52Z</time>
      </trkpt>
      <trkpt lat="46.61578" lon="5.59574">
        <ele>550.9</ele>
        <time>2022-05-03T08:57:57Z</time>
      </trkpt>
      <trkpt lat="46.61579" lon="5.59566">
        <ele>551.1</ele>
        <time>2022-05-03T08:58:02Z</time>
      </trkpt>
      <trkpt lat="46.61578" lon="5.59558">
        <ele>551.5</ele>
        <time>2022-05-03T08:58:07Z</time>
      </trkpt>
      <trkpt lat="46.61577" lon="5.59551">
        <ele>552</ele>
        <time>2022-05-03T08:58:12Z</time>
      </trkpt>
      <trkpt lat="46.61578" lon="5.59543">
        <ele>552</ele>
        <time>2022-05-03T08:58:17Z</time>
      </trkpt>
      <trkpt lat="46.61577" lon="5.59536">
        <ele>551.8</ele>
        <time>2022-05-03T08:58:22Z</time>
      </trkpt>
      <trkpt lat="46.61576" lon="5.59529">
        <ele>552</ele>
        <time>2022-05-03T08:58:26Z</time>
      </trkpt>
      <trkpt lat="46.61576" lon="5.59522">
        <ele>553.3</ele>
        <time>2022-05-03T08:58:33Z</time>
      </trkpt>
      <trkpt lat="46.61576" lon="5.59516">
        <ele>554.2</ele>
        <time>2022-05-03T08:58:37Z</time>
      </trkpt>
      <trkpt lat="46.61576" lon="5.59508">
        <ele>555</ele>
        <time>2022-05-03T08:58:41Z</time>
      </trkpt>
      <trkpt lat="46.61575" lon="5.59502">
        <ele>555.8</ele>
        <time>2022-05-03T08:58:45Z</time>
      </trkpt>
      <trkpt lat="46.61574" lon="5.59495">
        <ele>556.6</ele>
        <time>2022-05-03T08:58:49Z</time>
      </trkpt>
      <trkpt lat="46.61573" lon="5.59487">
        <ele>557.4</ele>
        <time>2022-05-03T08:58:53Z</time>
      </trkpt>
      <trkpt lat="46.61573" lon="5.59479">
        <ele>558.4</ele>
        <time>2022-05-03T08:58:57Z</time>
      </trkpt>
      <trkpt lat="46.61573" lon="5.59472">
        <ele>559.7</ele>
        <time>2022-05-03T08:59:02Z</time>
      </trkpt>
      <trkpt lat="46.61574" lon="5.59465">
        <ele>560.8</ele>
        <time>2022-05-03T08:59:08Z</time>
      </trkpt>
      <trkpt lat="46.61575" lon="5.59458">
        <ele>561.5</ele>
        <time>2022-05-03T08:59:13Z</time>
      </trkpt>
      <trkpt lat="46.61575" lon="5.59451">
        <ele>561.8</ele>
        <time>2022-05-03T08:59:17Z</time>
      </trkpt>
      <trkpt lat="46.61574" lon="5.59444">
        <ele>562</ele>
        <time>2022-05-03T08:59:22Z</time>
      </trkpt>
      <trkpt lat="46.61573" lon="5.59437">
        <ele>562.3</ele>
        <time>2022-05-03T08:59:26Z</time>
      </trkpt>
      <trkpt lat="46.61573" lon="5.5943">
        <ele>563.1</ele>
        <time>2022-05-03T08:59:31Z</time>
      </trkpt>
      <trkpt lat="46.61573" lon="5.59423">
        <ele>563.2</ele>
        <time>2022-05-03T08:59:36Z</time>
      </trkpt>
      <trkpt lat="46.61574" lon="5.59415">
        <ele>563</ele>
        <time>2022-05-03T08:59:41Z</time>
      </trkpt>
      <trkpt lat="46.61575" lon="5.59409">
        <ele>562.9</ele>
        <time>2022-05-03T08:59:45Z</time>
      </trkpt>
      <trkpt lat="46.61576" lon="5.59402">
        <ele>562.6</ele>
        <time>2022-05-03T08:59:50Z</time>
      </trkpt>
      <trkpt lat="46.61575" lon="5.59394">
        <ele>562</ele>
        <time>2022-05-03T08:59:56Z</time>
      </trkpt>
      <trkpt lat="46.61575" lon="5.59387">
        <ele>561.7</ele>
        <time>2022-05-03T09:00:00Z</time>
      </trkpt>
      <trkpt lat="46.61576" lon="5.59379">
        <ele>562.3</ele>
        <time>2022-05-03T09:00:06Z</time>
      </trkpt>
      <trkpt lat="46.61576" lon="5.59372">
        <ele>562.7</ele>
        <time>2022-05-03T09:00:11Z</time>
      </trkpt>
      <trkpt lat="46.61575" lon="5.59365">
        <ele>562.5</ele>
        <time>2022-05-03T09:00:15Z</time>
      </trkpt>
      <trkpt lat="46.61577" lon="5.59357">
        <ele>561.9</ele>
        <time>2022-05-03T09:00:20Z</time>
      </trkpt>
      <trkpt lat="46.61577" lon="5.59351">
        <ele>561.6</ele>
        <time>2022-05-03T09:00:25Z</time>
      </trkpt>
      <trkpt lat="46.61579" lon="5.59344">
        <ele>561.2</ele>
        <time>2022-05-03T09:00:32Z</time>
      </trkpt>
      <trkpt lat="46.61581" lon="5.59338">
        <ele>561.5</ele>
        <time>2022-05-03T09:00:37Z</time>
      </trkpt>
      <trkpt lat="46.61584" lon="5.59331">
        <ele>561.8</ele>
        <time>2022-05-03T09:00:41Z</time>
      </trkpt>
      <trkpt lat="46.61585" lon="5.59324">
        <ele>562.1</ele>
        <time>2022-05-03T09:00:45Z</time>
      </trkpt>
      <trkpt lat="46.61588" lon="5.59317">
        <ele>562.8</ele>
        <time>2022-05-03T09:00:50Z</time>
      </trkpt>
      <trkpt lat="46.61588" lon="5.5931">
        <ele>563.6</ele>
        <time>2022-05-03T09:00:55Z</time>
      </trkpt>
      <trkpt lat="46.6159" lon="5.59303">
        <ele>564.6</ele>
        <time>2022-05-03T09:01:00Z</time>
      </trkpt>
      <trkpt lat="46.61593" lon="5.59297">
        <ele>565.9</ele>
        <time>2022-05-03T09:01:05Z</time>
      </trkpt>
      <trkpt lat="46.61595" lon="5.5929">
        <ele>567.6</ele>
        <time>2022-05-03T09:01:11Z</time>
      </trkpt>
      <trkpt lat="46.61595" lon="5.59283">
        <ele>568.5</ele>
        <time>2022-05-03T09:01:17Z</time>
      </trkpt>
      <trkpt lat="46.61596" lon="5.59275">
        <ele>569.1</ele>
        <time>2022-05-03T09:01:21Z</time>
      </trkpt>
      <trkpt lat="46.61596" lon="5.59269">
        <ele>569.6</ele>
        <time>2022-05-03T09:01:25Z</time>
      </trkpt>
      <trkpt lat="46.61599" lon="5.59261">
        <ele>569.9</ele>
        <time>2022-05-03T09:01:30Z</time>
      </trkpt>
      <trkpt lat="46.61601" lon="5.59255">
        <ele>570</ele>
        <time>2022-05-03T09:01:35Z</time>
      </trkpt>
      <trkpt lat="46.61602" lon="5.59248">
        <ele>569.9</ele>
        <time>2022-05-03T09:01:42Z</time>
      </trkpt>
      <trkpt lat="46.61604" lon="5.59241">
        <ele>569.8</ele>
        <time>2022-05-03T09:01:48Z</time>
      </trkpt>
      <trkpt lat="46.61606" lon="5.59235">
        <ele>569.8</ele>
        <time>2022-05-03T09:01:54Z</time>
      </trkpt>
      <trkpt lat="46.61609" lon="5.59229">
        <ele>570.4</ele>
        <time>2022-05-03T09:01:59Z</time>
      </trkpt>
      <trkpt lat="46.61611" lon="5.59223">
        <ele>572.2</ele>
        <time>2022-05-03T09:02:06Z</time>
      </trkpt>
      <trkpt lat="46.6161" lon="5.59217">
        <ele>572.3</ele>
        <time>2022-05-03T09:02:13Z</time>
      </trkpt>
      <trkpt lat="46.61614" lon="5.59211">
        <ele>572.3</ele>
        <time>2022-05-03T09:02:17Z</time>
      </trkpt>
      <trkpt lat="46.61618" lon="5.59207">
        <ele>571.5</ele>
        <time>2022-05-03T09:02:23Z</time>
      </trkpt>
      <trkpt lat="46.61623" lon="5.59205">
        <ele>570.6</ele>
        <time>2022-05-03T09:02:28Z</time>
      </trkpt>
      <trkpt lat="46.61628" lon="5.59204">
        <ele>570.2</ele>
        <time>2022-05-03T09:02:31Z</time>
      </trkpt>
      <trkpt lat="46.61633" lon="5.59203">
        <ele>569.6</ele>
        <time>2022-05-03T09:02:35Z</time>
      </trkpt>
      <trkpt lat="46.61638" lon="5.59202">
        <ele>569.5</ele>
        <time>2022-05-03T09:02:39Z</time>
      </trkpt>
      <trkpt lat="46.61643" lon="5.592">
        <ele>570</ele>
        <time>2022-05-03T09:02:43Z</time>
      </trkpt>
      <trkpt lat="46.61647" lon="5.59194">
        <ele>571</ele>
        <time>2022-05-03T09:02:49Z</time>
      </trkpt>
      <trkpt lat="46.6165" lon="5.59188">
        <ele>572.2</ele>
        <time>2022-05-03T09:02:56Z</time>
      </trkpt>
      <trkpt lat="46.61653" lon="5.59184">
        <ele>574.3</ele>
        <time>2022-05-03T09:03:02Z</time>
      </trkpt>
      <trkpt lat="46.61656" lon="5.59178">
        <ele>576.6</ele>
        <time>2022-05-03T09:03:11Z</time>
      </trkpt>
      <trkpt lat="46.61655" lon="5.59172">
        <ele>577.6</ele>
        <time>2022-05-03T09:03:16Z</time>
      </trkpt>
      <trkpt lat="46.61656" lon="5.59165">
        <ele>578.8</ele>
        <time>2022-05-03T09:03:21Z</time>
      </trkpt>
      <trkpt lat="46.61654" lon="5.59158">
        <ele>580.6</ele>
        <time>2022-05-03T09:03:26Z</time>
      </trkpt>
      <trkpt lat="46.61652" lon="5.59152">
        <ele>581.9</ele>
        <time>2022-05-03T09:03:30Z</time>
      </trkpt>
      <trkpt lat="46.6165" lon="5.59145">
        <ele>583.1</ele>
        <time>2022-05-03T09:03:35Z</time>
      </trkpt>
      <trkpt lat="46.61647" lon="5.59139">
        <ele>584.5</ele>
        <time>2022-05-03T09:03:40Z</time>
      </trkpt>
      <trkpt lat="46.61647" lon="5.59132">
        <ele>586</ele>
        <time>2022-05-03T09:03:46Z</time>
      </trkpt>
      <trkpt lat="46.61646" lon="5.59125">
        <ele>586.9</ele>
        <time>2022-05-03T09:03:51Z</time>
      </trkpt>
      <trkpt lat="46.61643" lon="5.5912">
        <ele>587</ele>
        <time>2022-05-03T09:03:56Z</time>
      </trkpt>
      <trkpt lat="46.61641" lon="5.59114">
        <ele>586.7</ele>
        <time>2022-05-03T09:04:01Z</time>
      </trkpt>
      <trkpt lat="46.6164" lon="5.59106">
        <ele>585.4</ele>
        <time>2022-05-03T09:04:07Z</time>
      </trkpt>
      <trkpt lat="46.61643" lon="5.591">
        <ele>585.5</ele>
        <time>2022-05-03T09:04:12Z</time>
      </trkpt>
      <trkpt lat="46.61645" lon="5.59094">
        <ele>587.1</ele>
        <time>2022-05-03T09:04:20Z</time>
      </trkpt>
      <trkpt lat="46.61646" lon="5.59086">
        <ele>587.6</ele>
        <time>2022-05-03T09:04:26Z</time>
      </trkpt>
      <trkpt lat="46.61645" lon="5.59079">
        <ele>587</ele>
        <time>2022-05-03T09:04:32Z</time>
      </trkpt>
      <trkpt lat="46.61645" lon="5.59072">
        <ele>586.6</ele>
        <time>2022-05-03T09:04:37Z</time>
      </trkpt>
      <trkpt lat="46.61641" lon="5.59066">
        <ele>586.7</ele>
        <time>2022-05-03T09:04:42Z</time>
      </trkpt>
      <trkpt lat="46.61639" lon="5.59059">
        <ele>586.3</ele>
        <time>2022-05-03T09:04:48Z</time>
      </trkpt>
      <trkpt lat="46.61635" lon="5.59054">
        <ele>586.3</ele>
        <time>2022-05-03T09:04:53Z</time>
      </trkpt>
      <trkpt lat="46.61631" lon="5.59049">
        <ele>586.6</ele>
        <time>2022-05-03T09:04:58Z</time>
      </trkpt>
      <trkpt lat="46.61629" lon="5.59043">
        <ele>587</ele>
        <time>2022-05-03T09:05:04Z</time>
      </trkpt>
      <trkpt lat="46.61625" lon="5.59038">
        <ele>587.4</ele>
        <time>2022-05-03T09:05:10Z</time>
      </trkpt>
      <trkpt lat="46.61622" lon="5.59033">
        <ele>588.4</ele>
        <time>2022-05-03T09:05:14Z</time>
      </trkpt>
      <trkpt lat="46.61617" lon="5.59032">
        <ele>591.4</ele>
        <time>2022-05-03T09:05:24Z</time>
      </trkpt>
      <trkpt lat="46.61616" lon="5.59026">
        <ele>592</ele>
        <time>2022-05-03T09:05:34Z</time>
      </trkpt>
      <trkpt lat="46.61616" lon="5.59019">
        <ele>591.6</ele>
        <time>2022-05-03T09:05:40Z</time>
      </trkpt>
      <trkpt lat="46.61613" lon="5.59012">
        <ele>591.8</ele>
        <time>2022-05-03T09:05:44Z</time>
      </trkpt>
      <trkpt lat="46.61609" lon="5.59009">
        <ele>591.9</ele>
        <time>2022-05-03T09:05:48Z</time>
      </trkpt>
      <trkpt lat="46.61605" lon="5.59004">
        <ele>592.5</ele>
        <time>2022-05-03T09:05:54Z</time>
      </trkpt>
      <trkpt lat="46.61601" lon="5.58998">
        <ele>592.6</ele>
        <time>2022-05-03T09:05:59Z</time>
      </trkpt>
      <trkpt lat="46.61598" lon="5.58992">
        <ele>592.9</ele>
        <time>2022-05-03T09:06:04Z</time>
      </trkpt>
      <trkpt lat="46.61595" lon="5.58987">
        <ele>593.2</ele>
        <time>2022-05-03T09:06:10Z</time>
      </trkpt>
      <trkpt lat="46.61594" lon="5.5898">
        <ele>593.1</ele>
        <time>2022-05-03T09:06:17Z</time>
      </trkpt>
      <trkpt lat="46.61593" lon="5.58973">
        <ele>592.9</ele>
        <time>2022-05-03T09:06:21Z</time>
      </trkpt>
      <trkpt lat="46.61597" lon="5.5897">
        <ele>592</ele>
        <time>2022-05-03T09:06:28Z</time>
      </trkpt>
      <trkpt lat="46.61593" lon="5.58972">
        <ele>591</ele>
        <time>2022-05-03T09:06:54Z</time>
      </trkpt>
      <trkpt lat="46.61596" lon="5.58967">
        <ele>590.9</ele>
        <time>2022-05-03T09:07:11Z</time>
      </trkpt>
      <trkpt lat="46.61601" lon="5.58967">
        <ele>590.9</ele>
        <time>2022-05-03T09:07:18Z</time>
      </trkpt>
      <trkpt lat="46.61603" lon="5.5896">
        <ele>589.3</ele>
        <time>2022-05-03T09:07:31Z</time>
      </trkpt>
      <trkpt lat="46.61607" lon="5.58957">
        <ele>588.9</ele>
        <time>2022-05-03T09:07:36Z</time>
      </trkpt>
      <trkpt lat="46.61612" lon="5.58954">
        <ele>588.9</ele>
        <time>2022-05-03T09:07:40Z</time>
      </trkpt>
      <trkpt lat="46.61617" lon="5.58952">
        <ele>589.2</ele>
        <time>2022-05-03T09:07:45Z</time>
      </trkpt>
      <trkpt lat="46.6162" lon="5.58947">
        <ele>589.2</ele>
        <time>2022-05-03T09:07:50Z</time>
      </trkpt>
      <trkpt lat="46.61624" lon="5.58942">
        <ele>589</ele>
        <time>2022-05-03T09:07:54Z</time>
      </trkpt>
      <trkpt lat="46.61625" lon="5.58936">
        <ele>588.4</ele>
        <time>2022-05-03T09:07:59Z</time>
      </trkpt>
      <trkpt lat="46.61628" lon="5.5893">
        <ele>588.3</ele>
        <time>2022-05-03T09:08:04Z</time>
      </trkpt>
      <trkpt lat="46.61632" lon="5.58924">
        <ele>588.7</ele>
        <time>2022-05-03T09:08:09Z</time>
      </trkpt>
      <trkpt lat="46.61632" lon="5.58917">
        <ele>590</ele>
        <time>2022-05-03T09:08:16Z</time>
      </trkpt>
      <trkpt lat="46.61631" lon="5.5891">
        <ele>590.7</ele>
        <time>2022-05-03T09:08:22Z</time>
      </trkpt>
      <trkpt lat="46.61628" lon="5.58904">
        <ele>591.5</ele>
        <time>2022-05-03T09:08:28Z</time>
      </trkpt>
      <trkpt lat="46.61626" lon="5.58898">
        <ele>592.2</ele>
        <time>2022-05-03T09:08:33Z</time>
      </trkpt>
      <trkpt lat="46.61625" lon="5.5889">
        <ele>592.8</ele>
        <time>2022-05-03T09:08:39Z</time>
      </trkpt>
      <trkpt lat="46.61624" lon="5.58882">
        <ele>593</ele>
        <time>2022-05-03T09:08:44Z</time>
      </trkpt>
      <trkpt lat="46.61622" lon="5.58875">
        <ele>593.2</ele>
        <time>2022-05-03T09:08:48Z</time>
      </trkpt>
      <trkpt lat="46.61619" lon="5.58869">
        <ele>593</ele>
        <time>2022-05-03T09:08:52Z</time>
      </trkpt>
      <trkpt lat="46.61617" lon="5.58862">
        <ele>592.2</ele>
        <time>2022-05-03T09:08:57Z</time>
      </trkpt>
      <trkpt lat="46.61614" lon="5.58856">
        <ele>590.6</ele>
        <time>2022-05-03T09:09:03Z</time>
      </trkpt>
      <trkpt lat="46.61613" lon="5.58848">
        <ele>589.6</ele>
        <time>2022-05-03T09:09:08Z</time>
      </trkpt>
      <trkpt lat="46.61612" lon="5.58841">
        <ele>589.5</ele>
        <time>2022-05-03T09:09:11Z</time>
      </trkpt>
      <trkpt lat="46.61609" lon="5.58835">
        <ele>589.6</ele>
        <time>2022-05-03T09:09:15Z</time>
      </trkpt>
      <trkpt lat="46.61607" lon="5.58828">
        <ele>589.3</ele>
        <time>2022-05-03T09:09:21Z</time>
      </trkpt>
      <trkpt lat="46.61604" lon="5.58823">
        <ele>588.5</ele>
        <time>2022-05-03T09:09:26Z</time>
      </trkpt>
      <trkpt lat="46.616" lon="5.58819">
        <ele>587.3</ele>
        <time>2022-05-03T09:09:31Z</time>
      </trkpt>
      <trkpt lat="46.61597" lon="5.58813">
        <ele>586</ele>
        <time>2022-05-03T09:09:35Z</time>
      </trkpt>
      <trkpt lat="46.61594" lon="5.58807">
        <ele>584.7</ele>
        <time>2022-05-03T09:09:39Z</time>
      </trkpt>
      <trkpt lat="46.61592" lon="5.588">
        <ele>583.4</ele>
        <time>2022-05-03T09:09:43Z</time>
      </trkpt>
      <trkpt lat="46.6159" lon="5.58794">
        <ele>582.6</ele>
        <time>2022-05-03T09:09:46Z</time>
      </trkpt>
      <trkpt lat="46.61589" lon="5.58787">
        <ele>581.8</ele>
        <time>2022-05-03T09:09:49Z</time>
      </trkpt>
      <trkpt lat="46.61587" lon="5.58779">
        <ele>581.6</ele>
        <time>2022-05-03T09:09:53Z</time>
      </trkpt>
      <trkpt lat="46.61584" lon="5.58773">
        <ele>581.5</ele>
        <time>2022-05-03T09:09:57Z</time>
      </trkpt>
      <trkpt lat="46.6158" lon="5.58768">
        <ele>581.1</ele>
        <time>2022-05-03T09:10:02Z</time>
      </trkpt>
      <trkpt lat="46.61579" lon="5.58761">
        <ele>580.4</ele>
        <time>2022-05-03T09:10:12Z</time>
      </trkpt>
      <trkpt lat="46.61575" lon="5.58755">
        <ele>580.1</ele>
        <time>2022-05-03T09:10:16Z</time>
      </trkpt>
      <trkpt lat="46.61571" lon="5.58749">
        <ele>579.8</ele>
        <time>2022-05-03T09:10:19Z</time>
      </trkpt>
      <trkpt lat="46.61567" lon="5.58742">
        <ele>579.4</ele>
        <time>2022-05-03T09:10:22Z</time>
      </trkpt>
      <trkpt lat="46.61563" lon="5.58736">
        <ele>579.2</ele>
        <time>2022-05-03T09:10:26Z</time>
      </trkpt>
      <trkpt lat="46.61561" lon="5.5873">
        <ele>578.6</ele>
        <time>2022-05-03T09:10:32Z</time>
      </trkpt>
      <trkpt lat="46.61559" lon="5.58724">
        <ele>578.6</ele>
        <time>2022-05-03T09:10:37Z</time>
      </trkpt>
      <trkpt lat="46.61557" lon="5.58717">
        <ele>577.9</ele>
        <time>2022-05-03T09:10:41Z</time>
      </trkpt>
      <trkpt lat="46.61556" lon="5.5871">
        <ele>576.6</ele>
        <time>2022-05-03T09:10:45Z</time>
      </trkpt>
      <trkpt lat="46.61554" lon="5.58702">
        <ele>575.8</ele>
        <time>2022-05-03T09:10:50Z</time>
      </trkpt>
      <trkpt lat="46.61551" lon="5.58697">
        <ele>576.1</ele>
        <time>2022-05-03T09:10:54Z</time>
      </trkpt>
      <trkpt lat="46.61548" lon="5.58691">
        <ele>576.2</ele>
        <time>2022-05-03T09:10:58Z</time>
      </trkpt>
      <trkpt lat="46.61546" lon="5.58684">
        <ele>576</ele>
        <time>2022-05-03T09:11:03Z</time>
      </trkpt>
      <trkpt lat="46.61544" lon="5.58677">
        <ele>576.2</ele>
        <time>2022-05-03T09:11:08Z</time>
      </trkpt>
      <trkpt lat="46.61544" lon="5.58669">
        <ele>577.1</ele>
        <time>2022-05-03T09:11:13Z</time>
      </trkpt>
      <trkpt lat="46.61542" lon="5.58662">
        <ele>577.7</ele>
        <time>2022-05-03T09:11:18Z</time>
      </trkpt>
      <trkpt lat="46.61541" lon="5.58655">
        <ele>578.1</ele>
        <time>2022-05-03T09:11:22Z</time>
      </trkpt>
      <trkpt lat="46.61541" lon="5.58648">
        <ele>578.2</ele>
        <time>2022-05-03T09:11:29Z</time>
      </trkpt>
      <trkpt lat="46.61539" lon="5.58641">
        <ele>577.6</ele>
        <time>2022-05-03T09:11:36Z</time>
      </trkpt>
      <trkpt lat="46.61537" lon="5.58634">
        <ele>576.9</ele>
        <time>2022-05-03T09:11:40Z</time>
      </trkpt>
      <trkpt lat="46.61536" lon="5.58627">
        <ele>576.2</ele>
        <time>2022-05-03T09:11:44Z</time>
      </trkpt>
      <trkpt lat="46.61533" lon="5.58622">
        <ele>575.7</ele>
        <time>2022-05-03T09:11:49Z</time>
      </trkpt>
      <trkpt lat="46.61528" lon="5.58619">
        <ele>575</ele>
        <time>2022-05-03T09:11:55Z</time>
      </trkpt>
      <trkpt lat="46.61523" lon="5.58619">
        <ele>574</ele>
        <time>2022-05-03T09:11:59Z</time>
      </trkpt>
      <trkpt lat="46.61518" lon="5.58618">
        <ele>572.3</ele>
        <time>2022-05-03T09:12:06Z</time>
      </trkpt>
      <trkpt lat="46.61512" lon="5.58617">
        <ele>571</ele>
        <time>2022-05-03T09:12:10Z</time>
      </trkpt>
      <trkpt lat="46.61508" lon="5.58618">
        <ele>570.1</ele>
        <time>2022-05-03T09:12:13Z</time>
      </trkpt>
      <trkpt lat="46.61503" lon="5.58619">
        <ele>569.5</ele>
        <time>2022-05-03T09:12:17Z</time>
      </trkpt>
      <trkpt lat="46.61498" lon="5.58619">
        <ele>569.4</ele>
        <time>2022-05-03T09:12:21Z</time>
      </trkpt>
      <trkpt lat="46.61493" lon="5.58619">
        <ele>569.8</ele>
        <time>2022-05-03T09:12:26Z</time>
      </trkpt>
      <trkpt lat="46.61489" lon="5.58619">
        <ele>570.1</ele>
        <time>2022-05-03T09:12:31Z</time>
      </trkpt>
      <trkpt lat="46.61484" lon="5.58618">
        <ele>570.1</ele>
        <time>2022-05-03T09:12:35Z</time>
      </trkpt>
      <trkpt lat="46.61479" lon="5.58614">
        <ele>569.3</ele>
        <time>2022-05-03T09:12:40Z</time>
      </trkpt>
      <trkpt lat="46.61475" lon="5.5861">
        <ele>568.6</ele>
        <time>2022-05-03T09:12:44Z</time>
      </trkpt>
      <trkpt lat="46.61472" lon="5.58605">
        <ele>567.3</ele>
        <time>2022-05-03T09:12:48Z</time>
      </trkpt>
      <trkpt lat="46.6147" lon="5.58598">
        <ele>566.5</ele>
        <time>2022-05-03T09:12:53Z</time>
      </trkpt>
      <trkpt lat="46.61469" lon="5.58592">
        <ele>566.3</ele>
        <time>2022-05-03T09:12:57Z</time>
      </trkpt>
      <trkpt lat="46.61468" lon="5.58583">
        <ele>566.4</ele>
        <time>2022-05-03T09:13:02Z</time>
      </trkpt>
      <trkpt lat="46.61468" lon="5.58576">
        <ele>566.2</ele>
        <time>2022-05-03T09:13:07Z</time>
      </trkpt>
      <trkpt lat="46.61466" lon="5.58569">
        <ele>565.5</ele>
        <time>2022-05-03T09:13:11Z</time>
      </trkpt>
      <trkpt lat="46.61465" lon="5.58563">
        <ele>565</ele>
        <time>2022-05-03T09:13:14Z</time>
      </trkpt>
      <trkpt lat="46.61465" lon="5.58556">
        <ele>564.8</ele>
        <time>2022-05-03T09:13:17Z</time>
      </trkpt>
      <trkpt lat="46.61464" lon="5.58548">
        <ele>565.1</ele>
        <time>2022-05-03T09:13:21Z</time>
      </trkpt>
      <trkpt lat="46.61464" lon="5.5854">
        <ele>565.7</ele>
        <time>2022-05-03T09:13:25Z</time>
      </trkpt>
      <trkpt lat="46.61462" lon="5.58532">
        <ele>566.5</ele>
        <time>2022-05-03T09:13:29Z</time>
      </trkpt>
      <trkpt lat="46.61463" lon="5.58525">
        <ele>567.4</ele>
        <time>2022-05-03T09:13:33Z</time>
      </trkpt>
      <trkpt lat="46.61463" lon="5.58518">
        <ele>568.2</ele>
        <time>2022-05-03T09:13:37Z</time>
      </trkpt>
      <trkpt lat="46.61465" lon="5.58512">
        <ele>569.1</ele>
        <time>2022-05-03T09:13:42Z</time>
      </trkpt>
      <trkpt lat="46.61467" lon="5.58505">
        <ele>569.6</ele>
        <time>2022-05-03T09:13:48Z</time>
      </trkpt>
      <trkpt lat="46.61468" lon="5.58497">
        <ele>569.8</ele>
        <time>2022-05-03T09:13:53Z</time>
      </trkpt>
      <trkpt lat="46.61468" lon="5.5849">
        <ele>570.1</ele>
        <time>2022-05-03T09:13:57Z</time>
      </trkpt>
      <trkpt lat="46.61469" lon="5.58483">
        <ele>570.1</ele>
        <time>2022-05-03T09:14:01Z</time>
      </trkpt>
      <trkpt lat="46.61471" lon="5.58476">
        <ele>570.1</ele>
        <time>2022-05-03T09:14:06Z</time>
      </trkpt>
      <trkpt lat="46.61474" lon="5.5847">
        <ele>570.3</ele>
        <time>2022-05-03T09:14:12Z</time>
      </trkpt>
      <trkpt lat="46.61474" lon="5.58463">
        <ele>568.3</ele>
        <time>2022-05-03T09:14:19Z</time>
      </trkpt>
      <trkpt lat="46.61476" lon="5.58456">
        <ele>567.2</ele>
        <time>2022-05-03T09:14:23Z</time>
      </trkpt>
      <trkpt lat="46.61478" lon="5.58449">
        <ele>566.6</ele>
        <time>2022-05-03T09:14:27Z</time>
      </trkpt>
      <trkpt lat="46.6148" lon="5.58442">
        <ele>566.5</ele>
        <time>2022-05-03T09:14:32Z</time>
      </trkpt>
      <trkpt lat="46.61481" lon="5.58434">
        <ele>566.5</ele>
        <time>2022-05-03T09:14:36Z</time>
      </trkpt>
      <trkpt lat="46.61483" lon="5.58428">
        <ele>566.7</ele>
        <time>2022-05-03T09:14:40Z</time>
      </trkpt>
      <trkpt lat="46.61484" lon="5.5842">
        <ele>567.1</ele>
        <time>2022-05-03T09:14:44Z</time>
      </trkpt>
      <trkpt lat="46.61486" lon="5.58412">
        <ele>567.9</ele>
        <time>2022-05-03T09:14:48Z</time>
      </trkpt>
      <trkpt lat="46.61489" lon="5.58406">
        <ele>568.6</ele>
        <time>2022-05-03T09:14:53Z</time>
      </trkpt>
      <trkpt lat="46.6149" lon="5.58399">
        <ele>569.6</ele>
        <time>2022-05-03T09:14:57Z</time>
      </trkpt>
      <trkpt lat="46.61489" lon="5.58392">
        <ele>570.6</ele>
        <time>2022-05-03T09:15:02Z</time>
      </trkpt>
      <trkpt lat="46.6149" lon="5.58384">
        <ele>571.4</ele>
        <time>2022-05-03T09:15:08Z</time>
      </trkpt>
      <trkpt lat="46.61489" lon="5.58377">
        <ele>571.7</ele>
        <time>2022-05-03T09:15:12Z</time>
      </trkpt>
      <trkpt lat="46.61489" lon="5.5837">
        <ele>571.5</ele>
        <time>2022-05-03T09:15:16Z</time>
      </trkpt>
      <trkpt lat="46.61491" lon="5.58363">
        <ele>570</ele>
        <time>2022-05-03T09:15:22Z</time>
      </trkpt>
      <trkpt lat="46.61489" lon="5.58356">
        <ele>567.8</ele>
        <time>2022-05-03T09:15:28Z</time>
      </trkpt>
      <trkpt lat="46.61485" lon="5.58352">
        <ele>565.9</ele>
        <time>2022-05-03T09:15:33Z</time>
      </trkpt>
      <trkpt lat="46.61482" lon="5.58347">
        <ele>564.4</ele>
        <time>2022-05-03T09:15:37Z</time>
      </trkpt>
      <trkpt lat="46.61479" lon="5.5834">
        <ele>562.5</ele>
        <time>2022-05-03T09:15:42Z</time>
      </trkpt>
      <trkpt lat="46.61478" lon="5.58333">
        <ele>561</ele>
        <time>2022-05-03T09:15:47Z</time>
      </trkpt>
      <trkpt lat="46.61477" lon="5.58326">
        <ele>559.9</ele>
        <time>2022-05-03T09:15:53Z</time>
      </trkpt>
      <trkpt lat="46.61477" lon="5.5832">
        <ele>559</ele>
        <time>2022-05-03T09:15:58Z</time>
      </trkpt>
      <trkpt lat="46.61477" lon="5.58312">
        <ele>558.6</ele>
        <time>2022-05-03T09:16:02Z</time>
      </trkpt>
      <trkpt lat="46.61477" lon="5.58304">
        <ele>558.3</ele>
        <time>2022-05-03T09:16:06Z</time>
      </trkpt>
      <trkpt lat="46.61476" lon="5.58297">
        <ele>557.7</ele>
        <time>2022-05-03T09:16:10Z</time>
      </trkpt>
      <trkpt lat="46.61474" lon="5.5829">
        <ele>557.3</ele>
        <time>2022-05-03T09:16:14Z</time>
      </trkpt>
      <trkpt lat="46.61473" lon="5.58283">
        <ele>557</ele>
        <time>2022-05-03T09:16:19Z</time>
      </trkpt>
      <trkpt lat="46.61471" lon="5.58276">
        <ele>556.5</ele>
        <time>2022-05-03T09:16:27Z</time>
      </trkpt>
      <trkpt lat="46.61469" lon="5.58271">
        <ele>555</ele>
        <time>2022-05-03T09:16:34Z</time>
      </trkpt>
      <trkpt lat="46.61465" lon="5.58267">
        <ele>552.6</ele>
        <time>2022-05-03T09:16:40Z</time>
      </trkpt>
      <trkpt lat="46.6146" lon="5.58265">
        <ele>550.2</ele>
        <time>2022-05-03T09:16:45Z</time>
      </trkpt>
      <trkpt lat="46.61456" lon="5.58261">
        <ele>547.2</ele>
        <time>2022-05-03T09:16:54Z</time>
      </trkpt>
      <trkpt lat="46.61454" lon="5.58256">
        <ele>546.9</ele>
        <time>2022-05-03T09:16:59Z</time>
      </trkpt>
      <trkpt lat="46.61449" lon="5.5825">
        <ele>547</ele>
        <time>2022-05-03T09:17:04Z</time>
      </trkpt>
      <trkpt lat="46.61446" lon="5.58245">
        <ele>546.6</ele>
        <time>2022-05-03T09:17:07Z</time>
      </trkpt>
      <trkpt lat="46.61443" lon="5.5824">
        <ele>546.4</ele>
        <time>2022-05-03T09:17:11Z</time>
      </trkpt>
      <trkpt lat="46.61438" lon="5.58237">
        <ele>546</ele>
        <time>2022-05-03T09:17:17Z</time>
      </trkpt>
      <trkpt lat="46.61434" lon="5.58231">
        <ele>545.5</ele>
        <time>2022-05-03T09:17:22Z</time>
      </trkpt>
      <trkpt lat="46.6143" lon="5.58226">
        <ele>545</ele>
        <time>2022-05-03T09:17:26Z</time>
      </trkpt>
      <trkpt lat="46.61426" lon="5.58223">
        <ele>541</ele>
        <time>2022-05-03T09:17:41Z</time>
      </trkpt>
      <trkpt lat="46.61423" lon="5.58229">
        <ele>538.1</ele>
        <time>2022-05-03T09:17:48Z</time>
      </trkpt>
      <trkpt lat="46.61421" lon="5.58234">
        <ele>536</ele>
        <time>2022-05-03T09:17:56Z</time>
      </trkpt>
      <trkpt lat="46.61419" lon="5.58229">
        <ele>536.5</ele>
        <time>2022-05-03T09:18:27Z</time>
      </trkpt>
      <trkpt lat="46.61424" lon="5.58226">
        <ele>535.5</ele>
        <time>2022-05-03T09:18:31Z</time>
      </trkpt>
      <trkpt lat="46.61429" lon="5.58225">
        <ele>534.1</ele>
        <time>2022-05-03T09:18:35Z</time>
      </trkpt>
      <trkpt lat="46.61434" lon="5.58226">
        <ele>531.7</ele>
        <time>2022-05-03T09:18:43Z</time>
      </trkpt>
      <trkpt lat="46.61438" lon="5.58221">
        <ele>530.9</ele>
        <time>2022-05-03T09:18:48Z</time>
      </trkpt>
      <trkpt lat="46.61443" lon="5.58218">
        <ele>530.5</ele>
        <time>2022-05-03T09:18:53Z</time>
      </trkpt>
      <trkpt lat="46.61448" lon="5.58219">
        <ele>530.2</ele>
        <time>2022-05-03T09:18:57Z</time>
      </trkpt>
      <trkpt lat="46.61453" lon="5.58219">
        <ele>530</ele>
        <time>2022-05-03T09:19:02Z</time>
      </trkpt>
      <trkpt lat="46.61458" lon="5.58217">
        <ele>528.4</ele>
        <time>2022-05-03T09:19:11Z</time>
      </trkpt>
      <trkpt lat="46.61462" lon="5.58215">
        <ele>527.8</ele>
        <time>2022-05-03T09:19:17Z</time>
      </trkpt>
      <trkpt lat="46.61467" lon="5.58213">
        <ele>527.5</ele>
        <time>2022-05-03T09:19:24Z</time>
      </trkpt>
      <trkpt lat="46.61472" lon="5.58213">
        <ele>527</ele>
        <time>2022-05-03T09:19:28Z</time>
      </trkpt>
      <trkpt lat="46.61476" lon="5.58211">
        <ele>526.2</ele>
        <time>2022-05-03T09:19:33Z</time>
      </trkpt>
      <trkpt lat="46.6148" lon="5.58206">
        <ele>525.6</ele>
        <time>2022-05-03T09:19:38Z</time>
      </trkpt>
      <trkpt lat="46.61485" lon="5.58203">
        <ele>525.4</ele>
        <time>2022-05-03T09:19:44Z</time>
      </trkpt>
      <trkpt lat="46.6149" lon="5.58205">
        <ele>525.1</ele>
        <time>2022-05-03T09:19:49Z</time>
      </trkpt>
      <trkpt lat="46.61495" lon="5.58203">
        <ele>525</ele>
        <time>2022-05-03T09:19:55Z</time>
      </trkpt>
      <trkpt lat="46.61498" lon="5.58196">
        <ele>525</ele>
        <time>2022-05-03T09:20:01Z</time>
      </trkpt>
      <trkpt lat="46.61502" lon="5.58192">
        <ele>523.9</ele>
        <time>2022-05-03T09:20:07Z</time>
      </trkpt>
      <trkpt lat="46.61506" lon="5.58191">
        <ele>523.4</ele>
        <time>2022-05-03T09:20:13Z</time>
      </trkpt>
      <trkpt lat="46.6151" lon="5.58187">
        <ele>523.3</ele>
        <time>2022-05-03T09:20:20Z</time>
      </trkpt>
      <trkpt lat="46.61514" lon="5.58184">
        <ele>522.9</ele>
        <time>2022-05-03T09:20:25Z</time>
      </trkpt>
      <trkpt lat="46.61519" lon="5.5818">
        <ele>521.8</ele>
        <time>2022-05-03T09:20:33Z</time>
      </trkpt>
      <trkpt lat="46.6152" lon="5.58174">
        <ele>521.1</ele>
        <time>2022-05-03T09:20:38Z</time>
      </trkpt>
      <trkpt lat="46.61524" lon="5.5817">
        <ele>520.3</ele>
        <time>2022-05-03T09:20:45Z</time>
      </trkpt>
      <trkpt lat="46.61529" lon="5.58168">
        <ele>521.6</ele>
        <time>2022-05-03T09:20:53Z</time>
      </trkpt>
      <trkpt lat="46.61534" lon="5.5817">
        <ele>522.7</ele>
        <time>2022-05-03T09:20:57Z</time>
      </trkpt>
      <trkpt lat="46.61539" lon="5.58168">
        <ele>523.9</ele>
        <time>2022-05-03T09:21:02Z</time>
      </trkpt>
      <trkpt lat="46.61543" lon="5.58165">
        <ele>525.1</ele>
        <time>2022-05-03T09:21:07Z</time>
      </trkpt>
      <trkpt lat="46.61549" lon="5.58164">
        <ele>525.8</ele>
        <time>2022-05-03T09:21:10Z</time>
      </trkpt>
      <trkpt lat="46.61554" lon="5.58163">
        <ele>525.8</ele>
        <time>2022-05-03T09:21:13Z</time>
      </trkpt>
      <trkpt lat="46.61559" lon="5.58162">
        <ele>525.6</ele>
        <time>2022-05-03T09:21:17Z</time>
      </trkpt>
      <trkpt lat="46.61563" lon="5.5816">
        <ele>525.1</ele>
        <time>2022-05-03T09:21:23Z</time>
      </trkpt>
      <trkpt lat="46.61565" lon="5.58152">
        <ele>524.8</ele>
        <time>2022-05-03T09:21:29Z</time>
      </trkpt>
      <trkpt lat="46.61564" lon="5.58145">
        <ele>524.1</ele>
        <time>2022-05-03T09:21:34Z</time>
      </trkpt>
      <trkpt lat="46.61565" lon="5.58139">
        <ele>523.5</ele>
        <time>2022-05-03T09:21:42Z</time>
      </trkpt>
      <trkpt lat="46.6157" lon="5.58137">
        <ele>522.5</ele>
        <time>2022-05-03T09:21:51Z</time>
      </trkpt>
      <trkpt lat="46.61574" lon="5.58138">
        <ele>521.4</ele>
        <time>2022-05-03T09:21:56Z</time>
      </trkpt>
      <trkpt lat="46.61579" lon="5.58138">
        <ele>520.1</ele>
        <time>2022-05-03T09:22:05Z</time>
      </trkpt>
      <trkpt lat="46.61582" lon="5.58133">
        <ele>520.1</ele>
        <time>2022-05-03T09:22:09Z</time>
      </trkpt>
      <trkpt lat="46.61586" lon="5.58128">
        <ele>520.2</ele>
        <time>2022-05-03T09:22:12Z</time>
      </trkpt>
      <trkpt lat="46.61591" lon="5.58125">
        <ele>520.1</ele>
        <time>2022-05-03T09:22:16Z</time>
      </trkpt>
      <trkpt lat="46.61595" lon="5.58125">
        <ele>520.4</ele>
        <time>2022-05-03T09:22:20Z</time>
      </trkpt>
      <trkpt lat="46.616" lon="5.58125">
        <ele>519.9</ele>
        <time>2022-05-03T09:22:27Z</time>
      </trkpt>
      <trkpt lat="46.61603" lon="5.58119">
        <ele>518.4</ele>
        <time>2022-05-03T09:22:33Z</time>
      </trkpt>
      <trkpt lat="46.61608" lon="5.58118">
        <ele>516.3</ele>
        <time>2022-05-03T09:22:39Z</time>
      </trkpt>
      <trkpt lat="46.61614" lon="5.58119">
        <ele>515.2</ele>
        <time>2022-05-03T09:22:43Z</time>
      </trkpt>
      <trkpt lat="46.61618" lon="5.58119">
        <ele>514.5</ele>
        <time>2022-05-03T09:22:47Z</time>
      </trkpt>
      <trkpt lat="46.61621" lon="5.58114">
        <ele>514</ele>
        <time>2022-05-03T09:22:54Z</time>
      </trkpt>
      <trkpt lat="46.61625" lon="5.58108">
        <ele>513.8</ele>
        <time>2022-05-03T09:23:00Z</time>
      </trkpt>
      <trkpt lat="46.6163" lon="5.58106">
        <ele>513.1</ele>
        <time>2022-05-03T09:23:05Z</time>
      </trkpt>
      <trkpt lat="46.61635" lon="5.58105">
        <ele>512.4</ele>
        <time>2022-05-03T09:23:09Z</time>
      </trkpt>
      <trkpt lat="46.6164" lon="5.58106">
        <ele>510.8</ele>
        <time>2022-05-03T09:23:15Z</time>
      </trkpt>
      <trkpt lat="46.61645" lon="5.58104">
        <ele>508.9</ele>
        <time>2022-05-03T09:23:23Z</time>
      </trkpt>
      <trkpt lat="46.6165" lon="5.58104">
        <ele>506.8</ele>
        <time>2022-05-03T09:23:31Z</time>
      </trkpt>
      <trkpt lat="46.61655" lon="5.58106">
        <ele>505.7</ele>
        <time>2022-05-03T09:23:36Z</time>
      </trkpt>
      <trkpt lat="46.61659" lon="5.58108">
        <ele>504.6</ele>
        <time>2022-05-03T09:23:40Z</time>
      </trkpt>
      <trkpt lat="46.61664" lon="5.58107">
        <ele>503</ele>
        <time>2022-05-03T09:23:48Z</time>
      </trkpt>
      <trkpt lat="46.61672" lon="5.58107">
        <ele>501.2</ele>
        <time>2022-05-03T09:24:01Z</time>
      </trkpt>
      <trkpt lat="46.61678" lon="5.58106">
        <ele>500.6</ele>
        <time>2022-05-03T09:24:04Z</time>
      </trkpt>
      <trkpt lat="46.61683" lon="5.58106">
        <ele>499.9</ele>
        <time>2022-05-03T09:24:07Z</time>
      </trkpt>
      <trkpt lat="46.61688" lon="5.58104">
        <ele>498.7</ele>
        <time>2022-05-03T09:24:12Z</time>
      </trkpt>
      <trkpt lat="46.61693" lon="5.58104">
        <ele>497.6</ele>
        <time>2022-05-03T09:24:17Z</time>
      </trkpt>
      <trkpt lat="46.61697" lon="5.58101">
        <ele>496.4</ele>
        <time>2022-05-03T09:24:22Z</time>
      </trkpt>
      <trkpt lat="46.61702" lon="5.58098">
        <ele>494.6</ele>
        <time>2022-05-03T09:24:28Z</time>
      </trkpt>
      <trkpt lat="46.61706" lon="5.58095">
        <ele>493.8</ele>
        <time>2022-05-03T09:24:31Z</time>
      </trkpt>
      <trkpt lat="46.61711" lon="5.58095">
        <ele>493.1</ele>
        <time>2022-05-03T09:24:34Z</time>
      </trkpt>
      <trkpt lat="46.61716" lon="5.58093">
        <ele>491.9</ele>
        <time>2022-05-03T09:24:39Z</time>
      </trkpt>
      <trkpt lat="46.61721" lon="5.58094">
        <ele>490.8</ele>
        <time>2022-05-03T09:24:46Z</time>
      </trkpt>
      <trkpt lat="46.61726" lon="5.58094">
        <ele>490.2</ele>
        <time>2022-05-03T09:24:51Z</time>
      </trkpt>
      <trkpt lat="46.61731" lon="5.58095">
        <ele>489.8</ele>
        <time>2022-05-03T09:24:55Z</time>
      </trkpt>
      <trkpt lat="46.61736" lon="5.58095">
        <ele>489</ele>
        <time>2022-05-03T09:25:00Z</time>
      </trkpt>
      <trkpt lat="46.61741" lon="5.58092">
        <ele>487.6</ele>
        <time>2022-05-03T09:25:06Z</time>
      </trkpt>
      <trkpt lat="46.61745" lon="5.58089">
        <ele>483.8</ele>
        <time>2022-05-03T09:25:15Z</time>
      </trkpt>
      <trkpt lat="46.61751" lon="5.58088">
        <ele>475.3</ele>
        <time>2022-05-03T09:25:29Z</time>
      </trkpt>
      <trkpt lat="46.61757" lon="5.58087">
        <ele>474.3</ele>
        <time>2022-05-03T09:25:33Z</time>
      </trkpt>
      <trkpt lat="46.61761" lon="5.5809">
        <ele>473.8</ele>
        <time>2022-05-03T09:25:40Z</time>
      </trkpt>
      <trkpt lat="46.61768" lon="5.58086">
        <ele>474.2</ele>
        <time>2022-05-03T09:25:49Z</time>
      </trkpt>
      <trkpt lat="46.61773" lon="5.58085">
        <ele>474.7</ele>
        <time>2022-05-03T09:25:53Z</time>
      </trkpt>
      <trkpt lat="46.61778" lon="5.58082">
        <ele>474.9</ele>
        <time>2022-05-03T09:25:57Z</time>
      </trkpt>
      <trkpt lat="46.61783" lon="5.5808">
        <ele>474.9</ele>
        <time>2022-05-03T09:26:01Z</time>
      </trkpt>
      <trkpt lat="46.61788" lon="5.58079">
        <ele>475.4</ele>
        <time>2022-05-03T09:26:05Z</time>
      </trkpt>
      <trkpt lat="46.61792" lon="5.58077">
        <ele>476.6</ele>
        <time>2022-05-03T09:26:10Z</time>
      </trkpt>
      <trkpt lat="46.61798" lon="5.58079">
        <ele>478.1</ele>
        <time>2022-05-03T09:26:17Z</time>
      </trkpt>
      <trkpt lat="46.61803" lon="5.58079">
        <ele>478.1</ele>
        <time>2022-05-03T09:26:22Z</time>
      </trkpt>
      <trkpt lat="46.61807" lon="5.58078">
        <ele>477.2</ele>
        <time>2022-05-03T09:26:26Z</time>
      </trkpt>
      <trkpt lat="46.61813" lon="5.58077">
        <ele>475.9</ele>
        <time>2022-05-03T09:26:30Z</time>
      </trkpt>
      <trkpt lat="46.61818" lon="5.58076">
        <ele>474.8</ele>
        <time>2022-05-03T09:26:34Z</time>
      </trkpt>
      <trkpt lat="46.61822" lon="5.58073">
        <ele>473.7</ele>
        <time>2022-05-03T09:26:40Z</time>
      </trkpt>
      <trkpt lat="46.61827" lon="5.58072">
        <ele>471.9</ele>
        <time>2022-05-03T09:26:50Z</time>
      </trkpt>
      <trkpt lat="46.61832" lon="5.58068">
        <ele>472</ele>
        <time>2022-05-03T09:26:55Z</time>
      </trkpt>
      <trkpt lat="46.61837" lon="5.58066">
        <ele>472</ele>
        <time>2022-05-03T09:27:00Z</time>
      </trkpt>
      <trkpt lat="46.61841" lon="5.58063">
        <ele>471.6</ele>
        <time>2022-05-03T09:27:05Z</time>
      </trkpt>
      <trkpt lat="46.61845" lon="5.58062">
        <ele>470.6</ele>
        <time>2022-05-03T09:27:10Z</time>
      </trkpt>
      <trkpt lat="46.6185" lon="5.5806">
        <ele>468.1</ele>
        <time>2022-05-03T09:27:17Z</time>
      </trkpt>
      <trkpt lat="46.61855" lon="5.5806">
        <ele>466.6</ele>
        <time>2022-05-03T09:27:27Z</time>
      </trkpt>
      <trkpt lat="46.61859" lon="5.58056">
        <ele>466.5</ele>
        <time>2022-05-03T09:27:41Z</time>
      </trkpt>
      <trkpt lat="46.61865" lon="5.58055">
        <ele>466.2</ele>
        <time>2022-05-03T09:27:45Z</time>
      </trkpt>
      <trkpt lat="46.6187" lon="5.58056">
        <ele>465.9</ele>
        <time>2022-05-03T09:27:50Z</time>
      </trkpt>
      <trkpt lat="46.61875" lon="5.58056">
        <ele>465.6</ele>
        <time>2022-05-03T09:27:54Z</time>
      </trkpt>
      <trkpt lat="46.6188" lon="5.58057">
        <ele>465.3</ele>
        <time>2022-05-03T09:27:58Z</time>
      </trkpt>
      <trkpt lat="46.61885" lon="5.58057">
        <ele>464.1</ele>
        <time>2022-05-03T09:28:04Z</time>
      </trkpt>
      <trkpt lat="46.61889" lon="5.58054">
        <ele>462.8</ele>
        <time>2022-05-03T09:28:09Z</time>
      </trkpt>
      <trkpt lat="46.61894" lon="5.58052">
        <ele>461.6</ele>
        <time>2022-05-03T09:28:15Z</time>
      </trkpt>
      <trkpt lat="46.61899" lon="5.5805">
        <ele>461.1</ele>
        <time>2022-05-03T09:28:20Z</time>
      </trkpt>
      <trkpt lat="46.61904" lon="5.58048">
        <ele>461.2</ele>
        <time>2022-05-03T09:28:25Z</time>
      </trkpt>
      <trkpt lat="46.61909" lon="5.58047">
        <ele>461.2</ele>
        <time>2022-05-03T09:28:30Z</time>
      </trkpt>
      <trkpt lat="46.61914" lon="5.58048">
        <ele>455.1</ele>
        <time>2022-05-03T09:29:08Z</time>
      </trkpt>
      <trkpt lat="46.61919" lon="5.58048">
        <ele>454.4</ele>
        <time>2022-05-03T09:29:13Z</time>
      </trkpt>
      <trkpt lat="46.61924" lon="5.58048">
        <ele>453.8</ele>
        <time>2022-05-03T09:29:17Z</time>
      </trkpt>
      <trkpt lat="46.61928" lon="5.58049">
        <ele>453.1</ele>
        <time>2022-05-03T09:29:24Z</time>
      </trkpt>
      <trkpt lat="46.61933" lon="5.58048">
        <ele>452.4</ele>
        <time>2022-05-03T09:29:30Z</time>
      </trkpt>
      <trkpt lat="46.61937" lon="5.58047">
        <ele>451.8</ele>
        <time>2022-05-03T09:29:34Z</time>
      </trkpt>
      <trkpt lat="46.61942" lon="5.58046">
        <ele>450.8</ele>
        <time>2022-05-03T09:29:39Z</time>
      </trkpt>
      <trkpt lat="46.61947" lon="5.58043">
        <ele>449.5</ele>
        <time>2022-05-03T09:29:44Z</time>
      </trkpt>
      <trkpt lat="46.61952" lon="5.58043">
        <ele>448.7</ele>
        <time>2022-05-03T09:29:52Z</time>
      </trkpt>
      <trkpt lat="46.61956" lon="5.58038">
        <ele>449.1</ele>
        <time>2022-05-03T09:29:59Z</time>
      </trkpt>
      <trkpt lat="46.61959" lon="5.58034">
        <ele>449.7</ele>
        <time>2022-05-03T09:30:03Z</time>
      </trkpt>
      <trkpt lat="46.61965" lon="5.58033">
        <ele>450.3</ele>
        <time>2022-05-03T09:30:08Z</time>
      </trkpt>
      <trkpt lat="46.6197" lon="5.58032">
        <ele>450.6</ele>
        <time>2022-05-03T09:30:13Z</time>
      </trkpt>
      <trkpt lat="46.61975" lon="5.58033">
        <ele>450.8</ele>
        <time>2022-05-03T09:30:19Z</time>
      </trkpt>
      <trkpt lat="46.61979" lon="5.58033">
        <ele>450.2</ele>
        <time>2022-05-03T09:30:26Z</time>
      </trkpt>
      <trkpt lat="46.61984" lon="5.58033">
        <ele>448.9</ele>
        <time>2022-05-03T09:30:32Z</time>
      </trkpt>
      <trkpt lat="46.61989" lon="5.58033">
        <ele>447.5</ele>
        <time>2022-05-03T09:30:39Z</time>
      </trkpt>
      <trkpt lat="46.61994" lon="5.58032">
        <ele>447.2</ele>
        <time>2022-05-03T09:30:43Z</time>
      </trkpt>
      <trkpt lat="46.61999" lon="5.58031">
        <ele>446.9</ele>
        <time>2022-05-03T09:30:46Z</time>
      </trkpt>
      <trkpt lat="46.62003" lon="5.58029">
        <ele>446.4</ele>
        <time>2022-05-03T09:30:49Z</time>
      </trkpt>
      <trkpt lat="46.62008" lon="5.58028">
        <ele>445.5</ele>
        <time>2022-05-03T09:30:53Z</time>
      </trkpt>
      <trkpt lat="46.62012" lon="5.58025">
        <ele>444.1</ele>
        <time>2022-05-03T09:31:00Z</time>
      </trkpt>
      <trkpt lat="46.62017" lon="5.58025">
        <ele>443.4</ele>
        <time>2022-05-03T09:31:06Z</time>
      </trkpt>
      <trkpt lat="46.62022" lon="5.58022">
        <ele>443.1</ele>
        <time>2022-05-03T09:31:13Z</time>
      </trkpt>
      <trkpt lat="46.62026" lon="5.58019">
        <ele>442.3</ele>
        <time>2022-05-03T09:31:19Z</time>
      </trkpt>
      <trkpt lat="46.62031" lon="5.58019">
        <ele>441.1</ele>
        <time>2022-05-03T09:31:27Z</time>
      </trkpt>
      <trkpt lat="46.62036" lon="5.58017">
        <ele>439</ele>
        <time>2022-05-03T09:31:48Z</time>
      </trkpt>
      <trkpt lat="46.62041" lon="5.58018">
        <ele>437.9</ele>
        <time>2022-05-03T09:31:53Z</time>
      </trkpt>
      <trkpt lat="46.62045" lon="5.58018">
        <ele>436.5</ele>
        <time>2022-05-03T09:31:59Z</time>
      </trkpt>
      <trkpt lat="46.6205" lon="5.58022">
        <ele>433.8</ele>
        <time>2022-05-03T09:32:18Z</time>
      </trkpt>
      <trkpt lat="46.62047" lon="5.58016">
        <ele>431.4</ele>
        <time>2022-05-03T09:32:39Z</time>
      </trkpt>
      <trkpt lat="46.62052" lon="5.58018">
        <ele>428.9</ele>
        <time>2022-05-03T09:32:55Z</time>
      </trkpt>
      <trkpt lat="46.62058" lon="5.58019">
        <ele>428.5</ele>
        <time>2022-05-03T09:33:00Z</time>
      </trkpt>
      <trkpt lat="46.62062" lon="5.58018">
        <ele>427.4</ele>
        <time>2022-05-03T09:33:04Z</time>
      </trkpt>
      <trkpt lat="46.62058" lon="5.58016">
        <ele>422.8</ele>
        <time>2022-05-03T09:33:19Z</time>
      </trkpt>
      <trkpt lat="46.62057" lon="5.58023">
        <ele>421.4</ele>
        <time>2022-05-03T09:33:28Z</time>
      </trkpt>
      <trkpt lat="46.62054" lon="5.58028">
        <ele>420.8</ele>
        <time>2022-05-03T09:33:34Z</time>
      </trkpt>
      <trkpt lat="46.62056" lon="5.58034">
        <ele>421</ele>
        <time>2022-05-03T09:33:40Z</time>
      </trkpt>
      <trkpt lat="46.62061" lon="5.58036">
        <ele>421.6</ele>
        <time>2022-05-03T09:33:45Z</time>
      </trkpt>
      <trkpt lat="46.62065" lon="5.58034">
        <ele>422.7</ele>
        <time>2022-05-03T09:33:52Z</time>
      </trkpt>
      <trkpt lat="46.62069" lon="5.5803">
        <ele>423.3</ele>
        <time>2022-05-03T09:33:56Z</time>
      </trkpt>
      <trkpt lat="46.62073" lon="5.58026">
        <ele>423.4</ele>
        <time>2022-05-03T09:34:00Z</time>
      </trkpt>
      <trkpt lat="46.62077" lon="5.58022">
        <ele>423.1</ele>
        <time>2022-05-03T09:34:05Z</time>
      </trkpt>
      <trkpt lat="46.62081" lon="5.58017">
        <ele>422.6</ele>
        <time>2022-05-03T09:34:10Z</time>
      </trkpt>
      <trkpt lat="46.62085" lon="5.58014">
        <ele>422.2</ele>
        <time>2022-05-03T09:34:14Z</time>
      </trkpt>
      <trkpt lat="46.6209" lon="5.58012">
        <ele>421.9</ele>
        <time>2022-05-03T09:34:18Z</time>
      </trkpt>
      <trkpt lat="46.62094" lon="5.5801">
        <ele>421.8</ele>
        <time>2022-05-03T09:34:22Z</time>
      </trkpt>
      <trkpt lat="46.62099" lon="5.58011">
        <ele>421.8</ele>
        <time>2022-05-03T09:34:29Z</time>
      </trkpt>
      <trkpt lat="46.62104" lon="5.58009">
        <ele>421.6</ele>
        <time>2022-05-03T09:34:35Z</time>
      </trkpt>
      <trkpt lat="46.62108" lon="5.58006">
        <ele>421.2</ele>
        <time>2022-05-03T09:34:42Z</time>
      </trkpt>
      <trkpt lat="46.62113" lon="5.58005">
        <ele>421.3</ele>
        <time>2022-05-03T09:34:47Z</time>
      </trkpt>
      <trkpt lat="46.62118" lon="5.58004">
        <ele>421.5</ele>
        <time>2022-05-03T09:34:55Z</time>
      </trkpt>
      <trkpt lat="46.62123" lon="5.58001">
        <ele>421.9</ele>
        <time>2022-05-03T09:35:01Z</time>
      </trkpt>
      <trkpt lat="46.62127" lon="5.57999">
        <ele>422.3</ele>
        <time>2022-05-03T09:35:05Z</time>
      </trkpt>
      <trkpt lat="46.62133" lon="5.58">
        <ele>422.5</ele>
        <time>2022-05-03T09:35:09Z</time>
      </trkpt>
      <trkpt lat="46.62137" lon="5.57999">
        <ele>422.9</ele>
        <time>2022-05-03T09:35:15Z</time>
      </trkpt>
      <trkpt lat="46.62142" lon="5.57999">
        <ele>422.6</ele>
        <time>2022-05-03T09:35:21Z</time>
      </trkpt>
      <trkpt lat="46.62147" lon="5.57998">
        <ele>422.1</ele>
        <time>2022-05-03T09:35:25Z</time>
      </trkpt>
      <trkpt lat="46.62152" lon="5.57997">
        <ele>420.7</ele>
        <time>2022-05-03T09:35:31Z</time>
      </trkpt>
      <trkpt lat="46.62157" lon="5.57997">
        <ele>418.8</ele>
        <time>2022-05-03T09:35:38Z</time>
      </trkpt>
      <trkpt lat="46.62162" lon="5.57997">
        <ele>417.2</ele>
        <time>2022-05-03T09:35:47Z</time>
      </trkpt>
      <trkpt lat="46.62167" lon="5.57997">
        <ele>415.9</ele>
        <time>2022-05-03T09:35:53Z</time>
      </trkpt>
      <trkpt lat="46.62172" lon="5.57996">
        <ele>415.2</ele>
        <time>2022-05-03T09:35:57Z</time>
      </trkpt>
      <trkpt lat="46.62177" lon="5.57995">
        <ele>414</ele>
        <time>2022-05-03T09:36:02Z</time>
      </trkpt>
      <trkpt lat="46.62181" lon="5.57993">
        <ele>413.4</ele>
        <time>2022-05-03T09:36:06Z</time>
      </trkpt>
      <trkpt lat="46.62186" lon="5.57991">
        <ele>412.8</ele>
        <time>2022-05-03T09:36:10Z</time>
      </trkpt>
      <trkpt lat="46.62191" lon="5.57989">
        <ele>411.5</ele>
        <time>2022-05-03T09:36:15Z</time>
      </trkpt>
      <trkpt lat="46.62195" lon="5.57985">
        <ele>409.4</ele>
        <time>2022-05-03T09:36:23Z</time>
      </trkpt>
      <trkpt lat="46.62201" lon="5.57984">
        <ele>407.8</ele>
        <time>2022-05-03T09:36:29Z</time>
      </trkpt>
      <trkpt lat="46.62205" lon="5.57984">
        <ele>406.7</ele>
        <time>2022-05-03T09:36:33Z</time>
      </trkpt>
      <trkpt lat="46.62211" lon="5.57982">
        <ele>405.8</ele>
        <time>2022-05-03T09:36:37Z</time>
      </trkpt>
      <trkpt lat="46.62216" lon="5.5798">
        <ele>404.7</ele>
        <time>2022-05-03T09:36:41Z</time>
      </trkpt>
      <trkpt lat="46.62221" lon="5.57979">
        <ele>403.8</ele>
        <time>2022-05-03T09:36:47Z</time>
      </trkpt>
      <trkpt lat="46.62227" lon="5.57977">
        <ele>403.2</ele>
        <time>2022-05-03T09:36:52Z</time>
      </trkpt>
      <trkpt lat="46.62232" lon="5.57976">
        <ele>403</ele>
        <time>2022-05-03T09:36:56Z</time>
      </trkpt>
      <trkpt lat="46.62237" lon="5.57973">
        <ele>403.3</ele>
        <time>2022-05-03T09:37:01Z</time>
      </trkpt>
      <trkpt lat="46.62241" lon="5.57972">
        <ele>403.9</ele>
        <time>2022-05-03T09:37:06Z</time>
      </trkpt>
      <trkpt lat="46.62246" lon="5.57973">
        <ele>404.1</ele>
        <time>2022-05-03T09:37:10Z</time>
      </trkpt>
      <trkpt lat="46.62251" lon="5.57973">
        <ele>403.6</ele>
        <time>2022-05-03T09:37:14Z</time>
      </trkpt>
      <trkpt lat="46.62256" lon="5.57971">
        <ele>403.2</ele>
        <time>2022-05-03T09:37:21Z</time>
      </trkpt>
      <trkpt lat="46.62261" lon="5.57967">
        <ele>403</ele>
        <time>2022-05-03T09:37:26Z</time>
      </trkpt>
      <trkpt lat="46.62266" lon="5.57964">
        <ele>402.8</ele>
        <time>2022-05-03T09:37:31Z</time>
      </trkpt>
      <trkpt lat="46.6227" lon="5.57964">
        <ele>402.1</ele>
        <time>2022-05-03T09:37:36Z</time>
      </trkpt>
      <trkpt lat="46.62275" lon="5.57962">
        <ele>401.3</ele>
        <time>2022-05-03T09:37:41Z</time>
      </trkpt>
      <trkpt lat="46.6228" lon="5.57961">
        <ele>401</ele>
        <time>2022-05-03T09:37:45Z</time>
      </trkpt>
      <trkpt lat="46.62285" lon="5.57959">
        <ele>400.8</ele>
        <time>2022-05-03T09:37:52Z</time>
      </trkpt>
      <trkpt lat="46.6229" lon="5.57958">
        <ele>400.3</ele>
        <time>2022-05-03T09:37:58Z</time>
      </trkpt>
      <trkpt lat="46.62295" lon="5.57957">
        <ele>399.9</ele>
        <time>2022-05-03T09:38:03Z</time>
      </trkpt>
      <trkpt lat="46.623" lon="5.57956">
        <ele>399.4</ele>
        <time>2022-05-03T09:38:08Z</time>
      </trkpt>
      <trkpt lat="46.62304" lon="5.57954">
        <ele>398.8</ele>
        <time>2022-05-03T09:38:13Z</time>
      </trkpt>
      <trkpt lat="46.62309" lon="5.57952">
        <ele>398.5</ele>
        <time>2022-05-03T09:38:21Z</time>
      </trkpt>
      <trkpt lat="46.62313" lon="5.57949">
        <ele>398.2</ele>
        <time>2022-05-03T09:38:27Z</time>
      </trkpt>
      <trkpt lat="46.62318" lon="5.57947">
        <ele>397.5</ele>
        <time>2022-05-03T09:38:32Z</time>
      </trkpt>
      <trkpt lat="46.62323" lon="5.57945">
        <ele>397.3</ele>
        <time>2022-05-03T09:38:36Z</time>
      </trkpt>
      <trkpt lat="46.62327" lon="5.57941">
        <ele>397.1</ele>
        <time>2022-05-03T09:38:40Z</time>
      </trkpt>
      <trkpt lat="46.62332" lon="5.57938">
        <ele>397.1</ele>
        <time>2022-05-03T09:38:45Z</time>
      </trkpt>
      <trkpt lat="46.62336" lon="5.57935">
        <ele>397.1</ele>
        <time>2022-05-03T09:38:53Z</time>
      </trkpt>
      <trkpt lat="46.62339" lon="5.5793">
        <ele>396.8</ele>
        <time>2022-05-03T09:38:59Z</time>
      </trkpt>
      <trkpt lat="46.62343" lon="5.57925">
        <ele>396.6</ele>
        <time>2022-05-03T09:39:04Z</time>
      </trkpt>
      <trkpt lat="46.62347" lon="5.57921">
        <ele>396.4</ele>
        <time>2022-05-03T09:39:09Z</time>
      </trkpt>
      <trkpt lat="46.62352" lon="5.57919">
        <ele>396.6</ele>
        <time>2022-05-03T09:39:14Z</time>
      </trkpt>
      <trkpt lat="46.62357" lon="5.57917">
        <ele>397</ele>
        <time>2022-05-03T09:39:21Z</time>
      </trkpt>
      <trkpt lat="46.62363" lon="5.57916">
        <ele>395.9</ele>
        <time>2022-05-03T09:39:26Z</time>
      </trkpt>
      <trkpt lat="46.62368" lon="5.57916">
        <ele>394.4</ele>
        <time>2022-05-03T09:39:30Z</time>
      </trkpt>
      <trkpt lat="46.62372" lon="5.57917">
        <ele>392.8</ele>
        <time>2022-05-03T09:39:34Z</time>
      </trkpt>
      <trkpt lat="46.62377" lon="5.57917">
        <ele>391</ele>
        <time>2022-05-03T09:39:39Z</time>
      </trkpt>
      <trkpt lat="46.62382" lon="5.57918">
        <ele>388.7</ele>
        <time>2022-05-03T09:39:45Z</time>
      </trkpt>
      <trkpt lat="46.62386" lon="5.57919">
        <ele>386.8</ele>
        <time>2022-05-03T09:39:49Z</time>
      </trkpt>
      <trkpt lat="46.62392" lon="5.5792">
        <ele>384</ele>
        <time>2022-05-03T09:39:55Z</time>
      </trkpt>
      <trkpt lat="46.62396" lon="5.57921">
        <ele>383.4</ele>
        <time>2022-05-03T09:39:59Z</time>
      </trkpt>
      <trkpt lat="46.62401" lon="5.57923">
        <ele>383.1</ele>
        <time>2022-05-03T09:40:03Z</time>
      </trkpt>
      <trkpt lat="46.62406" lon="5.57926">
        <ele>382.8</ele>
        <time>2022-05-03T09:40:08Z</time>
      </trkpt>
      <trkpt lat="46.6241" lon="5.57929">
        <ele>382.8</ele>
        <time>2022-05-03T09:40:13Z</time>
      </trkpt>
      <trkpt lat="46.62414" lon="5.57931">
        <ele>383.2</ele>
        <time>2022-05-03T09:40:17Z</time>
      </trkpt>
      <trkpt lat="46.62419" lon="5.57932">
        <ele>383.9</ele>
        <time>2022-05-03T09:40:22Z</time>
      </trkpt>
      <trkpt lat="46.62424" lon="5.57934">
        <ele>385.2</ele>
        <time>2022-05-03T09:40:31Z</time>
      </trkpt>
      <trkpt lat="46.62428" lon="5.57932">
        <ele>386.1</ele>
        <time>2022-05-03T09:40:38Z</time>
      </trkpt>
      <trkpt lat="46.62433" lon="5.57933">
        <ele>386.7</ele>
        <time>2022-05-03T09:40:44Z</time>
      </trkpt>
      <trkpt lat="46.62438" lon="5.57937">
        <ele>387.1</ele>
        <time>2022-05-03T09:40:50Z</time>
      </trkpt>
      <trkpt lat="46.62442" lon="5.57942">
        <ele>387.6</ele>
        <time>2022-05-03T09:40:55Z</time>
      </trkpt>
      <trkpt lat="46.62446" lon="5.57943">
        <ele>387.8</ele>
        <time>2022-05-03T09:41:01Z</time>
      </trkpt>
      <trkpt lat="46.62451" lon="5.57945">
        <ele>388.3</ele>
        <time>2022-05-03T09:41:07Z</time>
      </trkpt>
      <trkpt lat="46.62455" lon="5.5795">
        <ele>388.5</ele>
        <time>2022-05-03T09:41:12Z</time>
      </trkpt>
      <trkpt lat="46.62459" lon="5.5795">
        <ele>388.3</ele>
        <time>2022-05-03T09:41:17Z</time>
      </trkpt>
      <trkpt lat="46.62464" lon="5.5795">
        <ele>387.5</ele>
        <time>2022-05-03T09:41:21Z</time>
      </trkpt>
      <trkpt lat="46.62469" lon="5.5795">
        <ele>386.3</ele>
        <time>2022-05-03T09:41:25Z</time>
      </trkpt>
      <trkpt lat="46.62474" lon="5.5795">
        <ele>384.5</ele>
        <time>2022-05-03T09:41:30Z</time>
      </trkpt>
      <trkpt lat="46.62479" lon="5.5795">
        <ele>383</ele>
        <time>2022-05-03T09:41:34Z</time>
      </trkpt>
      <trkpt lat="46.62484" lon="5.57949">
        <ele>381.9</ele>
        <time>2022-05-03T09:41:38Z</time>
      </trkpt>
      <trkpt lat="46.62489" lon="5.57948">
        <ele>381.1</ele>
        <time>2022-05-03T09:41:42Z</time>
      </trkpt>
      <trkpt lat="46.62494" lon="5.5795">
        <ele>380.7</ele>
        <time>2022-05-03T09:41:48Z</time>
      </trkpt>
      <trkpt lat="46.62498" lon="5.57953">
        <ele>380.3</ele>
        <time>2022-05-03T09:41:53Z</time>
      </trkpt>
      <trkpt lat="46.62503" lon="5.57953">
        <ele>380</ele>
        <time>2022-05-03T09:41:58Z</time>
      </trkpt>
      <trkpt lat="46.62507" lon="5.57952">
        <ele>379.7</ele>
        <time>2022-05-03T09:42:05Z</time>
      </trkpt>
      <trkpt lat="46.62512" lon="5.57954">
        <ele>379.5</ele>
        <time>2022-05-03T09:42:12Z</time>
      </trkpt>
      <trkpt lat="46.62517" lon="5.57955">
        <ele>378.7</ele>
        <time>2022-05-03T09:42:17Z</time>
      </trkpt>
      <trkpt lat="46.62522" lon="5.57956">
        <ele>377.4</ele>
        <time>2022-05-03T09:42:21Z</time>
      </trkpt>
      <trkpt lat="46.62526" lon="5.57958">
        <ele>376.3</ele>
        <time>2022-05-03T09:42:26Z</time>
      </trkpt>
      <trkpt lat="46.62531" lon="5.57961">
        <ele>375.8</ele>
        <time>2022-05-03T09:42:32Z</time>
      </trkpt>
      <trkpt lat="46.62536" lon="5.57963">
        <ele>376</ele>
        <time>2022-05-03T09:42:37Z</time>
      </trkpt>
      <trkpt lat="46.62541" lon="5.57965">
        <ele>375.9</ele>
        <time>2022-05-03T09:42:41Z</time>
      </trkpt>
      <trkpt lat="46.62545" lon="5.57968">
        <ele>375.6</ele>
        <time>2022-05-03T09:42:45Z</time>
      </trkpt>
      <trkpt lat="46.62549" lon="5.57971">
        <ele>375.6</ele>
        <time>2022-05-03T09:42:49Z</time>
      </trkpt>
      <trkpt lat="46.62555" lon="5.57972">
        <ele>375.3</ele>
        <time>2022-05-03T09:42:53Z</time>
      </trkpt>
      <trkpt lat="46.62559" lon="5.57974">
        <ele>376.3</ele>
        <time>2022-05-03T09:42:57Z</time>
      </trkpt>
      <trkpt lat="46.62564" lon="5.57974">
        <ele>378.5</ele>
        <time>2022-05-03T09:43:03Z</time>
      </trkpt>
      <trkpt lat="46.62568" lon="5.57971">
        <ele>379.6</ele>
        <time>2022-05-03T09:43:07Z</time>
      </trkpt>
      <trkpt lat="46.62574" lon="5.5797">
        <ele>380.4</ele>
        <time>2022-05-03T09:43:12Z</time>
      </trkpt>
      <trkpt lat="46.62579" lon="5.57967">
        <ele>380.7</ele>
        <time>2022-05-03T09:43:17Z</time>
      </trkpt>
      <trkpt lat="46.62583" lon="5.57965">
        <ele>381.6</ele>
        <time>2022-05-03T09:43:22Z</time>
      </trkpt>
      <trkpt lat="46.62588" lon="5.57962">
        <ele>382</ele>
        <time>2022-05-03T09:43:27Z</time>
      </trkpt>
      <trkpt lat="46.62593" lon="5.57959">
        <ele>382.9</ele>
        <time>2022-05-03T09:43:32Z</time>
      </trkpt>
      <trkpt lat="46.62598" lon="5.57955">
        <ele>383.7</ele>
        <time>2022-05-03T09:43:37Z</time>
      </trkpt>
      <trkpt lat="46.62602" lon="5.57951">
        <ele>384.6</ele>
        <time>2022-05-03T09:43:43Z</time>
      </trkpt>
      <trkpt lat="46.62606" lon="5.57948">
        <ele>385</ele>
        <time>2022-05-03T09:43:48Z</time>
      </trkpt>
      <trkpt lat="46.62611" lon="5.57948">
        <ele>384.9</ele>
        <time>2022-05-03T09:43:53Z</time>
      </trkpt>
      <trkpt lat="46.62616" lon="5.57947">
        <ele>387.6</ele>
        <time>2022-05-03T09:44:07Z</time>
      </trkpt>
      <trkpt lat="46.62619" lon="5.57942">
        <ele>388</ele>
        <time>2022-05-03T09:44:23Z</time>
      </trkpt>
      <trkpt lat="46.62624" lon="5.5794">
        <ele>386.8</ele>
        <time>2022-05-03T09:44:50Z</time>
      </trkpt>
      <trkpt lat="46.62629" lon="5.57938">
        <ele>386.3</ele>
        <time>2022-05-03T09:44:55Z</time>
      </trkpt>
      <trkpt lat="46.62634" lon="5.57936">
        <ele>385.5</ele>
        <time>2022-05-03T09:45:00Z</time>
      </trkpt>
      <trkpt lat="46.62638" lon="5.57933">
        <ele>384.8</ele>
        <time>2022-05-03T09:45:06Z</time>
      </trkpt>
      <trkpt lat="46.62642" lon="5.5793">
        <ele>383.5</ele>
        <time>2022-05-03T09:45:15Z</time>
      </trkpt>
      <trkpt lat="46.62647" lon="5.57926">
        <ele>382.1</ele>
        <time>2022-05-03T09:45:24Z</time>
      </trkpt>
      <trkpt lat="46.62651" lon="5.57923">
        <ele>381.8</ele>
        <time>2022-05-03T09:45:28Z</time>
      </trkpt>
      <trkpt lat="46.62654" lon="5.57919">
        <ele>381.8</ele>
        <time>2022-05-03T09:45:33Z</time>
      </trkpt>
      <trkpt lat="46.62659" lon="5.57914">
        <ele>382.6</ele>
        <time>2022-05-03T09:45:39Z</time>
      </trkpt>
      <trkpt lat="46.62663" lon="5.5791">
        <ele>384.6</ele>
        <time>2022-05-03T09:45:45Z</time>
      </trkpt>
      <trkpt lat="46.62668" lon="5.57907">
        <ele>385.8</ele>
        <time>2022-05-03T09:45:50Z</time>
      </trkpt>
      <trkpt lat="46.62673" lon="5.57905">
        <ele>386</ele>
        <time>2022-05-03T09:45:55Z</time>
      </trkpt>
      <trkpt lat="46.62679" lon="5.57903">
        <ele>385.9</ele>
        <time>2022-05-03T09:45:59Z</time>
      </trkpt>
      <trkpt lat="46.62683" lon="5.57903">
        <ele>386.1</ele>
        <time>2022-05-03T09:46:04Z</time>
      </trkpt>
      <trkpt lat="46.62688" lon="5.57902">
        <ele>386.3</ele>
        <time>2022-05-03T09:46:09Z</time>
      </trkpt>
      <trkpt lat="46.62693" lon="5.579">
        <ele>386.3</ele>
        <time>2022-05-03T09:46:21Z</time>
      </trkpt>
      <trkpt lat="46.62697" lon="5.57899">
        <ele>385.7</ele>
        <time>2022-05-03T09:46:28Z</time>
      </trkpt>
      <trkpt lat="46.62702" lon="5.57897">
        <ele>385.3</ele>
        <time>2022-05-03T09:46:33Z</time>
      </trkpt>
      <trkpt lat="46.62707" lon="5.57895">
        <ele>384.7</ele>
        <time>2022-05-03T09:46:39Z</time>
      </trkpt>
      <trkpt lat="46.62711" lon="5.57894">
        <ele>384.6</ele>
        <time>2022-05-03T09:46:44Z</time>
      </trkpt>
      <trkpt lat="46.62717" lon="5.57894">
        <ele>384.1</ele>
        <time>2022-05-03T09:46:50Z</time>
      </trkpt>
      <trkpt lat="46.62721" lon="5.57895">
        <ele>383.5</ele>
        <time>2022-05-03T09:46:56Z</time>
      </trkpt>
      <trkpt lat="46.62727" lon="5.57894">
        <ele>383.1</ele>
        <time>2022-05-03T09:47:01Z</time>
      </trkpt>
      <trkpt lat="46.62732" lon="5.57892">
        <ele>382.7</ele>
        <time>2022-05-03T09:47:06Z</time>
      </trkpt>
      <trkpt lat="46.62737" lon="5.5789">
        <ele>382.8</ele>
        <time>2022-05-03T09:47:11Z</time>
      </trkpt>
      <trkpt lat="46.62742" lon="5.57887">
        <ele>382.8</ele>
        <time>2022-05-03T09:47:15Z</time>
      </trkpt>
      <trkpt lat="46.62747" lon="5.57886">
        <ele>383.1</ele>
        <time>2022-05-03T09:47:19Z</time>
      </trkpt>
      <trkpt lat="46.62752" lon="5.57885">
        <ele>383.6</ele>
        <time>2022-05-03T09:47:23Z</time>
      </trkpt>
      <trkpt lat="46.62756" lon="5.57882">
        <ele>384.2</ele>
        <time>2022-05-03T09:47:27Z</time>
      </trkpt>
      <trkpt lat="46.62761" lon="5.57881">
        <ele>384.8</ele>
        <time>2022-05-03T09:47:31Z</time>
      </trkpt>
      <trkpt lat="46.62766" lon="5.57879">
        <ele>385.4</ele>
        <time>2022-05-03T09:47:36Z</time>
      </trkpt>
      <trkpt lat="46.6277" lon="5.57879">
        <ele>386.1</ele>
        <time>2022-05-03T09:47:40Z</time>
      </trkpt>
      <trkpt lat="46.62775" lon="5.57879">
        <ele>387.1</ele>
        <time>2022-05-03T09:47:45Z</time>
      </trkpt>
      <trkpt lat="46.6278" lon="5.57878">
        <ele>387.9</ele>
        <time>2022-05-03T09:47:50Z</time>
      </trkpt>
      <trkpt lat="46.62784" lon="5.57875">
        <ele>388.7</ele>
        <time>2022-05-03T09:47:55Z</time>
      </trkpt>
      <trkpt lat="46.6279" lon="5.57874">
        <ele>389.3</ele>
        <time>2022-05-03T09:48:01Z</time>
      </trkpt>
      <trkpt lat="46.62795" lon="5.57874">
        <ele>389.9</ele>
        <time>2022-05-03T09:48:05Z</time>
      </trkpt>
      <trkpt lat="46.62801" lon="5.57874">
        <ele>390.4</ele>
        <time>2022-05-03T09:48:09Z</time>
      </trkpt>
      <trkpt lat="46.62806" lon="5.57873">
        <ele>390.9</ele>
        <time>2022-05-03T09:48:13Z</time>
      </trkpt>
      <trkpt lat="46.62811" lon="5.5787">
        <ele>391.9</ele>
        <time>2022-05-03T09:48:18Z</time>
      </trkpt>
      <trkpt lat="46.62816" lon="5.57867">
        <ele>392.8</ele>
        <time>2022-05-03T09:48:23Z</time>
      </trkpt>
      <trkpt lat="46.62821" lon="5.57865">
        <ele>393.1</ele>
        <time>2022-05-03T09:48:28Z</time>
      </trkpt>
      <trkpt lat="46.62826" lon="5.57865">
        <ele>393.1</ele>
        <time>2022-05-03T09:48:34Z</time>
      </trkpt>
      <trkpt lat="46.62831" lon="5.57867">
        <ele>392.5</ele>
        <time>2022-05-03T09:48:40Z</time>
      </trkpt>
      <trkpt lat="46.62836" lon="5.57868">
        <ele>391.8</ele>
        <time>2022-05-03T09:48:44Z</time>
      </trkpt>
      <trkpt lat="46.62841" lon="5.57868">
        <ele>390.4</ele>
        <time>2022-05-03T09:48:49Z</time>
      </trkpt>
      <trkpt lat="46.62846" lon="5.57868">
        <ele>389</ele>
        <time>2022-05-03T09:48:55Z</time>
      </trkpt>
      <trkpt lat="46.62851" lon="5.57866">
        <ele>387.7</ele>
        <time>2022-05-03T09:49:00Z</time>
      </trkpt>
      <trkpt lat="46.62856" lon="5.57864">
        <ele>386.9</ele>
        <time>2022-05-03T09:49:04Z</time>
      </trkpt>
      <trkpt lat="46.6286" lon="5.57863">
        <ele>386.5</ele>
        <time>2022-05-03T09:49:09Z</time>
      </trkpt>
      <trkpt lat="46.62865" lon="5.5786">
        <ele>386</ele>
        <time>2022-05-03T09:49:15Z</time>
      </trkpt>
      <trkpt lat="46.62869" lon="5.57858">
        <ele>385.4</ele>
        <time>2022-05-03T09:49:22Z</time>
      </trkpt>
      <trkpt lat="46.62874" lon="5.57855">
        <ele>384.2</ele>
        <time>2022-05-03T09:49:29Z</time>
      </trkpt>
      <trkpt lat="46.62879" lon="5.57853">
        <ele>382.8</ele>
        <time>2022-05-03T09:49:34Z</time>
      </trkpt>
      <trkpt lat="46.62884" lon="5.5785">
        <ele>381.7</ele>
        <time>2022-05-03T09:49:40Z</time>
      </trkpt>
      <trkpt lat="46.62888" lon="5.57847">
        <ele>380.5</ele>
        <time>2022-05-03T09:49:49Z</time>
      </trkpt>
      <trkpt lat="46.62891" lon="5.57841">
        <ele>378.5</ele>
        <time>2022-05-03T09:50:12Z</time>
      </trkpt>
      <trkpt lat="46.62896" lon="5.57838">
        <ele>378.4</ele>
        <time>2022-05-03T09:50:19Z</time>
      </trkpt>
      <trkpt lat="46.629" lon="5.57832">
        <ele>377.2</ele>
        <time>2022-05-03T09:51:08Z</time>
      </trkpt>
      <trkpt lat="46.62904" lon="5.57829">
        <ele>377</ele>
        <time>2022-05-03T09:51:13Z</time>
      </trkpt>
      <trkpt lat="46.62909" lon="5.57826">
        <ele>376.1</ele>
        <time>2022-05-03T09:51:20Z</time>
      </trkpt>
      <trkpt lat="46.62912" lon="5.57821">
        <ele>374.1</ele>
        <time>2022-05-03T09:51:29Z</time>
      </trkpt>
      <trkpt lat="46.62917" lon="5.57818">
        <ele>373.3</ele>
        <time>2022-05-03T09:51:37Z</time>
      </trkpt>
      <trkpt lat="46.62921" lon="5.57815">
        <ele>373.2</ele>
        <time>2022-05-03T09:51:42Z</time>
      </trkpt>
      <trkpt lat="46.62924" lon="5.57809">
        <ele>373.4</ele>
        <time>2022-05-03T09:51:47Z</time>
      </trkpt>
      <trkpt lat="46.62928" lon="5.57805">
        <ele>373.7</ele>
        <time>2022-05-03T09:51:53Z</time>
      </trkpt>
      <trkpt lat="46.62931" lon="5.578">
        <ele>374.2</ele>
        <time>2022-05-03T09:53:58Z</time>
      </trkpt>
      <trkpt lat="46.62934" lon="5.57794">
        <ele>373</ele>
        <time>2022-05-03T09:54:07Z</time>
      </trkpt>
      <trkpt lat="46.62937" lon="5.57789">
        <ele>372.3</ele>
        <time>2022-05-03T09:54:14Z</time>
      </trkpt>
      <trkpt lat="46.6294" lon="5.57783">
        <ele>371.8</ele>
        <time>2022-05-03T09:54:19Z</time>
      </trkpt>
      <trkpt lat="46.62943" lon="5.57776">
        <ele>370.9</ele>
        <time>2022-05-03T09:54:25Z</time>
      </trkpt>
      <trkpt lat="46.62944" lon="5.5777">
        <ele>369.6</ele>
        <time>2022-05-03T09:54:32Z</time>
      </trkpt>
      <trkpt lat="46.62946" lon="5.57763">
        <ele>369</ele>
        <time>2022-05-03T09:54:38Z</time>
      </trkpt>
      <trkpt lat="46.62949" lon="5.57757">
        <ele>368.5</ele>
        <time>2022-05-03T09:54:42Z</time>
      </trkpt>
      <trkpt lat="46.62951" lon="5.57751">
        <ele>368</ele>
        <time>2022-05-03T09:54:48Z</time>
      </trkpt>
      <trkpt lat="46.62955" lon="5.57747">
        <ele>366.9</ele>
        <time>2022-05-03T09:54:55Z</time>
      </trkpt>
      <trkpt lat="46.62958" lon="5.57742">
        <ele>365.9</ele>
        <time>2022-05-03T09:55:00Z</time>
      </trkpt>
      <trkpt lat="46.62963" lon="5.57739">
        <ele>365</ele>
        <time>2022-05-03T09:55:05Z</time>
      </trkpt>
      <trkpt lat="46.62968" lon="5.57737">
        <ele>364</ele>
        <time>2022-05-03T09:55:10Z</time>
      </trkpt>
      <trkpt lat="46.62971" lon="5.57732">
        <ele>362.8</ele>
        <time>2022-05-03T09:55:15Z</time>
      </trkpt>
      <trkpt lat="46.62975" lon="5.57727">
        <ele>361.6</ele>
        <time>2022-05-03T09:55:21Z</time>
      </trkpt>
      <trkpt lat="46.6298" lon="5.57723">
        <ele>360.4</ele>
        <time>2022-05-03T09:55:26Z</time>
      </trkpt>
      <trkpt lat="46.62983" lon="5.57717">
        <ele>359</ele>
        <time>2022-05-03T09:55:31Z</time>
      </trkpt>
      <trkpt lat="46.62986" lon="5.57711">
        <ele>357.4</ele>
        <time>2022-05-03T09:55:36Z</time>
      </trkpt>
      <trkpt lat="46.62988" lon="5.57705">
        <ele>356</ele>
        <time>2022-05-03T09:55:41Z</time>
      </trkpt>
      <trkpt lat="46.62992" lon="5.577">
        <ele>354.7</ele>
        <time>2022-05-03T09:55:47Z</time>
      </trkpt>
      <trkpt lat="46.62996" lon="5.57696">
        <ele>354.3</ele>
        <time>2022-05-03T09:55:52Z</time>
      </trkpt>
      <trkpt lat="46.63" lon="5.57692">
        <ele>353.7</ele>
        <time>2022-05-03T09:55:59Z</time>
      </trkpt>
      <trkpt lat="46.63004" lon="5.57687">
        <ele>353.4</ele>
        <time>2022-05-03T09:56:05Z</time>
      </trkpt>
      <trkpt lat="46.63008" lon="5.57683">
        <ele>353.1</ele>
        <time>2022-05-03T09:56:11Z</time>
      </trkpt>
      <trkpt lat="46.63008" lon="5.57677">
        <ele>352.7</ele>
        <time>2022-05-03T09:56:15Z</time>
      </trkpt>
      <trkpt lat="46.6301" lon="5.5767">
        <ele>352.4</ele>
        <time>2022-05-03T09:56:20Z</time>
      </trkpt>
      <trkpt lat="46.63015" lon="5.57667">
        <ele>352.4</ele>
        <time>2022-05-03T09:56:25Z</time>
      </trkpt>
      <trkpt lat="46.63018" lon="5.57663">
        <ele>352</ele>
        <time>2022-05-03T09:56:33Z</time>
      </trkpt>
      <trkpt lat="46.63023" lon="5.57659">
        <ele>350.9</ele>
        <time>2022-05-03T09:56:38Z</time>
      </trkpt>
      <trkpt lat="46.63025" lon="5.57653">
        <ele>349.6</ele>
        <time>2022-05-03T09:56:43Z</time>
      </trkpt>
      <trkpt lat="46.63028" lon="5.57646">
        <ele>347.7</ele>
        <time>2022-05-03T09:56:49Z</time>
      </trkpt>
      <trkpt lat="46.63032" lon="5.57644">
        <ele>345.2</ele>
        <time>2022-05-03T09:56:55Z</time>
      </trkpt>
      <trkpt lat="46.63037" lon="5.57643">
        <ele>342.9</ele>
        <time>2022-05-03T09:57:00Z</time>
      </trkpt>
      <trkpt lat="46.63042" lon="5.57641">
        <ele>341.6</ele>
        <time>2022-05-03T09:57:04Z</time>
      </trkpt>
      <trkpt lat="46.63044" lon="5.57635">
        <ele>340.9</ele>
        <time>2022-05-03T09:57:08Z</time>
      </trkpt>
      <trkpt lat="46.63046" lon="5.57629">
        <ele>340.3</ele>
        <time>2022-05-03T09:57:14Z</time>
      </trkpt>
      <trkpt lat="46.63051" lon="5.57625">
        <ele>339.9</ele>
        <time>2022-05-03T09:57:20Z</time>
      </trkpt>
      <trkpt lat="46.63055" lon="5.57623">
        <ele>340</ele>
        <time>2022-05-03T09:57:24Z</time>
      </trkpt>
      <trkpt lat="46.63059" lon="5.57619">
        <ele>340.2</ele>
        <time>2022-05-03T09:57:28Z</time>
      </trkpt>
      <trkpt lat="46.63063" lon="5.57615">
        <ele>340.6</ele>
        <time>2022-05-03T09:57:33Z</time>
      </trkpt>
      <trkpt lat="46.63068" lon="5.57613">
        <ele>340.8</ele>
        <time>2022-05-03T09:57:41Z</time>
      </trkpt>
      <trkpt lat="46.63073" lon="5.5761">
        <ele>341.5</ele>
        <time>2022-05-03T09:57:47Z</time>
      </trkpt>
      <trkpt lat="46.63077" lon="5.57608">
        <ele>341.5</ele>
        <time>2022-05-03T09:57:51Z</time>
      </trkpt>
      <trkpt lat="46.63082" lon="5.57608">
        <ele>341.2</ele>
        <time>2022-05-03T09:57:55Z</time>
      </trkpt>
      <trkpt lat="46.63087" lon="5.57606">
        <ele>341.4</ele>
        <time>2022-05-03T09:58:01Z</time>
      </trkpt>
      <trkpt lat="46.63092" lon="5.57608">
        <ele>342.2</ele>
        <time>2022-05-03T09:58:10Z</time>
      </trkpt>
      <trkpt lat="46.63096" lon="5.57604">
        <ele>341.8</ele>
        <time>2022-05-03T09:58:17Z</time>
      </trkpt>
      <trkpt lat="46.63101" lon="5.57602">
        <ele>341.5</ele>
        <time>2022-05-03T09:58:22Z</time>
      </trkpt>
      <trkpt lat="46.63104" lon="5.57597">
        <ele>341.2</ele>
        <time>2022-05-03T09:58:27Z</time>
      </trkpt>
      <trkpt lat="46.63109" lon="5.57594">
        <ele>341</ele>
        <time>2022-05-03T09:58:32Z</time>
      </trkpt>
      <trkpt lat="46.63114" lon="5.5759">
        <ele>340.6</ele>
        <time>2022-05-03T09:58:36Z</time>
      </trkpt>
      <trkpt lat="46.63119" lon="5.57587">
        <ele>340.2</ele>
        <time>2022-05-03T09:58:40Z</time>
      </trkpt>
      <trkpt lat="46.63121" lon="5.57581">
        <ele>339.7</ele>
        <time>2022-05-03T09:58:44Z</time>
      </trkpt>
      <trkpt lat="46.63124" lon="5.57574">
        <ele>338.9</ele>
        <time>2022-05-03T09:58:49Z</time>
      </trkpt>
      <trkpt lat="46.63128" lon="5.57571">
        <ele>338.3</ele>
        <time>2022-05-03T09:58:53Z</time>
      </trkpt>
      <trkpt lat="46.63131" lon="5.57565">
        <ele>337.5</ele>
        <time>2022-05-03T09:58:59Z</time>
      </trkpt>
      <trkpt lat="46.63133" lon="5.57559">
        <ele>336.3</ele>
        <time>2022-05-03T09:59:05Z</time>
      </trkpt>
      <trkpt lat="46.63135" lon="5.57552">
        <ele>335.4</ele>
        <time>2022-05-03T09:59:10Z</time>
      </trkpt>
      <trkpt lat="46.63137" lon="5.57545">
        <ele>334.7</ele>
        <time>2022-05-03T09:59:15Z</time>
      </trkpt>
      <trkpt lat="46.63139" lon="5.5754">
        <ele>334.2</ele>
        <time>2022-05-03T09:59:19Z</time>
      </trkpt>
      <trkpt lat="46.63142" lon="5.57533">
        <ele>333.5</ele>
        <time>2022-05-03T09:59:24Z</time>
      </trkpt>
      <trkpt lat="46.63144" lon="5.57527">
        <ele>333.5</ele>
        <time>2022-05-03T09:59:29Z</time>
      </trkpt>
      <trkpt lat="46.63147" lon="5.57521">
        <ele>333.9</ele>
        <time>2022-05-03T09:59:37Z</time>
      </trkpt>
      <trkpt lat="46.6315" lon="5.57516">
        <ele>334.2</ele>
        <time>2022-05-03T09:59:42Z</time>
      </trkpt>
      <trkpt lat="46.63152" lon="5.5751">
        <ele>334.7</ele>
        <time>2022-05-03T09:59:46Z</time>
      </trkpt>
      <trkpt lat="46.63156" lon="5.57505">
        <ele>335.1</ele>
        <time>2022-05-03T09:59:50Z</time>
      </trkpt>
      <trkpt lat="46.63161" lon="5.57502">
        <ele>335.1</ele>
        <time>2022-05-03T09:59:55Z</time>
      </trkpt>
      <trkpt lat="46.63164" lon="5.57495">
        <ele>334</ele>
        <time>2022-05-03T10:00:01Z</time>
      </trkpt>
      <trkpt lat="46.63168" lon="5.57491">
        <ele>333.5</ele>
        <time>2022-05-03T10:00:05Z</time>
      </trkpt>
      <trkpt lat="46.63173" lon="5.57487">
        <ele>333.3</ele>
        <time>2022-05-03T10:00:09Z</time>
      </trkpt>
      <trkpt lat="46.63177" lon="5.57482">
        <ele>333.3</ele>
        <time>2022-05-03T10:00:14Z</time>
      </trkpt>
      <trkpt lat="46.63181" lon="5.57476">
        <ele>333.2</ele>
        <time>2022-05-03T10:00:20Z</time>
      </trkpt>
      <trkpt lat="46.63185" lon="5.57471">
        <ele>333.2</ele>
        <time>2022-05-03T10:00:25Z</time>
      </trkpt>
      <trkpt lat="46.6319" lon="5.57467">
        <ele>333.5</ele>
        <time>2022-05-03T10:00:29Z</time>
      </trkpt>
      <trkpt lat="46.63194" lon="5.57464">
        <ele>333.8</ele>
        <time>2022-05-03T10:00:33Z</time>
      </trkpt>
      <trkpt lat="46.63198" lon="5.5746">
        <ele>334.2</ele>
        <time>2022-05-03T10:00:37Z</time>
      </trkpt>
      <trkpt lat="46.63203" lon="5.57457">
        <ele>334.2</ele>
        <time>2022-05-03T10:00:41Z</time>
      </trkpt>
      <trkpt lat="46.63208" lon="5.57456">
        <ele>334.2</ele>
        <time>2022-05-03T10:00:45Z</time>
      </trkpt>
      <trkpt lat="46.63213" lon="5.57456">
        <ele>334.2</ele>
        <time>2022-05-03T10:00:50Z</time>
      </trkpt>
      <trkpt lat="46.63219" lon="5.57457">
        <ele>333.9</ele>
        <time>2022-05-03T10:00:55Z</time>
      </trkpt>
      <trkpt lat="46.63223" lon="5.57457">
        <ele>332.5</ele>
        <time>2022-05-03T10:01:02Z</time>
      </trkpt>
      <trkpt lat="46.63228" lon="5.57457">
        <ele>331.3</ele>
        <time>2022-05-03T10:01:06Z</time>
      </trkpt>
      <trkpt lat="46.63233" lon="5.57458">
        <ele>330.1</ele>
        <time>2022-05-03T10:01:10Z</time>
      </trkpt>
      <trkpt lat="46.63237" lon="5.5746">
        <ele>328.8</ele>
        <time>2022-05-03T10:01:14Z</time>
      </trkpt>
      <trkpt lat="46.63242" lon="5.57459">
        <ele>327.7</ele>
        <time>2022-05-03T10:01:18Z</time>
      </trkpt>
      <trkpt lat="46.63247" lon="5.57457">
        <ele>326.9</ele>
        <time>2022-05-03T10:01:22Z</time>
      </trkpt>
      <trkpt lat="46.63252" lon="5.57456">
        <ele>326.6</ele>
        <time>2022-05-03T10:01:26Z</time>
      </trkpt>
      <trkpt lat="46.63257" lon="5.57457">
        <ele>326.4</ele>
        <time>2022-05-03T10:01:30Z</time>
      </trkpt>
      <trkpt lat="46.63262" lon="5.57457">
        <ele>326.6</ele>
        <time>2022-05-03T10:01:33Z</time>
      </trkpt>
      <trkpt lat="46.63266" lon="5.57457">
        <ele>327.1</ele>
        <time>2022-05-03T10:01:37Z</time>
      </trkpt>
      <trkpt lat="46.63272" lon="5.57456">
        <ele>327.2</ele>
        <time>2022-05-03T10:01:42Z</time>
      </trkpt>
      <trkpt lat="46.63277" lon="5.57456">
        <ele>327.2</ele>
        <time>2022-05-03T10:01:47Z</time>
      </trkpt>
      <trkpt lat="46.63282" lon="5.57455">
        <ele>327</ele>
        <time>2022-05-03T10:01:51Z</time>
      </trkpt>
      <trkpt lat="46.63287" lon="5.57455">
        <ele>326.9</ele>
        <time>2022-05-03T10:01:56Z</time>
      </trkpt>
      <trkpt lat="46.63292" lon="5.57455">
        <ele>327.1</ele>
        <time>2022-05-03T10:02:00Z</time>
      </trkpt>
      <trkpt lat="46.63297" lon="5.57454">
        <ele>328.4</ele>
        <time>2022-05-03T10:02:05Z</time>
      </trkpt>
      <trkpt lat="46.63301" lon="5.57452">
        <ele>329.7</ele>
        <time>2022-05-03T10:02:10Z</time>
      </trkpt>
      <trkpt lat="46.63306" lon="5.5745">
        <ele>330.4</ele>
        <time>2022-05-03T10:02:14Z</time>
      </trkpt>
      <trkpt lat="46.6331" lon="5.57447">
        <ele>330.3</ele>
        <time>2022-05-03T10:02:18Z</time>
      </trkpt>
      <trkpt lat="46.63315" lon="5.57444">
        <ele>330.4</ele>
        <time>2022-05-03T10:02:22Z</time>
      </trkpt>
      <trkpt lat="46.63319" lon="5.57442">
        <ele>330.3</ele>
        <time>2022-05-03T10:02:26Z</time>
      </trkpt>
      <trkpt lat="46.63324" lon="5.57439">
        <ele>330.1</ele>
        <time>2022-05-03T10:02:30Z</time>
      </trkpt>
      <trkpt lat="46.6333" lon="5.57437">
        <ele>329.8</ele>
        <time>2022-05-03T10:02:35Z</time>
      </trkpt>
      <trkpt lat="46.63334" lon="5.57433">
        <ele>329.9</ele>
        <time>2022-05-03T10:02:40Z</time>
      </trkpt>
      <trkpt lat="46.63338" lon="5.57429">
        <ele>330.2</ele>
        <time>2022-05-03T10:02:45Z</time>
      </trkpt>
      <trkpt lat="46.63343" lon="5.57426">
        <ele>330.2</ele>
        <time>2022-05-03T10:02:50Z</time>
      </trkpt>
      <trkpt lat="46.63348" lon="5.57422">
        <ele>330</ele>
        <time>2022-05-03T10:02:54Z</time>
      </trkpt>
      <trkpt lat="46.63352" lon="5.57419">
        <ele>329.8</ele>
        <time>2022-05-03T10:02:58Z</time>
      </trkpt>
      <trkpt lat="46.63356" lon="5.57416">
        <ele>329.7</ele>
        <time>2022-05-03T10:03:02Z</time>
      </trkpt>
      <trkpt lat="46.63361" lon="5.57413">
        <ele>329.6</ele>
        <time>2022-05-03T10:03:06Z</time>
      </trkpt>
      <trkpt lat="46.63366" lon="5.57409">
        <ele>329.4</ele>
        <time>2022-05-03T10:03:10Z</time>
      </trkpt>
      <trkpt lat="46.63369" lon="5.57406">
        <ele>329.3</ele>
        <time>2022-05-03T10:03:14Z</time>
      </trkpt>
      <trkpt lat="46.63374" lon="5.57401">
        <ele>328.8</ele>
        <time>2022-05-03T10:03:19Z</time>
      </trkpt>
      <trkpt lat="46.63378" lon="5.57398">
        <ele>327.7</ele>
        <time>2022-05-03T10:03:22Z</time>
      </trkpt>
      <trkpt lat="46.63382" lon="5.57394">
        <ele>326.2</ele>
        <time>2022-05-03T10:03:26Z</time>
      </trkpt>
      <trkpt lat="46.63387" lon="5.57391">
        <ele>323.8</ele>
        <time>2022-05-03T10:03:37Z</time>
      </trkpt>
      <trkpt lat="46.63392" lon="5.57389">
        <ele>322.9</ele>
        <time>2022-05-03T10:03:41Z</time>
      </trkpt>
      <trkpt lat="46.63397" lon="5.57386">
        <ele>322.1</ele>
        <time>2022-05-03T10:03:44Z</time>
      </trkpt>
      <trkpt lat="46.63402" lon="5.57383">
        <ele>321.9</ele>
        <time>2022-05-03T10:03:47Z</time>
      </trkpt>
      <trkpt lat="46.63406" lon="5.57378">
        <ele>322.3</ele>
        <time>2022-05-03T10:03:51Z</time>
      </trkpt>
      <trkpt lat="46.63409" lon="5.57371">
        <ele>323.5</ele>
        <time>2022-05-03T10:03:56Z</time>
      </trkpt>
      <trkpt lat="46.63414" lon="5.57372">
        <ele>326.1</ele>
        <time>2022-05-03T10:04:04Z</time>
      </trkpt>
      <trkpt lat="46.63415" lon="5.57379">
        <ele>327.8</ele>
        <time>2022-05-03T10:04:29Z</time>
      </trkpt>
      <trkpt lat="46.63411" lon="5.57383">
        <ele>327.4</ele>
        <time>2022-05-03T10:04:37Z</time>
      </trkpt>
      <trkpt lat="46.63416" lon="5.57381">
        <ele>325.3</ele>
        <time>2022-05-03T10:05:01Z</time>
      </trkpt>
      <trkpt lat="46.63411" lon="5.57379">
        <ele>324</ele>
        <time>2022-05-03T10:05:25Z</time>
      </trkpt>
      <trkpt lat="46.63407" lon="5.57375">
        <ele>325.4</ele>
        <time>2022-05-03T10:36:30Z</time>
      </trkpt>
      <trkpt lat="46.63412" lon="5.57375">
        <ele>321.7</ele>
        <time>2022-05-03T10:37:11Z</time>
      </trkpt>
      <trkpt lat="46.63417" lon="5.57374">
        <ele>319.2</ele>
        <time>2022-05-03T10:37:19Z</time>
      </trkpt>
      <trkpt lat="46.63422" lon="5.57372">
        <ele>318.7</ele>
        <time>2022-05-03T10:37:24Z</time>
      </trkpt>
      <trkpt lat="46.63427" lon="5.5737">
        <ele>318.1</ele>
        <time>2022-05-03T10:37:30Z</time>
      </trkpt>
      <trkpt lat="46.63432" lon="5.57367">
        <ele>317.9</ele>
        <time>2022-05-03T10:37:35Z</time>
      </trkpt>
      <trkpt lat="46.63437" lon="5.57367">
        <ele>318.6</ele>
        <time>2022-05-03T10:37:42Z</time>
      </trkpt>
      <trkpt lat="46.63442" lon="5.57366">
        <ele>319.7</ele>
        <time>2022-05-03T10:37:46Z</time>
      </trkpt>
      <trkpt lat="46.63446" lon="5.57363">
        <ele>320</ele>
        <time>2022-05-03T10:37:50Z</time>
      </trkpt>
      <trkpt lat="46.63451" lon="5.57361">
        <ele>320</ele>
        <time>2022-05-03T10:37:56Z</time>
      </trkpt>
      <trkpt lat="46.63456" lon="5.57358">
        <ele>320.2</ele>
        <time>2022-05-03T10:38:02Z</time>
      </trkpt>
      <trkpt lat="46.63461" lon="5.57357">
        <ele>320.1</ele>
        <time>2022-05-03T10:38:07Z</time>
      </trkpt>
      <trkpt lat="46.63466" lon="5.57356">
        <ele>319.9</ele>
        <time>2022-05-03T10:38:12Z</time>
      </trkpt>
      <trkpt lat="46.63471" lon="5.57355">
        <ele>320.1</ele>
        <time>2022-05-03T10:38:16Z</time>
      </trkpt>
      <trkpt lat="46.63476" lon="5.57354">
        <ele>320.7</ele>
        <time>2022-05-03T10:38:20Z</time>
      </trkpt>
      <trkpt lat="46.63482" lon="5.57353">
        <ele>322.1</ele>
        <time>2022-05-03T10:38:25Z</time>
      </trkpt>
      <trkpt lat="46.63487" lon="5.57351">
        <ele>322.6</ele>
        <time>2022-05-03T10:38:29Z</time>
      </trkpt>
      <trkpt lat="46.63491" lon="5.57349">
        <ele>322.1</ele>
        <time>2022-05-03T10:38:32Z</time>
      </trkpt>
      <trkpt lat="46.63496" lon="5.57347">
        <ele>321.5</ele>
        <time>2022-05-03T10:38:35Z</time>
      </trkpt>
      <trkpt lat="46.63501" lon="5.57346">
        <ele>321.3</ele>
        <time>2022-05-03T10:38:39Z</time>
      </trkpt>
      <trkpt lat="46.63506" lon="5.57345">
        <ele>321.9</ele>
        <time>2022-05-03T10:38:43Z</time>
      </trkpt>
      <trkpt lat="46.63511" lon="5.57346">
        <ele>322.4</ele>
        <time>2022-05-03T10:38:48Z</time>
      </trkpt>
      <trkpt lat="46.63516" lon="5.57346">
        <ele>322.2</ele>
        <time>2022-05-03T10:38:54Z</time>
      </trkpt>
      <trkpt lat="46.63521" lon="5.57344">
        <ele>321.4</ele>
        <time>2022-05-03T10:38:58Z</time>
      </trkpt>
      <trkpt lat="46.63525" lon="5.57343">
        <ele>320.7</ele>
        <time>2022-05-03T10:39:03Z</time>
      </trkpt>
      <trkpt lat="46.6353" lon="5.57344">
        <ele>320.5</ele>
        <time>2022-05-03T10:39:08Z</time>
      </trkpt>
      <trkpt lat="46.63535" lon="5.57344">
        <ele>320.5</ele>
        <time>2022-05-03T10:39:13Z</time>
      </trkpt>
      <trkpt lat="46.63539" lon="5.57343">
        <ele>319.9</ele>
        <time>2022-05-03T10:39:17Z</time>
      </trkpt>
      <trkpt lat="46.63544" lon="5.5734">
        <ele>319.1</ele>
        <time>2022-05-03T10:39:21Z</time>
      </trkpt>
      <trkpt lat="46.63549" lon="5.57338">
        <ele>318.5</ele>
        <time>2022-05-03T10:39:25Z</time>
      </trkpt>
      <trkpt lat="46.63553" lon="5.57334">
        <ele>317.8</ele>
        <time>2022-05-03T10:39:31Z</time>
      </trkpt>
      <trkpt lat="46.63558" lon="5.57331">
        <ele>317.4</ele>
        <time>2022-05-03T10:39:36Z</time>
      </trkpt>
      <trkpt lat="46.63563" lon="5.57328">
        <ele>317.1</ele>
        <time>2022-05-03T10:39:41Z</time>
      </trkpt>
      <trkpt lat="46.63567" lon="5.57327">
        <ele>316.9</ele>
        <time>2022-05-03T10:39:46Z</time>
      </trkpt>
      <trkpt lat="46.63572" lon="5.57326">
        <ele>316.7</ele>
        <time>2022-05-03T10:39:51Z</time>
      </trkpt>
      <trkpt lat="46.63577" lon="5.57324">
        <ele>316.9</ele>
        <time>2022-05-03T10:39:56Z</time>
      </trkpt>
      <trkpt lat="46.63582" lon="5.57322">
        <ele>317.1</ele>
        <time>2022-05-03T10:40:01Z</time>
      </trkpt>
      <trkpt lat="46.63587" lon="5.5732">
        <ele>317.2</ele>
        <time>2022-05-03T10:40:05Z</time>
      </trkpt>
      <trkpt lat="46.63591" lon="5.57317">
        <ele>317.6</ele>
        <time>2022-05-03T10:40:09Z</time>
      </trkpt>
      <trkpt lat="46.63596" lon="5.57314">
        <ele>318.2</ele>
        <time>2022-05-03T10:40:13Z</time>
      </trkpt>
      <trkpt lat="46.63601" lon="5.57312">
        <ele>318.7</ele>
        <time>2022-05-03T10:40:17Z</time>
      </trkpt>
      <trkpt lat="46.63605" lon="5.57309">
        <ele>319</ele>
        <time>2022-05-03T10:40:21Z</time>
      </trkpt>
      <trkpt lat="46.63609" lon="5.57304">
        <ele>319.4</ele>
        <time>2022-05-03T10:40:26Z</time>
      </trkpt>
      <trkpt lat="46.63614" lon="5.57301">
        <ele>319.4</ele>
        <time>2022-05-03T10:40:31Z</time>
      </trkpt>
      <trkpt lat="46.63618" lon="5.57296">
        <ele>319.5</ele>
        <time>2022-05-03T10:40:36Z</time>
      </trkpt>
      <trkpt lat="46.63622" lon="5.57291">
        <ele>318.7</ele>
        <time>2022-05-03T10:40:40Z</time>
      </trkpt>
      <trkpt lat="46.63626" lon="5.57286">
        <ele>317.4</ele>
        <time>2022-05-03T10:40:44Z</time>
      </trkpt>
      <trkpt lat="46.63631" lon="5.57286">
        <ele>316.1</ele>
        <time>2022-05-03T10:40:49Z</time>
      </trkpt>
      <trkpt lat="46.63636" lon="5.57284">
        <ele>314.8</ele>
        <time>2022-05-03T10:40:55Z</time>
      </trkpt>
      <trkpt lat="46.6364" lon="5.57281">
        <ele>313.4</ele>
        <time>2022-05-03T10:41:00Z</time>
      </trkpt>
      <trkpt lat="46.63645" lon="5.57279">
        <ele>311.9</ele>
        <time>2022-05-03T10:41:05Z</time>
      </trkpt>
      <trkpt lat="46.63649" lon="5.57276">
        <ele>311.4</ele>
        <time>2022-05-03T10:41:09Z</time>
      </trkpt>
      <trkpt lat="46.63654" lon="5.57275">
        <ele>311.3</ele>
        <time>2022-05-03T10:41:12Z</time>
      </trkpt>
      <trkpt lat="46.63659" lon="5.57275">
        <ele>311.7</ele>
        <time>2022-05-03T10:41:16Z</time>
      </trkpt>
      <trkpt lat="46.63664" lon="5.57275">
        <ele>312.3</ele>
        <time>2022-05-03T10:41:20Z</time>
      </trkpt>
      <trkpt lat="46.6367" lon="5.57275">
        <ele>313.5</ele>
        <time>2022-05-03T10:41:25Z</time>
      </trkpt>
      <trkpt lat="46.63675" lon="5.57273">
        <ele>314.7</ele>
        <time>2022-05-03T10:41:29Z</time>
      </trkpt>
      <trkpt lat="46.6368" lon="5.5727">
        <ele>315.5</ele>
        <time>2022-05-03T10:41:33Z</time>
      </trkpt>
      <trkpt lat="46.63685" lon="5.57269">
        <ele>315.8</ele>
        <time>2022-05-03T10:41:37Z</time>
      </trkpt>
      <trkpt lat="46.6369" lon="5.57266">
        <ele>316.1</ele>
        <time>2022-05-03T10:41:41Z</time>
      </trkpt>
      <trkpt lat="46.63695" lon="5.57265">
        <ele>316.6</ele>
        <time>2022-05-03T10:41:46Z</time>
      </trkpt>
      <trkpt lat="46.637" lon="5.57264">
        <ele>316.9</ele>
        <time>2022-05-03T10:41:50Z</time>
      </trkpt>
      <trkpt lat="46.63705" lon="5.57266">
        <ele>317.4</ele>
        <time>2022-05-03T10:41:55Z</time>
      </trkpt>
      <trkpt lat="46.6371" lon="5.57266">
        <ele>317.2</ele>
        <time>2022-05-03T10:42:00Z</time>
      </trkpt>
      <trkpt lat="46.63715" lon="5.57268">
        <ele>317</ele>
        <time>2022-05-03T10:42:06Z</time>
      </trkpt>
      <trkpt lat="46.6372" lon="5.57269">
        <ele>317.3</ele>
        <time>2022-05-03T10:42:10Z</time>
      </trkpt>
      <trkpt lat="46.63725" lon="5.57269">
        <ele>317.8</ele>
        <time>2022-05-03T10:42:14Z</time>
      </trkpt>
      <trkpt lat="46.6373" lon="5.57269">
        <ele>317.9</ele>
        <time>2022-05-03T10:42:18Z</time>
      </trkpt>
      <trkpt lat="46.63735" lon="5.57268">
        <ele>318</ele>
        <time>2022-05-03T10:42:23Z</time>
      </trkpt>
      <trkpt lat="46.63741" lon="5.57267">
        <ele>317.7</ele>
        <time>2022-05-03T10:42:29Z</time>
      </trkpt>
      <trkpt lat="46.63745" lon="5.57269">
        <ele>316.6</ele>
        <time>2022-05-03T10:42:35Z</time>
      </trkpt>
      <trkpt lat="46.6375" lon="5.5727">
        <ele>315.7</ele>
        <time>2022-05-03T10:42:41Z</time>
      </trkpt>
      <trkpt lat="46.63755" lon="5.5727">
        <ele>315.5</ele>
        <time>2022-05-03T10:42:45Z</time>
      </trkpt>
      <trkpt lat="46.6376" lon="5.57269">
        <ele>315.2</ele>
        <time>2022-05-03T10:42:49Z</time>
      </trkpt>
      <trkpt lat="46.63765" lon="5.57268">
        <ele>314.9</ele>
        <time>2022-05-03T10:42:53Z</time>
      </trkpt>
      <trkpt lat="46.6377" lon="5.57267">
        <ele>314.6</ele>
        <time>2022-05-03T10:42:58Z</time>
      </trkpt>
      <trkpt lat="46.63775" lon="5.57265">
        <ele>314.5</ele>
        <time>2022-05-03T10:43:02Z</time>
      </trkpt>
      <trkpt lat="46.63779" lon="5.57261">
        <ele>314.6</ele>
        <time>2022-05-03T10:43:07Z</time>
      </trkpt>
      <trkpt lat="46.63784" lon="5.57257">
        <ele>314.6</ele>
        <time>2022-05-03T10:43:12Z</time>
      </trkpt>
      <trkpt lat="46.63788" lon="5.57254">
        <ele>314.6</ele>
        <time>2022-05-03T10:43:16Z</time>
      </trkpt>
      <trkpt lat="46.63793" lon="5.57251">
        <ele>314.6</ele>
        <time>2022-05-03T10:43:20Z</time>
      </trkpt>
      <trkpt lat="46.63798" lon="5.57248">
        <ele>314.7</ele>
        <time>2022-05-03T10:43:25Z</time>
      </trkpt>
      <trkpt lat="46.63802" lon="5.57245">
        <ele>314.8</ele>
        <time>2022-05-03T10:43:29Z</time>
      </trkpt>
      <trkpt lat="46.63808" lon="5.57244">
        <ele>314.7</ele>
        <time>2022-05-03T10:43:33Z</time>
      </trkpt>
      <trkpt lat="46.63813" lon="5.57242">
        <ele>314.5</ele>
        <time>2022-05-03T10:43:37Z</time>
      </trkpt>
      <trkpt lat="46.63817" lon="5.57238">
        <ele>314.1</ele>
        <time>2022-05-03T10:43:43Z</time>
      </trkpt>
      <trkpt lat="46.63822" lon="5.57235">
        <ele>313</ele>
        <time>2022-05-03T10:43:50Z</time>
      </trkpt>
      <trkpt lat="46.63827" lon="5.57233">
        <ele>312</ele>
        <time>2022-05-03T10:43:56Z</time>
      </trkpt>
      <trkpt lat="46.63831" lon="5.5723">
        <ele>311.6</ele>
        <time>2022-05-03T10:44:01Z</time>
      </trkpt>
      <trkpt lat="46.63836" lon="5.57227">
        <ele>311.3</ele>
        <time>2022-05-03T10:44:05Z</time>
      </trkpt>
      <trkpt lat="46.63842" lon="5.57224">
        <ele>311</ele>
        <time>2022-05-03T10:44:09Z</time>
      </trkpt>
      <trkpt lat="46.63846" lon="5.57223">
        <ele>311.1</ele>
        <time>2022-05-03T10:44:13Z</time>
      </trkpt>
      <trkpt lat="46.63851" lon="5.57222">
        <ele>311.1</ele>
        <time>2022-05-03T10:44:18Z</time>
      </trkpt>
      <trkpt lat="46.63856" lon="5.5722">
        <ele>311.2</ele>
        <time>2022-05-03T10:44:23Z</time>
      </trkpt>
      <trkpt lat="46.63861" lon="5.57219">
        <ele>310.8</ele>
        <time>2022-05-03T10:44:28Z</time>
      </trkpt>
      <trkpt lat="46.63866" lon="5.57219">
        <ele>310.6</ele>
        <time>2022-05-03T10:44:32Z</time>
      </trkpt>
      <trkpt lat="46.63872" lon="5.57219">
        <ele>310.9</ele>
        <time>2022-05-03T10:44:36Z</time>
      </trkpt>
      <trkpt lat="46.63877" lon="5.57218">
        <ele>311.2</ele>
        <time>2022-05-03T10:44:41Z</time>
      </trkpt>
      <trkpt lat="46.63882" lon="5.57216">
        <ele>311.5</ele>
        <time>2022-05-03T10:44:46Z</time>
      </trkpt>
      <trkpt lat="46.63887" lon="5.57215">
        <ele>311.9</ele>
        <time>2022-05-03T10:44:50Z</time>
      </trkpt>
      <trkpt lat="46.63891" lon="5.57214">
        <ele>312.3</ele>
        <time>2022-05-03T10:44:54Z</time>
      </trkpt>
      <trkpt lat="46.63897" lon="5.57211">
        <ele>313</ele>
        <time>2022-05-03T10:44:59Z</time>
      </trkpt>
      <trkpt lat="46.63901" lon="5.57209">
        <ele>313.3</ele>
        <time>2022-05-03T10:45:03Z</time>
      </trkpt>
      <trkpt lat="46.63905" lon="5.57205">
        <ele>313.4</ele>
        <time>2022-05-03T10:45:07Z</time>
      </trkpt>
      <trkpt lat="46.6391" lon="5.57202">
        <ele>313.7</ele>
        <time>2022-05-03T10:45:12Z</time>
      </trkpt>
      <trkpt lat="46.63915" lon="5.572">
        <ele>314.7</ele>
        <time>2022-05-03T10:45:17Z</time>
      </trkpt>
      <trkpt lat="46.6392" lon="5.57198">
        <ele>316.3</ele>
        <time>2022-05-03T10:45:22Z</time>
      </trkpt>
      <trkpt lat="46.63924" lon="5.57193">
        <ele>317.8</ele>
        <time>2022-05-03T10:45:27Z</time>
      </trkpt>
      <trkpt lat="46.63928" lon="5.57189">
        <ele>319.3</ele>
        <time>2022-05-03T10:45:31Z</time>
      </trkpt>
      <trkpt lat="46.63933" lon="5.57187">
        <ele>320.9</ele>
        <time>2022-05-03T10:45:36Z</time>
      </trkpt>
      <trkpt lat="46.63938" lon="5.57185">
        <ele>321.7</ele>
        <time>2022-05-03T10:45:41Z</time>
      </trkpt>
      <trkpt lat="46.63943" lon="5.57184">
        <ele>321.7</ele>
        <time>2022-05-03T10:45:45Z</time>
      </trkpt>
      <trkpt lat="46.63948" lon="5.57182">
        <ele>321.7</ele>
        <time>2022-05-03T10:45:51Z</time>
      </trkpt>
      <trkpt lat="46.63952" lon="5.57179">
        <ele>322.1</ele>
        <time>2022-05-03T10:45:58Z</time>
      </trkpt>
      <trkpt lat="46.63957" lon="5.57177">
        <ele>322.9</ele>
        <time>2022-05-03T10:46:05Z</time>
      </trkpt>
      <trkpt lat="46.63963" lon="5.57178">
        <ele>323.9</ele>
        <time>2022-05-03T10:46:11Z</time>
      </trkpt>
      <trkpt lat="46.63967" lon="5.57176">
        <ele>324.4</ele>
        <time>2022-05-03T10:46:15Z</time>
      </trkpt>
      <trkpt lat="46.63971" lon="5.57174">
        <ele>324.4</ele>
        <time>2022-05-03T10:46:19Z</time>
      </trkpt>
      <trkpt lat="46.63976" lon="5.57173">
        <ele>324.3</ele>
        <time>2022-05-03T10:46:23Z</time>
      </trkpt>
      <trkpt lat="46.63981" lon="5.57172">
        <ele>324</ele>
        <time>2022-05-03T10:46:27Z</time>
      </trkpt>
      <trkpt lat="46.63987" lon="5.57173">
        <ele>323.6</ele>
        <time>2022-05-03T10:46:32Z</time>
      </trkpt>
      <trkpt lat="46.63992" lon="5.57175">
        <ele>323.4</ele>
        <time>2022-05-03T10:46:37Z</time>
      </trkpt>
      <trkpt lat="46.63997" lon="5.57176">
        <ele>323.2</ele>
        <time>2022-05-03T10:46:43Z</time>
      </trkpt>
      <trkpt lat="46.64002" lon="5.57178">
        <ele>322.9</ele>
        <time>2022-05-03T10:46:48Z</time>
      </trkpt>
      <trkpt lat="46.64007" lon="5.57179">
        <ele>323.1</ele>
        <time>2022-05-03T10:46:52Z</time>
      </trkpt>
      <trkpt lat="46.64012" lon="5.5718">
        <ele>323.1</ele>
        <time>2022-05-03T10:46:56Z</time>
      </trkpt>
      <trkpt lat="46.64017" lon="5.5718">
        <ele>322.7</ele>
        <time>2022-05-03T10:47:01Z</time>
      </trkpt>
      <trkpt lat="46.64021" lon="5.5718">
        <ele>322.6</ele>
        <time>2022-05-03T10:47:06Z</time>
      </trkpt>
      <trkpt lat="46.64026" lon="5.57178">
        <ele>322.7</ele>
        <time>2022-05-03T10:47:11Z</time>
      </trkpt>
      <trkpt lat="46.6403" lon="5.57175">
        <ele>322.9</ele>
        <time>2022-05-03T10:47:16Z</time>
      </trkpt>
      <trkpt lat="46.64035" lon="5.57173">
        <ele>323.1</ele>
        <time>2022-05-03T10:47:23Z</time>
      </trkpt>
      <trkpt lat="46.6404" lon="5.57171">
        <ele>323.2</ele>
        <time>2022-05-03T10:47:28Z</time>
      </trkpt>
      <trkpt lat="46.64045" lon="5.57167">
        <ele>323</ele>
        <time>2022-05-03T10:47:33Z</time>
      </trkpt>
      <trkpt lat="46.64049" lon="5.57167">
        <ele>323.2</ele>
        <time>2022-05-03T10:47:36Z</time>
      </trkpt>
      <trkpt lat="46.64054" lon="5.57166">
        <ele>323.1</ele>
        <time>2022-05-03T10:47:40Z</time>
      </trkpt>
      <trkpt lat="46.64058" lon="5.57162">
        <ele>322.8</ele>
        <time>2022-05-03T10:47:45Z</time>
      </trkpt>
      <trkpt lat="46.64062" lon="5.57158">
        <ele>323</ele>
        <time>2022-05-03T10:47:50Z</time>
      </trkpt>
      <trkpt lat="46.64066" lon="5.57154">
        <ele>323.8</ele>
        <time>2022-05-03T10:47:55Z</time>
      </trkpt>
      <trkpt lat="46.6407" lon="5.57149">
        <ele>324.7</ele>
        <time>2022-05-03T10:48:00Z</time>
      </trkpt>
      <trkpt lat="46.64074" lon="5.57144">
        <ele>325.1</ele>
        <time>2022-05-03T10:48:04Z</time>
      </trkpt>
      <trkpt lat="46.64078" lon="5.57141">
        <ele>325.1</ele>
        <time>2022-05-03T10:48:08Z</time>
      </trkpt>
      <trkpt lat="46.64082" lon="5.57136">
        <ele>325</ele>
        <time>2022-05-03T10:48:13Z</time>
      </trkpt>
      <trkpt lat="46.64085" lon="5.5713">
        <ele>324.6</ele>
        <time>2022-05-03T10:48:19Z</time>
      </trkpt>
      <trkpt lat="46.64089" lon="5.57126">
        <ele>324.2</ele>
        <time>2022-05-03T10:48:23Z</time>
      </trkpt>
      <trkpt lat="46.64093" lon="5.5712">
        <ele>323.3</ele>
        <time>2022-05-03T10:48:28Z</time>
      </trkpt>
      <trkpt lat="46.64096" lon="5.57113">
        <ele>322.4</ele>
        <time>2022-05-03T10:48:32Z</time>
      </trkpt>
      <trkpt lat="46.64099" lon="5.57107">
        <ele>321.7</ele>
        <time>2022-05-03T10:48:37Z</time>
      </trkpt>
      <trkpt lat="46.64103" lon="5.57103">
        <ele>321.4</ele>
        <time>2022-05-03T10:48:42Z</time>
      </trkpt>
      <trkpt lat="46.64107" lon="5.57098">
        <ele>320.9</ele>
        <time>2022-05-03T10:48:47Z</time>
      </trkpt>
      <trkpt lat="46.64111" lon="5.57093">
        <ele>321</ele>
        <time>2022-05-03T10:48:53Z</time>
      </trkpt>
      <trkpt lat="46.64113" lon="5.57086">
        <ele>321.1</ele>
        <time>2022-05-03T10:48:58Z</time>
      </trkpt>
      <trkpt lat="46.64116" lon="5.57079">
        <ele>321</ele>
        <time>2022-05-03T10:49:03Z</time>
      </trkpt>
      <trkpt lat="46.64117" lon="5.57073">
        <ele>321.2</ele>
        <time>2022-05-03T10:49:07Z</time>
      </trkpt>
      <trkpt lat="46.6412" lon="5.57067">
        <ele>321.7</ele>
        <time>2022-05-03T10:49:12Z</time>
      </trkpt>
      <trkpt lat="46.64125" lon="5.57062">
        <ele>322.6</ele>
        <time>2022-05-03T10:49:17Z</time>
      </trkpt>
      <trkpt lat="46.64129" lon="5.57057">
        <ele>323.6</ele>
        <time>2022-05-03T10:49:22Z</time>
      </trkpt>
      <trkpt lat="46.64132" lon="5.57051">
        <ele>324.4</ele>
        <time>2022-05-03T10:49:27Z</time>
      </trkpt>
      <trkpt lat="46.64135" lon="5.57046">
        <ele>324.9</ele>
        <time>2022-05-03T10:49:31Z</time>
      </trkpt>
      <trkpt lat="46.64138" lon="5.57041">
        <ele>325.7</ele>
        <time>2022-05-03T10:49:36Z</time>
      </trkpt>
      <trkpt lat="46.64143" lon="5.57039">
        <ele>327.5</ele>
        <time>2022-05-03T10:49:51Z</time>
      </trkpt>
      <trkpt lat="46.64147" lon="5.57039">
        <ele>328.3</ele>
        <time>2022-05-03T10:50:01Z</time>
      </trkpt>
      <trkpt lat="46.64152" lon="5.57038">
        <ele>329.6</ele>
        <time>2022-05-03T10:50:07Z</time>
      </trkpt>
      <trkpt lat="46.64154" lon="5.57032">
        <ele>330</ele>
        <time>2022-05-03T10:50:14Z</time>
      </trkpt>
      <trkpt lat="46.64158" lon="5.57026">
        <ele>330</ele>
        <time>2022-05-03T10:50:19Z</time>
      </trkpt>
      <trkpt lat="46.64162" lon="5.57022">
        <ele>330.2</ele>
        <time>2022-05-03T10:50:22Z</time>
      </trkpt>
      <trkpt lat="46.64166" lon="5.57023">
        <ele>330.8</ele>
        <time>2022-05-03T10:50:29Z</time>
      </trkpt>
      <trkpt lat="46.6417" lon="5.57025">
        <ele>330.2</ele>
        <time>2022-05-03T10:50:32Z</time>
      </trkpt>
      <trkpt lat="46.64175" lon="5.57021">
        <ele>328.4</ele>
        <time>2022-05-03T10:50:38Z</time>
      </trkpt>
      <trkpt lat="46.64178" lon="5.57017">
        <ele>328.5</ele>
        <time>2022-05-03T10:50:43Z</time>
      </trkpt>
      <trkpt lat="46.6418" lon="5.57011">
        <ele>329.1</ele>
        <time>2022-05-03T10:50:49Z</time>
      </trkpt>
      <trkpt lat="46.64184" lon="5.57006">
        <ele>330</ele>
        <time>2022-05-03T10:50:55Z</time>
      </trkpt>
      <trkpt lat="46.64188" lon="5.57001">
        <ele>330.5</ele>
        <time>2022-05-03T10:51:00Z</time>
      </trkpt>
      <trkpt lat="46.6419" lon="5.56995">
        <ele>330.7</ele>
        <time>2022-05-03T10:51:04Z</time>
      </trkpt>
      <trkpt lat="46.64195" lon="5.5699">
        <ele>331</ele>
        <time>2022-05-03T10:51:10Z</time>
      </trkpt>
      <trkpt lat="46.64199" lon="5.56986">
        <ele>331.1</ele>
        <time>2022-05-03T10:51:14Z</time>
      </trkpt>
      <trkpt lat="46.64203" lon="5.56981">
        <ele>331.2</ele>
        <time>2022-05-03T10:51:18Z</time>
      </trkpt>
      <trkpt lat="46.64207" lon="5.56976">
        <ele>331.4</ele>
        <time>2022-05-03T10:51:22Z</time>
      </trkpt>
      <trkpt lat="46.64209" lon="5.5697">
        <ele>331.2</ele>
        <time>2022-05-03T10:51:26Z</time>
      </trkpt>
      <trkpt lat="46.64213" lon="5.56965">
        <ele>330.5</ele>
        <time>2022-05-03T10:51:31Z</time>
      </trkpt>
      <trkpt lat="46.64218" lon="5.5696">
        <ele>329.8</ele>
        <time>2022-05-03T10:51:37Z</time>
      </trkpt>
      <trkpt lat="46.64221" lon="5.56955">
        <ele>329.2</ele>
        <time>2022-05-03T10:51:41Z</time>
      </trkpt>
      <trkpt lat="46.64225" lon="5.56951">
        <ele>329</ele>
        <time>2022-05-03T10:51:46Z</time>
      </trkpt>
      <trkpt lat="46.64229" lon="5.56945">
        <ele>329.2</ele>
        <time>2022-05-03T10:51:50Z</time>
      </trkpt>
      <trkpt lat="46.64234" lon="5.56943">
        <ele>329.3</ele>
        <time>2022-05-03T10:51:54Z</time>
      </trkpt>
      <trkpt lat="46.64237" lon="5.56937">
        <ele>329</ele>
        <time>2022-05-03T10:51:58Z</time>
      </trkpt>
      <trkpt lat="46.6424" lon="5.56932">
        <ele>328.8</ele>
        <time>2022-05-03T10:52:02Z</time>
      </trkpt>
      <trkpt lat="46.64244" lon="5.56926">
        <ele>328.6</ele>
        <time>2022-05-03T10:52:07Z</time>
      </trkpt>
      <trkpt lat="46.64249" lon="5.56922">
        <ele>328.6</ele>
        <time>2022-05-03T10:52:11Z</time>
      </trkpt>
      <trkpt lat="46.64253" lon="5.56919">
        <ele>328.6</ele>
        <time>2022-05-03T10:52:14Z</time>
      </trkpt>
      <trkpt lat="46.64257" lon="5.56916">
        <ele>328.6</ele>
        <time>2022-05-03T10:52:17Z</time>
      </trkpt>
      <trkpt lat="46.64261" lon="5.56912">
        <ele>328.4</ele>
        <time>2022-05-03T10:52:21Z</time>
      </trkpt>
      <trkpt lat="46.64266" lon="5.56908">
        <ele>328.3</ele>
        <time>2022-05-03T10:52:25Z</time>
      </trkpt>
      <trkpt lat="46.64271" lon="5.56905">
        <ele>328.1</ele>
        <time>2022-05-03T10:52:29Z</time>
      </trkpt>
      <trkpt lat="46.64275" lon="5.56901">
        <ele>327.2</ele>
        <time>2022-05-03T10:52:34Z</time>
      </trkpt>
      <trkpt lat="46.64278" lon="5.56896">
        <ele>326.4</ele>
        <time>2022-05-03T10:52:38Z</time>
      </trkpt>
      <trkpt lat="46.64281" lon="5.56891">
        <ele>326.3</ele>
        <time>2022-05-03T10:52:42Z</time>
      </trkpt>
      <trkpt lat="46.64286" lon="5.56886">
        <ele>326.4</ele>
        <time>2022-05-03T10:52:47Z</time>
      </trkpt>
      <trkpt lat="46.64291" lon="5.56883">
        <ele>326.7</ele>
        <time>2022-05-03T10:52:52Z</time>
      </trkpt>
      <trkpt lat="46.64294" lon="5.56878">
        <ele>327.2</ele>
        <time>2022-05-03T10:52:56Z</time>
      </trkpt>
      <trkpt lat="46.64297" lon="5.56873">
        <ele>327.9</ele>
        <time>2022-05-03T10:53:00Z</time>
      </trkpt>
      <trkpt lat="46.643" lon="5.56867">
        <ele>328.4</ele>
        <time>2022-05-03T10:53:04Z</time>
      </trkpt>
      <trkpt lat="46.64303" lon="5.56862">
        <ele>329</ele>
        <time>2022-05-03T10:53:08Z</time>
      </trkpt>
      <trkpt lat="46.64308" lon="5.56858">
        <ele>330.1</ele>
        <time>2022-05-03T10:53:14Z</time>
      </trkpt>
      <trkpt lat="46.64312" lon="5.56856">
        <ele>330.8</ele>
        <time>2022-05-03T10:53:18Z</time>
      </trkpt>
      <trkpt lat="46.64317" lon="5.56851">
        <ele>331.9</ele>
        <time>2022-05-03T10:53:23Z</time>
      </trkpt>
      <trkpt lat="46.64321" lon="5.56848">
        <ele>332.7</ele>
        <time>2022-05-03T10:53:27Z</time>
      </trkpt>
      <trkpt lat="46.64325" lon="5.56843">
        <ele>333.9</ele>
        <time>2022-05-03T10:53:31Z</time>
      </trkpt>
      <trkpt lat="46.64329" lon="5.56838">
        <ele>334.9</ele>
        <time>2022-05-03T10:53:36Z</time>
      </trkpt>
      <trkpt lat="46.64334" lon="5.56835">
        <ele>335.5</ele>
        <time>2022-05-03T10:53:41Z</time>
      </trkpt>
      <trkpt lat="46.64338" lon="5.56833">
        <ele>335.7</ele>
        <time>2022-05-03T10:53:45Z</time>
      </trkpt>
      <trkpt lat="46.64343" lon="5.56831">
        <ele>336.1</ele>
        <time>2022-05-03T10:53:50Z</time>
      </trkpt>
      <trkpt lat="46.64347" lon="5.56827">
        <ele>336.9</ele>
        <time>2022-05-03T10:53:56Z</time>
      </trkpt>
      <trkpt lat="46.6435" lon="5.56822">
        <ele>336.9</ele>
        <time>2022-05-03T10:54:00Z</time>
      </trkpt>
      <trkpt lat="46.64353" lon="5.56817">
        <ele>337</ele>
        <time>2022-05-03T10:54:04Z</time>
      </trkpt>
      <trkpt lat="46.64357" lon="5.56811">
        <ele>337.1</ele>
        <time>2022-05-03T10:54:09Z</time>
      </trkpt>
      <trkpt lat="46.64358" lon="5.56804">
        <ele>336.7</ele>
        <time>2022-05-03T10:54:14Z</time>
      </trkpt>
      <trkpt lat="46.64361" lon="5.56798">
        <ele>335.6</ele>
        <time>2022-05-03T10:54:21Z</time>
      </trkpt>
      <trkpt lat="46.64362" lon="5.56792">
        <ele>334.3</ele>
        <time>2022-05-03T10:54:27Z</time>
      </trkpt>
      <trkpt lat="46.64365" lon="5.56786">
        <ele>333.3</ele>
        <time>2022-05-03T10:54:32Z</time>
      </trkpt>
      <trkpt lat="46.64369" lon="5.5678">
        <ele>332.5</ele>
        <time>2022-05-03T10:54:37Z</time>
      </trkpt>
      <trkpt lat="46.64368" lon="5.56774">
        <ele>332.2</ele>
        <time>2022-05-03T10:54:45Z</time>
      </trkpt>
      <trkpt lat="46.64364" lon="5.5677">
        <ele>332.7</ele>
        <time>2022-05-03T10:54:52Z</time>
      </trkpt>
      <trkpt lat="46.6436" lon="5.56765">
        <ele>331.6</ele>
        <time>2022-05-03T10:55:10Z</time>
      </trkpt>
      <trkpt lat="46.64358" lon="5.56759">
        <ele>332.4</ele>
        <time>2022-05-03T10:55:16Z</time>
      </trkpt>
      <trkpt lat="46.64353" lon="5.56757">
        <ele>333.2</ele>
        <time>2022-05-03T10:55:22Z</time>
      </trkpt>
      <trkpt lat="46.6435" lon="5.56752">
        <ele>333.1</ele>
        <time>2022-05-03T10:55:27Z</time>
      </trkpt>
      <trkpt lat="46.64348" lon="5.56745">
        <ele>332</ele>
        <time>2022-05-03T10:55:32Z</time>
      </trkpt>
      <trkpt lat="46.64344" lon="5.56743">
        <ele>330</ele>
        <time>2022-05-03T10:55:38Z</time>
      </trkpt>
      <trkpt lat="46.64342" lon="5.56736">
        <ele>327.3</ele>
        <time>2022-05-03T10:55:45Z</time>
      </trkpt>
      <trkpt lat="46.64338" lon="5.5673">
        <ele>325.3</ele>
        <time>2022-05-03T10:55:51Z</time>
      </trkpt>
      <trkpt lat="46.64336" lon="5.56723">
        <ele>323.5</ele>
        <time>2022-05-03T10:55:56Z</time>
      </trkpt>
      <trkpt lat="46.64336" lon="5.56716">
        <ele>321.3</ele>
        <time>2022-05-03T10:56:01Z</time>
      </trkpt>
      <trkpt lat="46.64333" lon="5.5671">
        <ele>318.2</ele>
        <time>2022-05-03T10:56:10Z</time>
      </trkpt>
      <trkpt lat="46.64329" lon="5.56707">
        <ele>317.1</ele>
        <time>2022-05-03T10:56:15Z</time>
      </trkpt>
      <trkpt lat="46.64325" lon="5.56705">
        <ele>316.2</ele>
        <time>2022-05-03T10:56:19Z</time>
      </trkpt>
      <trkpt lat="46.64322" lon="5.56698">
        <ele>315.2</ele>
        <time>2022-05-03T10:56:28Z</time>
      </trkpt>
      <trkpt lat="46.64319" lon="5.5669">
        <ele>314.6</ele>
        <time>2022-05-03T10:56:33Z</time>
      </trkpt>
      <trkpt lat="46.64315" lon="5.56685">
        <ele>313.6</ele>
        <time>2022-05-03T10:56:37Z</time>
      </trkpt>
      <trkpt lat="46.64311" lon="5.5668">
        <ele>312.6</ele>
        <time>2022-05-03T10:56:41Z</time>
      </trkpt>
      <trkpt lat="46.64307" lon="5.56675">
        <ele>310.8</ele>
        <time>2022-05-03T10:56:46Z</time>
      </trkpt>
      <trkpt lat="46.64303" lon="5.5667">
        <ele>309.1</ele>
        <time>2022-05-03T10:56:50Z</time>
      </trkpt>
      <trkpt lat="46.64298" lon="5.56668">
        <ele>308.1</ele>
        <time>2022-05-03T10:56:54Z</time>
      </trkpt>
      <trkpt lat="46.64294" lon="5.56664">
        <ele>307.3</ele>
        <time>2022-05-03T10:56:59Z</time>
      </trkpt>
      <trkpt lat="46.64291" lon="5.56659">
        <ele>306.6</ele>
        <time>2022-05-03T10:57:05Z</time>
      </trkpt>
      <trkpt lat="46.64287" lon="5.56656">
        <ele>306.2</ele>
        <time>2022-05-03T10:57:10Z</time>
      </trkpt>
      <trkpt lat="46.64284" lon="5.56651">
        <ele>306.2</ele>
        <time>2022-05-03T10:57:16Z</time>
      </trkpt>
      <trkpt lat="46.6428" lon="5.56645">
        <ele>307.1</ele>
        <time>2022-05-03T10:57:21Z</time>
      </trkpt>
      <trkpt lat="46.64278" lon="5.56638">
        <ele>307.4</ele>
        <time>2022-05-03T10:57:28Z</time>
      </trkpt>
      <trkpt lat="46.64273" lon="5.56634">
        <ele>307.4</ele>
        <time>2022-05-03T10:57:32Z</time>
      </trkpt>
      <trkpt lat="46.64269" lon="5.5663">
        <ele>307.8</ele>
        <time>2022-05-03T10:57:37Z</time>
      </trkpt>
      <trkpt lat="46.64268" lon="5.56623">
        <ele>307.4</ele>
        <time>2022-05-03T10:57:46Z</time>
      </trkpt>
      <trkpt lat="46.64264" lon="5.56619">
        <ele>307</ele>
        <time>2022-05-03T10:57:51Z</time>
      </trkpt>
      <trkpt lat="46.6426" lon="5.56614">
        <ele>306.4</ele>
        <time>2022-05-03T10:57:55Z</time>
      </trkpt>
      <trkpt lat="46.64257" lon="5.56609">
        <ele>305</ele>
        <time>2022-05-03T10:58:05Z</time>
      </trkpt>
      <trkpt lat="46.64257" lon="5.56602">
        <ele>304.6</ele>
        <time>2022-05-03T10:58:09Z</time>
      </trkpt>
      <trkpt lat="46.64256" lon="5.56595">
        <ele>303.5</ele>
        <time>2022-05-03T10:58:14Z</time>
      </trkpt>
      <trkpt lat="46.64252" lon="5.56591">
        <ele>302.5</ele>
        <time>2022-05-03T10:58:19Z</time>
      </trkpt>
      <trkpt lat="46.6425" lon="5.56584">
        <ele>301.4</ele>
        <time>2022-05-03T10:58:23Z</time>
      </trkpt>
      <trkpt lat="46.64247" lon="5.56579">
        <ele>300.8</ele>
        <time>2022-05-03T10:58:26Z</time>
      </trkpt>
      <trkpt lat="46.64243" lon="5.56572">
        <ele>300.4</ele>
        <time>2022-05-03T10:58:30Z</time>
      </trkpt>
      <trkpt lat="46.64241" lon="5.56566">
        <ele>300.2</ele>
        <time>2022-05-03T10:58:33Z</time>
      </trkpt>
      <trkpt lat="46.64238" lon="5.56562">
        <ele>299.4</ele>
        <time>2022-05-03T10:58:38Z</time>
      </trkpt>
      <trkpt lat="46.64234" lon="5.56557">
        <ele>298.6</ele>
        <time>2022-05-03T10:58:43Z</time>
      </trkpt>
      <trkpt lat="46.6423" lon="5.56552">
        <ele>298.1</ele>
        <time>2022-05-03T10:58:47Z</time>
      </trkpt>
      <trkpt lat="46.64227" lon="5.56546">
        <ele>297.9</ele>
        <time>2022-05-03T10:58:51Z</time>
      </trkpt>
      <trkpt lat="46.64222" lon="5.56543">
        <ele>297.9</ele>
        <time>2022-05-03T10:58:58Z</time>
      </trkpt>
      <trkpt lat="46.64218" lon="5.56538">
        <ele>297.8</ele>
        <time>2022-05-03T10:59:04Z</time>
      </trkpt>
      <trkpt lat="46.64213" lon="5.56535">
        <ele>297.4</ele>
        <time>2022-05-03T10:59:08Z</time>
      </trkpt>
      <trkpt lat="46.64209" lon="5.56533">
        <ele>297.1</ele>
        <time>2022-05-03T10:59:11Z</time>
      </trkpt>
      <trkpt lat="46.64204" lon="5.56531">
        <ele>296.5</ele>
        <time>2022-05-03T10:59:15Z</time>
      </trkpt>
      <trkpt lat="46.642" lon="5.5653">
        <ele>296.2</ele>
        <time>2022-05-03T10:59:19Z</time>
      </trkpt>
      <trkpt lat="46.64194" lon="5.56526">
        <ele>295.4</ele>
        <time>2022-05-03T10:59:23Z</time>
      </trkpt>
      <trkpt lat="46.6419" lon="5.56523">
        <ele>295</ele>
        <time>2022-05-03T10:59:27Z</time>
      </trkpt>
      <trkpt lat="46.64187" lon="5.56518">
        <ele>294.5</ele>
        <time>2022-05-03T10:59:32Z</time>
      </trkpt>
      <trkpt lat="46.64185" lon="5.56511">
        <ele>294.3</ele>
        <time>2022-05-03T10:59:37Z</time>
      </trkpt>
      <trkpt lat="46.64186" lon="5.56503">
        <ele>293.8</ele>
        <time>2022-05-03T10:59:41Z</time>
      </trkpt>
      <trkpt lat="46.64186" lon="5.56496">
        <ele>292.9</ele>
        <time>2022-05-03T10:59:45Z</time>
      </trkpt>
      <trkpt lat="46.64188" lon="5.56489">
        <ele>292.1</ele>
        <time>2022-05-03T10:59:49Z</time>
      </trkpt>
      <trkpt lat="46.64189" lon="5.56483">
        <ele>291.4</ele>
        <time>2022-05-03T10:59:52Z</time>
      </trkpt>
      <trkpt lat="46.64192" lon="5.56478">
        <ele>290.5</ele>
        <time>2022-05-03T10:59:56Z</time>
      </trkpt>
      <trkpt lat="46.64194" lon="5.56471">
        <ele>290.1</ele>
        <time>2022-05-03T11:00:01Z</time>
      </trkpt>
      <trkpt lat="46.64196" lon="5.56464">
        <ele>290.2</ele>
        <time>2022-05-03T11:00:06Z</time>
      </trkpt>
      <trkpt lat="46.64199" lon="5.56459">
        <ele>290.4</ele>
        <time>2022-05-03T11:00:11Z</time>
      </trkpt>
      <trkpt lat="46.64202" lon="5.56452">
        <ele>289.9</ele>
        <time>2022-05-03T11:00:16Z</time>
      </trkpt>
      <trkpt lat="46.64204" lon="5.56446">
        <ele>288.7</ele>
        <time>2022-05-03T11:00:21Z</time>
      </trkpt>
      <trkpt lat="46.64204" lon="5.56439">
        <ele>287.7</ele>
        <time>2022-05-03T11:00:26Z</time>
      </trkpt>
      <trkpt lat="46.64205" lon="5.56432">
        <ele>287.6</ele>
        <time>2022-05-03T11:00:30Z</time>
      </trkpt>
      <trkpt lat="46.64207" lon="5.56426">
        <ele>287.6</ele>
        <time>2022-05-03T11:00:37Z</time>
      </trkpt>
      <trkpt lat="46.64212" lon="5.56424">
        <ele>288</ele>
        <time>2022-05-03T11:00:42Z</time>
      </trkpt>
      <trkpt lat="46.64217" lon="5.56425">
        <ele>288.6</ele>
        <time>2022-05-03T11:00:46Z</time>
      </trkpt>
      <trkpt lat="46.64221" lon="5.56425">
        <ele>289.3</ele>
        <time>2022-05-03T11:00:50Z</time>
      </trkpt>
      <trkpt lat="46.64226" lon="5.56427">
        <ele>291</ele>
        <time>2022-05-03T11:00:55Z</time>
      </trkpt>
      <trkpt lat="46.6423" lon="5.56429">
        <ele>292.2</ele>
        <time>2022-05-03T11:01:00Z</time>
      </trkpt>
      <trkpt lat="46.64236" lon="5.56429">
        <ele>292.7</ele>
        <time>2022-05-03T11:01:05Z</time>
      </trkpt>
      <trkpt lat="46.64241" lon="5.56428">
        <ele>293.2</ele>
        <time>2022-05-03T11:01:09Z</time>
      </trkpt>
      <trkpt lat="46.64246" lon="5.56426">
        <ele>294</ele>
        <time>2022-05-03T11:01:13Z</time>
      </trkpt>
      <trkpt lat="46.64252" lon="5.56426">
        <ele>295.1</ele>
        <time>2022-05-03T11:01:17Z</time>
      </trkpt>
      <trkpt lat="46.64257" lon="5.56427">
        <ele>296.2</ele>
        <time>2022-05-03T11:01:21Z</time>
      </trkpt>
      <trkpt lat="46.64262" lon="5.56428">
        <ele>296.6</ele>
        <time>2022-05-03T11:01:26Z</time>
      </trkpt>
      <trkpt lat="46.64267" lon="5.56429">
        <ele>297.4</ele>
        <time>2022-05-03T11:01:31Z</time>
      </trkpt>
      <trkpt lat="46.64271" lon="5.56431">
        <ele>298.1</ele>
        <time>2022-05-03T11:01:38Z</time>
      </trkpt>
      <trkpt lat="46.64277" lon="5.56431">
        <ele>298.8</ele>
        <time>2022-05-03T11:01:43Z</time>
      </trkpt>
      <trkpt lat="46.64282" lon="5.56432">
        <ele>299.3</ele>
        <time>2022-05-03T11:01:49Z</time>
      </trkpt>
      <trkpt lat="46.64287" lon="5.56431">
        <ele>300.9</ele>
        <time>2022-05-03T11:01:55Z</time>
      </trkpt>
      <trkpt lat="46.64292" lon="5.56432">
        <ele>302.4</ele>
        <time>2022-05-03T11:02:00Z</time>
      </trkpt>
      <trkpt lat="46.64297" lon="5.56431">
        <ele>303.5</ele>
        <time>2022-05-03T11:02:05Z</time>
      </trkpt>
      <trkpt lat="46.64302" lon="5.56431">
        <ele>303.9</ele>
        <time>2022-05-03T11:02:09Z</time>
      </trkpt>
      <trkpt lat="46.64307" lon="5.56433">
        <ele>304.6</ele>
        <time>2022-05-03T11:02:14Z</time>
      </trkpt>
      <trkpt lat="46.64311" lon="5.56435">
        <ele>305.7</ele>
        <time>2022-05-03T11:02:23Z</time>
      </trkpt>
      <trkpt lat="46.64316" lon="5.56437">
        <ele>306</ele>
        <time>2022-05-03T11:02:29Z</time>
      </trkpt>
      <trkpt lat="46.64321" lon="5.56438">
        <ele>306.7</ele>
        <time>2022-05-03T11:02:35Z</time>
      </trkpt>
      <trkpt lat="46.64326" lon="5.56439">
        <ele>308.1</ele>
        <time>2022-05-03T11:02:40Z</time>
      </trkpt>
      <trkpt lat="46.64331" lon="5.5644">
        <ele>309.7</ele>
        <time>2022-05-03T11:02:45Z</time>
      </trkpt>
      <trkpt lat="46.64335" lon="5.56443">
        <ele>311.3</ele>
        <time>2022-05-03T11:02:53Z</time>
      </trkpt>
      <trkpt lat="46.6434" lon="5.56444">
        <ele>311.7</ele>
        <time>2022-05-03T11:02:59Z</time>
      </trkpt>
      <trkpt lat="46.64344" lon="5.56444">
        <ele>312</ele>
        <time>2022-05-03T11:03:04Z</time>
      </trkpt>
      <trkpt lat="46.64349" lon="5.56446">
        <ele>312.4</ele>
        <time>2022-05-03T11:03:12Z</time>
      </trkpt>
      <trkpt lat="46.64353" lon="5.56448">
        <ele>313.6</ele>
        <time>2022-05-03T11:03:18Z</time>
      </trkpt>
      <trkpt lat="46.64359" lon="5.56449">
        <ele>315.5</ele>
        <time>2022-05-03T11:03:23Z</time>
      </trkpt>
      <trkpt lat="46.64364" lon="5.56451">
        <ele>317.7</ele>
        <time>2022-05-03T11:03:29Z</time>
      </trkpt>
      <trkpt lat="46.64369" lon="5.56454">
        <ele>318.9</ele>
        <time>2022-05-03T11:03:34Z</time>
      </trkpt>
      <trkpt lat="46.64373" lon="5.56454">
        <ele>319</ele>
        <time>2022-05-03T11:03:45Z</time>
      </trkpt>
      <trkpt lat="46.64378" lon="5.56457">
        <ele>318.2</ele>
        <time>2022-05-03T11:03:51Z</time>
      </trkpt>
      <trkpt lat="46.64382" lon="5.56459">
        <ele>318.1</ele>
        <time>2022-05-03T11:03:55Z</time>
      </trkpt>
      <trkpt lat="46.64387" lon="5.5646">
        <ele>318.2</ele>
        <time>2022-05-03T11:03:58Z</time>
      </trkpt>
      <trkpt lat="46.64392" lon="5.56462">
        <ele>318.5</ele>
        <time>2022-05-03T11:04:01Z</time>
      </trkpt>
      <trkpt lat="46.64396" lon="5.56464">
        <ele>319.3</ele>
        <time>2022-05-03T11:04:07Z</time>
      </trkpt>
      <trkpt lat="46.64401" lon="5.56463">
        <ele>321.1</ele>
        <time>2022-05-03T11:04:19Z</time>
      </trkpt>
      <trkpt lat="46.64406" lon="5.56465">
        <ele>321.7</ele>
        <time>2022-05-03T11:04:27Z</time>
      </trkpt>
      <trkpt lat="46.6441" lon="5.5647">
        <ele>321.9</ele>
        <time>2022-05-03T11:04:37Z</time>
      </trkpt>
      <trkpt lat="46.64415" lon="5.56473">
        <ele>321.8</ele>
        <time>2022-05-03T11:04:44Z</time>
      </trkpt>
      <trkpt lat="46.6442" lon="5.56475">
        <ele>321.9</ele>
        <time>2022-05-03T11:04:49Z</time>
      </trkpt>
      <trkpt lat="46.64425" lon="5.56476">
        <ele>321.7</ele>
        <time>2022-05-03T11:04:57Z</time>
      </trkpt>
      <trkpt lat="46.64431" lon="5.56478">
        <ele>321.9</ele>
        <time>2022-05-03T11:05:01Z</time>
      </trkpt>
      <trkpt lat="46.64435" lon="5.5648">
        <ele>322.8</ele>
        <time>2022-05-03T11:05:07Z</time>
      </trkpt>
      <trkpt lat="46.6444" lon="5.56485">
        <ele>325.8</ele>
        <time>2022-05-03T11:05:14Z</time>
      </trkpt>
      <trkpt lat="46.64444" lon="5.5649">
        <ele>328.7</ele>
        <time>2022-05-03T11:05:20Z</time>
      </trkpt>
      <trkpt lat="46.64448" lon="5.56493">
        <ele>331</ele>
        <time>2022-05-03T11:05:25Z</time>
      </trkpt>
      <trkpt lat="46.64452" lon="5.56496">
        <ele>332.8</ele>
        <time>2022-05-03T11:05:30Z</time>
      </trkpt>
      <trkpt lat="46.64458" lon="5.56496">
        <ele>334.2</ele>
        <time>2022-05-03T11:05:34Z</time>
      </trkpt>
      <trkpt lat="46.64463" lon="5.56494">
        <ele>335.3</ele>
        <time>2022-05-03T11:05:38Z</time>
      </trkpt>
      <trkpt lat="46.64468" lon="5.56493">
        <ele>336.2</ele>
        <time>2022-05-03T11:05:45Z</time>
      </trkpt>
      <trkpt lat="46.64473" lon="5.56494">
        <ele>335.8</ele>
        <time>2022-05-03T11:05:50Z</time>
      </trkpt>
      <trkpt lat="46.64477" lon="5.56499">
        <ele>335.3</ele>
        <time>2022-05-03T11:05:55Z</time>
      </trkpt>
      <trkpt lat="46.64482" lon="5.565">
        <ele>335</ele>
        <time>2022-05-03T11:06:00Z</time>
      </trkpt>
      <trkpt lat="46.64487" lon="5.56497">
        <ele>335</ele>
        <time>2022-05-03T11:06:06Z</time>
      </trkpt>
      <trkpt lat="46.64491" lon="5.56495">
        <ele>335.2</ele>
        <time>2022-05-03T11:06:11Z</time>
      </trkpt>
      <trkpt lat="46.64497" lon="5.56494">
        <ele>335.4</ele>
        <time>2022-05-03T11:06:17Z</time>
      </trkpt>
      <trkpt lat="46.64502" lon="5.56492">
        <ele>335.7</ele>
        <time>2022-05-03T11:06:21Z</time>
      </trkpt>
      <trkpt lat="46.64507" lon="5.56491">
        <ele>336.4</ele>
        <time>2022-05-03T11:06:27Z</time>
      </trkpt>
      <trkpt lat="46.64512" lon="5.5649">
        <ele>336.7</ele>
        <time>2022-05-03T11:06:33Z</time>
      </trkpt>
      <trkpt lat="46.64517" lon="5.56488">
        <ele>337.1</ele>
        <time>2022-05-03T11:06:38Z</time>
      </trkpt>
      <trkpt lat="46.64522" lon="5.5649">
        <ele>337.9</ele>
        <time>2022-05-03T11:06:42Z</time>
      </trkpt>
      <trkpt lat="46.64527" lon="5.56491">
        <ele>339.6</ele>
        <time>2022-05-03T11:06:48Z</time>
      </trkpt>
      <trkpt lat="46.64531" lon="5.5649">
        <ele>340.7</ele>
        <time>2022-05-03T11:06:53Z</time>
      </trkpt>
      <trkpt lat="46.64536" lon="5.56491">
        <ele>341.1</ele>
        <time>2022-05-03T11:06:57Z</time>
      </trkpt>
      <trkpt lat="46.64541" lon="5.56492">
        <ele>341.7</ele>
        <time>2022-05-03T11:07:07Z</time>
      </trkpt>
      <trkpt lat="46.64546" lon="5.56493">
        <ele>341.9</ele>
        <time>2022-05-03T11:07:13Z</time>
      </trkpt>
      <trkpt lat="46.64551" lon="5.56495">
        <ele>342.2</ele>
        <time>2022-05-03T11:07:17Z</time>
      </trkpt>
      <trkpt lat="46.64556" lon="5.56496">
        <ele>342.7</ele>
        <time>2022-05-03T11:07:21Z</time>
      </trkpt>
      <trkpt lat="46.64561" lon="5.56498">
        <ele>342.8</ele>
        <time>2022-05-03T11:07:25Z</time>
      </trkpt>
      <trkpt lat="46.64566" lon="5.565">
        <ele>342.7</ele>
        <time>2022-05-03T11:07:31Z</time>
      </trkpt>
      <trkpt lat="46.6457" lon="5.56504">
        <ele>343.2</ele>
        <time>2022-05-03T11:07:38Z</time>
      </trkpt>
      <trkpt lat="46.64574" lon="5.56505">
        <ele>344.3</ele>
        <time>2022-05-03T11:07:43Z</time>
      </trkpt>
      <trkpt lat="46.64579" lon="5.56506">
        <ele>345.4</ele>
        <time>2022-05-03T11:07:48Z</time>
      </trkpt>
      <trkpt lat="46.64585" lon="5.56505">
        <ele>346.6</ele>
        <time>2022-05-03T11:07:54Z</time>
      </trkpt>
      <trkpt lat="46.64589" lon="5.56507">
        <ele>347.4</ele>
        <time>2022-05-03T11:08:01Z</time>
      </trkpt>
      <trkpt lat="46.64593" lon="5.56505">
        <ele>347.8</ele>
        <time>2022-05-03T11:08:08Z</time>
      </trkpt>
      <trkpt lat="46.64598" lon="5.56501">
        <ele>348.5</ele>
        <time>2022-05-03T11:08:14Z</time>
      </trkpt>
      <trkpt lat="46.64602" lon="5.56497">
        <ele>349.1</ele>
        <time>2022-05-03T11:08:19Z</time>
      </trkpt>
      <trkpt lat="46.64607" lon="5.56495">
        <ele>349.5</ele>
        <time>2022-05-03T11:08:26Z</time>
      </trkpt>
      <trkpt lat="46.64612" lon="5.56496">
        <ele>350.1</ele>
        <time>2022-05-03T11:08:34Z</time>
      </trkpt>
      <trkpt lat="46.64616" lon="5.56493">
        <ele>351.2</ele>
        <time>2022-05-03T11:08:42Z</time>
      </trkpt>
      <trkpt lat="46.64621" lon="5.5649">
        <ele>352</ele>
        <time>2022-05-03T11:08:47Z</time>
      </trkpt>
      <trkpt lat="46.64626" lon="5.56487">
        <ele>352.3</ele>
        <time>2022-05-03T11:08:52Z</time>
      </trkpt>
      <trkpt lat="46.64631" lon="5.56483">
        <ele>352.9</ele>
        <time>2022-05-03T11:08:58Z</time>
      </trkpt>
      <trkpt lat="46.64636" lon="5.56486">
        <ele>353.4</ele>
        <time>2022-05-03T11:09:07Z</time>
      </trkpt>
      <trkpt lat="46.64641" lon="5.56485">
        <ele>352.5</ele>
        <time>2022-05-03T11:09:14Z</time>
      </trkpt>
      <trkpt lat="46.64645" lon="5.56481">
        <ele>351.4</ele>
        <time>2022-05-03T11:09:19Z</time>
      </trkpt>
      <trkpt lat="46.64649" lon="5.56477">
        <ele>351</ele>
        <time>2022-05-03T11:09:23Z</time>
      </trkpt>
      <trkpt lat="46.64653" lon="5.56475">
        <ele>350.8</ele>
        <time>2022-05-03T11:09:27Z</time>
      </trkpt>
      <trkpt lat="46.64658" lon="5.56475">
        <ele>350.6</ele>
        <time>2022-05-03T11:09:30Z</time>
      </trkpt>
      <trkpt lat="46.64662" lon="5.56472">
        <ele>350.3</ele>
        <time>2022-05-03T11:09:34Z</time>
      </trkpt>
      <trkpt lat="46.64667" lon="5.56473">
        <ele>350.4</ele>
        <time>2022-05-03T11:09:41Z</time>
      </trkpt>
      <trkpt lat="46.64672" lon="5.56473">
        <ele>350.5</ele>
        <time>2022-05-03T11:09:46Z</time>
      </trkpt>
      <trkpt lat="46.64676" lon="5.56472">
        <ele>351</ele>
        <time>2022-05-03T11:09:50Z</time>
      </trkpt>
      <trkpt lat="46.64681" lon="5.56474">
        <ele>351.5</ele>
        <time>2022-05-03T11:09:55Z</time>
      </trkpt>
      <trkpt lat="46.64686" lon="5.56475">
        <ele>351.9</ele>
        <time>2022-05-03T11:09:58Z</time>
      </trkpt>
      <trkpt lat="46.64691" lon="5.56478">
        <ele>352.5</ele>
        <time>2022-05-03T11:10:02Z</time>
      </trkpt>
      <trkpt lat="46.64697" lon="5.56481">
        <ele>353.4</ele>
        <time>2022-05-03T11:10:07Z</time>
      </trkpt>
      <trkpt lat="46.64701" lon="5.56484">
        <ele>355</ele>
        <time>2022-05-03T11:10:13Z</time>
      </trkpt>
      <trkpt lat="46.64706" lon="5.56485">
        <ele>357.3</ele>
        <time>2022-05-03T11:10:24Z</time>
      </trkpt>
      <trkpt lat="46.64711" lon="5.56487">
        <ele>359.1</ele>
        <time>2022-05-03T11:10:28Z</time>
      </trkpt>
      <trkpt lat="46.64715" lon="5.56489">
        <ele>361.1</ele>
        <time>2022-05-03T11:10:34Z</time>
      </trkpt>
      <trkpt lat="46.64721" lon="5.5649">
        <ele>362.3</ele>
        <time>2022-05-03T11:10:40Z</time>
      </trkpt>
      <trkpt lat="46.64725" lon="5.56491">
        <ele>363.1</ele>
        <time>2022-05-03T11:10:44Z</time>
      </trkpt>
      <trkpt lat="46.6473" lon="5.56491">
        <ele>363.6</ele>
        <time>2022-05-03T11:10:48Z</time>
      </trkpt>
      <trkpt lat="46.64735" lon="5.5649">
        <ele>364.2</ele>
        <time>2022-05-03T11:10:52Z</time>
      </trkpt>
      <trkpt lat="46.64739" lon="5.56491">
        <ele>365.3</ele>
        <time>2022-05-03T11:10:57Z</time>
      </trkpt>
      <trkpt lat="46.64745" lon="5.56491">
        <ele>366.1</ele>
        <time>2022-05-03T11:11:03Z</time>
      </trkpt>
      <trkpt lat="46.64749" lon="5.56494">
        <ele>365.9</ele>
        <time>2022-05-03T11:11:10Z</time>
      </trkpt>
      <trkpt lat="46.64754" lon="5.56496">
        <ele>366.3</ele>
        <time>2022-05-03T11:11:15Z</time>
      </trkpt>
      <trkpt lat="46.64758" lon="5.565">
        <ele>367.2</ele>
        <time>2022-05-03T11:11:21Z</time>
      </trkpt>
      <trkpt lat="46.64762" lon="5.56503">
        <ele>368.4</ele>
        <time>2022-05-03T11:11:27Z</time>
      </trkpt>
      <trkpt lat="46.64766" lon="5.56506">
        <ele>369</ele>
        <time>2022-05-03T11:11:33Z</time>
      </trkpt>
      <trkpt lat="46.64771" lon="5.56508">
        <ele>368.8</ele>
        <time>2022-05-03T11:11:38Z</time>
      </trkpt>
      <trkpt lat="46.64777" lon="5.56509">
        <ele>368.5</ele>
        <time>2022-05-03T11:11:42Z</time>
      </trkpt>
      <trkpt lat="46.64782" lon="5.56511">
        <ele>368.1</ele>
        <time>2022-05-03T11:11:46Z</time>
      </trkpt>
      <trkpt lat="46.64787" lon="5.56513">
        <ele>367.5</ele>
        <time>2022-05-03T11:11:51Z</time>
      </trkpt>
      <trkpt lat="46.64792" lon="5.56515">
        <ele>366.9</ele>
        <time>2022-05-03T11:11:57Z</time>
      </trkpt>
      <trkpt lat="46.64795" lon="5.5652">
        <ele>366.3</ele>
        <time>2022-05-03T11:12:04Z</time>
      </trkpt>
      <trkpt lat="46.64798" lon="5.56526">
        <ele>367</ele>
        <time>2022-05-03T11:12:09Z</time>
      </trkpt>
      <trkpt lat="46.64801" lon="5.5653">
        <ele>368.2</ele>
        <time>2022-05-03T11:12:15Z</time>
      </trkpt>
      <trkpt lat="46.64806" lon="5.56533">
        <ele>370</ele>
        <time>2022-05-03T11:12:43Z</time>
      </trkpt>
      <trkpt lat="46.64809" lon="5.56538">
        <ele>370.5</ele>
        <time>2022-05-03T11:12:49Z</time>
      </trkpt>
      <trkpt lat="46.64812" lon="5.56544">
        <ele>371.3</ele>
        <time>2022-05-03T11:12:54Z</time>
      </trkpt>
      <trkpt lat="46.64815" lon="5.56549">
        <ele>371.8</ele>
        <time>2022-05-03T11:12:59Z</time>
      </trkpt>
      <trkpt lat="46.6482" lon="5.56553">
        <ele>370.8</ele>
        <time>2022-05-03T11:13:04Z</time>
      </trkpt>
      <trkpt lat="46.64823" lon="5.56558">
        <ele>368.6</ele>
        <time>2022-05-03T11:13:11Z</time>
      </trkpt>
      <trkpt lat="46.64828" lon="5.56557">
        <ele>367.8</ele>
        <time>2022-05-03T11:13:14Z</time>
      </trkpt>
      <trkpt lat="46.64832" lon="5.56556">
        <ele>367.3</ele>
        <time>2022-05-03T11:13:17Z</time>
      </trkpt>
      <trkpt lat="46.64837" lon="5.56558">
        <ele>366.9</ele>
        <time>2022-05-03T11:13:21Z</time>
      </trkpt>
      <trkpt lat="46.64841" lon="5.56563">
        <ele>367.1</ele>
        <time>2022-05-03T11:13:26Z</time>
      </trkpt>
      <trkpt lat="46.64845" lon="5.56566">
        <ele>367.2</ele>
        <time>2022-05-03T11:13:30Z</time>
      </trkpt>
      <trkpt lat="46.6485" lon="5.56569">
        <ele>367.6</ele>
        <time>2022-05-03T11:13:34Z</time>
      </trkpt>
      <trkpt lat="46.64855" lon="5.56572">
        <ele>367.5</ele>
        <time>2022-05-03T11:13:37Z</time>
      </trkpt>
      <trkpt lat="46.6486" lon="5.56574">
        <ele>367.4</ele>
        <time>2022-05-03T11:13:40Z</time>
      </trkpt>
      <trkpt lat="46.64864" lon="5.56577">
        <ele>366.9</ele>
        <time>2022-05-03T11:13:44Z</time>
      </trkpt>
      <trkpt lat="46.64869" lon="5.56581">
        <ele>366</ele>
        <time>2022-05-03T11:13:48Z</time>
      </trkpt>
      <trkpt lat="46.64873" lon="5.56584">
        <ele>365.3</ele>
        <time>2022-05-03T11:13:52Z</time>
      </trkpt>
      <trkpt lat="46.64878" lon="5.56584">
        <ele>364.2</ele>
        <time>2022-05-03T11:13:57Z</time>
      </trkpt>
      <trkpt lat="46.64883" lon="5.56587">
        <ele>362.4</ele>
        <time>2022-05-03T11:14:04Z</time>
      </trkpt>
      <trkpt lat="46.64887" lon="5.5659">
        <ele>361.2</ele>
        <time>2022-05-03T11:14:09Z</time>
      </trkpt>
      <trkpt lat="46.64892" lon="5.56593">
        <ele>360.3</ele>
        <time>2022-05-03T11:14:14Z</time>
      </trkpt>
      <trkpt lat="46.64897" lon="5.56594">
        <ele>360.2</ele>
        <time>2022-05-03T11:14:18Z</time>
      </trkpt>
      <trkpt lat="46.64901" lon="5.56595">
        <ele>360.5</ele>
        <time>2022-05-03T11:14:23Z</time>
      </trkpt>
      <trkpt lat="46.64907" lon="5.56597">
        <ele>360.4</ele>
        <time>2022-05-03T11:14:28Z</time>
      </trkpt>
      <trkpt lat="46.64911" lon="5.56599">
        <ele>360.2</ele>
        <time>2022-05-03T11:14:32Z</time>
      </trkpt>
      <trkpt lat="46.64916" lon="5.56601">
        <ele>360.3</ele>
        <time>2022-05-03T11:14:36Z</time>
      </trkpt>
      <trkpt lat="46.6492" lon="5.56602">
        <ele>360.2</ele>
        <time>2022-05-03T11:14:41Z</time>
      </trkpt>
      <trkpt lat="46.64925" lon="5.56606">
        <ele>360.7</ele>
        <time>2022-05-03T11:14:46Z</time>
      </trkpt>
      <trkpt lat="46.64929" lon="5.5661">
        <ele>361.8</ele>
        <time>2022-05-03T11:14:51Z</time>
      </trkpt>
      <trkpt lat="46.64934" lon="5.56611">
        <ele>362.4</ele>
        <time>2022-05-03T11:14:55Z</time>
      </trkpt>
      <trkpt lat="46.64939" lon="5.5661">
        <ele>363.2</ele>
        <time>2022-05-03T11:14:59Z</time>
      </trkpt>
      <trkpt lat="46.64944" lon="5.56609">
        <ele>364.1</ele>
        <time>2022-05-03T11:15:03Z</time>
      </trkpt>
      <trkpt lat="46.64949" lon="5.56609">
        <ele>364.9</ele>
        <time>2022-05-03T11:15:07Z</time>
      </trkpt>
      <trkpt lat="46.64955" lon="5.5661">
        <ele>366.1</ele>
        <time>2022-05-03T11:15:11Z</time>
      </trkpt>
      <trkpt lat="46.64959" lon="5.5661">
        <ele>367.6</ele>
        <time>2022-05-03T11:15:17Z</time>
      </trkpt>
      <trkpt lat="46.64964" lon="5.56611">
        <ele>367.3</ele>
        <time>2022-05-03T11:15:24Z</time>
      </trkpt>
      <trkpt lat="46.64969" lon="5.56613">
        <ele>366.7</ele>
        <time>2022-05-03T11:15:29Z</time>
      </trkpt>
      <trkpt lat="46.64973" lon="5.56612">
        <ele>366.9</ele>
        <time>2022-05-03T11:15:35Z</time>
      </trkpt>
      <trkpt lat="46.64978" lon="5.56611">
        <ele>367.3</ele>
        <time>2022-05-03T11:15:40Z</time>
      </trkpt>
      <trkpt lat="46.64983" lon="5.56611">
        <ele>366.9</ele>
        <time>2022-05-03T11:15:45Z</time>
      </trkpt>
      <trkpt lat="46.64988" lon="5.5661">
        <ele>364.9</ele>
        <time>2022-05-03T11:15:51Z</time>
      </trkpt>
      <trkpt lat="46.64993" lon="5.56608">
        <ele>363.6</ele>
        <time>2022-05-03T11:15:55Z</time>
      </trkpt>
      <trkpt lat="46.64998" lon="5.56607">
        <ele>361.9</ele>
        <time>2022-05-03T11:16:00Z</time>
      </trkpt>
      <trkpt lat="46.65003" lon="5.56607">
        <ele>360.5</ele>
        <time>2022-05-03T11:16:04Z</time>
      </trkpt>
      <trkpt lat="46.65007" lon="5.56605">
        <ele>359.7</ele>
        <time>2022-05-03T11:16:08Z</time>
      </trkpt>
      <trkpt lat="46.65013" lon="5.56602">
        <ele>358.6</ele>
        <time>2022-05-03T11:16:13Z</time>
      </trkpt>
      <trkpt lat="46.65017" lon="5.56599">
        <ele>358.5</ele>
        <time>2022-05-03T11:16:16Z</time>
      </trkpt>
      <trkpt lat="46.65022" lon="5.56595">
        <ele>359.5</ele>
        <time>2022-05-03T11:16:20Z</time>
      </trkpt>
      <trkpt lat="46.65027" lon="5.56595">
        <ele>363.4</ele>
        <time>2022-05-03T11:16:57Z</time>
      </trkpt>
      <trkpt lat="46.65031" lon="5.56593">
        <ele>362.2</ele>
        <time>2022-05-03T11:17:01Z</time>
      </trkpt>
      <trkpt lat="46.65036" lon="5.56592">
        <ele>361.3</ele>
        <time>2022-05-03T11:17:05Z</time>
      </trkpt>
      <trkpt lat="46.65042" lon="5.56592">
        <ele>360</ele>
        <time>2022-05-03T11:17:12Z</time>
      </trkpt>
      <trkpt lat="46.65046" lon="5.56588">
        <ele>359.3</ele>
        <time>2022-05-03T11:17:16Z</time>
      </trkpt>
      <trkpt lat="46.65051" lon="5.56585">
        <ele>358.2</ele>
        <time>2022-05-03T11:17:21Z</time>
      </trkpt>
      <trkpt lat="46.65056" lon="5.56582">
        <ele>357.2</ele>
        <time>2022-05-03T11:17:25Z</time>
      </trkpt>
      <trkpt lat="46.65061" lon="5.56579">
        <ele>356.2</ele>
        <time>2022-05-03T11:17:29Z</time>
      </trkpt>
      <trkpt lat="46.65066" lon="5.56577">
        <ele>355.3</ele>
        <time>2022-05-03T11:17:33Z</time>
      </trkpt>
      <trkpt lat="46.65071" lon="5.56574">
        <ele>354</ele>
        <time>2022-05-03T11:17:38Z</time>
      </trkpt>
      <trkpt lat="46.65076" lon="5.56572">
        <ele>353</ele>
        <time>2022-05-03T11:17:42Z</time>
      </trkpt>
      <trkpt lat="46.65081" lon="5.5657">
        <ele>352.1</ele>
        <time>2022-05-03T11:17:46Z</time>
      </trkpt>
      <trkpt lat="46.65086" lon="5.56568">
        <ele>352.1</ele>
        <time>2022-05-03T11:17:49Z</time>
      </trkpt>
      <trkpt lat="46.65091" lon="5.56568">
        <ele>352.2</ele>
        <time>2022-05-03T11:17:53Z</time>
      </trkpt>
      <trkpt lat="46.65097" lon="5.56568">
        <ele>352.6</ele>
        <time>2022-05-03T11:17:57Z</time>
      </trkpt>
      <trkpt lat="46.65102" lon="5.56568">
        <ele>353.1</ele>
        <time>2022-05-03T11:18:00Z</time>
      </trkpt>
      <trkpt lat="46.65107" lon="5.56568">
        <ele>354.1</ele>
        <time>2022-05-03T11:18:04Z</time>
      </trkpt>
      <trkpt lat="46.65112" lon="5.56568">
        <ele>354.9</ele>
        <time>2022-05-03T11:18:09Z</time>
      </trkpt>
      <trkpt lat="46.65117" lon="5.56567">
        <ele>355.3</ele>
        <time>2022-05-03T11:18:13Z</time>
      </trkpt>
      <trkpt lat="46.65122" lon="5.56566">
        <ele>355.6</ele>
        <time>2022-05-03T11:18:16Z</time>
      </trkpt>
      <trkpt lat="46.65128" lon="5.56566">
        <ele>355.9</ele>
        <time>2022-05-03T11:18:19Z</time>
      </trkpt>
      <trkpt lat="46.65132" lon="5.56566">
        <ele>356.3</ele>
        <time>2022-05-03T11:18:22Z</time>
      </trkpt>
      <trkpt lat="46.65138" lon="5.56566">
        <ele>357</ele>
        <time>2022-05-03T11:18:26Z</time>
      </trkpt>
      <trkpt lat="46.65143" lon="5.56565">
        <ele>357.6</ele>
        <time>2022-05-03T11:18:29Z</time>
      </trkpt>
      <trkpt lat="46.65149" lon="5.56562">
        <ele>358.2</ele>
        <time>2022-05-03T11:18:32Z</time>
      </trkpt>
      <trkpt lat="46.65153" lon="5.56562">
        <ele>358.8</ele>
        <time>2022-05-03T11:18:35Z</time>
      </trkpt>
      <trkpt lat="46.65159" lon="5.56561">
        <ele>359.5</ele>
        <time>2022-05-03T11:18:39Z</time>
      </trkpt>
      <trkpt lat="46.65164" lon="5.56561">
        <ele>360.4</ele>
        <time>2022-05-03T11:18:43Z</time>
      </trkpt>
      <trkpt lat="46.65168" lon="5.56563">
        <ele>361.3</ele>
        <time>2022-05-03T11:18:48Z</time>
      </trkpt>
      <trkpt lat="46.65172" lon="5.56568">
        <ele>362.2</ele>
        <time>2022-05-03T11:18:53Z</time>
      </trkpt>
      <trkpt lat="46.65175" lon="5.56574">
        <ele>363.5</ele>
        <time>2022-05-03T11:18:57Z</time>
      </trkpt>
      <trkpt lat="46.65179" lon="5.5658">
        <ele>364.4</ele>
        <time>2022-05-03T11:19:01Z</time>
      </trkpt>
      <trkpt lat="46.65184" lon="5.56585">
        <ele>365.3</ele>
        <time>2022-05-03T11:19:05Z</time>
      </trkpt>
      <trkpt lat="46.65188" lon="5.5659">
        <ele>365.8</ele>
        <time>2022-05-03T11:19:10Z</time>
      </trkpt>
      <trkpt lat="46.65192" lon="5.56593">
        <ele>366.2</ele>
        <time>2022-05-03T11:19:15Z</time>
      </trkpt>
      <trkpt lat="46.65196" lon="5.56597">
        <ele>366.6</ele>
        <time>2022-05-03T11:19:20Z</time>
      </trkpt>
      <trkpt lat="46.652" lon="5.56601">
        <ele>366.5</ele>
        <time>2022-05-03T11:19:26Z</time>
      </trkpt>
      <trkpt lat="46.65205" lon="5.56604">
        <ele>365.7</ele>
        <time>2022-05-03T11:19:31Z</time>
      </trkpt>
      <trkpt lat="46.6521" lon="5.56607">
        <ele>365.5</ele>
        <time>2022-05-03T11:19:37Z</time>
      </trkpt>
      <trkpt lat="46.65215" lon="5.56608">
        <ele>365.6</ele>
        <time>2022-05-03T11:19:41Z</time>
      </trkpt>
      <trkpt lat="46.65219" lon="5.56609">
        <ele>365.9</ele>
        <time>2022-05-03T11:19:44Z</time>
      </trkpt>
      <trkpt lat="46.65224" lon="5.5661">
        <ele>366.2</ele>
        <time>2022-05-03T11:19:47Z</time>
      </trkpt>
      <trkpt lat="46.65227" lon="5.56616">
        <ele>366.4</ele>
        <time>2022-05-03T11:19:51Z</time>
      </trkpt>
      <trkpt lat="46.65231" lon="5.56619">
        <ele>367.4</ele>
        <time>2022-05-03T11:19:57Z</time>
      </trkpt>
      <trkpt lat="46.65236" lon="5.56622">
        <ele>368.6</ele>
        <time>2022-05-03T11:20:05Z</time>
      </trkpt>
      <trkpt lat="46.6524" lon="5.56624">
        <ele>369.8</ele>
        <time>2022-05-03T11:20:09Z</time>
      </trkpt>
      <trkpt lat="46.65245" lon="5.56626">
        <ele>371</ele>
        <time>2022-05-03T11:20:13Z</time>
      </trkpt>
      <trkpt lat="46.65249" lon="5.56629">
        <ele>372.8</ele>
        <time>2022-05-03T11:20:19Z</time>
      </trkpt>
      <trkpt lat="46.65254" lon="5.5663">
        <ele>375.1</ele>
        <time>2022-05-03T11:20:24Z</time>
      </trkpt>
      <trkpt lat="46.65259" lon="5.56632">
        <ele>377.6</ele>
        <time>2022-05-03T11:20:29Z</time>
      </trkpt>
      <trkpt lat="46.65264" lon="5.56635">
        <ele>380</ele>
        <time>2022-05-03T11:20:35Z</time>
      </trkpt>
      <trkpt lat="46.65269" lon="5.56639">
        <ele>380.6</ele>
        <time>2022-05-03T11:20:40Z</time>
      </trkpt>
      <trkpt lat="46.65273" lon="5.56641">
        <ele>380.4</ele>
        <time>2022-05-03T11:20:45Z</time>
      </trkpt>
      <trkpt lat="46.65277" lon="5.56644">
        <ele>379.9</ele>
        <time>2022-05-03T11:20:51Z</time>
      </trkpt>
      <trkpt lat="46.65282" lon="5.56645">
        <ele>380.4</ele>
        <time>2022-05-03T11:20:59Z</time>
      </trkpt>
      <trkpt lat="46.65287" lon="5.56645">
        <ele>382.3</ele>
        <time>2022-05-03T11:21:07Z</time>
      </trkpt>
      <trkpt lat="46.65291" lon="5.56647">
        <ele>382.8</ele>
        <time>2022-05-03T11:21:12Z</time>
      </trkpt>
      <trkpt lat="46.65296" lon="5.56648">
        <ele>383.4</ele>
        <time>2022-05-03T11:21:16Z</time>
      </trkpt>
      <trkpt lat="46.653" lon="5.56651">
        <ele>384</ele>
        <time>2022-05-03T11:21:20Z</time>
      </trkpt>
      <trkpt lat="46.65304" lon="5.56654">
        <ele>384.8</ele>
        <time>2022-05-03T11:21:25Z</time>
      </trkpt>
      <trkpt lat="46.6531" lon="5.56657">
        <ele>385.4</ele>
        <time>2022-05-03T11:21:30Z</time>
      </trkpt>
      <trkpt lat="46.65314" lon="5.56661">
        <ele>386</ele>
        <time>2022-05-03T11:21:36Z</time>
      </trkpt>
      <trkpt lat="46.65319" lon="5.56662">
        <ele>386.5</ele>
        <time>2022-05-03T11:21:41Z</time>
      </trkpt>
      <trkpt lat="46.65324" lon="5.56665">
        <ele>387.3</ele>
        <time>2022-05-03T11:21:46Z</time>
      </trkpt>
      <trkpt lat="46.65328" lon="5.56669">
        <ele>388.3</ele>
        <time>2022-05-03T11:21:52Z</time>
      </trkpt>
      <trkpt lat="46.65332" lon="5.56672">
        <ele>389.3</ele>
        <time>2022-05-03T11:21:57Z</time>
      </trkpt>
      <trkpt lat="46.65336" lon="5.56675">
        <ele>391.1</ele>
        <time>2022-05-03T11:22:03Z</time>
      </trkpt>
      <trkpt lat="46.65341" lon="5.56677">
        <ele>392.7</ele>
        <time>2022-05-03T11:22:11Z</time>
      </trkpt>
      <trkpt lat="46.65345" lon="5.5668">
        <ele>392.9</ele>
        <time>2022-05-03T11:22:18Z</time>
      </trkpt>
      <trkpt lat="46.6535" lon="5.56679">
        <ele>393.4</ele>
        <time>2022-05-03T11:22:24Z</time>
      </trkpt>
      <trkpt lat="46.65354" lon="5.56682">
        <ele>394</ele>
        <time>2022-05-03T11:22:31Z</time>
      </trkpt>
      <trkpt lat="46.6536" lon="5.56684">
        <ele>394.5</ele>
        <time>2022-05-03T11:22:36Z</time>
      </trkpt>
      <trkpt lat="46.65365" lon="5.56686">
        <ele>394.8</ele>
        <time>2022-05-03T11:22:41Z</time>
      </trkpt>
      <trkpt lat="46.65369" lon="5.56687">
        <ele>395.1</ele>
        <time>2022-05-03T11:22:47Z</time>
      </trkpt>
      <trkpt lat="46.65374" lon="5.56689">
        <ele>394.8</ele>
        <time>2022-05-03T11:22:56Z</time>
      </trkpt>
      <trkpt lat="46.65379" lon="5.56689">
        <ele>394.9</ele>
        <time>2022-05-03T11:23:02Z</time>
      </trkpt>
      <trkpt lat="46.65384" lon="5.56691">
        <ele>394.9</ele>
        <time>2022-05-03T11:23:09Z</time>
      </trkpt>
      <trkpt lat="46.65389" lon="5.56693">
        <ele>395</ele>
        <time>2022-05-03T11:23:17Z</time>
      </trkpt>
      <trkpt lat="46.65394" lon="5.56693">
        <ele>395.2</ele>
        <time>2022-05-03T11:23:22Z</time>
      </trkpt>
      <trkpt lat="46.65399" lon="5.56692">
        <ele>396.2</ele>
        <time>2022-05-03T11:23:27Z</time>
      </trkpt>
      <trkpt lat="46.65405" lon="5.56692">
        <ele>397.9</ele>
        <time>2022-05-03T11:23:32Z</time>
      </trkpt>
      <trkpt lat="46.65409" lon="5.56696">
        <ele>399.7</ele>
        <time>2022-05-03T11:23:37Z</time>
      </trkpt>
      <trkpt lat="46.65414" lon="5.56698">
        <ele>401.5</ele>
        <time>2022-05-03T11:23:42Z</time>
      </trkpt>
      <trkpt lat="46.65418" lon="5.56701">
        <ele>402.5</ele>
        <time>2022-05-03T11:23:47Z</time>
      </trkpt>
      <trkpt lat="46.65422" lon="5.56705">
        <ele>403</ele>
        <time>2022-05-03T11:23:52Z</time>
      </trkpt>
      <trkpt lat="46.65427" lon="5.56708">
        <ele>402.8</ele>
        <time>2022-05-03T11:23:58Z</time>
      </trkpt>
      <trkpt lat="46.65431" lon="5.56713">
        <ele>401.1</ele>
        <time>2022-05-03T11:24:08Z</time>
      </trkpt>
      <trkpt lat="46.65436" lon="5.56715">
        <ele>401.3</ele>
        <time>2022-05-03T11:24:13Z</time>
      </trkpt>
      <trkpt lat="46.65441" lon="5.56717">
        <ele>401.9</ele>
        <time>2022-05-03T11:24:17Z</time>
      </trkpt>
      <trkpt lat="46.65445" lon="5.5672">
        <ele>403.3</ele>
        <time>2022-05-03T11:24:22Z</time>
      </trkpt>
      <trkpt lat="46.6545" lon="5.56723">
        <ele>404.7</ele>
        <time>2022-05-03T11:24:28Z</time>
      </trkpt>
      <trkpt lat="46.65455" lon="5.56725">
        <ele>405.6</ele>
        <time>2022-05-03T11:24:34Z</time>
      </trkpt>
      <trkpt lat="46.6546" lon="5.56728">
        <ele>406.1</ele>
        <time>2022-05-03T11:24:41Z</time>
      </trkpt>
      <trkpt lat="46.65464" lon="5.56731">
        <ele>406.5</ele>
        <time>2022-05-03T11:24:46Z</time>
      </trkpt>
      <trkpt lat="46.65468" lon="5.56735">
        <ele>407</ele>
        <time>2022-05-03T11:24:51Z</time>
      </trkpt>
      <trkpt lat="46.65472" lon="5.5674">
        <ele>407.5</ele>
        <time>2022-05-03T11:24:56Z</time>
      </trkpt>
      <trkpt lat="46.65476" lon="5.56744">
        <ele>408</ele>
        <time>2022-05-03T11:25:02Z</time>
      </trkpt>
      <trkpt lat="46.6548" lon="5.56748">
        <ele>408.8</ele>
        <time>2022-05-03T11:25:09Z</time>
      </trkpt>
      <trkpt lat="46.65485" lon="5.56752">
        <ele>409.1</ele>
        <time>2022-05-03T11:25:13Z</time>
      </trkpt>
      <trkpt lat="46.65489" lon="5.56754">
        <ele>409.3</ele>
        <time>2022-05-03T11:25:18Z</time>
      </trkpt>
      <trkpt lat="46.65494" lon="5.56754">
        <ele>409.3</ele>
        <time>2022-05-03T11:25:24Z</time>
      </trkpt>
      <trkpt lat="46.65499" lon="5.56754">
        <ele>409.9</ele>
        <time>2022-05-03T11:25:29Z</time>
      </trkpt>
      <trkpt lat="46.65503" lon="5.56753">
        <ele>410.4</ele>
        <time>2022-05-03T11:25:34Z</time>
      </trkpt>
      <trkpt lat="46.65508" lon="5.56753">
        <ele>410.4</ele>
        <time>2022-05-03T11:25:40Z</time>
      </trkpt>
      <trkpt lat="46.65513" lon="5.56753">
        <ele>409.6</ele>
        <time>2022-05-03T11:25:45Z</time>
      </trkpt>
      <trkpt lat="46.65518" lon="5.56754">
        <ele>409.1</ele>
        <time>2022-05-03T11:25:50Z</time>
      </trkpt>
      <trkpt lat="46.65523" lon="5.56755">
        <ele>409</ele>
        <time>2022-05-03T11:25:55Z</time>
      </trkpt>
      <trkpt lat="46.65528" lon="5.56755">
        <ele>409.1</ele>
        <time>2022-05-03T11:25:59Z</time>
      </trkpt>
      <trkpt lat="46.65533" lon="5.56754">
        <ele>409.2</ele>
        <time>2022-05-03T11:26:03Z</time>
      </trkpt>
      <trkpt lat="46.65539" lon="5.56753">
        <ele>409.6</ele>
        <time>2022-05-03T11:26:07Z</time>
      </trkpt>
      <trkpt lat="46.65544" lon="5.56752">
        <ele>409.9</ele>
        <time>2022-05-03T11:26:13Z</time>
      </trkpt>
      <trkpt lat="46.65549" lon="5.56753">
        <ele>410.3</ele>
        <time>2022-05-03T11:26:18Z</time>
      </trkpt>
      <trkpt lat="46.65555" lon="5.56755">
        <ele>411.5</ele>
        <time>2022-05-03T11:26:23Z</time>
      </trkpt>
      <trkpt lat="46.6556" lon="5.56757">
        <ele>412.4</ele>
        <time>2022-05-03T11:26:27Z</time>
      </trkpt>
      <trkpt lat="46.65564" lon="5.56759">
        <ele>413.2</ele>
        <time>2022-05-03T11:26:31Z</time>
      </trkpt>
      <trkpt lat="46.6557" lon="5.56762">
        <ele>413.9</ele>
        <time>2022-05-03T11:26:35Z</time>
      </trkpt>
      <trkpt lat="46.65574" lon="5.56764">
        <ele>413.6</ele>
        <time>2022-05-03T11:26:39Z</time>
      </trkpt>
      <trkpt lat="46.65578" lon="5.56766">
        <ele>412.7</ele>
        <time>2022-05-03T11:26:43Z</time>
      </trkpt>
      <trkpt lat="46.65583" lon="5.5677">
        <ele>411.4</ele>
        <time>2022-05-03T11:26:48Z</time>
      </trkpt>
      <trkpt lat="46.65587" lon="5.56774">
        <ele>409.5</ele>
        <time>2022-05-03T11:26:54Z</time>
      </trkpt>
      <trkpt lat="46.65592" lon="5.56774">
        <ele>408.4</ele>
        <time>2022-05-03T11:26:59Z</time>
      </trkpt>
      <trkpt lat="46.65597" lon="5.56776">
        <ele>408</ele>
        <time>2022-05-03T11:27:05Z</time>
      </trkpt>
      <trkpt lat="46.65602" lon="5.56777">
        <ele>408.6</ele>
        <time>2022-05-03T11:27:11Z</time>
      </trkpt>
      <trkpt lat="46.65607" lon="5.56777">
        <ele>409.5</ele>
        <time>2022-05-03T11:27:18Z</time>
      </trkpt>
      <trkpt lat="46.65612" lon="5.56779">
        <ele>410.2</ele>
        <time>2022-05-03T11:27:23Z</time>
      </trkpt>
      <trkpt lat="46.65617" lon="5.56783">
        <ele>410.8</ele>
        <time>2022-05-03T11:27:27Z</time>
      </trkpt>
      <trkpt lat="46.65622" lon="5.56786">
        <ele>411</ele>
        <time>2022-05-03T11:27:31Z</time>
      </trkpt>
      <trkpt lat="46.65626" lon="5.56789">
        <ele>410.9</ele>
        <time>2022-05-03T11:27:36Z</time>
      </trkpt>
      <trkpt lat="46.65631" lon="5.56792">
        <ele>411.2</ele>
        <time>2022-05-03T11:27:42Z</time>
      </trkpt>
      <trkpt lat="46.65636" lon="5.56795">
        <ele>411.7</ele>
        <time>2022-05-03T11:27:47Z</time>
      </trkpt>
      <trkpt lat="46.65639" lon="5.56801">
        <ele>411.8</ele>
        <time>2022-05-03T11:27:53Z</time>
      </trkpt>
      <trkpt lat="46.65644" lon="5.56803">
        <ele>411.8</ele>
        <time>2022-05-03T11:27:58Z</time>
      </trkpt>
      <trkpt lat="46.65649" lon="5.56804">
        <ele>411</ele>
        <time>2022-05-03T11:28:03Z</time>
      </trkpt>
      <trkpt lat="46.65654" lon="5.56806">
        <ele>410</ele>
        <time>2022-05-03T11:28:07Z</time>
      </trkpt>
      <trkpt lat="46.65659" lon="5.56808">
        <ele>409.2</ele>
        <time>2022-05-03T11:28:12Z</time>
      </trkpt>
      <trkpt lat="46.65664" lon="5.5681">
        <ele>410</ele>
        <time>2022-05-03T11:28:17Z</time>
      </trkpt>
      <trkpt lat="46.65669" lon="5.56812">
        <ele>410.9</ele>
        <time>2022-05-03T11:28:22Z</time>
      </trkpt>
      <trkpt lat="46.65674" lon="5.56813">
        <ele>413.9</ele>
        <time>2022-05-03T11:28:35Z</time>
      </trkpt>
      <trkpt lat="46.65678" lon="5.56811">
        <ele>414.6</ele>
        <time>2022-05-03T11:28:42Z</time>
      </trkpt>
      <trkpt lat="46.65683" lon="5.56812">
        <ele>414.8</ele>
        <time>2022-05-03T11:28:47Z</time>
      </trkpt>
      <trkpt lat="46.65688" lon="5.56813">
        <ele>415.4</ele>
        <time>2022-05-03T11:28:53Z</time>
      </trkpt>
      <trkpt lat="46.65693" lon="5.56816">
        <ele>414.7</ele>
        <time>2022-05-03T11:29:00Z</time>
      </trkpt>
      <trkpt lat="46.65697" lon="5.56816">
        <ele>414.5</ele>
        <time>2022-05-03T11:29:04Z</time>
      </trkpt>
      <trkpt lat="46.65702" lon="5.56816">
        <ele>415.1</ele>
        <time>2022-05-03T11:29:09Z</time>
      </trkpt>
      <trkpt lat="46.65707" lon="5.56817">
        <ele>416</ele>
        <time>2022-05-03T11:29:14Z</time>
      </trkpt>
      <trkpt lat="46.65712" lon="5.56817">
        <ele>416.8</ele>
        <time>2022-05-03T11:29:19Z</time>
      </trkpt>
      <trkpt lat="46.65717" lon="5.56817">
        <ele>418</ele>
        <time>2022-05-03T11:29:24Z</time>
      </trkpt>
      <trkpt lat="46.65722" lon="5.56817">
        <ele>418.9</ele>
        <time>2022-05-03T11:29:30Z</time>
      </trkpt>
      <trkpt lat="46.65727" lon="5.56815">
        <ele>417.5</ele>
        <time>2022-05-03T11:29:37Z</time>
      </trkpt>
      <trkpt lat="46.65732" lon="5.56817">
        <ele>415.1</ele>
        <time>2022-05-03T11:29:43Z</time>
      </trkpt>
      <trkpt lat="46.65736" lon="5.56819">
        <ele>411.3</ele>
        <time>2022-05-03T11:29:48Z</time>
      </trkpt>
      <trkpt lat="46.65741" lon="5.56819">
        <ele>407.7</ele>
        <time>2022-05-03T11:29:56Z</time>
      </trkpt>
      <trkpt lat="46.65746" lon="5.56817">
        <ele>406.4</ele>
        <time>2022-05-03T11:30:01Z</time>
      </trkpt>
      <trkpt lat="46.65751" lon="5.56815">
        <ele>404.2</ele>
        <time>2022-05-03T11:30:09Z</time>
      </trkpt>
      <trkpt lat="46.65756" lon="5.56814">
        <ele>402.4</ele>
        <time>2022-05-03T11:30:15Z</time>
      </trkpt>
      <trkpt lat="46.6576" lon="5.56811">
        <ele>403.1</ele>
        <time>2022-05-03T11:30:29Z</time>
      </trkpt>
      <trkpt lat="46.65763" lon="5.56806">
        <ele>405.7</ele>
        <time>2022-05-03T11:30:36Z</time>
      </trkpt>
      <trkpt lat="46.65767" lon="5.56807">
        <ele>406.9</ele>
        <time>2022-05-03T11:30:40Z</time>
      </trkpt>
      <trkpt lat="46.65773" lon="5.56807">
        <ele>407.8</ele>
        <time>2022-05-03T11:30:44Z</time>
      </trkpt>
      <trkpt lat="46.65779" lon="5.56806">
        <ele>408.9</ele>
        <time>2022-05-03T11:30:48Z</time>
      </trkpt>
      <trkpt lat="46.65783" lon="5.56805">
        <ele>409.9</ele>
        <time>2022-05-03T11:30:51Z</time>
      </trkpt>
      <trkpt lat="46.65789" lon="5.56804">
        <ele>411.2</ele>
        <time>2022-05-03T11:30:55Z</time>
      </trkpt>
      <trkpt lat="46.65794" lon="5.56802">
        <ele>412.8</ele>
        <time>2022-05-03T11:31:00Z</time>
      </trkpt>
      <trkpt lat="46.65798" lon="5.56799">
        <ele>413.8</ele>
        <time>2022-05-03T11:31:05Z</time>
      </trkpt>
      <trkpt lat="46.65802" lon="5.56797">
        <ele>414.9</ele>
        <time>2022-05-03T11:31:10Z</time>
      </trkpt>
      <trkpt lat="46.65807" lon="5.56795">
        <ele>416.1</ele>
        <time>2022-05-03T11:31:15Z</time>
      </trkpt>
      <trkpt lat="46.65812" lon="5.56793">
        <ele>417.2</ele>
        <time>2022-05-03T11:31:19Z</time>
      </trkpt>
      <trkpt lat="46.65817" lon="5.56792">
        <ele>418.4</ele>
        <time>2022-05-03T11:31:23Z</time>
      </trkpt>
      <trkpt lat="46.65822" lon="5.5679">
        <ele>419.7</ele>
        <time>2022-05-03T11:31:28Z</time>
      </trkpt>
      <trkpt lat="46.65827" lon="5.56789">
        <ele>420.2</ele>
        <time>2022-05-03T11:31:32Z</time>
      </trkpt>
      <trkpt lat="46.65832" lon="5.56788">
        <ele>420.4</ele>
        <time>2022-05-03T11:31:36Z</time>
      </trkpt>
      <trkpt lat="46.65837" lon="5.56787">
        <ele>420.8</ele>
        <time>2022-05-03T11:31:42Z</time>
      </trkpt>
      <trkpt lat="46.65843" lon="5.56787">
        <ele>421.1</ele>
        <time>2022-05-03T11:31:48Z</time>
      </trkpt>
      <trkpt lat="46.65848" lon="5.56789">
        <ele>421.5</ele>
        <time>2022-05-03T11:31:53Z</time>
      </trkpt>
      <trkpt lat="46.65849" lon="5.56795">
        <ele>422.2</ele>
        <time>2022-05-03T11:31:58Z</time>
      </trkpt>
      <trkpt lat="46.65853" lon="5.56798">
        <ele>422.9</ele>
        <time>2022-05-03T11:32:02Z</time>
      </trkpt>
      <trkpt lat="46.65852" lon="5.56805">
        <ele>426</ele>
        <time>2022-05-03T11:32:16Z</time>
      </trkpt>
      <trkpt lat="46.65853" lon="5.56811">
        <ele>427.2</ele>
        <time>2022-05-03T11:32:22Z</time>
      </trkpt>
      <trkpt lat="46.65855" lon="5.56817">
        <ele>427.9</ele>
        <time>2022-05-03T11:32:26Z</time>
      </trkpt>
      <trkpt lat="46.65858" lon="5.56824">
        <ele>429.1</ele>
        <time>2022-05-03T11:32:33Z</time>
      </trkpt>
      <trkpt lat="46.65856" lon="5.5683">
        <ele>430.1</ele>
        <time>2022-05-03T11:32:40Z</time>
      </trkpt>
      <trkpt lat="46.65854" lon="5.56837">
        <ele>430.5</ele>
        <time>2022-05-03T11:32:47Z</time>
      </trkpt>
      <trkpt lat="46.6585" lon="5.56841">
        <ele>430.4</ele>
        <time>2022-05-03T11:32:57Z</time>
      </trkpt>
      <trkpt lat="46.65848" lon="5.56847">
        <ele>429.1</ele>
        <time>2022-05-03T11:33:29Z</time>
      </trkpt>
      <trkpt lat="46.65845" lon="5.56853">
        <ele>429</ele>
        <time>2022-05-03T11:33:35Z</time>
      </trkpt>
      <trkpt lat="46.65842" lon="5.56859">
        <ele>429.2</ele>
        <time>2022-05-03T11:33:40Z</time>
      </trkpt>
      <trkpt lat="46.6584" lon="5.56865">
        <ele>429.7</ele>
        <time>2022-05-03T11:33:45Z</time>
      </trkpt>
      <trkpt lat="46.65838" lon="5.56871">
        <ele>430</ele>
        <time>2022-05-03T11:33:53Z</time>
      </trkpt>
      <trkpt lat="46.65842" lon="5.56877">
        <ele>429.6</ele>
        <time>2022-05-03T11:33:59Z</time>
      </trkpt>
      <trkpt lat="46.65845" lon="5.56883">
        <ele>429</ele>
        <time>2022-05-03T11:34:03Z</time>
      </trkpt>
      <trkpt lat="46.65848" lon="5.56888">
        <ele>428.4</ele>
        <time>2022-05-03T11:34:07Z</time>
      </trkpt>
      <trkpt lat="46.65852" lon="5.56893">
        <ele>427.8</ele>
        <time>2022-05-03T11:34:13Z</time>
      </trkpt>
      <trkpt lat="46.65855" lon="5.56899">
        <ele>428</ele>
        <time>2022-05-03T11:34:18Z</time>
      </trkpt>
      <trkpt lat="46.65858" lon="5.56904">
        <ele>428.4</ele>
        <time>2022-05-03T11:34:23Z</time>
      </trkpt>
      <trkpt lat="46.65857" lon="5.5691">
        <ele>428.8</ele>
        <time>2022-05-03T11:34:30Z</time>
      </trkpt>
      <trkpt lat="46.65854" lon="5.56915">
        <ele>427.7</ele>
        <time>2022-05-03T11:35:01Z</time>
      </trkpt>
      <trkpt lat="46.65852" lon="5.56922">
        <ele>427.5</ele>
        <time>2022-05-03T11:35:07Z</time>
      </trkpt>
      <trkpt lat="46.65855" lon="5.56928">
        <ele>427.6</ele>
        <time>2022-05-03T11:35:13Z</time>
      </trkpt>
      <trkpt lat="46.65859" lon="5.56934">
        <ele>426.9</ele>
        <time>2022-05-03T11:35:18Z</time>
      </trkpt>
      <trkpt lat="46.65861" lon="5.56941">
        <ele>425.1</ele>
        <time>2022-05-03T11:35:24Z</time>
      </trkpt>
      <trkpt lat="46.65864" lon="5.56947">
        <ele>423.5</ele>
        <time>2022-05-03T11:35:29Z</time>
      </trkpt>
      <trkpt lat="46.65867" lon="5.56953">
        <ele>421.8</ele>
        <time>2022-05-03T11:35:35Z</time>
      </trkpt>
      <trkpt lat="46.6587" lon="5.5696">
        <ele>420.5</ele>
        <time>2022-05-03T11:35:40Z</time>
      </trkpt>
      <trkpt lat="46.65874" lon="5.56964">
        <ele>419.8</ele>
        <time>2022-05-03T11:35:43Z</time>
      </trkpt>
      <trkpt lat="46.65877" lon="5.56969">
        <ele>418.8</ele>
        <time>2022-05-03T11:35:47Z</time>
      </trkpt>
      <trkpt lat="46.6588" lon="5.56976">
        <ele>417.4</ele>
        <time>2022-05-03T11:35:52Z</time>
      </trkpt>
      <trkpt lat="46.65883" lon="5.56983">
        <ele>416.4</ele>
        <time>2022-05-03T11:35:57Z</time>
      </trkpt>
      <trkpt lat="46.65886" lon="5.56989">
        <ele>416.1</ele>
        <time>2022-05-03T11:36:01Z</time>
      </trkpt>
      <trkpt lat="46.6589" lon="5.56995">
        <ele>416.4</ele>
        <time>2022-05-03T11:36:05Z</time>
      </trkpt>
      <trkpt lat="46.65894" lon="5.57">
        <ele>417.2</ele>
        <time>2022-05-03T11:36:09Z</time>
      </trkpt>
      <trkpt lat="46.65899" lon="5.57003">
        <ele>419.1</ele>
        <time>2022-05-03T11:36:14Z</time>
      </trkpt>
      <trkpt lat="46.65904" lon="5.57001">
        <ele>420.6</ele>
        <time>2022-05-03T11:36:18Z</time>
      </trkpt>
      <trkpt lat="46.65909" lon="5.57004">
        <ele>422</ele>
        <time>2022-05-03T11:36:23Z</time>
      </trkpt>
      <trkpt lat="46.65912" lon="5.57009">
        <ele>423.4</ele>
        <time>2022-05-03T11:36:28Z</time>
      </trkpt>
      <trkpt lat="46.65915" lon="5.57015">
        <ele>423.9</ele>
        <time>2022-05-03T11:36:35Z</time>
      </trkpt>
      <trkpt lat="46.65918" lon="5.5702">
        <ele>423.8</ele>
        <time>2022-05-03T11:36:40Z</time>
      </trkpt>
      <trkpt lat="46.65922" lon="5.57023">
        <ele>423.8</ele>
        <time>2022-05-03T11:38:04Z</time>
      </trkpt>
      <trkpt lat="46.65925" lon="5.57018">
        <ele>424.8</ele>
        <time>2022-05-03T11:39:30Z</time>
      </trkpt>
      <trkpt lat="46.65929" lon="5.57014">
        <ele>424.8</ele>
        <time>2022-05-03T11:39:36Z</time>
      </trkpt>
      <trkpt lat="46.65931" lon="5.57008">
        <ele>424</ele>
        <time>2022-05-03T11:41:49Z</time>
      </trkpt>
      <trkpt lat="46.65929" lon="5.57001">
        <ele>423.9</ele>
        <time>2022-05-03T11:41:55Z</time>
      </trkpt>
      <trkpt lat="46.65927" lon="5.56993">
        <ele>423.8</ele>
        <time>2022-05-03T11:42:00Z</time>
      </trkpt>
      <trkpt lat="46.65929" lon="5.56986">
        <ele>423.2</ele>
        <time>2022-05-03T11:42:04Z</time>
      </trkpt>
      <trkpt lat="46.65931" lon="5.56978">
        <ele>422.5</ele>
        <time>2022-05-03T11:42:08Z</time>
      </trkpt>
      <trkpt lat="46.65931" lon="5.56971">
        <ele>421.6</ele>
        <time>2022-05-03T11:42:12Z</time>
      </trkpt>
      <trkpt lat="46.65929" lon="5.56965">
        <ele>420.9</ele>
        <time>2022-05-03T11:42:16Z</time>
      </trkpt>
      <trkpt lat="46.65927" lon="5.56958">
        <ele>420.5</ele>
        <time>2022-05-03T11:42:20Z</time>
      </trkpt>
      <trkpt lat="46.65924" lon="5.56953">
        <ele>420.7</ele>
        <time>2022-05-03T11:42:24Z</time>
      </trkpt>
      <trkpt lat="46.65921" lon="5.56946">
        <ele>421</ele>
        <time>2022-05-03T11:42:28Z</time>
      </trkpt>
      <trkpt lat="46.65917" lon="5.56939">
        <ele>421.6</ele>
        <time>2022-05-03T11:42:32Z</time>
      </trkpt>
      <trkpt lat="46.65914" lon="5.56934">
        <ele>421.8</ele>
        <time>2022-05-03T11:42:36Z</time>
      </trkpt>
      <trkpt lat="46.6591" lon="5.56929">
        <ele>421.5</ele>
        <time>2022-05-03T11:42:40Z</time>
      </trkpt>
      <trkpt lat="46.65908" lon="5.56923">
        <ele>421.1</ele>
        <time>2022-05-03T11:42:44Z</time>
      </trkpt>
      <trkpt lat="46.65905" lon="5.56917">
        <ele>420.8</ele>
        <time>2022-05-03T11:42:49Z</time>
      </trkpt>
      <trkpt lat="46.65901" lon="5.56912">
        <ele>421</ele>
        <time>2022-05-03T11:42:53Z</time>
      </trkpt>
      <trkpt lat="46.65899" lon="5.56906">
        <ele>421.2</ele>
        <time>2022-05-03T11:42:57Z</time>
      </trkpt>
      <trkpt lat="46.65897" lon="5.56899">
        <ele>421.9</ele>
        <time>2022-05-03T11:43:02Z</time>
      </trkpt>
      <trkpt lat="46.65895" lon="5.56892">
        <ele>422.8</ele>
        <time>2022-05-03T11:43:07Z</time>
      </trkpt>
      <trkpt lat="46.65892" lon="5.56885">
        <ele>423.8</ele>
        <time>2022-05-03T11:43:12Z</time>
      </trkpt>
      <trkpt lat="46.65888" lon="5.5688">
        <ele>424.6</ele>
        <time>2022-05-03T11:43:17Z</time>
      </trkpt>
      <trkpt lat="46.65885" lon="5.56875">
        <ele>425.4</ele>
        <time>2022-05-03T11:43:22Z</time>
      </trkpt>
      <trkpt lat="46.65882" lon="5.5687">
        <ele>425.9</ele>
        <time>2022-05-03T11:43:26Z</time>
      </trkpt>
      <trkpt lat="46.65881" lon="5.56862">
        <ele>426.3</ele>
        <time>2022-05-03T11:43:30Z</time>
      </trkpt>
      <trkpt lat="46.65878" lon="5.56856">
        <ele>427</ele>
        <time>2022-05-03T11:43:34Z</time>
      </trkpt>
      <trkpt lat="46.65876" lon="5.5685">
        <ele>427.4</ele>
        <time>2022-05-03T11:43:38Z</time>
      </trkpt>
      <trkpt lat="46.65873" lon="5.56843">
        <ele>427.5</ele>
        <time>2022-05-03T11:43:43Z</time>
      </trkpt>
      <trkpt lat="46.65869" lon="5.56839">
        <ele>427.2</ele>
        <time>2022-05-03T11:43:49Z</time>
      </trkpt>
      <trkpt lat="46.65865" lon="5.56835">
        <ele>426.9</ele>
        <time>2022-05-03T11:43:53Z</time>
      </trkpt>
      <trkpt lat="46.65861" lon="5.56831">
        <ele>426.6</ele>
        <time>2022-05-03T11:43:56Z</time>
      </trkpt>
      <trkpt lat="46.65859" lon="5.56825">
        <ele>426.7</ele>
        <time>2022-05-03T11:43:59Z</time>
      </trkpt>
      <trkpt lat="46.65857" lon="5.56818">
        <ele>427.1</ele>
        <time>2022-05-03T11:44:02Z</time>
      </trkpt>
      <trkpt lat="46.65853" lon="5.56814">
        <ele>428</ele>
        <time>2022-05-03T11:44:10Z</time>
      </trkpt>
      <trkpt lat="46.65849" lon="5.56818">
        <ele>428.8</ele>
        <time>2022-05-03T11:44:18Z</time>
      </trkpt>
      <trkpt lat="46.65846" lon="5.56824">
        <ele>428.8</ele>
        <time>2022-05-03T11:44:23Z</time>
      </trkpt>
      <trkpt lat="46.65841" lon="5.5683">
        <ele>428.8</ele>
        <time>2022-05-03T11:44:27Z</time>
      </trkpt>
      <trkpt lat="46.65837" lon="5.56833">
        <ele>428.7</ele>
        <time>2022-05-03T11:44:30Z</time>
      </trkpt>
      <trkpt lat="46.65833" lon="5.56837">
        <ele>428.2</ele>
        <time>2022-05-03T11:44:34Z</time>
      </trkpt>
      <trkpt lat="46.65832" lon="5.56845">
        <ele>427.4</ele>
        <time>2022-05-03T11:44:39Z</time>
      </trkpt>
      <trkpt lat="46.65828" lon="5.56849">
        <ele>426.8</ele>
        <time>2022-05-03T11:44:43Z</time>
      </trkpt>
      <trkpt lat="46.65824" lon="5.56853">
        <ele>426.1</ele>
        <time>2022-05-03T11:44:47Z</time>
      </trkpt>
      <trkpt lat="46.65823" lon="5.56859">
        <ele>425.6</ele>
        <time>2022-05-03T11:44:50Z</time>
      </trkpt>
      <trkpt lat="46.65821" lon="5.56865">
        <ele>424.2</ele>
        <time>2022-05-03T11:44:56Z</time>
      </trkpt>
      <trkpt lat="46.65817" lon="5.56871">
        <ele>421.9</ele>
        <time>2022-05-03T11:45:03Z</time>
      </trkpt>
      <trkpt lat="46.65814" lon="5.56877">
        <ele>420.4</ele>
        <time>2022-05-03T11:45:08Z</time>
      </trkpt>
      <trkpt lat="46.65808" lon="5.56875">
        <ele>421</ele>
        <time>2022-05-03T11:45:12Z</time>
      </trkpt>
      <trkpt lat="46.65803" lon="5.56876">
        <ele>422.1</ele>
        <time>2022-05-03T11:45:16Z</time>
      </trkpt>
      <trkpt lat="46.658" lon="5.56881">
        <ele>423.2</ele>
        <time>2022-05-03T11:45:20Z</time>
      </trkpt>
      <trkpt lat="46.65797" lon="5.56887">
        <ele>424.1</ele>
        <time>2022-05-03T11:45:24Z</time>
      </trkpt>
      <trkpt lat="46.65794" lon="5.56892">
        <ele>424.4</ele>
        <time>2022-05-03T11:45:28Z</time>
      </trkpt>
      <trkpt lat="46.6579" lon="5.56896">
        <ele>424.5</ele>
        <time>2022-05-03T11:45:32Z</time>
      </trkpt>
      <trkpt lat="46.65786" lon="5.569">
        <ele>424.7</ele>
        <time>2022-05-03T11:45:36Z</time>
      </trkpt>
      <trkpt lat="46.65785" lon="5.56907">
        <ele>425.7</ele>
        <time>2022-05-03T11:45:41Z</time>
      </trkpt>
      <trkpt lat="46.65783" lon="5.56915">
        <ele>427.8</ele>
        <time>2022-05-03T11:45:47Z</time>
      </trkpt>
      <trkpt lat="46.6578" lon="5.56921">
        <ele>429.2</ele>
        <time>2022-05-03T11:45:51Z</time>
      </trkpt>
      <trkpt lat="46.65777" lon="5.56927">
        <ele>430.8</ele>
        <time>2022-05-03T11:45:55Z</time>
      </trkpt>
      <trkpt lat="46.65773" lon="5.56931">
        <ele>432.1</ele>
        <time>2022-05-03T11:45:59Z</time>
      </trkpt>
      <trkpt lat="46.65769" lon="5.56937">
        <ele>433.5</ele>
        <time>2022-05-03T11:46:04Z</time>
      </trkpt>
      <trkpt lat="46.65767" lon="5.56943">
        <ele>435</ele>
        <time>2022-05-03T11:46:09Z</time>
      </trkpt>
      <trkpt lat="46.65763" lon="5.5695">
        <ele>436.1</ele>
        <time>2022-05-03T11:46:13Z</time>
      </trkpt>
      <trkpt lat="46.6576" lon="5.56955">
        <ele>436.6</ele>
        <time>2022-05-03T11:46:16Z</time>
      </trkpt>
      <trkpt lat="46.65755" lon="5.56958">
        <ele>437.2</ele>
        <time>2022-05-03T11:46:20Z</time>
      </trkpt>
      <trkpt lat="46.65753" lon="5.56965">
        <ele>438.1</ele>
        <time>2022-05-03T11:46:24Z</time>
      </trkpt>
      <trkpt lat="46.65751" lon="5.56972">
        <ele>438.3</ele>
        <time>2022-05-03T11:46:28Z</time>
      </trkpt>
      <trkpt lat="46.65749" lon="5.56979">
        <ele>437.8</ele>
        <time>2022-05-03T11:46:32Z</time>
      </trkpt>
      <trkpt lat="46.65748" lon="5.56985">
        <ele>435.8</ele>
        <time>2022-05-03T11:46:39Z</time>
      </trkpt>
      <trkpt lat="46.65745" lon="5.56992">
        <ele>435</ele>
        <time>2022-05-03T11:46:44Z</time>
      </trkpt>
      <trkpt lat="46.65743" lon="5.56999">
        <ele>434</ele>
        <time>2022-05-03T11:46:48Z</time>
      </trkpt>
      <trkpt lat="46.65741" lon="5.57005">
        <ele>432.7</ele>
        <time>2022-05-03T11:46:52Z</time>
      </trkpt>
      <trkpt lat="46.65739" lon="5.57011">
        <ele>431.6</ele>
        <time>2022-05-03T11:46:55Z</time>
      </trkpt>
      <trkpt lat="46.65736" lon="5.57016">
        <ele>430.7</ele>
        <time>2022-05-03T11:46:58Z</time>
      </trkpt>
      <trkpt lat="46.65733" lon="5.57023">
        <ele>429.2</ele>
        <time>2022-05-03T11:47:02Z</time>
      </trkpt>
      <trkpt lat="46.65729" lon="5.57028">
        <ele>427.1</ele>
        <time>2022-05-03T11:47:08Z</time>
      </trkpt>
      <trkpt lat="46.65726" lon="5.57032">
        <ele>426.6</ele>
        <time>2022-05-03T11:47:16Z</time>
      </trkpt>
      <trkpt lat="46.65723" lon="5.57037">
        <ele>427</ele>
        <time>2022-05-03T11:47:20Z</time>
      </trkpt>
      <trkpt lat="46.6572" lon="5.57044">
        <ele>427.7</ele>
        <time>2022-05-03T11:47:24Z</time>
      </trkpt>
      <trkpt lat="46.65717" lon="5.57051">
        <ele>428.5</ele>
        <time>2022-05-03T11:47:28Z</time>
      </trkpt>
      <trkpt lat="46.65716" lon="5.57057">
        <ele>429.2</ele>
        <time>2022-05-03T11:47:32Z</time>
      </trkpt>
      <trkpt lat="46.65713" lon="5.57063">
        <ele>430</ele>
        <time>2022-05-03T11:47:37Z</time>
      </trkpt>
      <trkpt lat="46.6571" lon="5.5707">
        <ele>430.9</ele>
        <time>2022-05-03T11:47:42Z</time>
      </trkpt>
      <trkpt lat="46.65708" lon="5.57077">
        <ele>431.5</ele>
        <time>2022-05-03T11:47:46Z</time>
      </trkpt>
      <trkpt lat="46.65705" lon="5.57083">
        <ele>432</ele>
        <time>2022-05-03T11:47:50Z</time>
      </trkpt>
      <trkpt lat="46.65703" lon="5.5709">
        <ele>432</ele>
        <time>2022-05-03T11:47:56Z</time>
      </trkpt>
      <trkpt lat="46.65699" lon="5.57094">
        <ele>431.1</ele>
        <time>2022-05-03T11:48:02Z</time>
      </trkpt>
      <trkpt lat="46.65695" lon="5.57098">
        <ele>429.8</ele>
        <time>2022-05-03T11:48:09Z</time>
      </trkpt>
      <trkpt lat="46.65693" lon="5.57104">
        <ele>429.1</ele>
        <time>2022-05-03T11:48:13Z</time>
      </trkpt>
      <trkpt lat="46.6569" lon="5.5711">
        <ele>428.7</ele>
        <time>2022-05-03T11:48:16Z</time>
      </trkpt>
      <trkpt lat="46.65688" lon="5.57116">
        <ele>428.3</ele>
        <time>2022-05-03T11:48:21Z</time>
      </trkpt>
      <trkpt lat="46.65685" lon="5.57121">
        <ele>427.8</ele>
        <time>2022-05-03T11:48:25Z</time>
      </trkpt>
      <trkpt lat="46.65685" lon="5.57128">
        <ele>427.4</ele>
        <time>2022-05-03T11:48:29Z</time>
      </trkpt>
      <trkpt lat="46.65684" lon="5.57136">
        <ele>427.5</ele>
        <time>2022-05-03T11:48:34Z</time>
      </trkpt>
      <trkpt lat="46.65686" lon="5.57143">
        <ele>427.8</ele>
        <time>2022-05-03T11:48:39Z</time>
      </trkpt>
      <trkpt lat="46.65686" lon="5.5715">
        <ele>428</ele>
        <time>2022-05-03T11:48:42Z</time>
      </trkpt>
      <trkpt lat="46.65686" lon="5.57157">
        <ele>428.5</ele>
        <time>2022-05-03T11:48:46Z</time>
      </trkpt>
      <trkpt lat="46.65686" lon="5.57164">
        <ele>429.7</ele>
        <time>2022-05-03T11:48:50Z</time>
      </trkpt>
      <trkpt lat="46.65686" lon="5.57171">
        <ele>431.1</ele>
        <time>2022-05-03T11:48:55Z</time>
      </trkpt>
      <trkpt lat="46.65686" lon="5.57178">
        <ele>431.4</ele>
        <time>2022-05-03T11:48:59Z</time>
      </trkpt>
      <trkpt lat="46.65685" lon="5.57186">
        <ele>431</ele>
        <time>2022-05-03T11:49:04Z</time>
      </trkpt>
      <trkpt lat="46.65683" lon="5.57192">
        <ele>430.1</ele>
        <time>2022-05-03T11:49:09Z</time>
      </trkpt>
      <trkpt lat="46.65683" lon="5.572">
        <ele>429.3</ele>
        <time>2022-05-03T11:49:14Z</time>
      </trkpt>
      <trkpt lat="46.65683" lon="5.57206">
        <ele>429.2</ele>
        <time>2022-05-03T11:49:19Z</time>
      </trkpt>
      <trkpt lat="46.65684" lon="5.57213">
        <ele>428.6</ele>
        <time>2022-05-03T11:49:25Z</time>
      </trkpt>
      <trkpt lat="46.65685" lon="5.57219">
        <ele>427.9</ele>
        <time>2022-05-03T11:49:31Z</time>
      </trkpt>
      <trkpt lat="46.65684" lon="5.57226">
        <ele>427.8</ele>
        <time>2022-05-03T11:49:37Z</time>
      </trkpt>
      <trkpt lat="46.65685" lon="5.57235">
        <ele>428.1</ele>
        <time>2022-05-03T11:49:42Z</time>
      </trkpt>
      <trkpt lat="46.65684" lon="5.57242">
        <ele>428.9</ele>
        <time>2022-05-03T11:49:45Z</time>
      </trkpt>
      <trkpt lat="46.65683" lon="5.5725">
        <ele>429.5</ele>
        <time>2022-05-03T11:49:48Z</time>
      </trkpt>
      <trkpt lat="46.65682" lon="5.57257">
        <ele>430</ele>
        <time>2022-05-03T11:49:51Z</time>
      </trkpt>
      <trkpt lat="46.6568" lon="5.57263">
        <ele>430.2</ele>
        <time>2022-05-03T11:49:54Z</time>
      </trkpt>
      <trkpt lat="46.65679" lon="5.5727">
        <ele>430.1</ele>
        <time>2022-05-03T11:49:58Z</time>
      </trkpt>
      <trkpt lat="46.65676" lon="5.57277">
        <ele>429.4</ele>
        <time>2022-05-03T11:50:05Z</time>
      </trkpt>
      <trkpt lat="46.65672" lon="5.57283">
        <ele>429</ele>
        <time>2022-05-03T11:50:09Z</time>
      </trkpt>
      <trkpt lat="46.65669" lon="5.57289">
        <ele>428.2</ele>
        <time>2022-05-03T11:50:13Z</time>
      </trkpt>
      <trkpt lat="46.65666" lon="5.57295">
        <ele>427.6</ele>
        <time>2022-05-03T11:50:17Z</time>
      </trkpt>
      <trkpt lat="46.65662" lon="5.57299">
        <ele>427.1</ele>
        <time>2022-05-03T11:50:20Z</time>
      </trkpt>
      <trkpt lat="46.65658" lon="5.57302">
        <ele>426.4</ele>
        <time>2022-05-03T11:50:23Z</time>
      </trkpt>
      <trkpt lat="46.65653" lon="5.57304">
        <ele>424.8</ele>
        <time>2022-05-03T11:50:27Z</time>
      </trkpt>
      <trkpt lat="46.65648" lon="5.57307">
        <ele>423.5</ele>
        <time>2022-05-03T11:50:31Z</time>
      </trkpt>
      <trkpt lat="46.65643" lon="5.57309">
        <ele>422.5</ele>
        <time>2022-05-03T11:50:36Z</time>
      </trkpt>
      <trkpt lat="46.6564" lon="5.57314">
        <ele>422.4</ele>
        <time>2022-05-03T11:50:45Z</time>
      </trkpt>
      <trkpt lat="46.65642" lon="5.57321">
        <ele>422.4</ele>
        <time>2022-05-03T11:50:49Z</time>
      </trkpt>
      <trkpt lat="46.65643" lon="5.57328">
        <ele>422.3</ele>
        <time>2022-05-03T11:50:58Z</time>
      </trkpt>
      <trkpt lat="46.65647" lon="5.57323">
        <ele>424.1</ele>
        <time>2022-05-03T11:51:15Z</time>
      </trkpt>
      <trkpt lat="46.65651" lon="5.57325">
        <ele>424.5</ele>
        <time>2022-05-03T11:51:22Z</time>
      </trkpt>
      <trkpt lat="46.65656" lon="5.57327">
        <ele>425.1</ele>
        <time>2022-05-03T11:51:26Z</time>
      </trkpt>
      <trkpt lat="46.65661" lon="5.5733">
        <ele>425.2</ele>
        <time>2022-05-03T11:51:30Z</time>
      </trkpt>
      <trkpt lat="46.65666" lon="5.57332">
        <ele>424.7</ele>
        <time>2022-05-03T11:51:35Z</time>
      </trkpt>
      <trkpt lat="46.6567" lon="5.57334">
        <ele>423.9</ele>
        <time>2022-05-03T11:51:39Z</time>
      </trkpt>
      <trkpt lat="46.65674" lon="5.57338">
        <ele>422.8</ele>
        <time>2022-05-03T11:51:44Z</time>
      </trkpt>
      <trkpt lat="46.6568" lon="5.57342">
        <ele>422.1</ele>
        <time>2022-05-03T11:51:48Z</time>
      </trkpt>
      <trkpt lat="46.65685" lon="5.57345">
        <ele>422.3</ele>
        <time>2022-05-03T11:51:52Z</time>
      </trkpt>
      <trkpt lat="46.6569" lon="5.57347">
        <ele>422.5</ele>
        <time>2022-05-03T11:51:58Z</time>
      </trkpt>
      <trkpt lat="46.65694" lon="5.57348">
        <ele>424</ele>
        <time>2022-05-03T11:52:04Z</time>
      </trkpt>
      <trkpt lat="46.65698" lon="5.57353">
        <ele>425</ele>
        <time>2022-05-03T11:52:17Z</time>
      </trkpt>
      <trkpt lat="46.65703" lon="5.57356">
        <ele>425</ele>
        <time>2022-05-03T11:52:22Z</time>
      </trkpt>
      <trkpt lat="46.65707" lon="5.5736">
        <ele>423</ele>
        <time>2022-05-03T11:52:29Z</time>
      </trkpt>
      <trkpt lat="46.65708" lon="5.57367">
        <ele>420.3</ele>
        <time>2022-05-03T11:52:38Z</time>
      </trkpt>
      <trkpt lat="46.65711" lon="5.57372">
        <ele>420.1</ele>
        <time>2022-05-03T11:52:43Z</time>
      </trkpt>
      <trkpt lat="46.65715" lon="5.57376">
        <ele>420.3</ele>
        <time>2022-05-03T11:52:47Z</time>
      </trkpt>
      <trkpt lat="46.65719" lon="5.57381">
        <ele>420.6</ele>
        <time>2022-05-03T11:52:51Z</time>
      </trkpt>
      <trkpt lat="46.65721" lon="5.57387">
        <ele>420.6</ele>
        <time>2022-05-03T11:52:55Z</time>
      </trkpt>
      <trkpt lat="46.65721" lon="5.57394">
        <ele>420.4</ele>
        <time>2022-05-03T11:53:00Z</time>
      </trkpt>
      <trkpt lat="46.65721" lon="5.57402">
        <ele>420.2</ele>
        <time>2022-05-03T11:53:06Z</time>
      </trkpt>
      <trkpt lat="46.65723" lon="5.57408">
        <ele>420.1</ele>
        <time>2022-05-03T11:53:10Z</time>
      </trkpt>
      <trkpt lat="46.65724" lon="5.57415">
        <ele>420.1</ele>
        <time>2022-05-03T11:53:15Z</time>
      </trkpt>
      <trkpt lat="46.65725" lon="5.57422">
        <ele>420.9</ele>
        <time>2022-05-03T11:53:20Z</time>
      </trkpt>
      <trkpt lat="46.65725" lon="5.57429">
        <ele>421.7</ele>
        <time>2022-05-03T11:53:24Z</time>
      </trkpt>
      <trkpt lat="46.65727" lon="5.57436">
        <ele>422.8</ele>
        <time>2022-05-03T11:53:29Z</time>
      </trkpt>
      <trkpt lat="46.65728" lon="5.57443">
        <ele>425.1</ele>
        <time>2022-05-03T11:53:35Z</time>
      </trkpt>
      <trkpt lat="46.65727" lon="5.57449">
        <ele>427</ele>
        <time>2022-05-03T11:53:39Z</time>
      </trkpt>
      <trkpt lat="46.65725" lon="5.57457">
        <ele>428.5</ele>
        <time>2022-05-03T11:53:43Z</time>
      </trkpt>
      <trkpt lat="46.65725" lon="5.57464">
        <ele>429.5</ele>
        <time>2022-05-03T11:53:47Z</time>
      </trkpt>
      <trkpt lat="46.65724" lon="5.57471">
        <ele>430</ele>
        <time>2022-05-03T11:53:51Z</time>
      </trkpt>
      <trkpt lat="46.65724" lon="5.57478">
        <ele>430.1</ele>
        <time>2022-05-03T11:53:54Z</time>
      </trkpt>
      <trkpt lat="46.65724" lon="5.57485">
        <ele>430.4</ele>
        <time>2022-05-03T11:53:58Z</time>
      </trkpt>
      <trkpt lat="46.65725" lon="5.57493">
        <ele>430.7</ele>
        <time>2022-05-03T11:54:02Z</time>
      </trkpt>
      <trkpt lat="46.65725" lon="5.575">
        <ele>430.8</ele>
        <time>2022-05-03T11:54:06Z</time>
      </trkpt>
      <trkpt lat="46.65725" lon="5.57508">
        <ele>430.9</ele>
        <time>2022-05-03T11:54:10Z</time>
      </trkpt>
      <trkpt lat="46.65723" lon="5.57515">
        <ele>430.2</ele>
        <time>2022-05-03T11:54:14Z</time>
      </trkpt>
      <trkpt lat="46.65722" lon="5.57522">
        <ele>429</ele>
        <time>2022-05-03T11:54:18Z</time>
      </trkpt>
      <trkpt lat="46.65721" lon="5.57529">
        <ele>427.4</ele>
        <time>2022-05-03T11:54:22Z</time>
      </trkpt>
      <trkpt lat="46.6572" lon="5.57537">
        <ele>425.7</ele>
        <time>2022-05-03T11:54:27Z</time>
      </trkpt>
      <trkpt lat="46.6572" lon="5.57544">
        <ele>424.9</ele>
        <time>2022-05-03T11:54:30Z</time>
      </trkpt>
      <trkpt lat="46.65722" lon="5.57551">
        <ele>424</ele>
        <time>2022-05-03T11:54:34Z</time>
      </trkpt>
      <trkpt lat="46.65723" lon="5.57558">
        <ele>423</ele>
        <time>2022-05-03T11:54:38Z</time>
      </trkpt>
      <trkpt lat="46.65723" lon="5.57566">
        <ele>421.5</ele>
        <time>2022-05-03T11:54:43Z</time>
      </trkpt>
      <trkpt lat="46.65722" lon="5.57573">
        <ele>419.5</ele>
        <time>2022-05-03T11:54:48Z</time>
      </trkpt>
      <trkpt lat="46.65721" lon="5.5758">
        <ele>417.9</ele>
        <time>2022-05-03T11:54:52Z</time>
      </trkpt>
      <trkpt lat="46.65722" lon="5.57586">
        <ele>414.9</ele>
        <time>2022-05-03T11:55:00Z</time>
      </trkpt>
      <trkpt lat="46.65723" lon="5.57593">
        <ele>413.4</ele>
        <time>2022-05-03T11:55:06Z</time>
      </trkpt>
      <trkpt lat="46.65723" lon="5.576">
        <ele>412.4</ele>
        <time>2022-05-03T11:55:10Z</time>
      </trkpt>
      <trkpt lat="46.65721" lon="5.57606">
        <ele>411.2</ele>
        <time>2022-05-03T11:55:14Z</time>
      </trkpt>
      <trkpt lat="46.65718" lon="5.57612">
        <ele>408.8</ele>
        <time>2022-05-03T11:55:20Z</time>
      </trkpt>
      <trkpt lat="46.65717" lon="5.57619">
        <ele>406.5</ele>
        <time>2022-05-03T11:55:25Z</time>
      </trkpt>
      <trkpt lat="46.65715" lon="5.57626">
        <ele>405.2</ele>
        <time>2022-05-03T11:55:29Z</time>
      </trkpt>
      <trkpt lat="46.65714" lon="5.57632">
        <ele>404.3</ele>
        <time>2022-05-03T11:55:34Z</time>
      </trkpt>
      <trkpt lat="46.65713" lon="5.5764">
        <ele>404</ele>
        <time>2022-05-03T11:55:40Z</time>
      </trkpt>
      <trkpt lat="46.65712" lon="5.57646">
        <ele>403.9</ele>
        <time>2022-05-03T11:55:44Z</time>
      </trkpt>
      <trkpt lat="46.65711" lon="5.57655">
        <ele>403.4</ele>
        <time>2022-05-03T11:55:49Z</time>
      </trkpt>
      <trkpt lat="46.6571" lon="5.57662">
        <ele>403.3</ele>
        <time>2022-05-03T11:55:54Z</time>
      </trkpt>
      <trkpt lat="46.65711" lon="5.57669">
        <ele>403.9</ele>
        <time>2022-05-03T11:55:59Z</time>
      </trkpt>
      <trkpt lat="46.65705" lon="5.57673">
        <ele>402.8</ele>
        <time>2022-05-03T11:56:31Z</time>
      </trkpt>
      <trkpt lat="46.6571" lon="5.57672">
        <ele>403.1</ele>
        <time>2022-05-03T11:57:00Z</time>
      </trkpt>
      <trkpt lat="46.65708" lon="5.57678">
        <ele>403.1</ele>
        <time>2022-05-03T11:57:11Z</time>
      </trkpt>
      <trkpt lat="46.65703" lon="5.57682">
        <ele>403.5</ele>
        <time>2022-05-03T11:57:15Z</time>
      </trkpt>
      <trkpt lat="46.65708" lon="5.57684">
        <ele>404</ele>
        <time>2022-05-03T11:57:45Z</time>
      </trkpt>
      <trkpt lat="46.65705" lon="5.5769">
        <ele>404.3</ele>
        <time>2022-05-03T11:58:03Z</time>
      </trkpt>
      <trkpt lat="46.65709" lon="5.57694">
        <ele>403.1</ele>
        <time>2022-05-03T11:58:45Z</time>
      </trkpt>
      <trkpt lat="46.65704" lon="5.57696">
        <ele>405.8</ele>
        <time>2022-05-03T11:59:09Z</time>
      </trkpt>
      <trkpt lat="46.65697" lon="5.57696">
        <ele>405.5</ele>
        <time>2022-05-03T11:59:17Z</time>
      </trkpt>
      <trkpt lat="46.65692" lon="5.57698">
        <ele>404.4</ele>
        <time>2022-05-03T11:59:21Z</time>
      </trkpt>
      <trkpt lat="46.65695" lon="5.57705">
        <ele>401.9</ele>
        <time>2022-05-03T11:59:32Z</time>
      </trkpt>
      <trkpt lat="46.65697" lon="5.5771">
        <ele>401.8</ele>
        <time>2022-05-03T11:59:36Z</time>
      </trkpt>
      <trkpt lat="46.65699" lon="5.57717">
        <ele>401.8</ele>
        <time>2022-05-03T11:59:39Z</time>
      </trkpt>
      <trkpt lat="46.65698" lon="5.57724">
        <ele>402.4</ele>
        <time>2022-05-03T11:59:49Z</time>
      </trkpt>
      <trkpt lat="46.65694" lon="5.5773">
        <ele>402.8</ele>
        <time>2022-05-03T11:59:56Z</time>
      </trkpt>
      <trkpt lat="46.65691" lon="5.57734">
        <ele>403.1</ele>
        <time>2022-05-03T12:00:01Z</time>
      </trkpt>
      <trkpt lat="46.65687" lon="5.5774">
        <ele>403.4</ele>
        <time>2022-05-03T12:00:05Z</time>
      </trkpt>
      <trkpt lat="46.65684" lon="5.57747">
        <ele>403.3</ele>
        <time>2022-05-03T12:00:08Z</time>
      </trkpt>
      <trkpt lat="46.65682" lon="5.57754">
        <ele>403</ele>
        <time>2022-05-03T12:00:11Z</time>
      </trkpt>
      <trkpt lat="46.6568" lon="5.5776">
        <ele>402.6</ele>
        <time>2022-05-03T12:00:16Z</time>
      </trkpt>
      <trkpt lat="46.65678" lon="5.57766">
        <ele>402.8</ele>
        <time>2022-05-03T12:00:23Z</time>
      </trkpt>
      <trkpt lat="46.65677" lon="5.57773">
        <ele>403.3</ele>
        <time>2022-05-03T12:00:28Z</time>
      </trkpt>
      <trkpt lat="46.65676" lon="5.5778">
        <ele>403.5</ele>
        <time>2022-05-03T12:00:33Z</time>
      </trkpt>
      <trkpt lat="46.65674" lon="5.57787">
        <ele>404.6</ele>
        <time>2022-05-03T12:00:39Z</time>
      </trkpt>
      <trkpt lat="46.65675" lon="5.57794">
        <ele>405.7</ele>
        <time>2022-05-03T12:00:46Z</time>
      </trkpt>
      <trkpt lat="46.65678" lon="5.578">
        <ele>407.1</ele>
        <time>2022-05-03T12:00:52Z</time>
      </trkpt>
      <trkpt lat="46.65677" lon="5.57807">
        <ele>407.1</ele>
        <time>2022-05-03T12:00:56Z</time>
      </trkpt>
      <trkpt lat="46.65674" lon="5.57814">
        <ele>407</ele>
        <time>2022-05-03T12:00:59Z</time>
      </trkpt>
      <trkpt lat="46.65672" lon="5.57822">
        <ele>407.2</ele>
        <time>2022-05-03T12:01:03Z</time>
      </trkpt>
      <trkpt lat="46.65671" lon="5.57829">
        <ele>407</ele>
        <time>2022-05-03T12:01:07Z</time>
      </trkpt>
      <trkpt lat="46.6567" lon="5.57836">
        <ele>406.9</ele>
        <time>2022-05-03T12:01:10Z</time>
      </trkpt>
      <trkpt lat="46.65667" lon="5.57843">
        <ele>406.8</ele>
        <time>2022-05-03T12:01:14Z</time>
      </trkpt>
      <trkpt lat="46.65665" lon="5.57849">
        <ele>406.9</ele>
        <time>2022-05-03T12:01:19Z</time>
      </trkpt>
      <trkpt lat="46.65661" lon="5.57853">
        <ele>405.9</ele>
        <time>2022-05-03T12:01:25Z</time>
      </trkpt>
      <trkpt lat="46.65658" lon="5.57862">
        <ele>404.1</ele>
        <time>2022-05-03T12:01:42Z</time>
      </trkpt>
      <trkpt lat="46.65655" lon="5.5787">
        <ele>403.6</ele>
        <time>2022-05-03T12:01:45Z</time>
      </trkpt>
      <trkpt lat="46.65654" lon="5.57877">
        <ele>403.2</ele>
        <time>2022-05-03T12:01:48Z</time>
      </trkpt>
      <trkpt lat="46.65654" lon="5.57884">
        <ele>403.2</ele>
        <time>2022-05-03T12:01:52Z</time>
      </trkpt>
      <trkpt lat="46.65655" lon="5.5789">
        <ele>403.6</ele>
        <time>2022-05-03T12:01:56Z</time>
      </trkpt>
      <trkpt lat="46.65652" lon="5.57896">
        <ele>405.3</ele>
        <time>2022-05-03T12:02:02Z</time>
      </trkpt>
      <trkpt lat="46.65649" lon="5.57901">
        <ele>406.9</ele>
        <time>2022-05-03T12:02:07Z</time>
      </trkpt>
      <trkpt lat="46.65647" lon="5.57908">
        <ele>412.4</ele>
        <time>2022-05-03T12:02:30Z</time>
      </trkpt>
      <trkpt lat="46.65644" lon="5.57913">
        <ele>412.8</ele>
        <time>2022-05-03T12:02:36Z</time>
      </trkpt>
      <trkpt lat="46.65649" lon="5.57909">
        <ele>412.3</ele>
        <time>2022-05-03T12:02:51Z</time>
      </trkpt>
      <trkpt lat="46.65655" lon="5.57909">
        <ele>412.8</ele>
        <time>2022-05-03T12:02:54Z</time>
      </trkpt>
      <trkpt lat="46.65655" lon="5.57916">
        <ele>416.2</ele>
        <time>2022-05-03T12:03:19Z</time>
      </trkpt>
      <trkpt lat="46.65658" lon="5.5791">
        <ele>416.8</ele>
        <time>2022-05-03T12:04:13Z</time>
      </trkpt>
      <trkpt lat="46.65657" lon="5.579">
        <ele>415.1</ele>
        <time>2022-05-03T12:04:33Z</time>
      </trkpt>
      <trkpt lat="46.65658" lon="5.57894">
        <ele>414.1</ele>
        <time>2022-05-03T12:04:39Z</time>
      </trkpt>
      <trkpt lat="46.65659" lon="5.579">
        <ele>413.5</ele>
        <time>2022-05-03T12:04:52Z</time>
      </trkpt>
      <trkpt lat="46.65658" lon="5.5791">
        <ele>414.2</ele>
        <time>2022-05-03T12:05:15Z</time>
      </trkpt>
      <trkpt lat="46.65653" lon="5.57916">
        <ele>414.6</ele>
        <time>2022-05-03T12:05:18Z</time>
      </trkpt>
      <trkpt lat="46.65648" lon="5.5792">
        <ele>413.3</ele>
        <time>2022-05-03T12:05:43Z</time>
      </trkpt>
      <trkpt lat="46.65644" lon="5.57926">
        <ele>411.9</ele>
        <time>2022-05-03T12:05:47Z</time>
      </trkpt>
      <trkpt lat="46.65641" lon="5.57932">
        <ele>410.3</ele>
        <time>2022-05-03T12:05:53Z</time>
      </trkpt>
      <trkpt lat="46.65638" lon="5.57938">
        <ele>409.5</ele>
        <time>2022-05-03T12:05:58Z</time>
      </trkpt>
      <trkpt lat="46.65635" lon="5.57944">
        <ele>408</ele>
        <time>2022-05-03T12:06:05Z</time>
      </trkpt>
      <trkpt lat="46.65629" lon="5.57946">
        <ele>408.2</ele>
        <time>2022-05-03T12:06:22Z</time>
      </trkpt>
      <trkpt lat="46.65627" lon="5.57952">
        <ele>408.7</ele>
        <time>2022-05-03T12:06:26Z</time>
      </trkpt>
      <trkpt lat="46.65627" lon="5.57958">
        <ele>408.3</ele>
        <time>2022-05-03T12:06:31Z</time>
      </trkpt>
      <trkpt lat="46.65624" lon="5.57964">
        <ele>407.8</ele>
        <time>2022-05-03T12:06:37Z</time>
      </trkpt>
      <trkpt lat="46.65624" lon="5.57972">
        <ele>405.4</ele>
        <time>2022-05-03T12:06:57Z</time>
      </trkpt>
      <trkpt lat="46.65622" lon="5.57978">
        <ele>406.2</ele>
        <time>2022-05-03T12:07:01Z</time>
      </trkpt>
      <trkpt lat="46.65623" lon="5.57985">
        <ele>406.3</ele>
        <time>2022-05-03T12:07:08Z</time>
      </trkpt>
      <trkpt lat="46.65625" lon="5.57992">
        <ele>405.9</ele>
        <time>2022-05-03T12:07:13Z</time>
      </trkpt>
      <trkpt lat="46.65627" lon="5.57998">
        <ele>405.3</ele>
        <time>2022-05-03T12:07:18Z</time>
      </trkpt>
      <trkpt lat="46.65625" lon="5.58005">
        <ele>404.5</ele>
        <time>2022-05-03T12:07:23Z</time>
      </trkpt>
      <trkpt lat="46.65623" lon="5.58011">
        <ele>403.6</ele>
        <time>2022-05-03T12:07:27Z</time>
      </trkpt>
      <trkpt lat="46.6562" lon="5.58017">
        <ele>402.7</ele>
        <time>2022-05-03T12:07:31Z</time>
      </trkpt>
      <trkpt lat="46.65618" lon="5.58024">
        <ele>401.9</ele>
        <time>2022-05-03T12:07:35Z</time>
      </trkpt>
      <trkpt lat="46.65616" lon="5.58031">
        <ele>401.3</ele>
        <time>2022-05-03T12:07:39Z</time>
      </trkpt>
      <trkpt lat="46.65615" lon="5.58038">
        <ele>401.1</ele>
        <time>2022-05-03T12:07:43Z</time>
      </trkpt>
      <trkpt lat="46.65614" lon="5.58044">
        <ele>401.3</ele>
        <time>2022-05-03T12:07:49Z</time>
      </trkpt>
      <trkpt lat="46.65613" lon="5.58051">
        <ele>402.1</ele>
        <time>2022-05-03T12:07:59Z</time>
      </trkpt>
      <trkpt lat="46.6561" lon="5.58057">
        <ele>402</ele>
        <time>2022-05-03T12:08:06Z</time>
      </trkpt>
      <trkpt lat="46.65607" lon="5.58063">
        <ele>401.3</ele>
        <time>2022-05-03T12:08:13Z</time>
      </trkpt>
      <trkpt lat="46.65606" lon="5.58069">
        <ele>400.4</ele>
        <time>2022-05-03T12:08:43Z</time>
      </trkpt>
      <trkpt lat="46.65601" lon="5.58075">
        <ele>399.2</ele>
        <time>2022-05-03T12:09:19Z</time>
      </trkpt>
      <trkpt lat="46.65598" lon="5.5808">
        <ele>399.4</ele>
        <time>2022-05-03T12:09:30Z</time>
      </trkpt>
      <trkpt lat="46.65603" lon="5.58077">
        <ele>400.3</ele>
        <time>2022-05-03T12:10:09Z</time>
      </trkpt>
      <trkpt lat="46.65598" lon="5.58075">
        <ele>403.1</ele>
        <time>2022-05-03T12:10:37Z</time>
      </trkpt>
      <trkpt lat="46.65603" lon="5.58075">
        <ele>402.8</ele>
        <time>2022-05-03T12:10:46Z</time>
      </trkpt>
      <trkpt lat="46.65605" lon="5.58082">
        <ele>401.5</ele>
        <time>2022-05-03T12:10:58Z</time>
      </trkpt>
      <trkpt lat="46.65602" lon="5.58088">
        <ele>400.4</ele>
        <time>2022-05-03T12:11:03Z</time>
      </trkpt>
      <trkpt lat="46.65598" lon="5.58093">
        <ele>399.3</ele>
        <time>2022-05-03T12:11:07Z</time>
      </trkpt>
      <trkpt lat="46.65594" lon="5.58097">
        <ele>398.1</ele>
        <time>2022-05-03T12:11:11Z</time>
      </trkpt>
      <trkpt lat="46.65592" lon="5.58091">
        <ele>393.1</ele>
        <time>2022-05-03T12:11:44Z</time>
      </trkpt>
      <trkpt lat="46.65596" lon="5.58086">
        <ele>395.2</ele>
        <time>2022-05-03T12:12:30Z</time>
      </trkpt>
      <trkpt lat="46.65592" lon="5.58089">
        <ele>394</ele>
        <time>2022-05-03T12:13:31Z</time>
      </trkpt>
      <trkpt lat="46.65592" lon="5.58096">
        <ele>394.1</ele>
        <time>2022-05-03T12:13:39Z</time>
      </trkpt>
      <trkpt lat="46.65591" lon="5.58104">
        <ele>392.9</ele>
        <time>2022-05-03T12:14:15Z</time>
      </trkpt>
      <trkpt lat="46.65588" lon="5.5811">
        <ele>391.5</ele>
        <time>2022-05-03T12:14:19Z</time>
      </trkpt>
      <trkpt lat="46.65592" lon="5.58111">
        <ele>389.8</ele>
        <time>2022-05-03T12:14:30Z</time>
      </trkpt>
      <trkpt lat="46.65595" lon="5.58117">
        <ele>390.6</ele>
        <time>2022-05-03T12:14:49Z</time>
      </trkpt>
      <trkpt lat="46.65599" lon="5.58122">
        <ele>391.7</ele>
        <time>2022-05-03T12:14:55Z</time>
      </trkpt>
      <trkpt lat="46.65602" lon="5.58128">
        <ele>393</ele>
        <time>2022-05-03T12:15:01Z</time>
      </trkpt>
      <trkpt lat="46.65605" lon="5.58134">
        <ele>393.4</ele>
        <time>2022-05-03T12:15:07Z</time>
      </trkpt>
      <trkpt lat="46.65604" lon="5.58141">
        <ele>392.9</ele>
        <time>2022-05-03T12:15:13Z</time>
      </trkpt>
      <trkpt lat="46.65608" lon="5.58145">
        <ele>392</ele>
        <time>2022-05-03T12:15:18Z</time>
      </trkpt>
      <trkpt lat="46.65612" lon="5.58149">
        <ele>391.7</ele>
        <time>2022-05-03T12:15:22Z</time>
      </trkpt>
      <trkpt lat="46.6561" lon="5.58155">
        <ele>391</ele>
        <time>2022-05-03T12:15:30Z</time>
      </trkpt>
      <trkpt lat="46.65606" lon="5.5816">
        <ele>390.3</ele>
        <time>2022-05-03T12:15:37Z</time>
      </trkpt>
      <trkpt lat="46.65603" lon="5.58166">
        <ele>389.7</ele>
        <time>2022-05-03T12:15:41Z</time>
      </trkpt>
      <trkpt lat="46.65601" lon="5.58172">
        <ele>388.8</ele>
        <time>2022-05-03T12:15:47Z</time>
      </trkpt>
      <trkpt lat="46.65604" lon="5.58178">
        <ele>386.7</ele>
        <time>2022-05-03T12:15:53Z</time>
      </trkpt>
      <trkpt lat="46.65607" lon="5.58184">
        <ele>384.8</ele>
        <time>2022-05-03T12:16:00Z</time>
      </trkpt>
      <trkpt lat="46.65608" lon="5.58191">
        <ele>383.8</ele>
        <time>2022-05-03T12:16:05Z</time>
      </trkpt>
      <trkpt lat="46.65609" lon="5.58198">
        <ele>383.5</ele>
        <time>2022-05-03T12:16:12Z</time>
      </trkpt>
      <trkpt lat="46.65611" lon="5.58205">
        <ele>383.2</ele>
        <time>2022-05-03T12:16:19Z</time>
      </trkpt>
      <trkpt lat="46.65611" lon="5.58212">
        <ele>383.2</ele>
        <time>2022-05-03T12:16:25Z</time>
      </trkpt>
      <trkpt lat="46.65611" lon="5.58219">
        <ele>383.6</ele>
        <time>2022-05-03T12:16:32Z</time>
      </trkpt>
      <trkpt lat="46.65614" lon="5.58224">
        <ele>383.7</ele>
        <time>2022-05-03T12:16:37Z</time>
      </trkpt>
      <trkpt lat="46.65617" lon="5.58229">
        <ele>382.8</ele>
        <time>2022-05-03T12:16:44Z</time>
      </trkpt>
      <trkpt lat="46.65621" lon="5.58234">
        <ele>380.9</ele>
        <time>2022-05-03T12:16:52Z</time>
      </trkpt>
      <trkpt lat="46.65625" lon="5.58238">
        <ele>379.8</ele>
        <time>2022-05-03T12:16:57Z</time>
      </trkpt>
      <trkpt lat="46.65625" lon="5.58245">
        <ele>378.9</ele>
        <time>2022-05-03T12:17:02Z</time>
      </trkpt>
      <trkpt lat="46.65624" lon="5.58252">
        <ele>378.1</ele>
        <time>2022-05-03T12:17:07Z</time>
      </trkpt>
      <trkpt lat="46.65624" lon="5.58259">
        <ele>376.9</ele>
        <time>2022-05-03T12:17:13Z</time>
      </trkpt>
      <trkpt lat="46.65624" lon="5.58266">
        <ele>376</ele>
        <time>2022-05-03T12:17:18Z</time>
      </trkpt>
      <trkpt lat="46.65622" lon="5.58274">
        <ele>375</ele>
        <time>2022-05-03T12:17:22Z</time>
      </trkpt>
      <trkpt lat="46.65621" lon="5.58281">
        <ele>373.8</ele>
        <time>2022-05-03T12:17:27Z</time>
      </trkpt>
      <trkpt lat="46.65619" lon="5.58288">
        <ele>372.8</ele>
        <time>2022-05-03T12:17:35Z</time>
      </trkpt>
      <trkpt lat="46.65617" lon="5.58294">
        <ele>372.9</ele>
        <time>2022-05-03T12:17:40Z</time>
      </trkpt>
      <trkpt lat="46.65615" lon="5.58301">
        <ele>373.2</ele>
        <time>2022-05-03T12:17:46Z</time>
      </trkpt>
      <trkpt lat="46.6561" lon="5.58306">
        <ele>373.3</ele>
        <time>2022-05-03T12:17:50Z</time>
      </trkpt>
      <trkpt lat="46.65606" lon="5.58309">
        <ele>373.2</ele>
        <time>2022-05-03T12:17:53Z</time>
      </trkpt>
      <trkpt lat="46.656" lon="5.58312">
        <ele>372.4</ele>
        <time>2022-05-03T12:17:58Z</time>
      </trkpt>
      <trkpt lat="46.65596" lon="5.58315">
        <ele>371.1</ele>
        <time>2022-05-03T12:18:03Z</time>
      </trkpt>
      <trkpt lat="46.65593" lon="5.5832">
        <ele>369.7</ele>
        <time>2022-05-03T12:18:10Z</time>
      </trkpt>
      <trkpt lat="46.65591" lon="5.58326">
        <ele>369.1</ele>
        <time>2022-05-03T12:18:14Z</time>
      </trkpt>
      <trkpt lat="46.65589" lon="5.58333">
        <ele>368.7</ele>
        <time>2022-05-03T12:18:19Z</time>
      </trkpt>
      <trkpt lat="46.65585" lon="5.58338">
        <ele>367.5</ele>
        <time>2022-05-03T12:18:27Z</time>
      </trkpt>
      <trkpt lat="46.65581" lon="5.58343">
        <ele>367</ele>
        <time>2022-05-03T12:18:31Z</time>
      </trkpt>
      <trkpt lat="46.65578" lon="5.58349">
        <ele>367.5</ele>
        <time>2022-05-03T12:18:38Z</time>
      </trkpt>
      <trkpt lat="46.65576" lon="5.58355">
        <ele>367.8</ele>
        <time>2022-05-03T12:18:42Z</time>
      </trkpt>
      <trkpt lat="46.65574" lon="5.58361">
        <ele>368.4</ele>
        <time>2022-05-03T12:18:47Z</time>
      </trkpt>
      <trkpt lat="46.65573" lon="5.58368">
        <ele>368.9</ele>
        <time>2022-05-03T12:18:56Z</time>
      </trkpt>
      <trkpt lat="46.65569" lon="5.5837">
        <ele>367.8</ele>
        <time>2022-05-03T12:19:18Z</time>
      </trkpt>
      <trkpt lat="46.65564" lon="5.58374">
        <ele>367.6</ele>
        <time>2022-05-03T12:19:24Z</time>
      </trkpt>
      <trkpt lat="46.6556" lon="5.58381">
        <ele>367.4</ele>
        <time>2022-05-03T12:19:27Z</time>
      </trkpt>
      <trkpt lat="46.65555" lon="5.58389">
        <ele>366.9</ele>
        <time>2022-05-03T12:19:30Z</time>
      </trkpt>
      <trkpt lat="46.65552" lon="5.58393">
        <ele>366.3</ele>
        <time>2022-05-03T12:19:33Z</time>
      </trkpt>
      <trkpt lat="46.65547" lon="5.58398">
        <ele>365.2</ele>
        <time>2022-05-03T12:19:37Z</time>
      </trkpt>
      <trkpt lat="46.65545" lon="5.58405">
        <ele>364.2</ele>
        <time>2022-05-03T12:19:42Z</time>
      </trkpt>
      <trkpt lat="46.65543" lon="5.58412">
        <ele>363.5</ele>
        <time>2022-05-03T12:19:46Z</time>
      </trkpt>
      <trkpt lat="46.65541" lon="5.58419">
        <ele>363.3</ele>
        <time>2022-05-03T12:19:52Z</time>
      </trkpt>
      <trkpt lat="46.65536" lon="5.58423">
        <ele>363.4</ele>
        <time>2022-05-03T12:19:57Z</time>
      </trkpt>
      <trkpt lat="46.65533" lon="5.58428">
        <ele>363.3</ele>
        <time>2022-05-03T12:20:01Z</time>
      </trkpt>
      <trkpt lat="46.65532" lon="5.58435">
        <ele>363.3</ele>
        <time>2022-05-03T12:20:06Z</time>
      </trkpt>
      <trkpt lat="46.65528" lon="5.58439">
        <ele>363.3</ele>
        <time>2022-05-03T12:20:10Z</time>
      </trkpt>
      <trkpt lat="46.65524" lon="5.58444">
        <ele>363.3</ele>
        <time>2022-05-03T12:20:14Z</time>
      </trkpt>
      <trkpt lat="46.65519" lon="5.58447">
        <ele>363.8</ele>
        <time>2022-05-03T12:20:20Z</time>
      </trkpt>
      <trkpt lat="46.65518" lon="5.58455">
        <ele>364.6</ele>
        <time>2022-05-03T12:20:25Z</time>
      </trkpt>
      <trkpt lat="46.65518" lon="5.58462">
        <ele>365.3</ele>
        <time>2022-05-03T12:20:28Z</time>
      </trkpt>
      <trkpt lat="46.65518" lon="5.58469">
        <ele>366</ele>
        <time>2022-05-03T12:20:31Z</time>
      </trkpt>
      <trkpt lat="46.65519" lon="5.58476">
        <ele>366.7</ele>
        <time>2022-05-03T12:20:35Z</time>
      </trkpt>
      <trkpt lat="46.65522" lon="5.58482">
        <ele>367.1</ele>
        <time>2022-05-03T12:20:41Z</time>
      </trkpt>
      <trkpt lat="46.65524" lon="5.58488">
        <ele>366</ele>
        <time>2022-05-03T12:20:49Z</time>
      </trkpt>
      <trkpt lat="46.65525" lon="5.58495">
        <ele>365.3</ele>
        <time>2022-05-03T12:20:54Z</time>
      </trkpt>
      <trkpt lat="46.65527" lon="5.58502">
        <ele>364.6</ele>
        <time>2022-05-03T12:20:59Z</time>
      </trkpt>
      <trkpt lat="46.65528" lon="5.58509">
        <ele>363.7</ele>
        <time>2022-05-03T12:21:03Z</time>
      </trkpt>
      <trkpt lat="46.65527" lon="5.58516">
        <ele>362.2</ele>
        <time>2022-05-03T12:21:08Z</time>
      </trkpt>
      <trkpt lat="46.65528" lon="5.58523">
        <ele>360.4</ele>
        <time>2022-05-03T12:21:14Z</time>
      </trkpt>
      <trkpt lat="46.65527" lon="5.58531">
        <ele>359.5</ele>
        <time>2022-05-03T12:21:19Z</time>
      </trkpt>
      <trkpt lat="46.65525" lon="5.58539">
        <ele>359.2</ele>
        <time>2022-05-03T12:21:23Z</time>
      </trkpt>
      <trkpt lat="46.65526" lon="5.58546">
        <ele>358.9</ele>
        <time>2022-05-03T12:21:28Z</time>
      </trkpt>
      <trkpt lat="46.65528" lon="5.58552">
        <ele>358.3</ele>
        <time>2022-05-03T12:21:34Z</time>
      </trkpt>
      <trkpt lat="46.65532" lon="5.58557">
        <ele>358.3</ele>
        <time>2022-05-03T12:21:38Z</time>
      </trkpt>
      <trkpt lat="46.65535" lon="5.58561">
        <ele>358.3</ele>
        <time>2022-05-03T12:21:42Z</time>
      </trkpt>
      <trkpt lat="46.65539" lon="5.58565">
        <ele>358.6</ele>
        <time>2022-05-03T12:21:48Z</time>
      </trkpt>
      <trkpt lat="46.65543" lon="5.5857">
        <ele>359.3</ele>
        <time>2022-05-03T12:21:54Z</time>
      </trkpt>
      <trkpt lat="46.65546" lon="5.58576">
        <ele>359.2</ele>
        <time>2022-05-03T12:22:02Z</time>
      </trkpt>
      <trkpt lat="46.65548" lon="5.58582">
        <ele>358.5</ele>
        <time>2022-05-03T12:22:08Z</time>
      </trkpt>
      <trkpt lat="46.65549" lon="5.58588">
        <ele>357.6</ele>
        <time>2022-05-03T12:22:15Z</time>
      </trkpt>
      <trkpt lat="46.6555" lon="5.58595">
        <ele>356.7</ele>
        <time>2022-05-03T12:22:21Z</time>
      </trkpt>
      <trkpt lat="46.65552" lon="5.58601">
        <ele>355.3</ele>
        <time>2022-05-03T12:22:26Z</time>
      </trkpt>
      <trkpt lat="46.65555" lon="5.58606">
        <ele>353.8</ele>
        <time>2022-05-03T12:22:31Z</time>
      </trkpt>
      <trkpt lat="46.65557" lon="5.58612">
        <ele>352.6</ele>
        <time>2022-05-03T12:22:36Z</time>
      </trkpt>
      <trkpt lat="46.65558" lon="5.58619">
        <ele>351.5</ele>
        <time>2022-05-03T12:22:43Z</time>
      </trkpt>
      <trkpt lat="46.65562" lon="5.58623">
        <ele>351</ele>
        <time>2022-05-03T12:22:49Z</time>
      </trkpt>
      <trkpt lat="46.65564" lon="5.5863">
        <ele>350</ele>
        <time>2022-05-03T12:22:56Z</time>
      </trkpt>
      <trkpt lat="46.65564" lon="5.58637">
        <ele>349</ele>
        <time>2022-05-03T12:23:04Z</time>
      </trkpt>
      <trkpt lat="46.65561" lon="5.58643">
        <ele>348.1</ele>
        <time>2022-05-03T12:23:09Z</time>
      </trkpt>
      <trkpt lat="46.65566" lon="5.58647">
        <ele>345.7</ele>
        <time>2022-05-03T12:23:19Z</time>
      </trkpt>
      <trkpt lat="46.65568" lon="5.58653">
        <ele>344.8</ele>
        <time>2022-05-03T12:23:25Z</time>
      </trkpt>
      <trkpt lat="46.6557" lon="5.58659">
        <ele>344.3</ele>
        <time>2022-05-03T12:23:31Z</time>
      </trkpt>
      <trkpt lat="46.65573" lon="5.58665">
        <ele>343.8</ele>
        <time>2022-05-03T12:23:37Z</time>
      </trkpt>
      <trkpt lat="46.65574" lon="5.58672">
        <ele>343.6</ele>
        <time>2022-05-03T12:23:44Z</time>
      </trkpt>
      <trkpt lat="46.65578" lon="5.58675">
        <ele>344</ele>
        <time>2022-05-03T12:23:50Z</time>
      </trkpt>
      <trkpt lat="46.6558" lon="5.58681">
        <ele>343.9</ele>
        <time>2022-05-03T12:23:58Z</time>
      </trkpt>
      <trkpt lat="46.65581" lon="5.58688">
        <ele>342.7</ele>
        <time>2022-05-03T12:24:04Z</time>
      </trkpt>
      <trkpt lat="46.65577" lon="5.58692">
        <ele>337.4</ele>
        <time>2022-05-03T12:24:15Z</time>
      </trkpt>
      <trkpt lat="46.65579" lon="5.58698">
        <ele>334.9</ele>
        <time>2022-05-03T12:24:52Z</time>
      </trkpt>
      <trkpt lat="46.65579" lon="5.58706">
        <ele>334.5</ele>
        <time>2022-05-03T12:24:59Z</time>
      </trkpt>
      <trkpt lat="46.65579" lon="5.58713">
        <ele>333.9</ele>
        <time>2022-05-03T12:25:06Z</time>
      </trkpt>
      <trkpt lat="46.6558" lon="5.5872">
        <ele>333.5</ele>
        <time>2022-05-03T12:25:12Z</time>
      </trkpt>
      <trkpt lat="46.65584" lon="5.58724">
        <ele>333</ele>
        <time>2022-05-03T12:25:17Z</time>
      </trkpt>
      <trkpt lat="46.65586" lon="5.5873">
        <ele>332.1</ele>
        <time>2022-05-03T12:25:21Z</time>
      </trkpt>
      <trkpt lat="46.65587" lon="5.58737">
        <ele>331.5</ele>
        <time>2022-05-03T12:25:24Z</time>
      </trkpt>
      <trkpt lat="46.65588" lon="5.58744">
        <ele>331.1</ele>
        <time>2022-05-03T12:25:28Z</time>
      </trkpt>
      <trkpt lat="46.65586" lon="5.58751">
        <ele>331.1</ele>
        <time>2022-05-03T12:25:32Z</time>
      </trkpt>
      <trkpt lat="46.65585" lon="5.58758">
        <ele>330.7</ele>
        <time>2022-05-03T12:25:45Z</time>
      </trkpt>
      <trkpt lat="46.65582" lon="5.58763">
        <ele>330.2</ele>
        <time>2022-05-03T12:25:51Z</time>
      </trkpt>
      <trkpt lat="46.65583" lon="5.58771">
        <ele>329.9</ele>
        <time>2022-05-03T12:25:56Z</time>
      </trkpt>
      <trkpt lat="46.65583" lon="5.58778">
        <ele>329</ele>
        <time>2022-05-03T12:26:02Z</time>
      </trkpt>
      <trkpt lat="46.65587" lon="5.58782">
        <ele>326.6</ele>
        <time>2022-05-03T12:26:11Z</time>
      </trkpt>
      <trkpt lat="46.65594" lon="5.58781">
        <ele>325.9</ele>
        <time>2022-05-03T12:26:14Z</time>
      </trkpt>
      <trkpt lat="46.65598" lon="5.5878">
        <ele>325.3</ele>
        <time>2022-05-03T12:26:17Z</time>
      </trkpt>
      <trkpt lat="46.65603" lon="5.5878">
        <ele>324.9</ele>
        <time>2022-05-03T12:26:20Z</time>
      </trkpt>
      <trkpt lat="46.65608" lon="5.58781">
        <ele>324.1</ele>
        <time>2022-05-03T12:26:25Z</time>
      </trkpt>
      <trkpt lat="46.65612" lon="5.5878">
        <ele>323.3</ele>
        <time>2022-05-03T12:26:29Z</time>
      </trkpt>
      <trkpt lat="46.65617" lon="5.58777">
        <ele>322.5</ele>
        <time>2022-05-03T12:26:32Z</time>
      </trkpt>
      <trkpt lat="46.65623" lon="5.58774">
        <ele>321.4</ele>
        <time>2022-05-03T12:26:36Z</time>
      </trkpt>
      <trkpt lat="46.65627" lon="5.58772">
        <ele>319.8</ele>
        <time>2022-05-03T12:26:41Z</time>
      </trkpt>
      <trkpt lat="46.65633" lon="5.58772">
        <ele>316.4</ele>
        <time>2022-05-03T12:26:54Z</time>
      </trkpt>
      <trkpt lat="46.65638" lon="5.58774">
        <ele>315.2</ele>
        <time>2022-05-03T12:27:00Z</time>
      </trkpt>
      <trkpt lat="46.65644" lon="5.58774">
        <ele>315.2</ele>
        <time>2022-05-03T12:27:03Z</time>
      </trkpt>
      <trkpt lat="46.65649" lon="5.58774">
        <ele>315.3</ele>
        <time>2022-05-03T12:27:06Z</time>
      </trkpt>
      <trkpt lat="46.65654" lon="5.58776">
        <ele>314</ele>
        <time>2022-05-03T12:27:16Z</time>
      </trkpt>
      <trkpt lat="46.65658" lon="5.5878">
        <ele>313.4</ele>
        <time>2022-05-03T12:27:25Z</time>
      </trkpt>
      <trkpt lat="46.65661" lon="5.58786">
        <ele>313.4</ele>
        <time>2022-05-03T12:27:32Z</time>
      </trkpt>
      <trkpt lat="46.65663" lon="5.58792">
        <ele>313.2</ele>
        <time>2022-05-03T12:27:40Z</time>
      </trkpt>
      <trkpt lat="46.65668" lon="5.58795">
        <ele>313.1</ele>
        <time>2022-05-03T12:27:48Z</time>
      </trkpt>
      <trkpt lat="46.65672" lon="5.58798">
        <ele>312.4</ele>
        <time>2022-05-03T12:27:53Z</time>
      </trkpt>
      <trkpt lat="46.65677" lon="5.58801">
        <ele>312</ele>
        <time>2022-05-03T12:27:58Z</time>
      </trkpt>
      <trkpt lat="46.65683" lon="5.588">
        <ele>311.9</ele>
        <time>2022-05-03T12:28:02Z</time>
      </trkpt>
      <trkpt lat="46.65688" lon="5.58799">
        <ele>311.7</ele>
        <time>2022-05-03T12:28:05Z</time>
      </trkpt>
      <trkpt lat="46.65692" lon="5.58802">
        <ele>311.4</ele>
        <time>2022-05-03T12:28:09Z</time>
      </trkpt>
      <trkpt lat="46.65696" lon="5.58806">
        <ele>311.3</ele>
        <time>2022-05-03T12:28:12Z</time>
      </trkpt>
      <trkpt lat="46.65699" lon="5.58811">
        <ele>312</ele>
        <time>2022-05-03T12:28:16Z</time>
      </trkpt>
      <trkpt lat="46.65703" lon="5.58817">
        <ele>313.2</ele>
        <time>2022-05-03T12:28:22Z</time>
      </trkpt>
      <trkpt lat="46.65707" lon="5.58818">
        <ele>314.2</ele>
        <time>2022-05-03T12:28:28Z</time>
      </trkpt>
      <trkpt lat="46.65712" lon="5.58821">
        <ele>314.2</ele>
        <time>2022-05-03T12:28:35Z</time>
      </trkpt>
      <trkpt lat="46.65717" lon="5.58823">
        <ele>314</ele>
        <time>2022-05-03T12:28:40Z</time>
      </trkpt>
      <trkpt lat="46.65721" lon="5.58824">
        <ele>313.8</ele>
        <time>2022-05-03T12:28:45Z</time>
      </trkpt>
      <trkpt lat="46.65726" lon="5.58827">
        <ele>313.9</ele>
        <time>2022-05-03T12:28:51Z</time>
      </trkpt>
      <trkpt lat="46.65731" lon="5.5883">
        <ele>314.3</ele>
        <time>2022-05-03T12:28:56Z</time>
      </trkpt>
      <trkpt lat="46.65736" lon="5.58833">
        <ele>314.8</ele>
        <time>2022-05-03T12:29:00Z</time>
      </trkpt>
      <trkpt lat="46.6574" lon="5.58837">
        <ele>315.5</ele>
        <time>2022-05-03T12:29:05Z</time>
      </trkpt>
      <trkpt lat="46.65743" lon="5.58842">
        <ele>316</ele>
        <time>2022-05-03T12:29:10Z</time>
      </trkpt>
      <trkpt lat="46.65746" lon="5.5885">
        <ele>316</ele>
        <time>2022-05-03T12:29:15Z</time>
      </trkpt>
      <trkpt lat="46.65745" lon="5.58857">
        <ele>315.1</ele>
        <time>2022-05-03T12:29:21Z</time>
      </trkpt>
      <trkpt lat="46.65744" lon="5.58864">
        <ele>313.9</ele>
        <time>2022-05-03T12:29:28Z</time>
      </trkpt>
      <trkpt lat="46.65743" lon="5.58871">
        <ele>313.6</ele>
        <time>2022-05-03T12:29:33Z</time>
      </trkpt>
      <trkpt lat="46.6574" lon="5.58877">
        <ele>313.8</ele>
        <time>2022-05-03T12:29:36Z</time>
      </trkpt>
      <trkpt lat="46.65736" lon="5.58882">
        <ele>314.1</ele>
        <time>2022-05-03T12:29:39Z</time>
      </trkpt>
      <trkpt lat="46.65734" lon="5.58889">
        <ele>314.9</ele>
        <time>2022-05-03T12:29:44Z</time>
      </trkpt>
      <trkpt lat="46.65733" lon="5.58895">
        <ele>314.9</ele>
        <time>2022-05-03T12:29:50Z</time>
      </trkpt>
      <trkpt lat="46.65731" lon="5.58903">
        <ele>315</ele>
        <time>2022-05-03T12:29:54Z</time>
      </trkpt>
      <trkpt lat="46.65729" lon="5.5891">
        <ele>315.3</ele>
        <time>2022-05-03T12:29:58Z</time>
      </trkpt>
      <trkpt lat="46.65728" lon="5.58917">
        <ele>316</ele>
        <time>2022-05-03T12:30:06Z</time>
      </trkpt>
      <trkpt lat="46.65726" lon="5.58922">
        <ele>315.7</ele>
        <time>2022-05-03T12:30:12Z</time>
      </trkpt>
      <trkpt lat="46.65723" lon="5.58928">
        <ele>315.2</ele>
        <time>2022-05-03T12:30:16Z</time>
      </trkpt>
      <trkpt lat="46.6572" lon="5.58935">
        <ele>314.6</ele>
        <time>2022-05-03T12:30:21Z</time>
      </trkpt>
      <trkpt lat="46.65717" lon="5.58941">
        <ele>314.2</ele>
        <time>2022-05-03T12:30:25Z</time>
      </trkpt>
      <trkpt lat="46.65713" lon="5.58947">
        <ele>314</ele>
        <time>2022-05-03T12:30:29Z</time>
      </trkpt>
      <trkpt lat="46.6571" lon="5.58952">
        <ele>314</ele>
        <time>2022-05-03T12:30:33Z</time>
      </trkpt>
      <trkpt lat="46.65707" lon="5.58958">
        <ele>313.8</ele>
        <time>2022-05-03T12:30:38Z</time>
      </trkpt>
      <trkpt lat="46.65704" lon="5.58963">
        <ele>313.4</ele>
        <time>2022-05-03T12:30:44Z</time>
      </trkpt>
      <trkpt lat="46.657" lon="5.58968">
        <ele>313.2</ele>
        <time>2022-05-03T12:30:50Z</time>
      </trkpt>
      <trkpt lat="46.65697" lon="5.58973">
        <ele>312.6</ele>
        <time>2022-05-03T12:30:56Z</time>
      </trkpt>
      <trkpt lat="46.65693" lon="5.58978">
        <ele>311.9</ele>
        <time>2022-05-03T12:31:00Z</time>
      </trkpt>
      <trkpt lat="46.6569" lon="5.58983">
        <ele>311.4</ele>
        <time>2022-05-03T12:31:04Z</time>
      </trkpt>
      <trkpt lat="46.65687" lon="5.5899">
        <ele>311.1</ele>
        <time>2022-05-03T12:31:08Z</time>
      </trkpt>
      <trkpt lat="46.65685" lon="5.58995">
        <ele>311</ele>
        <time>2022-05-03T12:31:11Z</time>
      </trkpt>
      <trkpt lat="46.65681" lon="5.59001">
        <ele>310.8</ele>
        <time>2022-05-03T12:31:14Z</time>
      </trkpt>
      <trkpt lat="46.65679" lon="5.59006">
        <ele>310.7</ele>
        <time>2022-05-03T12:31:17Z</time>
      </trkpt>
      <trkpt lat="46.65676" lon="5.59012">
        <ele>310.7</ele>
        <time>2022-05-03T12:31:21Z</time>
      </trkpt>
      <trkpt lat="46.65672" lon="5.59016">
        <ele>310.9</ele>
        <time>2022-05-03T12:31:26Z</time>
      </trkpt>
      <trkpt lat="46.65668" lon="5.59021">
        <ele>311.4</ele>
        <time>2022-05-03T12:31:30Z</time>
      </trkpt>
      <trkpt lat="46.65666" lon="5.59028">
        <ele>311.9</ele>
        <time>2022-05-03T12:31:36Z</time>
      </trkpt>
      <trkpt lat="46.65665" lon="5.59034">
        <ele>311.9</ele>
        <time>2022-05-03T12:31:40Z</time>
      </trkpt>
      <trkpt lat="46.65662" lon="5.5904">
        <ele>312</ele>
        <time>2022-05-03T12:31:44Z</time>
      </trkpt>
      <trkpt lat="46.65661" lon="5.59047">
        <ele>312.6</ele>
        <time>2022-05-03T12:31:49Z</time>
      </trkpt>
      <trkpt lat="46.65661" lon="5.59054">
        <ele>313.1</ele>
        <time>2022-05-03T12:31:53Z</time>
      </trkpt>
      <trkpt lat="46.65661" lon="5.59062">
        <ele>313</ele>
        <time>2022-05-03T12:31:57Z</time>
      </trkpt>
      <trkpt lat="46.65663" lon="5.59068">
        <ele>311.8</ele>
        <time>2022-05-03T12:32:02Z</time>
      </trkpt>
      <trkpt lat="46.65667" lon="5.59072">
        <ele>311</ele>
        <time>2022-05-03T12:32:06Z</time>
      </trkpt>
      <trkpt lat="46.65668" lon="5.5908">
        <ele>310.6</ele>
        <time>2022-05-03T12:32:10Z</time>
      </trkpt>
      <trkpt lat="46.65669" lon="5.59087">
        <ele>310.4</ele>
        <time>2022-05-03T12:32:14Z</time>
      </trkpt>
      <trkpt lat="46.65669" lon="5.59095">
        <ele>309.8</ele>
        <time>2022-05-03T12:32:21Z</time>
      </trkpt>
      <trkpt lat="46.65667" lon="5.59101">
        <ele>309</ele>
        <time>2022-05-03T12:32:26Z</time>
      </trkpt>
      <trkpt lat="46.65665" lon="5.59109">
        <ele>308.5</ele>
        <time>2022-05-03T12:32:30Z</time>
      </trkpt>
      <trkpt lat="46.65665" lon="5.59117">
        <ele>308.3</ele>
        <time>2022-05-03T12:32:34Z</time>
      </trkpt>
      <trkpt lat="46.65662" lon="5.59124">
        <ele>307</ele>
        <time>2022-05-03T12:32:38Z</time>
      </trkpt>
      <trkpt lat="46.65662" lon="5.59132">
        <ele>305.9</ele>
        <time>2022-05-03T12:32:43Z</time>
      </trkpt>
      <trkpt lat="46.65662" lon="5.59139">
        <ele>306.1</ele>
        <time>2022-05-03T12:32:48Z</time>
      </trkpt>
      <trkpt lat="46.65662" lon="5.59146">
        <ele>306.6</ele>
        <time>2022-05-03T12:32:53Z</time>
      </trkpt>
      <trkpt lat="46.65663" lon="5.59155">
        <ele>306.5</ele>
        <time>2022-05-03T12:32:58Z</time>
      </trkpt>
      <trkpt lat="46.65663" lon="5.59162">
        <ele>306.6</ele>
        <time>2022-05-03T12:33:02Z</time>
      </trkpt>
      <trkpt lat="46.65662" lon="5.5917">
        <ele>307</ele>
        <time>2022-05-03T12:33:06Z</time>
      </trkpt>
      <trkpt lat="46.6566" lon="5.59178">
        <ele>307.6</ele>
        <time>2022-05-03T12:33:11Z</time>
      </trkpt>
      <trkpt lat="46.65659" lon="5.59184">
        <ele>308.5</ele>
        <time>2022-05-03T12:33:15Z</time>
      </trkpt>
      <trkpt lat="46.6566" lon="5.59192">
        <ele>309.3</ele>
        <time>2022-05-03T12:33:19Z</time>
      </trkpt>
      <trkpt lat="46.65661" lon="5.59201">
        <ele>309.6</ele>
        <time>2022-05-03T12:33:23Z</time>
      </trkpt>
      <trkpt lat="46.65661" lon="5.59208">
        <ele>309.7</ele>
        <time>2022-05-03T12:33:27Z</time>
      </trkpt>
      <trkpt lat="46.65659" lon="5.59214">
        <ele>309.5</ele>
        <time>2022-05-03T12:33:31Z</time>
      </trkpt>
      <trkpt lat="46.6566" lon="5.59221">
        <ele>309.4</ele>
        <time>2022-05-03T12:33:35Z</time>
      </trkpt>
      <trkpt lat="46.6566" lon="5.59229">
        <ele>309.5</ele>
        <time>2022-05-03T12:33:39Z</time>
      </trkpt>
      <trkpt lat="46.65659" lon="5.59236">
        <ele>310</ele>
        <time>2022-05-03T12:33:43Z</time>
      </trkpt>
      <trkpt lat="46.6566" lon="5.59243">
        <ele>310.3</ele>
        <time>2022-05-03T12:33:48Z</time>
      </trkpt>
      <trkpt lat="46.6566" lon="5.59251">
        <ele>311.3</ele>
        <time>2022-05-03T12:33:55Z</time>
      </trkpt>
      <trkpt lat="46.65658" lon="5.59257">
        <ele>311.8</ele>
        <time>2022-05-03T12:34:00Z</time>
      </trkpt>
      <trkpt lat="46.65658" lon="5.59264">
        <ele>311.8</ele>
        <time>2022-05-03T12:34:05Z</time>
      </trkpt>
      <trkpt lat="46.65657" lon="5.59271">
        <ele>311.6</ele>
        <time>2022-05-03T12:34:09Z</time>
      </trkpt>
      <trkpt lat="46.65656" lon="5.59277">
        <ele>311.5</ele>
        <time>2022-05-03T12:34:13Z</time>
      </trkpt>
      <trkpt lat="46.65655" lon="5.59285">
        <ele>310.8</ele>
        <time>2022-05-03T12:34:18Z</time>
      </trkpt>
      <trkpt lat="46.65652" lon="5.59291">
        <ele>310.2</ele>
        <time>2022-05-03T12:34:22Z</time>
      </trkpt>
      <trkpt lat="46.65651" lon="5.59297">
        <ele>309.8</ele>
        <time>2022-05-03T12:34:26Z</time>
      </trkpt>
      <trkpt lat="46.65649" lon="5.59305">
        <ele>309.4</ele>
        <time>2022-05-03T12:34:30Z</time>
      </trkpt>
      <trkpt lat="46.65646" lon="5.59312">
        <ele>309</ele>
        <time>2022-05-03T12:34:34Z</time>
      </trkpt>
      <trkpt lat="46.65644" lon="5.59319">
        <ele>308.7</ele>
        <time>2022-05-03T12:34:38Z</time>
      </trkpt>
      <trkpt lat="46.65642" lon="5.59326">
        <ele>308.4</ele>
        <time>2022-05-03T12:34:42Z</time>
      </trkpt>
      <trkpt lat="46.65642" lon="5.59332">
        <ele>308.1</ele>
        <time>2022-05-03T12:34:47Z</time>
      </trkpt>
      <trkpt lat="46.6564" lon="5.59339">
        <ele>308.3</ele>
        <time>2022-05-03T12:34:53Z</time>
      </trkpt>
      <trkpt lat="46.65638" lon="5.59345">
        <ele>308.7</ele>
        <time>2022-05-03T12:34:58Z</time>
      </trkpt>
      <trkpt lat="46.65635" lon="5.59352">
        <ele>308.7</ele>
        <time>2022-05-03T12:35:03Z</time>
      </trkpt>
      <trkpt lat="46.65633" lon="5.59359">
        <ele>308.6</ele>
        <time>2022-05-03T12:35:08Z</time>
      </trkpt>
      <trkpt lat="46.6563" lon="5.59366">
        <ele>308.6</ele>
        <time>2022-05-03T12:35:12Z</time>
      </trkpt>
      <trkpt lat="46.65627" lon="5.59372">
        <ele>308.6</ele>
        <time>2022-05-03T12:35:16Z</time>
      </trkpt>
      <trkpt lat="46.65624" lon="5.59378">
        <ele>308.8</ele>
        <time>2022-05-03T12:35:20Z</time>
      </trkpt>
      <trkpt lat="46.6562" lon="5.59383">
        <ele>309.1</ele>
        <time>2022-05-03T12:35:24Z</time>
      </trkpt>
      <trkpt lat="46.65617" lon="5.5939">
        <ele>309.1</ele>
        <time>2022-05-03T12:35:28Z</time>
      </trkpt>
      <trkpt lat="46.65613" lon="5.59396">
        <ele>308.8</ele>
        <time>2022-05-03T12:35:32Z</time>
      </trkpt>
      <trkpt lat="46.65609" lon="5.59401">
        <ele>308.4</ele>
        <time>2022-05-03T12:35:36Z</time>
      </trkpt>
      <trkpt lat="46.65607" lon="5.59407">
        <ele>308</ele>
        <time>2022-05-03T12:35:40Z</time>
      </trkpt>
      <trkpt lat="46.65605" lon="5.59413">
        <ele>307.7</ele>
        <time>2022-05-03T12:35:45Z</time>
      </trkpt>
      <trkpt lat="46.65601" lon="5.59416">
        <ele>307.9</ele>
        <time>2022-05-03T12:35:52Z</time>
      </trkpt>
      <trkpt lat="46.65596" lon="5.5942">
        <ele>308</ele>
        <time>2022-05-03T12:35:56Z</time>
      </trkpt>
      <trkpt lat="46.6559" lon="5.59424">
        <ele>307.9</ele>
        <time>2022-05-03T12:35:59Z</time>
      </trkpt>
      <trkpt lat="46.65586" lon="5.5943">
        <ele>307.7</ele>
        <time>2022-05-03T12:36:02Z</time>
      </trkpt>
      <trkpt lat="46.65583" lon="5.59435">
        <ele>307.7</ele>
        <time>2022-05-03T12:36:08Z</time>
      </trkpt>
      <trkpt lat="46.65578" lon="5.59439">
        <ele>307.7</ele>
        <time>2022-05-03T12:36:12Z</time>
      </trkpt>
      <trkpt lat="46.65574" lon="5.59443">
        <ele>307.9</ele>
        <time>2022-05-03T12:36:15Z</time>
      </trkpt>
      <trkpt lat="46.6557" lon="5.59448">
        <ele>308.2</ele>
        <time>2022-05-03T12:36:19Z</time>
      </trkpt>
      <trkpt lat="46.65568" lon="5.59453">
        <ele>309</ele>
        <time>2022-05-03T12:36:23Z</time>
      </trkpt>
      <trkpt lat="46.65564" lon="5.59459">
        <ele>310.1</ele>
        <time>2022-05-03T12:36:28Z</time>
      </trkpt>
      <trkpt lat="46.6556" lon="5.59464">
        <ele>311.4</ele>
        <time>2022-05-03T12:36:33Z</time>
      </trkpt>
      <trkpt lat="46.65557" lon="5.5947">
        <ele>312.3</ele>
        <time>2022-05-03T12:36:38Z</time>
      </trkpt>
      <trkpt lat="46.65554" lon="5.59476">
        <ele>313.9</ele>
        <time>2022-05-03T12:36:45Z</time>
      </trkpt>
      <trkpt lat="46.65551" lon="5.59484">
        <ele>314.8</ele>
        <time>2022-05-03T12:36:50Z</time>
      </trkpt>
      <trkpt lat="46.65548" lon="5.59489">
        <ele>315.1</ele>
        <time>2022-05-03T12:36:53Z</time>
      </trkpt>
      <trkpt lat="46.65544" lon="5.59495">
        <ele>315.6</ele>
        <time>2022-05-03T12:36:58Z</time>
      </trkpt>
      <trkpt lat="46.6554" lon="5.59499">
        <ele>316.2</ele>
        <time>2022-05-03T12:37:04Z</time>
      </trkpt>
      <trkpt lat="46.65536" lon="5.59504">
        <ele>316.4</ele>
        <time>2022-05-03T12:37:08Z</time>
      </trkpt>
      <trkpt lat="46.65533" lon="5.59509">
        <ele>316.6</ele>
        <time>2022-05-03T12:37:12Z</time>
      </trkpt>
      <trkpt lat="46.6553" lon="5.59515">
        <ele>317.1</ele>
        <time>2022-05-03T12:37:18Z</time>
      </trkpt>
      <trkpt lat="46.65526" lon="5.5952">
        <ele>317.3</ele>
        <time>2022-05-03T12:37:22Z</time>
      </trkpt>
      <trkpt lat="46.65522" lon="5.59523">
        <ele>317.3</ele>
        <time>2022-05-03T12:37:26Z</time>
      </trkpt>
      <trkpt lat="46.65518" lon="5.59527">
        <ele>317.4</ele>
        <time>2022-05-03T12:37:30Z</time>
      </trkpt>
      <trkpt lat="46.65514" lon="5.59534">
        <ele>317.1</ele>
        <time>2022-05-03T12:37:35Z</time>
      </trkpt>
      <trkpt lat="46.65512" lon="5.5954">
        <ele>317.2</ele>
        <time>2022-05-03T12:37:39Z</time>
      </trkpt>
      <trkpt lat="46.6551" lon="5.59546">
        <ele>317.5</ele>
        <time>2022-05-03T12:37:42Z</time>
      </trkpt>
      <trkpt lat="46.65507" lon="5.59553">
        <ele>317.9</ele>
        <time>2022-05-03T12:37:46Z</time>
      </trkpt>
      <trkpt lat="46.65504" lon="5.59559">
        <ele>318.3</ele>
        <time>2022-05-03T12:37:54Z</time>
      </trkpt>
      <trkpt lat="46.65501" lon="5.59565">
        <ele>318.8</ele>
        <time>2022-05-03T12:37:59Z</time>
      </trkpt>
      <trkpt lat="46.65498" lon="5.5957">
        <ele>319</ele>
        <time>2022-05-03T12:38:03Z</time>
      </trkpt>
      <trkpt lat="46.65494" lon="5.59578">
        <ele>319.3</ele>
        <time>2022-05-03T12:38:07Z</time>
      </trkpt>
      <trkpt lat="46.65492" lon="5.59585">
        <ele>319.8</ele>
        <time>2022-05-03T12:38:11Z</time>
      </trkpt>
      <trkpt lat="46.65491" lon="5.59592">
        <ele>320.6</ele>
        <time>2022-05-03T12:38:16Z</time>
      </trkpt>
      <trkpt lat="46.65488" lon="5.59599">
        <ele>321.7</ele>
        <time>2022-05-03T12:38:22Z</time>
      </trkpt>
      <trkpt lat="46.65487" lon="5.59605">
        <ele>322</ele>
        <time>2022-05-03T12:38:26Z</time>
      </trkpt>
      <trkpt lat="46.65483" lon="5.5961">
        <ele>322.2</ele>
        <time>2022-05-03T12:38:30Z</time>
      </trkpt>
      <trkpt lat="46.65479" lon="5.59614">
        <ele>321.9</ele>
        <time>2022-05-03T12:38:35Z</time>
      </trkpt>
      <trkpt lat="46.65475" lon="5.59619">
        <ele>321.4</ele>
        <time>2022-05-03T12:38:39Z</time>
      </trkpt>
      <trkpt lat="46.65472" lon="5.59624">
        <ele>320.7</ele>
        <time>2022-05-03T12:38:44Z</time>
      </trkpt>
      <trkpt lat="46.65467" lon="5.59628">
        <ele>320.1</ele>
        <time>2022-05-03T12:38:49Z</time>
      </trkpt>
      <trkpt lat="46.65463" lon="5.59633">
        <ele>319.9</ele>
        <time>2022-05-03T12:38:54Z</time>
      </trkpt>
      <trkpt lat="46.65459" lon="5.59638">
        <ele>319.7</ele>
        <time>2022-05-03T12:38:58Z</time>
      </trkpt>
      <trkpt lat="46.65455" lon="5.59642">
        <ele>318.9</ele>
        <time>2022-05-03T12:39:02Z</time>
      </trkpt>
      <trkpt lat="46.6545" lon="5.59646">
        <ele>317.9</ele>
        <time>2022-05-03T12:39:07Z</time>
      </trkpt>
      <trkpt lat="46.65445" lon="5.59647">
        <ele>316.8</ele>
        <time>2022-05-03T12:39:13Z</time>
      </trkpt>
      <trkpt lat="46.65441" lon="5.59652">
        <ele>316.1</ele>
        <time>2022-05-03T12:39:18Z</time>
      </trkpt>
      <trkpt lat="46.65436" lon="5.59653">
        <ele>314.9</ele>
        <time>2022-05-03T12:39:35Z</time>
      </trkpt>
      <trkpt lat="46.65431" lon="5.59657">
        <ele>314.8</ele>
        <time>2022-05-03T12:39:40Z</time>
      </trkpt>
      <trkpt lat="46.65427" lon="5.5966">
        <ele>314.8</ele>
        <time>2022-05-03T12:39:44Z</time>
      </trkpt>
      <trkpt lat="46.65424" lon="5.59667">
        <ele>315.1</ele>
        <time>2022-05-03T12:39:48Z</time>
      </trkpt>
      <trkpt lat="46.65422" lon="5.59673">
        <ele>315.6</ele>
        <time>2022-05-03T12:39:51Z</time>
      </trkpt>
      <trkpt lat="46.65419" lon="5.59679">
        <ele>316.4</ele>
        <time>2022-05-03T12:39:54Z</time>
      </trkpt>
      <trkpt lat="46.65417" lon="5.59685">
        <ele>317.6</ele>
        <time>2022-05-03T12:39:58Z</time>
      </trkpt>
      <trkpt lat="46.65416" lon="5.59693">
        <ele>319.1</ele>
        <time>2022-05-03T12:40:05Z</time>
      </trkpt>
      <trkpt lat="46.65414" lon="5.59699">
        <ele>319.7</ele>
        <time>2022-05-03T12:40:09Z</time>
      </trkpt>
      <trkpt lat="46.65412" lon="5.59706">
        <ele>320</ele>
        <time>2022-05-03T12:40:14Z</time>
      </trkpt>
      <trkpt lat="46.65411" lon="5.59713">
        <ele>320.3</ele>
        <time>2022-05-03T12:40:19Z</time>
      </trkpt>
      <trkpt lat="46.65409" lon="5.5972">
        <ele>320.6</ele>
        <time>2022-05-03T12:40:22Z</time>
      </trkpt>
      <trkpt lat="46.65407" lon="5.59727">
        <ele>320.7</ele>
        <time>2022-05-03T12:40:27Z</time>
      </trkpt>
      <trkpt lat="46.65405" lon="5.59734">
        <ele>320.9</ele>
        <time>2022-05-03T12:40:31Z</time>
      </trkpt>
      <trkpt lat="46.65404" lon="5.59741">
        <ele>321.3</ele>
        <time>2022-05-03T12:40:37Z</time>
      </trkpt>
      <trkpt lat="46.65405" lon="5.59747">
        <ele>321.4</ele>
        <time>2022-05-03T12:40:41Z</time>
      </trkpt>
      <trkpt lat="46.65407" lon="5.59754">
        <ele>321.2</ele>
        <time>2022-05-03T12:40:45Z</time>
      </trkpt>
      <trkpt lat="46.65409" lon="5.59761">
        <ele>321</ele>
        <time>2022-05-03T12:40:49Z</time>
      </trkpt>
      <trkpt lat="46.6541" lon="5.59768">
        <ele>320.7</ele>
        <time>2022-05-03T12:40:53Z</time>
      </trkpt>
      <trkpt lat="46.65411" lon="5.59775">
        <ele>320.4</ele>
        <time>2022-05-03T12:40:57Z</time>
      </trkpt>
      <trkpt lat="46.65415" lon="5.59779">
        <ele>320.5</ele>
        <time>2022-05-03T12:41:01Z</time>
      </trkpt>
      <trkpt lat="46.65419" lon="5.59785">
        <ele>320.9</ele>
        <time>2022-05-03T12:41:05Z</time>
      </trkpt>
      <trkpt lat="46.65422" lon="5.59791">
        <ele>321.7</ele>
        <time>2022-05-03T12:41:09Z</time>
      </trkpt>
      <trkpt lat="46.65422" lon="5.59799">
        <ele>322.8</ele>
        <time>2022-05-03T12:41:13Z</time>
      </trkpt>
      <trkpt lat="46.65418" lon="5.59805">
        <ele>322.9</ele>
        <time>2022-05-03T12:41:17Z</time>
      </trkpt>
      <trkpt lat="46.65416" lon="5.59811">
        <ele>322.5</ele>
        <time>2022-05-03T12:41:21Z</time>
      </trkpt>
      <trkpt lat="46.65411" lon="5.59816">
        <ele>321.8</ele>
        <time>2022-05-03T12:41:25Z</time>
      </trkpt>
      <trkpt lat="46.65406" lon="5.59819">
        <ele>321.1</ele>
        <time>2022-05-03T12:41:29Z</time>
      </trkpt>
      <trkpt lat="46.65401" lon="5.59822">
        <ele>320.7</ele>
        <time>2022-05-03T12:41:34Z</time>
      </trkpt>
      <trkpt lat="46.65397" lon="5.59827">
        <ele>320.3</ele>
        <time>2022-05-03T12:41:39Z</time>
      </trkpt>
      <trkpt lat="46.65394" lon="5.59832">
        <ele>320.3</ele>
        <time>2022-05-03T12:41:43Z</time>
      </trkpt>
      <trkpt lat="46.6539" lon="5.59837">
        <ele>320.2</ele>
        <time>2022-05-03T12:41:48Z</time>
      </trkpt>
      <trkpt lat="46.65385" lon="5.59841">
        <ele>320.7</ele>
        <time>2022-05-03T12:41:54Z</time>
      </trkpt>
      <trkpt lat="46.65379" lon="5.59843">
        <ele>320.7</ele>
        <time>2022-05-03T12:41:58Z</time>
      </trkpt>
      <trkpt lat="46.65375" lon="5.59845">
        <ele>320.3</ele>
        <time>2022-05-03T12:42:02Z</time>
      </trkpt>
      <trkpt lat="46.6537" lon="5.59846">
        <ele>319.6</ele>
        <time>2022-05-03T12:42:06Z</time>
      </trkpt>
      <trkpt lat="46.65364" lon="5.59847">
        <ele>318.5</ele>
        <time>2022-05-03T12:42:11Z</time>
      </trkpt>
      <trkpt lat="46.65359" lon="5.59847">
        <ele>318.5</ele>
        <time>2022-05-03T12:42:16Z</time>
      </trkpt>
      <trkpt lat="46.65354" lon="5.59848">
        <ele>318.6</ele>
        <time>2022-05-03T12:42:20Z</time>
      </trkpt>
      <trkpt lat="46.6535" lon="5.59852">
        <ele>318.9</ele>
        <time>2022-05-03T12:42:24Z</time>
      </trkpt>
      <trkpt lat="46.65346" lon="5.59859">
        <ele>319.2</ele>
        <time>2022-05-03T12:42:29Z</time>
      </trkpt>
      <trkpt lat="46.65342" lon="5.59863">
        <ele>319.2</ele>
        <time>2022-05-03T12:42:33Z</time>
      </trkpt>
      <trkpt lat="46.65338" lon="5.59868">
        <ele>319.4</ele>
        <time>2022-05-03T12:42:38Z</time>
      </trkpt>
      <trkpt lat="46.65334" lon="5.59872">
        <ele>320.1</ele>
        <time>2022-05-03T12:42:42Z</time>
      </trkpt>
      <trkpt lat="46.6533" lon="5.59877">
        <ele>321.1</ele>
        <time>2022-05-03T12:42:46Z</time>
      </trkpt>
      <trkpt lat="46.65325" lon="5.5988">
        <ele>321.9</ele>
        <time>2022-05-03T12:42:51Z</time>
      </trkpt>
      <trkpt lat="46.65323" lon="5.59887">
        <ele>322.1</ele>
        <time>2022-05-03T12:42:56Z</time>
      </trkpt>
      <trkpt lat="46.65319" lon="5.59893">
        <ele>321</ele>
        <time>2022-05-03T12:43:01Z</time>
      </trkpt>
      <trkpt lat="46.65314" lon="5.59898">
        <ele>320.7</ele>
        <time>2022-05-03T12:43:05Z</time>
      </trkpt>
      <trkpt lat="46.6531" lon="5.59901">
        <ele>320.6</ele>
        <time>2022-05-03T12:43:08Z</time>
      </trkpt>
      <trkpt lat="46.65306" lon="5.59904">
        <ele>320.7</ele>
        <time>2022-05-03T12:43:11Z</time>
      </trkpt>
      <trkpt lat="46.65301" lon="5.5991">
        <ele>321.3</ele>
        <time>2022-05-03T12:43:15Z</time>
      </trkpt>
      <trkpt lat="46.65298" lon="5.59916">
        <ele>322.2</ele>
        <time>2022-05-03T12:43:19Z</time>
      </trkpt>
      <trkpt lat="46.65294" lon="5.59917">
        <ele>324.3</ele>
        <time>2022-05-03T12:43:25Z</time>
      </trkpt>
      <trkpt lat="46.65289" lon="5.59917">
        <ele>325.4</ele>
        <time>2022-05-03T12:43:30Z</time>
      </trkpt>
      <trkpt lat="46.6529" lon="5.59923">
        <ele>323.9</ele>
        <time>2022-05-03T12:43:35Z</time>
      </trkpt>
      <trkpt lat="46.6529" lon="5.5993">
        <ele>323</ele>
        <time>2022-05-03T12:43:39Z</time>
      </trkpt>
      <trkpt lat="46.65286" lon="5.59932">
        <ele>321.7</ele>
        <time>2022-05-03T12:43:48Z</time>
      </trkpt>
      <trkpt lat="46.65281" lon="5.59934">
        <ele>320.9</ele>
        <time>2022-05-03T12:43:54Z</time>
      </trkpt>
      <trkpt lat="46.65277" lon="5.59939">
        <ele>320.7</ele>
        <time>2022-05-03T12:43:59Z</time>
      </trkpt>
      <trkpt lat="46.65273" lon="5.59945">
        <ele>320.9</ele>
        <time>2022-05-03T12:44:03Z</time>
      </trkpt>
      <trkpt lat="46.65271" lon="5.59951">
        <ele>321.5</ele>
        <time>2022-05-03T12:44:06Z</time>
      </trkpt>
      <trkpt lat="46.65269" lon="5.59958">
        <ele>322.3</ele>
        <time>2022-05-03T12:44:10Z</time>
      </trkpt>
      <trkpt lat="46.65266" lon="5.59965">
        <ele>322.9</ele>
        <time>2022-05-03T12:44:13Z</time>
      </trkpt>
      <trkpt lat="46.65266" lon="5.59972">
        <ele>323.7</ele>
        <time>2022-05-03T12:44:18Z</time>
      </trkpt>
    </trkseg>
  </trk>
</gpx>